<?xml version="1.0" encoding="UTF-8" standalone="no" ?>
<gpx xmlns="http://www.topografix.com/GPX/1/1" xmlns:xsi="http://www.w3.org/2001/XMLSchema-instance" xsi:schemaLocation="http://www.topografix.com/GPX/1/1 http://www.topografix.com/GPX/1/1/gpx.xsd" version="1.1" creator="VisuGPX - https://www.visugpx.com">
  <metadata>
    <name>Le Teil VTT</name>
  </metadata>
  <trk>
    <name><![CDATA[Le Teil VTT]]></name>
    <trkseg>
      <trkpt lat="44.54765" lon="4.68887">
        <ele>72.800003051758</ele>
        <time>2020-06-14T12:14:02.000Z</time>
      </trkpt>
      <trkpt lat="44.54765" lon="4.68887">
        <ele>72.800003051758</ele>
        <time>2020-06-14T12:14:03.000Z</time>
      </trkpt>
      <trkpt lat="44.54765" lon="4.68889">
        <ele>73</ele>
        <time>2020-06-14T12:14:15.000Z</time>
      </trkpt>
      <trkpt lat="44.54767" lon="4.68891">
        <ele>72.800003051758</ele>
        <time>2020-06-14T12:14:17.000Z</time>
      </trkpt>
      <trkpt lat="44.54774" lon="4.68886">
        <ele>72.599998474121</ele>
        <time>2020-06-14T12:14:21.000Z</time>
      </trkpt>
      <trkpt lat="44.54783" lon="4.68885">
        <ele>72.599998474121</ele>
        <time>2020-06-14T12:14:25.000Z</time>
      </trkpt>
      <trkpt lat="44.54782" lon="4.68894">
        <ele>72.599998474121</ele>
        <time>2020-06-14T12:14:28.000Z</time>
      </trkpt>
      <trkpt lat="44.54774" lon="4.68904">
        <ele>72.800003051758</ele>
        <time>2020-06-14T12:14:33.000Z</time>
      </trkpt>
      <trkpt lat="44.54766" lon="4.68912">
        <ele>74.199996948242</ele>
        <time>2020-06-14T12:14:37.000Z</time>
      </trkpt>
      <trkpt lat="44.54763" lon="4.68912">
        <ele>74.599998474121</ele>
        <time>2020-06-14T12:14:38.000Z</time>
      </trkpt>
      <trkpt lat="44.54754" lon="4.68912">
        <ele>75.400001525879</ele>
        <time>2020-06-14T12:14:41.000Z</time>
      </trkpt>
      <trkpt lat="44.54747" lon="4.68912">
        <ele>75.599998474121</ele>
        <time>2020-06-14T12:14:43.000Z</time>
      </trkpt>
      <trkpt lat="44.54719" lon="4.68912">
        <ele>75.599998474121</ele>
        <time>2020-06-14T12:14:51.000Z</time>
      </trkpt>
      <trkpt lat="44.54694" lon="4.68912">
        <ele>75.400001525879</ele>
        <time>2020-06-14T12:14:58.000Z</time>
      </trkpt>
      <trkpt lat="44.54663" lon="4.68913">
        <ele>75.599998474121</ele>
        <time>2020-06-14T12:15:07.000Z</time>
      </trkpt>
      <trkpt lat="44.54633" lon="4.68915">
        <ele>75.800003051758</ele>
        <time>2020-06-14T12:15:15.000Z</time>
      </trkpt>
      <trkpt lat="44.54597" lon="4.68919">
        <ele>75.599998474121</ele>
        <time>2020-06-14T12:15:24.000Z</time>
      </trkpt>
      <trkpt lat="44.54557" lon="4.68926">
        <ele>75.599998474121</ele>
        <time>2020-06-14T12:15:34.000Z</time>
      </trkpt>
      <trkpt lat="44.54518" lon="4.68934">
        <ele>75.400001525879</ele>
        <time>2020-06-14T12:15:44.000Z</time>
      </trkpt>
      <trkpt lat="44.54484" lon="4.68947">
        <ele>75.400001525879</ele>
        <time>2020-06-14T12:15:53.000Z</time>
      </trkpt>
      <trkpt lat="44.54465" lon="4.68954">
        <ele>75</ele>
        <time>2020-06-14T12:15:58.000Z</time>
      </trkpt>
      <trkpt lat="44.54454" lon="4.68957">
        <ele>75</ele>
        <time>2020-06-14T12:16:01.000Z</time>
      </trkpt>
      <trkpt lat="44.54446" lon="4.68956">
        <ele>75</ele>
        <time>2020-06-14T12:16:03.000Z</time>
      </trkpt>
      <trkpt lat="44.54435" lon="4.68954">
        <ele>74.800003051758</ele>
        <time>2020-06-14T12:16:06.000Z</time>
      </trkpt>
      <trkpt lat="44.54423" lon="4.68949">
        <ele>74.800003051758</ele>
        <time>2020-06-14T12:16:09.000Z</time>
      </trkpt>
      <trkpt lat="44.54412" lon="4.68945">
        <ele>74.800003051758</ele>
        <time>2020-06-14T12:16:13.000Z</time>
      </trkpt>
      <trkpt lat="44.54407" lon="4.68939">
        <ele>74.800003051758</ele>
        <time>2020-06-14T12:16:17.000Z</time>
      </trkpt>
      <trkpt lat="44.54405" lon="4.68931">
        <ele>74.800003051758</ele>
        <time>2020-06-14T12:16:19.000Z</time>
      </trkpt>
      <trkpt lat="44.54401" lon="4.6891">
        <ele>75</ele>
        <time>2020-06-14T12:16:23.000Z</time>
      </trkpt>
      <trkpt lat="44.54396" lon="4.68878">
        <ele>75</ele>
        <time>2020-06-14T12:16:29.000Z</time>
      </trkpt>
      <trkpt lat="44.54391" lon="4.68841">
        <ele>75.199996948242</ele>
        <time>2020-06-14T12:16:36.000Z</time>
      </trkpt>
      <trkpt lat="44.54383" lon="4.68816">
        <ele>75.400001525879</ele>
        <time>2020-06-14T12:16:42.000Z</time>
      </trkpt>
      <trkpt lat="44.54372" lon="4.6879">
        <ele>75.400001525879</ele>
        <time>2020-06-14T12:16:46.000Z</time>
      </trkpt>
      <trkpt lat="44.54368" lon="4.68783">
        <ele>75.400001525879</ele>
        <time>2020-06-14T12:16:47.000Z</time>
      </trkpt>
      <trkpt lat="44.54352" lon="4.68762">
        <ele>75.400001525879</ele>
        <time>2020-06-14T12:16:51.000Z</time>
      </trkpt>
      <trkpt lat="44.54348" lon="4.68757">
        <ele>75</ele>
        <time>2020-06-14T12:16:52.000Z</time>
      </trkpt>
      <trkpt lat="44.54342" lon="4.68745">
        <ele>74.199996948242</ele>
        <time>2020-06-14T12:16:54.000Z</time>
      </trkpt>
      <trkpt lat="44.5434" lon="4.68739">
        <ele>73.599998474121</ele>
        <time>2020-06-14T12:16:55.000Z</time>
      </trkpt>
      <trkpt lat="44.54339" lon="4.68732">
        <ele>73.400001525879</ele>
        <time>2020-06-14T12:16:56.000Z</time>
      </trkpt>
      <trkpt lat="44.54337" lon="4.68726">
        <ele>73.400001525879</ele>
        <time>2020-06-14T12:16:57.000Z</time>
      </trkpt>
      <trkpt lat="44.54332" lon="4.68694">
        <ele>73</ele>
        <time>2020-06-14T12:17:02.000Z</time>
      </trkpt>
      <trkpt lat="44.54328" lon="4.6867">
        <ele>73.400001525879</ele>
        <time>2020-06-14T12:17:07.000Z</time>
      </trkpt>
      <trkpt lat="44.54324" lon="4.6865">
        <ele>74.199996948242</ele>
        <time>2020-06-14T12:17:13.000Z</time>
      </trkpt>
      <trkpt lat="44.54323" lon="4.68646">
        <ele>74.400001525879</ele>
        <time>2020-06-14T12:17:14.000Z</time>
      </trkpt>
      <trkpt lat="44.54324" lon="4.68642">
        <ele>74.800003051758</ele>
        <time>2020-06-14T12:17:15.000Z</time>
      </trkpt>
      <trkpt lat="44.54328" lon="4.68635">
        <ele>75.400001525879</ele>
        <time>2020-06-14T12:17:17.000Z</time>
      </trkpt>
      <trkpt lat="44.54331" lon="4.68632">
        <ele>75.599998474121</ele>
        <time>2020-06-14T12:17:18.000Z</time>
      </trkpt>
      <trkpt lat="44.54337" lon="4.68627">
        <ele>75.800003051758</ele>
        <time>2020-06-14T12:17:20.000Z</time>
      </trkpt>
      <trkpt lat="44.54347" lon="4.68618">
        <ele>75.800003051758</ele>
        <time>2020-06-14T12:17:23.000Z</time>
      </trkpt>
      <trkpt lat="44.5438" lon="4.68584">
        <ele>75.599998474121</ele>
        <time>2020-06-14T12:17:33.000Z</time>
      </trkpt>
      <trkpt lat="44.54402" lon="4.68562">
        <ele>76.599998474121</ele>
        <time>2020-06-14T12:17:39.000Z</time>
      </trkpt>
      <trkpt lat="44.54405" lon="4.68557">
        <ele>77</ele>
        <time>2020-06-14T12:17:40.000Z</time>
      </trkpt>
      <trkpt lat="44.54407" lon="4.68551">
        <ele>77.199996948242</ele>
        <time>2020-06-14T12:17:41.000Z</time>
      </trkpt>
      <trkpt lat="44.54408" lon="4.68532">
        <ele>77.800003051758</ele>
        <time>2020-06-14T12:17:44.000Z</time>
      </trkpt>
      <trkpt lat="44.54407" lon="4.68526">
        <ele>77.800003051758</ele>
        <time>2020-06-14T12:17:45.000Z</time>
      </trkpt>
      <trkpt lat="44.54404" lon="4.68514">
        <ele>78</ele>
        <time>2020-06-14T12:17:47.000Z</time>
      </trkpt>
      <trkpt lat="44.54399" lon="4.68497">
        <ele>78.199996948242</ele>
        <time>2020-06-14T12:17:50.000Z</time>
      </trkpt>
      <trkpt lat="44.54395" lon="4.68486">
        <ele>78.400001525879</ele>
        <time>2020-06-14T12:17:52.000Z</time>
      </trkpt>
      <trkpt lat="44.54393" lon="4.68481">
        <ele>78.400001525879</ele>
        <time>2020-06-14T12:17:53.000Z</time>
      </trkpt>
      <trkpt lat="44.54383" lon="4.68456">
        <ele>78.400001525879</ele>
        <time>2020-06-14T12:17:58.000Z</time>
      </trkpt>
      <trkpt lat="44.54381" lon="4.68451">
        <ele>78.400001525879</ele>
        <time>2020-06-14T12:17:59.000Z</time>
      </trkpt>
      <trkpt lat="44.54368" lon="4.68427">
        <ele>78.800003051758</ele>
        <time>2020-06-14T12:18:04.000Z</time>
      </trkpt>
      <trkpt lat="44.54365" lon="4.68422">
        <ele>78.800003051758</ele>
        <time>2020-06-14T12:18:05.000Z</time>
      </trkpt>
      <trkpt lat="44.54347" lon="4.68389">
        <ele>79</ele>
        <time>2020-06-14T12:18:12.000Z</time>
      </trkpt>
      <trkpt lat="44.54339" lon="4.68366">
        <ele>79</ele>
        <time>2020-06-14T12:18:17.000Z</time>
      </trkpt>
      <trkpt lat="44.54347" lon="4.68347">
        <ele>79.199996948242</ele>
        <time>2020-06-14T12:18:21.000Z</time>
      </trkpt>
      <trkpt lat="44.54364" lon="4.68313">
        <ele>79.199996948242</ele>
        <time>2020-06-14T12:18:28.000Z</time>
      </trkpt>
      <trkpt lat="44.54371" lon="4.68287">
        <ele>79.199996948242</ele>
        <time>2020-06-14T12:18:33.000Z</time>
      </trkpt>
      <trkpt lat="44.5437" lon="4.68282">
        <ele>79.199996948242</ele>
        <time>2020-06-14T12:18:34.000Z</time>
      </trkpt>
      <trkpt lat="44.54356" lon="4.68263">
        <ele>79.199996948242</ele>
        <time>2020-06-14T12:18:39.000Z</time>
      </trkpt>
      <trkpt lat="44.54343" lon="4.68241">
        <ele>79.199996948242</ele>
        <time>2020-06-14T12:18:45.000Z</time>
      </trkpt>
      <trkpt lat="44.54341" lon="4.68238">
        <ele>79.400001525879</ele>
        <time>2020-06-14T12:18:47.000Z</time>
      </trkpt>
      <trkpt lat="44.5434" lon="4.68238">
        <ele>79.599998474121</ele>
        <time>2020-06-14T12:18:49.000Z</time>
      </trkpt>
      <trkpt lat="44.5434" lon="4.68236">
        <ele>80.400001525879</ele>
        <time>2020-06-14T12:18:56.000Z</time>
      </trkpt>
      <trkpt lat="44.54339" lon="4.68235">
        <ele>80.599998474121</ele>
        <time>2020-06-14T12:18:57.000Z</time>
      </trkpt>
      <trkpt lat="44.54337" lon="4.68234">
        <ele>80.599998474121</ele>
        <time>2020-06-14T12:18:58.000Z</time>
      </trkpt>
      <trkpt lat="44.54333" lon="4.68237">
        <ele>80.800003051758</ele>
        <time>2020-06-14T12:19:00.000Z</time>
      </trkpt>
      <trkpt lat="44.54325" lon="4.68241">
        <ele>80.800003051758</ele>
        <time>2020-06-14T12:19:03.000Z</time>
      </trkpt>
      <trkpt lat="44.54307" lon="4.68254">
        <ele>81</ele>
        <time>2020-06-14T12:19:10.000Z</time>
      </trkpt>
      <trkpt lat="44.54291" lon="4.68266">
        <ele>81.800003051758</ele>
        <time>2020-06-14T12:19:16.000Z</time>
      </trkpt>
      <trkpt lat="44.54268" lon="4.68281">
        <ele>82.599998474121</ele>
        <time>2020-06-14T12:19:24.000Z</time>
      </trkpt>
      <trkpt lat="44.54265" lon="4.68283">
        <ele>82.800003051758</ele>
        <time>2020-06-14T12:19:25.000Z</time>
      </trkpt>
      <trkpt lat="44.54248" lon="4.68294">
        <ele>83.599998474121</ele>
        <time>2020-06-14T12:19:31.000Z</time>
      </trkpt>
      <trkpt lat="44.54243" lon="4.68298">
        <ele>83.599998474121</ele>
        <time>2020-06-14T12:19:33.000Z</time>
      </trkpt>
      <trkpt lat="44.54233" lon="4.68296">
        <ele>83.800003051758</ele>
        <time>2020-06-14T12:19:36.000Z</time>
      </trkpt>
      <trkpt lat="44.5423" lon="4.68293">
        <ele>83.800003051758</ele>
        <time>2020-06-14T12:19:37.000Z</time>
      </trkpt>
      <trkpt lat="44.54219" lon="4.68277">
        <ele>83.800003051758</ele>
        <time>2020-06-14T12:19:40.000Z</time>
      </trkpt>
      <trkpt lat="44.54183" lon="4.6823">
        <ele>83</ele>
        <time>2020-06-14T12:19:48.000Z</time>
      </trkpt>
      <trkpt lat="44.54174" lon="4.68218">
        <ele>82.199996948242</ele>
        <time>2020-06-14T12:19:50.000Z</time>
      </trkpt>
      <trkpt lat="44.54156" lon="4.68191">
        <ele>81.199996948242</ele>
        <time>2020-06-14T12:19:55.000Z</time>
      </trkpt>
      <trkpt lat="44.54139" lon="4.68153">
        <ele>81.199996948242</ele>
        <time>2020-06-14T12:20:01.000Z</time>
      </trkpt>
      <trkpt lat="44.54135" lon="4.68147">
        <ele>81</ele>
        <time>2020-06-14T12:20:02.000Z</time>
      </trkpt>
      <trkpt lat="44.54129" lon="4.68136">
        <ele>80.800003051758</ele>
        <time>2020-06-14T12:20:04.000Z</time>
      </trkpt>
      <trkpt lat="44.54125" lon="4.68116">
        <ele>81</ele>
        <time>2020-06-14T12:20:07.000Z</time>
      </trkpt>
      <trkpt lat="44.54125" lon="4.6811">
        <ele>81</ele>
        <time>2020-06-14T12:20:08.000Z</time>
      </trkpt>
      <trkpt lat="44.54121" lon="4.68065">
        <ele>81.599998474121</ele>
        <time>2020-06-14T12:20:15.000Z</time>
      </trkpt>
      <trkpt lat="44.54123" lon="4.68026">
        <ele>82</ele>
        <time>2020-06-14T12:20:21.000Z</time>
      </trkpt>
      <trkpt lat="44.54123" lon="4.6802">
        <ele>82</ele>
        <time>2020-06-14T12:20:22.000Z</time>
      </trkpt>
      <trkpt lat="44.54132" lon="4.67976">
        <ele>82.199996948242</ele>
        <time>2020-06-14T12:20:29.000Z</time>
      </trkpt>
      <trkpt lat="44.54142" lon="4.67932">
        <ele>82.400001525879</ele>
        <time>2020-06-14T12:20:37.000Z</time>
      </trkpt>
      <trkpt lat="44.54153" lon="4.67902">
        <ele>83</ele>
        <time>2020-06-14T12:20:43.000Z</time>
      </trkpt>
      <trkpt lat="44.54158" lon="4.67894">
        <ele>83.400001525879</ele>
        <time>2020-06-14T12:20:45.000Z</time>
      </trkpt>
      <trkpt lat="44.54166" lon="4.67881">
        <ele>84</ele>
        <time>2020-06-14T12:20:48.000Z</time>
      </trkpt>
      <trkpt lat="44.54184" lon="4.67858">
        <ele>84.599998474121</ele>
        <time>2020-06-14T12:20:54.000Z</time>
      </trkpt>
      <trkpt lat="44.54202" lon="4.67841">
        <ele>85</ele>
        <time>2020-06-14T12:21:00.000Z</time>
      </trkpt>
      <trkpt lat="44.54205" lon="4.67839">
        <ele>85</ele>
        <time>2020-06-14T12:21:01.000Z</time>
      </trkpt>
      <trkpt lat="44.5422" lon="4.67823">
        <ele>85.199996948242</ele>
        <time>2020-06-14T12:21:06.000Z</time>
      </trkpt>
      <trkpt lat="44.54218" lon="4.67809">
        <ele>85.599998474121</ele>
        <time>2020-06-14T12:21:09.000Z</time>
      </trkpt>
      <trkpt lat="44.54215" lon="4.67794">
        <ele>85.800003051758</ele>
        <time>2020-06-14T12:21:12.000Z</time>
      </trkpt>
      <trkpt lat="44.54214" lon="4.67785">
        <ele>86</ele>
        <time>2020-06-14T12:21:14.000Z</time>
      </trkpt>
      <trkpt lat="44.54214" lon="4.67781">
        <ele>86.199996948242</ele>
        <time>2020-06-14T12:21:15.000Z</time>
      </trkpt>
      <trkpt lat="44.54216" lon="4.67752">
        <ele>86.599998474121</ele>
        <time>2020-06-14T12:21:21.000Z</time>
      </trkpt>
      <trkpt lat="44.54216" lon="4.67743">
        <ele>87</ele>
        <time>2020-06-14T12:21:23.000Z</time>
      </trkpt>
      <trkpt lat="44.54213" lon="4.67707">
        <ele>87.400001525879</ele>
        <time>2020-06-14T12:21:30.000Z</time>
      </trkpt>
      <trkpt lat="44.54209" lon="4.67654">
        <ele>87</ele>
        <time>2020-06-14T12:21:40.000Z</time>
      </trkpt>
      <trkpt lat="44.54205" lon="4.67616">
        <ele>87.599998474121</ele>
        <time>2020-06-14T12:21:47.000Z</time>
      </trkpt>
      <trkpt lat="44.54205" lon="4.67604">
        <ele>87.800003051758</ele>
        <time>2020-06-14T12:21:49.000Z</time>
      </trkpt>
      <trkpt lat="44.54198" lon="4.67571">
        <ele>88.199996948242</ele>
        <time>2020-06-14T12:21:55.000Z</time>
      </trkpt>
      <trkpt lat="44.54185" lon="4.67542">
        <ele>88.400001525879</ele>
        <time>2020-06-14T12:22:01.000Z</time>
      </trkpt>
      <trkpt lat="44.54177" lon="4.67529">
        <ele>88.400001525879</ele>
        <time>2020-06-14T12:22:04.000Z</time>
      </trkpt>
      <trkpt lat="44.54165" lon="4.67514">
        <ele>88.599998474121</ele>
        <time>2020-06-14T12:22:08.000Z</time>
      </trkpt>
      <trkpt lat="44.54157" lon="4.67501">
        <ele>88.800003051758</ele>
        <time>2020-06-14T12:22:11.000Z</time>
      </trkpt>
      <trkpt lat="44.5415" lon="4.67488">
        <ele>89</ele>
        <time>2020-06-14T12:22:14.000Z</time>
      </trkpt>
      <trkpt lat="44.54148" lon="4.67483">
        <ele>89.400001525879</ele>
        <time>2020-06-14T12:22:15.000Z</time>
      </trkpt>
      <trkpt lat="44.54146" lon="4.67478">
        <ele>89.800003051758</ele>
        <time>2020-06-14T12:22:16.000Z</time>
      </trkpt>
      <trkpt lat="44.54144" lon="4.67473">
        <ele>90</ele>
        <time>2020-06-14T12:22:17.000Z</time>
      </trkpt>
      <trkpt lat="44.54139" lon="4.67463">
        <ele>90.400001525879</ele>
        <time>2020-06-14T12:22:19.000Z</time>
      </trkpt>
      <trkpt lat="44.54121" lon="4.67426">
        <ele>90.800003051758</ele>
        <time>2020-06-14T12:22:27.000Z</time>
      </trkpt>
      <trkpt lat="44.54117" lon="4.67417">
        <ele>91</ele>
        <time>2020-06-14T12:22:29.000Z</time>
      </trkpt>
      <trkpt lat="44.54102" lon="4.67385">
        <ele>91.599998474121</ele>
        <time>2020-06-14T12:22:36.000Z</time>
      </trkpt>
      <trkpt lat="44.54098" lon="4.67375">
        <ele>91.599998474121</ele>
        <time>2020-06-14T12:22:38.000Z</time>
      </trkpt>
      <trkpt lat="44.54087" lon="4.6735">
        <ele>91.800003051758</ele>
        <time>2020-06-14T12:22:44.000Z</time>
      </trkpt>
      <trkpt lat="44.54071" lon="4.67326">
        <ele>92.800003051758</ele>
        <time>2020-06-14T12:22:51.000Z</time>
      </trkpt>
      <trkpt lat="44.54068" lon="4.67323">
        <ele>93</ele>
        <time>2020-06-14T12:22:52.000Z</time>
      </trkpt>
      <trkpt lat="44.54058" lon="4.6731">
        <ele>93.800003051758</ele>
        <time>2020-06-14T12:22:56.000Z</time>
      </trkpt>
      <trkpt lat="44.54053" lon="4.67303">
        <ele>94.400001525879</ele>
        <time>2020-06-14T12:22:58.000Z</time>
      </trkpt>
      <trkpt lat="44.5405" lon="4.67296">
        <ele>95</ele>
        <time>2020-06-14T12:23:00.000Z</time>
      </trkpt>
      <trkpt lat="44.54039" lon="4.67271">
        <ele>95.800003051758</ele>
        <time>2020-06-14T12:23:07.000Z</time>
      </trkpt>
      <trkpt lat="44.54038" lon="4.67268">
        <ele>96</ele>
        <time>2020-06-14T12:23:08.000Z</time>
      </trkpt>
      <trkpt lat="44.54028" lon="4.67247">
        <ele>97</ele>
        <time>2020-06-14T12:23:14.000Z</time>
      </trkpt>
      <trkpt lat="44.54024" lon="4.67237">
        <ele>97.599998474121</ele>
        <time>2020-06-14T12:23:17.000Z</time>
      </trkpt>
      <trkpt lat="44.54021" lon="4.67227">
        <ele>98.199996948242</ele>
        <time>2020-06-14T12:23:20.000Z</time>
      </trkpt>
      <trkpt lat="44.54016" lon="4.67215">
        <ele>99.599998474121</ele>
        <time>2020-06-14T12:23:24.000Z</time>
      </trkpt>
      <trkpt lat="44.54013" lon="4.67204">
        <ele>100.19999694824</ele>
        <time>2020-06-14T12:23:28.000Z</time>
      </trkpt>
      <trkpt lat="44.54009" lon="4.67192">
        <ele>100.59999847412</ele>
        <time>2020-06-14T12:23:32.000Z</time>
      </trkpt>
      <trkpt lat="44.54006" lon="4.6718">
        <ele>101.59999847412</ele>
        <time>2020-06-14T12:23:36.000Z</time>
      </trkpt>
      <trkpt lat="44.54004" lon="4.67174">
        <ele>102.59999847412</ele>
        <time>2020-06-14T12:23:38.000Z</time>
      </trkpt>
      <trkpt lat="44.54004" lon="4.67172">
        <ele>102.80000305176</ele>
        <time>2020-06-14T12:23:39.000Z</time>
      </trkpt>
      <trkpt lat="44.53999" lon="4.67153">
        <ele>103.80000305176</ele>
        <time>2020-06-14T12:23:46.000Z</time>
      </trkpt>
      <trkpt lat="44.53998" lon="4.6715">
        <ele>104</ele>
        <time>2020-06-14T12:23:47.000Z</time>
      </trkpt>
      <trkpt lat="44.53998" lon="4.67142">
        <ele>105.40000152588</ele>
        <time>2020-06-14T12:23:50.000Z</time>
      </trkpt>
      <trkpt lat="44.53999" lon="4.67139">
        <ele>106</ele>
        <time>2020-06-14T12:23:51.000Z</time>
      </trkpt>
      <trkpt lat="44.54001" lon="4.67138">
        <ele>106.40000152588</ele>
        <time>2020-06-14T12:23:52.000Z</time>
      </trkpt>
      <trkpt lat="44.54003" lon="4.67135">
        <ele>106.59999847412</ele>
        <time>2020-06-14T12:23:53.000Z</time>
      </trkpt>
      <trkpt lat="44.54005" lon="4.67126">
        <ele>106.80000305176</ele>
        <time>2020-06-14T12:23:55.000Z</time>
      </trkpt>
      <trkpt lat="44.54001" lon="4.67104">
        <ele>106.80000305176</ele>
        <time>2020-06-14T12:23:58.000Z</time>
      </trkpt>
      <trkpt lat="44.54005" lon="4.67091">
        <ele>106.80000305176</ele>
        <time>2020-06-14T12:24:00.000Z</time>
      </trkpt>
      <trkpt lat="44.5402" lon="4.67079">
        <ele>106.80000305176</ele>
        <time>2020-06-14T12:24:03.000Z</time>
      </trkpt>
      <trkpt lat="44.54032" lon="4.67076">
        <ele>106</ele>
        <time>2020-06-14T12:24:05.000Z</time>
      </trkpt>
      <trkpt lat="44.54038" lon="4.67074">
        <ele>105.19999694824</ele>
        <time>2020-06-14T12:24:06.000Z</time>
      </trkpt>
      <trkpt lat="44.54045" lon="4.67073">
        <ele>104.80000305176</ele>
        <time>2020-06-14T12:24:07.000Z</time>
      </trkpt>
      <trkpt lat="44.54059" lon="4.67074">
        <ele>103.59999847412</ele>
        <time>2020-06-14T12:24:09.000Z</time>
      </trkpt>
      <trkpt lat="44.54073" lon="4.6708">
        <ele>102.59999847412</ele>
        <time>2020-06-14T12:24:11.000Z</time>
      </trkpt>
      <trkpt lat="44.54087" lon="4.67084">
        <ele>102.19999694824</ele>
        <time>2020-06-14T12:24:13.000Z</time>
      </trkpt>
      <trkpt lat="44.54093" lon="4.67085">
        <ele>101.80000305176</ele>
        <time>2020-06-14T12:24:14.000Z</time>
      </trkpt>
      <trkpt lat="44.54097" lon="4.67084">
        <ele>100.19999694824</ele>
        <time>2020-06-14T12:24:15.000Z</time>
      </trkpt>
      <trkpt lat="44.54103" lon="4.67072">
        <ele>99.199996948242</ele>
        <time>2020-06-14T12:24:17.000Z</time>
      </trkpt>
      <trkpt lat="44.54105" lon="4.67066">
        <ele>99</ele>
        <time>2020-06-14T12:24:18.000Z</time>
      </trkpt>
      <trkpt lat="44.54106" lon="4.67059">
        <ele>98.800003051758</ele>
        <time>2020-06-14T12:24:19.000Z</time>
      </trkpt>
      <trkpt lat="44.54107" lon="4.67053">
        <ele>98.599998474121</ele>
        <time>2020-06-14T12:24:20.000Z</time>
      </trkpt>
      <trkpt lat="44.54111" lon="4.67041">
        <ele>98.400001525879</ele>
        <time>2020-06-14T12:24:22.000Z</time>
      </trkpt>
      <trkpt lat="44.54129" lon="4.66991">
        <ele>98.400001525879</ele>
        <time>2020-06-14T12:24:31.000Z</time>
      </trkpt>
      <trkpt lat="44.54131" lon="4.66987">
        <ele>98.599998474121</ele>
        <time>2020-06-14T12:24:32.000Z</time>
      </trkpt>
      <trkpt lat="44.54141" lon="4.66967">
        <ele>98.599998474121</ele>
        <time>2020-06-14T12:24:36.000Z</time>
      </trkpt>
      <trkpt lat="44.54144" lon="4.66963">
        <ele>98.800003051758</ele>
        <time>2020-06-14T12:24:37.000Z</time>
      </trkpt>
      <trkpt lat="44.54151" lon="4.66954">
        <ele>99.199996948242</ele>
        <time>2020-06-14T12:24:39.000Z</time>
      </trkpt>
      <trkpt lat="44.54155" lon="4.66944">
        <ele>99.199996948242</ele>
        <time>2020-06-14T12:24:41.000Z</time>
      </trkpt>
      <trkpt lat="44.54159" lon="4.66934">
        <ele>99.400001525879</ele>
        <time>2020-06-14T12:24:43.000Z</time>
      </trkpt>
      <trkpt lat="44.54162" lon="4.66923">
        <ele>99.400001525879</ele>
        <time>2020-06-14T12:24:45.000Z</time>
      </trkpt>
      <trkpt lat="44.54165" lon="4.66907">
        <ele>99.400001525879</ele>
        <time>2020-06-14T12:24:48.000Z</time>
      </trkpt>
      <trkpt lat="44.54171" lon="4.66875">
        <ele>99.400001525879</ele>
        <time>2020-06-14T12:24:54.000Z</time>
      </trkpt>
      <trkpt lat="44.54183" lon="4.66841">
        <ele>99.400001525879</ele>
        <time>2020-06-14T12:25:01.000Z</time>
      </trkpt>
      <trkpt lat="44.5419" lon="4.66818">
        <ele>99.800003051758</ele>
        <time>2020-06-14T12:25:06.000Z</time>
      </trkpt>
      <trkpt lat="44.54191" lon="4.66813">
        <ele>100</ele>
        <time>2020-06-14T12:25:07.000Z</time>
      </trkpt>
      <trkpt lat="44.5419" lon="4.66789">
        <ele>101</ele>
        <time>2020-06-14T12:25:12.000Z</time>
      </trkpt>
      <trkpt lat="44.54189" lon="4.6678">
        <ele>101.80000305176</ele>
        <time>2020-06-14T12:25:14.000Z</time>
      </trkpt>
      <trkpt lat="44.54187" lon="4.6677">
        <ele>102.19999694824</ele>
        <time>2020-06-14T12:25:16.000Z</time>
      </trkpt>
      <trkpt lat="44.54185" lon="4.66753">
        <ele>102.40000152588</ele>
        <time>2020-06-14T12:25:20.000Z</time>
      </trkpt>
      <trkpt lat="44.5419" lon="4.66738">
        <ele>102.80000305176</ele>
        <time>2020-06-14T12:25:24.000Z</time>
      </trkpt>
      <trkpt lat="44.54192" lon="4.66733">
        <ele>103</ele>
        <time>2020-06-14T12:25:25.000Z</time>
      </trkpt>
      <trkpt lat="44.54192" lon="4.66728">
        <ele>103.19999694824</ele>
        <time>2020-06-14T12:25:26.000Z</time>
      </trkpt>
      <trkpt lat="44.54191" lon="4.66722">
        <ele>103.40000152588</ele>
        <time>2020-06-14T12:25:27.000Z</time>
      </trkpt>
      <trkpt lat="44.54179" lon="4.66691">
        <ele>103.80000305176</ele>
        <time>2020-06-14T12:25:33.000Z</time>
      </trkpt>
      <trkpt lat="44.54173" lon="4.66669">
        <ele>104</ele>
        <time>2020-06-14T12:25:37.000Z</time>
      </trkpt>
      <trkpt lat="44.54168" lon="4.66647">
        <ele>104</ele>
        <time>2020-06-14T12:25:41.000Z</time>
      </trkpt>
      <trkpt lat="44.54157" lon="4.66599">
        <ele>104.19999694824</ele>
        <time>2020-06-14T12:25:50.000Z</time>
      </trkpt>
      <trkpt lat="44.54151" lon="4.66575">
        <ele>104.80000305176</ele>
        <time>2020-06-14T12:25:55.000Z</time>
      </trkpt>
      <trkpt lat="44.54148" lon="4.66561">
        <ele>105.19999694824</ele>
        <time>2020-06-14T12:25:58.000Z</time>
      </trkpt>
      <trkpt lat="44.54141" lon="4.66534">
        <ele>105.80000305176</ele>
        <time>2020-06-14T12:26:04.000Z</time>
      </trkpt>
      <trkpt lat="44.54139" lon="4.66525">
        <ele>106</ele>
        <time>2020-06-14T12:26:06.000Z</time>
      </trkpt>
      <trkpt lat="44.54128" lon="4.66495">
        <ele>107</ele>
        <time>2020-06-14T12:26:14.000Z</time>
      </trkpt>
      <trkpt lat="44.5412" lon="4.66482">
        <ele>108.19999694824</ele>
        <time>2020-06-14T12:26:19.000Z</time>
      </trkpt>
      <trkpt lat="44.54114" lon="4.66473">
        <ele>109.19999694824</ele>
        <time>2020-06-14T12:26:23.000Z</time>
      </trkpt>
      <trkpt lat="44.54113" lon="4.6647">
        <ele>109.59999847412</ele>
        <time>2020-06-14T12:26:24.000Z</time>
      </trkpt>
      <trkpt lat="44.54106" lon="4.66462">
        <ele>110.40000152588</ele>
        <time>2020-06-14T12:26:28.000Z</time>
      </trkpt>
      <trkpt lat="44.54101" lon="4.66456">
        <ele>111</ele>
        <time>2020-06-14T12:26:31.000Z</time>
      </trkpt>
      <trkpt lat="44.54098" lon="4.66451">
        <ele>111.19999694824</ele>
        <time>2020-06-14T12:26:33.000Z</time>
      </trkpt>
      <trkpt lat="44.54094" lon="4.66438">
        <ele>112.19999694824</ele>
        <time>2020-06-14T12:26:38.000Z</time>
      </trkpt>
      <trkpt lat="44.54093" lon="4.66435">
        <ele>112.59999847412</ele>
        <time>2020-06-14T12:26:39.000Z</time>
      </trkpt>
      <trkpt lat="44.54094" lon="4.66433">
        <ele>112.80000305176</ele>
        <time>2020-06-14T12:26:40.000Z</time>
      </trkpt>
      <trkpt lat="44.54097" lon="4.6643">
        <ele>113.19999694824</ele>
        <time>2020-06-14T12:26:42.000Z</time>
      </trkpt>
      <trkpt lat="44.54103" lon="4.66429">
        <ele>113.80000305176</ele>
        <time>2020-06-14T12:26:45.000Z</time>
      </trkpt>
      <trkpt lat="44.54114" lon="4.66426">
        <ele>114.80000305176</ele>
        <time>2020-06-14T12:26:50.000Z</time>
      </trkpt>
      <trkpt lat="44.5412" lon="4.66424">
        <ele>115</ele>
        <time>2020-06-14T12:26:53.000Z</time>
      </trkpt>
      <trkpt lat="44.54132" lon="4.66421">
        <ele>115.59999847412</ele>
        <time>2020-06-14T12:26:59.000Z</time>
      </trkpt>
      <trkpt lat="44.54138" lon="4.6642">
        <ele>117</ele>
        <time>2020-06-14T12:27:02.000Z</time>
      </trkpt>
      <trkpt lat="44.5414" lon="4.6642">
        <ele>117.19999694824</ele>
        <time>2020-06-14T12:27:03.000Z</time>
      </trkpt>
      <trkpt lat="44.54148" lon="4.66417">
        <ele>118</ele>
        <time>2020-06-14T12:27:07.000Z</time>
      </trkpt>
      <trkpt lat="44.54151" lon="4.66414">
        <ele>118.59999847412</ele>
        <time>2020-06-14T12:27:09.000Z</time>
      </trkpt>
      <trkpt lat="44.54152" lon="4.66409">
        <ele>118.80000305176</ele>
        <time>2020-06-14T12:27:11.000Z</time>
      </trkpt>
      <trkpt lat="44.5415" lon="4.66406">
        <ele>119.19999694824</ele>
        <time>2020-06-14T12:27:13.000Z</time>
      </trkpt>
      <trkpt lat="44.54142" lon="4.66402">
        <ele>120.40000152588</ele>
        <time>2020-06-14T12:27:17.000Z</time>
      </trkpt>
      <trkpt lat="44.5414" lon="4.66401">
        <ele>120.59999847412</ele>
        <time>2020-06-14T12:27:18.000Z</time>
      </trkpt>
      <trkpt lat="44.54137" lon="4.664">
        <ele>121</ele>
        <time>2020-06-14T12:27:20.000Z</time>
      </trkpt>
      <trkpt lat="44.54133" lon="4.66399">
        <ele>121.59999847412</ele>
        <time>2020-06-14T12:27:22.000Z</time>
      </trkpt>
      <trkpt lat="44.54124" lon="4.66394">
        <ele>122.80000305176</ele>
        <time>2020-06-14T12:27:27.000Z</time>
      </trkpt>
      <trkpt lat="44.54121" lon="4.6639">
        <ele>123.19999694824</ele>
        <time>2020-06-14T12:27:29.000Z</time>
      </trkpt>
      <trkpt lat="44.54118" lon="4.66387">
        <ele>123.80000305176</ele>
        <time>2020-06-14T12:27:31.000Z</time>
      </trkpt>
      <trkpt lat="44.54111" lon="4.66377">
        <ele>125</ele>
        <time>2020-06-14T12:27:36.000Z</time>
      </trkpt>
      <trkpt lat="44.54109" lon="4.66374">
        <ele>125.59999847412</ele>
        <time>2020-06-14T12:27:38.000Z</time>
      </trkpt>
      <trkpt lat="44.54106" lon="4.6637">
        <ele>126.19999694824</ele>
        <time>2020-06-14T12:27:40.000Z</time>
      </trkpt>
      <trkpt lat="44.54098" lon="4.66364">
        <ele>127.40000152588</ele>
        <time>2020-06-14T12:27:45.000Z</time>
      </trkpt>
      <trkpt lat="44.54096" lon="4.66363">
        <ele>127.59999847412</ele>
        <time>2020-06-14T12:27:46.000Z</time>
      </trkpt>
      <trkpt lat="44.54089" lon="4.66359">
        <ele>128.60000610352</ele>
        <time>2020-06-14T12:27:50.000Z</time>
      </trkpt>
      <trkpt lat="44.54082" lon="4.66355">
        <ele>129.19999694824</ele>
        <time>2020-06-14T12:27:54.000Z</time>
      </trkpt>
      <trkpt lat="44.54081" lon="4.66353">
        <ele>129.39999389648</ele>
        <time>2020-06-14T12:27:55.000Z</time>
      </trkpt>
      <trkpt lat="44.54072" lon="4.66348">
        <ele>130.60000610352</ele>
        <time>2020-06-14T12:28:00.000Z</time>
      </trkpt>
      <trkpt lat="44.54064" lon="4.66345">
        <ele>131.39999389648</ele>
        <time>2020-06-14T12:28:04.000Z</time>
      </trkpt>
      <trkpt lat="44.54063" lon="4.66344">
        <ele>131.60000610352</ele>
        <time>2020-06-14T12:28:05.000Z</time>
      </trkpt>
      <trkpt lat="44.54056" lon="4.66339">
        <ele>132.80000305176</ele>
        <time>2020-06-14T12:28:09.000Z</time>
      </trkpt>
      <trkpt lat="44.54053" lon="4.66336">
        <ele>133.19999694824</ele>
        <time>2020-06-14T12:28:11.000Z</time>
      </trkpt>
      <trkpt lat="44.54047" lon="4.66331">
        <ele>134</ele>
        <time>2020-06-14T12:28:14.000Z</time>
      </trkpt>
      <trkpt lat="44.54036" lon="4.66319">
        <ele>135</ele>
        <time>2020-06-14T12:28:20.000Z</time>
      </trkpt>
      <trkpt lat="44.5403" lon="4.66306">
        <ele>135.39999389648</ele>
        <time>2020-06-14T12:28:26.000Z</time>
      </trkpt>
      <trkpt lat="44.54027" lon="4.66296">
        <ele>136</ele>
        <time>2020-06-14T12:28:30.000Z</time>
      </trkpt>
      <trkpt lat="44.54026" lon="4.66293">
        <ele>136.19999694824</ele>
        <time>2020-06-14T12:28:31.000Z</time>
      </trkpt>
      <trkpt lat="44.54025" lon="4.66279">
        <ele>137.19999694824</ele>
        <time>2020-06-14T12:28:36.000Z</time>
      </trkpt>
      <trkpt lat="44.54026" lon="4.66274">
        <ele>137.39999389648</ele>
        <time>2020-06-14T12:28:38.000Z</time>
      </trkpt>
      <trkpt lat="44.54029" lon="4.6626">
        <ele>138.19999694824</ele>
        <time>2020-06-14T12:28:43.000Z</time>
      </trkpt>
      <trkpt lat="44.54031" lon="4.66254">
        <ele>138.60000610352</ele>
        <time>2020-06-14T12:28:45.000Z</time>
      </trkpt>
      <trkpt lat="44.54033" lon="4.66237">
        <ele>139.19999694824</ele>
        <time>2020-06-14T12:28:50.000Z</time>
      </trkpt>
      <trkpt lat="44.54034" lon="4.66231">
        <ele>139.60000610352</ele>
        <time>2020-06-14T12:28:52.000Z</time>
      </trkpt>
      <trkpt lat="44.54037" lon="4.66208">
        <ele>140</ele>
        <time>2020-06-14T12:28:58.000Z</time>
      </trkpt>
      <trkpt lat="44.54037" lon="4.66204">
        <ele>140.19999694824</ele>
        <time>2020-06-14T12:28:59.000Z</time>
      </trkpt>
      <trkpt lat="44.5404" lon="4.66185">
        <ele>140.80000305176</ele>
        <time>2020-06-14T12:29:04.000Z</time>
      </trkpt>
      <trkpt lat="44.54041" lon="4.66176">
        <ele>141.19999694824</ele>
        <time>2020-06-14T12:29:06.000Z</time>
      </trkpt>
      <trkpt lat="44.54045" lon="4.66148">
        <ele>141.60000610352</ele>
        <time>2020-06-14T12:29:13.000Z</time>
      </trkpt>
      <trkpt lat="44.54049" lon="4.66119">
        <ele>142.19999694824</ele>
        <time>2020-06-14T12:29:21.000Z</time>
      </trkpt>
      <trkpt lat="44.5405" lon="4.66115">
        <ele>142.39999389648</ele>
        <time>2020-06-14T12:29:22.000Z</time>
      </trkpt>
      <trkpt lat="44.54052" lon="4.66096">
        <ele>143.19999694824</ele>
        <time>2020-06-14T12:29:27.000Z</time>
      </trkpt>
      <trkpt lat="44.54053" lon="4.66092">
        <ele>143.39999389648</ele>
        <time>2020-06-14T12:29:28.000Z</time>
      </trkpt>
      <trkpt lat="44.54055" lon="4.66075">
        <ele>144.19999694824</ele>
        <time>2020-06-14T12:29:32.000Z</time>
      </trkpt>
      <trkpt lat="44.54056" lon="4.66063">
        <ele>145</ele>
        <time>2020-06-14T12:29:35.000Z</time>
      </trkpt>
      <trkpt lat="44.54057" lon="4.66048">
        <ele>145.39999389648</ele>
        <time>2020-06-14T12:29:39.000Z</time>
      </trkpt>
      <trkpt lat="44.54059" lon="4.66029">
        <ele>146.39999389648</ele>
        <time>2020-06-14T12:29:44.000Z</time>
      </trkpt>
      <trkpt lat="44.5406" lon="4.66016">
        <ele>147.19999694824</ele>
        <time>2020-06-14T12:29:48.000Z</time>
      </trkpt>
      <trkpt lat="44.54061" lon="4.66009">
        <ele>147.60000610352</ele>
        <time>2020-06-14T12:29:50.000Z</time>
      </trkpt>
      <trkpt lat="44.54062" lon="4.65999">
        <ele>148.19999694824</ele>
        <time>2020-06-14T12:29:53.000Z</time>
      </trkpt>
      <trkpt lat="44.54066" lon="4.65975">
        <ele>149.39999389648</ele>
        <time>2020-06-14T12:29:59.000Z</time>
      </trkpt>
      <trkpt lat="44.54066" lon="4.65972">
        <ele>149.39999389648</ele>
        <time>2020-06-14T12:30:00.000Z</time>
      </trkpt>
      <trkpt lat="44.54068" lon="4.65957">
        <ele>150.39999389648</ele>
        <time>2020-06-14T12:30:04.000Z</time>
      </trkpt>
      <trkpt lat="44.54069" lon="4.65946">
        <ele>150.80000305176</ele>
        <time>2020-06-14T12:30:07.000Z</time>
      </trkpt>
      <trkpt lat="44.54071" lon="4.6593">
        <ele>151.60000610352</ele>
        <time>2020-06-14T12:30:11.000Z</time>
      </trkpt>
      <trkpt lat="44.54074" lon="4.65905">
        <ele>152.39999389648</ele>
        <time>2020-06-14T12:30:17.000Z</time>
      </trkpt>
      <trkpt lat="44.54074" lon="4.65901">
        <ele>152.60000610352</ele>
        <time>2020-06-14T12:30:18.000Z</time>
      </trkpt>
      <trkpt lat="44.54077" lon="4.65876">
        <ele>153</ele>
        <time>2020-06-14T12:30:24.000Z</time>
      </trkpt>
      <trkpt lat="44.5408" lon="4.65857">
        <ele>153.19999694824</ele>
        <time>2020-06-14T12:30:29.000Z</time>
      </trkpt>
      <trkpt lat="44.54085" lon="4.65816">
        <ele>153.39999389648</ele>
        <time>2020-06-14T12:30:38.000Z</time>
      </trkpt>
      <trkpt lat="44.54083" lon="4.65784">
        <ele>153.60000610352</ele>
        <time>2020-06-14T12:30:45.000Z</time>
      </trkpt>
      <trkpt lat="44.54075" lon="4.65754">
        <ele>154</ele>
        <time>2020-06-14T12:30:52.000Z</time>
      </trkpt>
      <trkpt lat="44.54069" lon="4.65729">
        <ele>154.39999389648</ele>
        <time>2020-06-14T12:30:58.000Z</time>
      </trkpt>
      <trkpt lat="44.54071" lon="4.65708">
        <ele>154.60000610352</ele>
        <time>2020-06-14T12:31:02.000Z</time>
      </trkpt>
      <trkpt lat="44.54072" lon="4.65702">
        <ele>154.60000610352</ele>
        <time>2020-06-14T12:31:03.000Z</time>
      </trkpt>
      <trkpt lat="44.54073" lon="4.6569">
        <ele>154.60000610352</ele>
        <time>2020-06-14T12:31:05.000Z</time>
      </trkpt>
      <trkpt lat="44.54076" lon="4.65672">
        <ele>154.39999389648</ele>
        <time>2020-06-14T12:31:08.000Z</time>
      </trkpt>
      <trkpt lat="44.54079" lon="4.65639">
        <ele>153.80000305176</ele>
        <time>2020-06-14T12:31:13.000Z</time>
      </trkpt>
      <trkpt lat="44.54081" lon="4.65626">
        <ele>153.39999389648</ele>
        <time>2020-06-14T12:31:15.000Z</time>
      </trkpt>
      <trkpt lat="44.54082" lon="4.65619">
        <ele>153.39999389648</ele>
        <time>2020-06-14T12:31:16.000Z</time>
      </trkpt>
      <trkpt lat="44.5409" lon="4.65604">
        <ele>153</ele>
        <time>2020-06-14T12:31:19.000Z</time>
      </trkpt>
      <trkpt lat="44.54095" lon="4.65595">
        <ele>152.80000305176</ele>
        <time>2020-06-14T12:31:21.000Z</time>
      </trkpt>
      <trkpt lat="44.54107" lon="4.65568">
        <ele>152.80000305176</ele>
        <time>2020-06-14T12:31:27.000Z</time>
      </trkpt>
      <trkpt lat="44.54108" lon="4.65551">
        <ele>153</ele>
        <time>2020-06-14T12:31:30.000Z</time>
      </trkpt>
      <trkpt lat="44.54107" lon="4.65545">
        <ele>153</ele>
        <time>2020-06-14T12:31:31.000Z</time>
      </trkpt>
      <trkpt lat="44.54103" lon="4.65529">
        <ele>153.19999694824</ele>
        <time>2020-06-14T12:31:34.000Z</time>
      </trkpt>
      <trkpt lat="44.54101" lon="4.65516">
        <ele>153.19999694824</ele>
        <time>2020-06-14T12:31:36.000Z</time>
      </trkpt>
      <trkpt lat="44.54101" lon="4.65502">
        <ele>153.19999694824</ele>
        <time>2020-06-14T12:31:38.000Z</time>
      </trkpt>
      <trkpt lat="44.54103" lon="4.65468">
        <ele>153</ele>
        <time>2020-06-14T12:31:43.000Z</time>
      </trkpt>
      <trkpt lat="44.54103" lon="4.65455">
        <ele>152</ele>
        <time>2020-06-14T12:31:45.000Z</time>
      </trkpt>
      <trkpt lat="44.54102" lon="4.65426">
        <ele>151.39999389648</ele>
        <time>2020-06-14T12:31:50.000Z</time>
      </trkpt>
      <trkpt lat="44.54104" lon="4.65395">
        <ele>151.39999389648</ele>
        <time>2020-06-14T12:31:56.000Z</time>
      </trkpt>
      <trkpt lat="44.54112" lon="4.65364">
        <ele>152.60000610352</ele>
        <time>2020-06-14T12:32:03.000Z</time>
      </trkpt>
      <trkpt lat="44.54116" lon="4.65349">
        <ele>153.39999389648</ele>
        <time>2020-06-14T12:32:06.000Z</time>
      </trkpt>
      <trkpt lat="44.54124" lon="4.65323">
        <ele>154</ele>
        <time>2020-06-14T12:32:11.000Z</time>
      </trkpt>
      <trkpt lat="44.54129" lon="4.65308">
        <ele>154.19999694824</ele>
        <time>2020-06-14T12:32:14.000Z</time>
      </trkpt>
      <trkpt lat="44.54131" lon="4.65291">
        <ele>154.19999694824</ele>
        <time>2020-06-14T12:32:17.000Z</time>
      </trkpt>
      <trkpt lat="44.54131" lon="4.6527">
        <ele>154.39999389648</ele>
        <time>2020-06-14T12:32:21.000Z</time>
      </trkpt>
      <trkpt lat="44.54131" lon="4.65261">
        <ele>154.19999694824</ele>
        <time>2020-06-14T12:32:23.000Z</time>
      </trkpt>
      <trkpt lat="44.54126" lon="4.6524">
        <ele>155.39999389648</ele>
        <time>2020-06-14T12:32:29.000Z</time>
      </trkpt>
      <trkpt lat="44.54125" lon="4.65237">
        <ele>155.60000610352</ele>
        <time>2020-06-14T12:32:30.000Z</time>
      </trkpt>
      <trkpt lat="44.54121" lon="4.65227">
        <ele>156.39999389648</ele>
        <time>2020-06-14T12:32:34.000Z</time>
      </trkpt>
      <trkpt lat="44.5412" lon="4.65223">
        <ele>157</ele>
        <time>2020-06-14T12:32:36.000Z</time>
      </trkpt>
      <trkpt lat="44.54119" lon="4.65218">
        <ele>157.60000610352</ele>
        <time>2020-06-14T12:32:38.000Z</time>
      </trkpt>
      <trkpt lat="44.54116" lon="4.6521">
        <ele>158.60000610352</ele>
        <time>2020-06-14T12:32:42.000Z</time>
      </trkpt>
      <trkpt lat="44.54115" lon="4.65208">
        <ele>158.80000305176</ele>
        <time>2020-06-14T12:32:43.000Z</time>
      </trkpt>
      <trkpt lat="44.54112" lon="4.652">
        <ele>159.80000305176</ele>
        <time>2020-06-14T12:32:47.000Z</time>
      </trkpt>
      <trkpt lat="44.5411" lon="4.65193">
        <ele>160.60000610352</ele>
        <time>2020-06-14T12:32:50.000Z</time>
      </trkpt>
      <trkpt lat="44.54109" lon="4.65191">
        <ele>161</ele>
        <time>2020-06-14T12:32:51.000Z</time>
      </trkpt>
      <trkpt lat="44.54106" lon="4.65182">
        <ele>162</ele>
        <time>2020-06-14T12:32:55.000Z</time>
      </trkpt>
      <trkpt lat="44.54105" lon="4.6518">
        <ele>162.19999694824</ele>
        <time>2020-06-14T12:32:56.000Z</time>
      </trkpt>
      <trkpt lat="44.54105" lon="4.65175">
        <ele>163</ele>
        <time>2020-06-14T12:32:58.000Z</time>
      </trkpt>
      <trkpt lat="44.54103" lon="4.65167">
        <ele>164</ele>
        <time>2020-06-14T12:33:02.000Z</time>
      </trkpt>
      <trkpt lat="44.54103" lon="4.65164">
        <ele>164.19999694824</ele>
        <time>2020-06-14T12:33:03.000Z</time>
      </trkpt>
      <trkpt lat="44.54101" lon="4.65153">
        <ele>165.39999389648</ele>
        <time>2020-06-14T12:33:08.000Z</time>
      </trkpt>
      <trkpt lat="44.54098" lon="4.6514">
        <ele>166.60000610352</ele>
        <time>2020-06-14T12:33:13.000Z</time>
      </trkpt>
      <trkpt lat="44.54098" lon="4.65138">
        <ele>166.60000610352</ele>
        <time>2020-06-14T12:33:14.000Z</time>
      </trkpt>
      <trkpt lat="44.541" lon="4.65125">
        <ele>167.39999389648</ele>
        <time>2020-06-14T12:33:19.000Z</time>
      </trkpt>
      <trkpt lat="44.541" lon="4.6512">
        <ele>167.80000305176</ele>
        <time>2020-06-14T12:33:21.000Z</time>
      </trkpt>
      <trkpt lat="44.54101" lon="4.65113">
        <ele>168.60000610352</ele>
        <time>2020-06-14T12:33:24.000Z</time>
      </trkpt>
      <trkpt lat="44.54101" lon="4.65105">
        <ele>169.60000610352</ele>
        <time>2020-06-14T12:33:27.000Z</time>
      </trkpt>
      <trkpt lat="44.54102" lon="4.651">
        <ele>170.19999694824</ele>
        <time>2020-06-14T12:33:29.000Z</time>
      </trkpt>
      <trkpt lat="44.54102" lon="4.65094">
        <ele>170.80000305176</ele>
        <time>2020-06-14T12:33:31.000Z</time>
      </trkpt>
      <trkpt lat="44.54104" lon="4.65077">
        <ele>172</ele>
        <time>2020-06-14T12:33:38.000Z</time>
      </trkpt>
      <trkpt lat="44.54106" lon="4.65063">
        <ele>173</ele>
        <time>2020-06-14T12:33:45.000Z</time>
      </trkpt>
      <trkpt lat="44.54108" lon="4.65051">
        <ele>174.19999694824</ele>
        <time>2020-06-14T12:33:50.000Z</time>
      </trkpt>
      <trkpt lat="44.54109" lon="4.65046">
        <ele>174.39999389648</ele>
        <time>2020-06-14T12:33:52.000Z</time>
      </trkpt>
      <trkpt lat="44.5411" lon="4.65036">
        <ele>175.39999389648</ele>
        <time>2020-06-14T12:33:57.000Z</time>
      </trkpt>
      <trkpt lat="44.54112" lon="4.65029">
        <ele>175.80000305176</ele>
        <time>2020-06-14T12:34:00.000Z</time>
      </trkpt>
      <trkpt lat="44.54113" lon="4.65025">
        <ele>176.19999694824</ele>
        <time>2020-06-14T12:34:02.000Z</time>
      </trkpt>
      <trkpt lat="44.54113" lon="4.65016">
        <ele>177.19999694824</ele>
        <time>2020-06-14T12:34:06.000Z</time>
      </trkpt>
      <trkpt lat="44.54114" lon="4.65014">
        <ele>177.39999389648</ele>
        <time>2020-06-14T12:34:07.000Z</time>
      </trkpt>
      <trkpt lat="44.54115" lon="4.65012">
        <ele>177.60000610352</ele>
        <time>2020-06-14T12:34:08.000Z</time>
      </trkpt>
      <trkpt lat="44.54116" lon="4.65004">
        <ele>178.39999389648</ele>
        <time>2020-06-14T12:34:12.000Z</time>
      </trkpt>
      <trkpt lat="44.54116" lon="4.65002">
        <ele>178.60000610352</ele>
        <time>2020-06-14T12:34:13.000Z</time>
      </trkpt>
      <trkpt lat="44.54116" lon="4.64992">
        <ele>179.60000610352</ele>
        <time>2020-06-14T12:34:17.000Z</time>
      </trkpt>
      <trkpt lat="44.54116" lon="4.64986">
        <ele>180.19999694824</ele>
        <time>2020-06-14T12:34:19.000Z</time>
      </trkpt>
      <trkpt lat="44.54117" lon="4.6498">
        <ele>180.80000305176</ele>
        <time>2020-06-14T12:34:21.000Z</time>
      </trkpt>
      <trkpt lat="44.54115" lon="4.64967">
        <ele>181.80000305176</ele>
        <time>2020-06-14T12:34:25.000Z</time>
      </trkpt>
      <trkpt lat="44.54113" lon="4.64962">
        <ele>182</ele>
        <time>2020-06-14T12:34:27.000Z</time>
      </trkpt>
      <trkpt lat="44.54113" lon="4.64944">
        <ele>182.60000610352</ele>
        <time>2020-06-14T12:34:33.000Z</time>
      </trkpt>
      <trkpt lat="44.54112" lon="4.64941">
        <ele>182.80000305176</ele>
        <time>2020-06-14T12:34:34.000Z</time>
      </trkpt>
      <trkpt lat="44.54113" lon="4.64926">
        <ele>183.80000305176</ele>
        <time>2020-06-14T12:34:40.000Z</time>
      </trkpt>
      <trkpt lat="44.54113" lon="4.64924">
        <ele>184</ele>
        <time>2020-06-14T12:34:41.000Z</time>
      </trkpt>
      <trkpt lat="44.54114" lon="4.64917">
        <ele>185</ele>
        <time>2020-06-14T12:34:44.000Z</time>
      </trkpt>
      <trkpt lat="44.54115" lon="4.64915">
        <ele>185.19999694824</ele>
        <time>2020-06-14T12:34:45.000Z</time>
      </trkpt>
      <trkpt lat="44.54115" lon="4.64912">
        <ele>185.39999389648</ele>
        <time>2020-06-14T12:34:46.000Z</time>
      </trkpt>
      <trkpt lat="44.54116" lon="4.64902">
        <ele>186.39999389648</ele>
        <time>2020-06-14T12:34:50.000Z</time>
      </trkpt>
      <trkpt lat="44.54116" lon="4.64895">
        <ele>187.19999694824</ele>
        <time>2020-06-14T12:34:53.000Z</time>
      </trkpt>
      <trkpt lat="44.54116" lon="4.64892">
        <ele>187.39999389648</ele>
        <time>2020-06-14T12:34:54.000Z</time>
      </trkpt>
      <trkpt lat="44.54117" lon="4.64878">
        <ele>188</ele>
        <time>2020-06-14T12:34:58.000Z</time>
      </trkpt>
      <trkpt lat="44.54119" lon="4.64871">
        <ele>188.60000610352</ele>
        <time>2020-06-14T12:35:00.000Z</time>
      </trkpt>
      <trkpt lat="44.54122" lon="4.64853">
        <ele>189</ele>
        <time>2020-06-14T12:35:04.000Z</time>
      </trkpt>
      <trkpt lat="44.54128" lon="4.6483">
        <ele>189</ele>
        <time>2020-06-14T12:35:10.000Z</time>
      </trkpt>
      <trkpt lat="44.54134" lon="4.64815">
        <ele>188.80000305176</ele>
        <time>2020-06-14T12:35:14.000Z</time>
      </trkpt>
      <trkpt lat="44.54137" lon="4.64811">
        <ele>188.80000305176</ele>
        <time>2020-06-14T12:35:15.000Z</time>
      </trkpt>
      <trkpt lat="44.54148" lon="4.64795">
        <ele>188.60000610352</ele>
        <time>2020-06-14T12:35:18.000Z</time>
      </trkpt>
      <trkpt lat="44.54153" lon="4.64788">
        <ele>188.60000610352</ele>
        <time>2020-06-14T12:35:19.000Z</time>
      </trkpt>
      <trkpt lat="44.54172" lon="4.64757">
        <ele>188.39999389648</ele>
        <time>2020-06-14T12:35:23.000Z</time>
      </trkpt>
      <trkpt lat="44.54196" lon="4.64722">
        <ele>186.80000305176</ele>
        <time>2020-06-14T12:35:27.000Z</time>
      </trkpt>
      <trkpt lat="44.54208" lon="4.6471">
        <ele>184.80000305176</ele>
        <time>2020-06-14T12:35:29.000Z</time>
      </trkpt>
      <trkpt lat="44.54214" lon="4.64708">
        <ele>183.80000305176</ele>
        <time>2020-06-14T12:35:30.000Z</time>
      </trkpt>
      <trkpt lat="44.54223" lon="4.64707">
        <ele>183</ele>
        <time>2020-06-14T12:35:32.000Z</time>
      </trkpt>
      <trkpt lat="44.5423" lon="4.64705">
        <ele>182.80000305176</ele>
        <time>2020-06-14T12:35:34.000Z</time>
      </trkpt>
      <trkpt lat="44.54233" lon="4.64705">
        <ele>182.80000305176</ele>
        <time>2020-06-14T12:35:35.000Z</time>
      </trkpt>
      <trkpt lat="44.54238" lon="4.64703">
        <ele>182.80000305176</ele>
        <time>2020-06-14T12:35:37.000Z</time>
      </trkpt>
      <trkpt lat="44.54248" lon="4.64697">
        <ele>183.80000305176</ele>
        <time>2020-06-14T12:35:42.000Z</time>
      </trkpt>
      <trkpt lat="44.54252" lon="4.64695">
        <ele>185.19999694824</ele>
        <time>2020-06-14T12:35:44.000Z</time>
      </trkpt>
      <trkpt lat="44.54254" lon="4.64694">
        <ele>185.80000305176</ele>
        <time>2020-06-14T12:35:45.000Z</time>
      </trkpt>
      <trkpt lat="44.54256" lon="4.64692">
        <ele>186.19999694824</ele>
        <time>2020-06-14T12:35:46.000Z</time>
      </trkpt>
      <trkpt lat="44.54261" lon="4.64687">
        <ele>187.19999694824</ele>
        <time>2020-06-14T12:35:49.000Z</time>
      </trkpt>
      <trkpt lat="44.54264" lon="4.64683">
        <ele>188</ele>
        <time>2020-06-14T12:35:51.000Z</time>
      </trkpt>
      <trkpt lat="44.54265" lon="4.64681">
        <ele>188.39999389648</ele>
        <time>2020-06-14T12:35:52.000Z</time>
      </trkpt>
      <trkpt lat="44.54269" lon="4.64673">
        <ele>189.60000610352</ele>
        <time>2020-06-14T12:35:56.000Z</time>
      </trkpt>
      <trkpt lat="44.5427" lon="4.64669">
        <ele>190.39999389648</ele>
        <time>2020-06-14T12:35:58.000Z</time>
      </trkpt>
      <trkpt lat="44.54271" lon="4.64666">
        <ele>190.60000610352</ele>
        <time>2020-06-14T12:35:59.000Z</time>
      </trkpt>
      <trkpt lat="44.54274" lon="4.64654">
        <ele>191.80000305176</ele>
        <time>2020-06-14T12:36:04.000Z</time>
      </trkpt>
      <trkpt lat="44.54278" lon="4.64647">
        <ele>192.39999389648</ele>
        <time>2020-06-14T12:36:07.000Z</time>
      </trkpt>
      <trkpt lat="44.54281" lon="4.64643">
        <ele>192.60000610352</ele>
        <time>2020-06-14T12:36:09.000Z</time>
      </trkpt>
      <trkpt lat="44.54286" lon="4.64639">
        <ele>193</ele>
        <time>2020-06-14T12:36:12.000Z</time>
      </trkpt>
      <trkpt lat="44.54296" lon="4.64631">
        <ele>194.19999694824</ele>
        <time>2020-06-14T12:36:18.000Z</time>
      </trkpt>
      <trkpt lat="44.54302" lon="4.64628">
        <ele>195.19999694824</ele>
        <time>2020-06-14T12:36:21.000Z</time>
      </trkpt>
      <trkpt lat="44.54312" lon="4.64621">
        <ele>196.19999694824</ele>
        <time>2020-06-14T12:36:27.000Z</time>
      </trkpt>
      <trkpt lat="44.54322" lon="4.64614">
        <ele>197.19999694824</ele>
        <time>2020-06-14T12:36:33.000Z</time>
      </trkpt>
      <trkpt lat="44.54327" lon="4.6461">
        <ele>198</ele>
        <time>2020-06-14T12:36:36.000Z</time>
      </trkpt>
      <trkpt lat="44.54328" lon="4.64609">
        <ele>198.39999389648</ele>
        <time>2020-06-14T12:36:37.000Z</time>
      </trkpt>
      <trkpt lat="44.54338" lon="4.64601">
        <ele>199.19999694824</ele>
        <time>2020-06-14T12:36:43.000Z</time>
      </trkpt>
      <trkpt lat="44.5434" lon="4.64599">
        <ele>199.60000610352</ele>
        <time>2020-06-14T12:36:44.000Z</time>
      </trkpt>
      <trkpt lat="44.54346" lon="4.64593">
        <ele>200.60000610352</ele>
        <time>2020-06-14T12:36:48.000Z</time>
      </trkpt>
      <trkpt lat="44.54353" lon="4.64587">
        <ele>201</ele>
        <time>2020-06-14T12:36:52.000Z</time>
      </trkpt>
      <trkpt lat="44.54357" lon="4.64583">
        <ele>201.80000305176</ele>
        <time>2020-06-14T12:36:55.000Z</time>
      </trkpt>
      <trkpt lat="44.54362" lon="4.64579">
        <ele>202.80000305176</ele>
        <time>2020-06-14T12:36:58.000Z</time>
      </trkpt>
      <trkpt lat="44.54365" lon="4.64577">
        <ele>203.19999694824</ele>
        <time>2020-06-14T12:37:00.000Z</time>
      </trkpt>
      <trkpt lat="44.54371" lon="4.64572">
        <ele>204.19999694824</ele>
        <time>2020-06-14T12:37:04.000Z</time>
      </trkpt>
      <trkpt lat="44.54377" lon="4.64567">
        <ele>205.19999694824</ele>
        <time>2020-06-14T12:37:08.000Z</time>
      </trkpt>
      <trkpt lat="44.5438" lon="4.64565">
        <ele>205.39999389648</ele>
        <time>2020-06-14T12:37:10.000Z</time>
      </trkpt>
      <trkpt lat="44.54388" lon="4.6456">
        <ele>206.19999694824</ele>
        <time>2020-06-14T12:37:15.000Z</time>
      </trkpt>
      <trkpt lat="44.54395" lon="4.64555">
        <ele>206.80000305176</ele>
        <time>2020-06-14T12:37:19.000Z</time>
      </trkpt>
      <trkpt lat="44.54399" lon="4.64553">
        <ele>207.39999389648</ele>
        <time>2020-06-14T12:37:21.000Z</time>
      </trkpt>
      <trkpt lat="44.54414" lon="4.64544">
        <ele>208</ele>
        <time>2020-06-14T12:37:29.000Z</time>
      </trkpt>
      <trkpt lat="44.54421" lon="4.64539">
        <ele>208.60000610352</ele>
        <time>2020-06-14T12:37:33.000Z</time>
      </trkpt>
      <trkpt lat="44.54425" lon="4.64536">
        <ele>209.19999694824</ele>
        <time>2020-06-14T12:37:36.000Z</time>
      </trkpt>
      <trkpt lat="44.5443" lon="4.64531">
        <ele>209.60000610352</ele>
        <time>2020-06-14T12:37:39.000Z</time>
      </trkpt>
      <trkpt lat="44.54438" lon="4.64524">
        <ele>210.19999694824</ele>
        <time>2020-06-14T12:37:44.000Z</time>
      </trkpt>
      <trkpt lat="44.54441" lon="4.64521">
        <ele>210.60000610352</ele>
        <time>2020-06-14T12:37:46.000Z</time>
      </trkpt>
      <trkpt lat="44.5445" lon="4.64512">
        <ele>211.80000305176</ele>
        <time>2020-06-14T12:37:52.000Z</time>
      </trkpt>
      <trkpt lat="44.54455" lon="4.64508">
        <ele>212.60000610352</ele>
        <time>2020-06-14T12:37:55.000Z</time>
      </trkpt>
      <trkpt lat="44.54458" lon="4.64505">
        <ele>213</ele>
        <time>2020-06-14T12:37:57.000Z</time>
      </trkpt>
      <trkpt lat="44.54472" lon="4.64492">
        <ele>214</ele>
        <time>2020-06-14T12:38:06.000Z</time>
      </trkpt>
      <trkpt lat="44.54478" lon="4.64487">
        <ele>215.19999694824</ele>
        <time>2020-06-14T12:38:10.000Z</time>
      </trkpt>
      <trkpt lat="44.5448" lon="4.6448">
        <ele>216</ele>
        <time>2020-06-14T12:38:13.000Z</time>
      </trkpt>
      <trkpt lat="44.54479" lon="4.64477">
        <ele>216.19999694824</ele>
        <time>2020-06-14T12:38:14.000Z</time>
      </trkpt>
      <trkpt lat="44.54475" lon="4.64476">
        <ele>217</ele>
        <time>2020-06-14T12:38:17.000Z</time>
      </trkpt>
      <trkpt lat="44.54473" lon="4.64477">
        <ele>217.60000610352</ele>
        <time>2020-06-14T12:38:18.000Z</time>
      </trkpt>
      <trkpt lat="44.54471" lon="4.64478">
        <ele>217.80000305176</ele>
        <time>2020-06-14T12:38:19.000Z</time>
      </trkpt>
      <trkpt lat="44.54461" lon="4.64483">
        <ele>219</ele>
        <time>2020-06-14T12:38:24.000Z</time>
      </trkpt>
      <trkpt lat="44.54459" lon="4.64485">
        <ele>219.19999694824</ele>
        <time>2020-06-14T12:38:25.000Z</time>
      </trkpt>
      <trkpt lat="44.54448" lon="4.64489">
        <ele>220</ele>
        <time>2020-06-14T12:38:31.000Z</time>
      </trkpt>
      <trkpt lat="44.54447" lon="4.6449">
        <ele>220</ele>
        <time>2020-06-14T12:38:32.000Z</time>
      </trkpt>
      <trkpt lat="44.54439" lon="4.64492">
        <ele>220.80000305176</ele>
        <time>2020-06-14T12:38:36.000Z</time>
      </trkpt>
      <trkpt lat="44.54431" lon="4.64492">
        <ele>221.60000610352</ele>
        <time>2020-06-14T12:38:40.000Z</time>
      </trkpt>
      <trkpt lat="44.54427" lon="4.64493">
        <ele>221.80000305176</ele>
        <time>2020-06-14T12:38:42.000Z</time>
      </trkpt>
      <trkpt lat="44.54414" lon="4.64495">
        <ele>223</ele>
        <time>2020-06-14T12:38:49.000Z</time>
      </trkpt>
      <trkpt lat="44.54412" lon="4.64495">
        <ele>223.19999694824</ele>
        <time>2020-06-14T12:38:50.000Z</time>
      </trkpt>
      <trkpt lat="44.54401" lon="4.64495">
        <ele>224</ele>
        <time>2020-06-14T12:38:56.000Z</time>
      </trkpt>
      <trkpt lat="44.54393" lon="4.64496">
        <ele>224.80000305176</ele>
        <time>2020-06-14T12:39:00.000Z</time>
      </trkpt>
      <trkpt lat="44.5439" lon="4.64495">
        <ele>225.19999694824</ele>
        <time>2020-06-14T12:39:02.000Z</time>
      </trkpt>
      <trkpt lat="44.54378" lon="4.64494">
        <ele>226.39999389648</ele>
        <time>2020-06-14T12:39:09.000Z</time>
      </trkpt>
      <trkpt lat="44.54368" lon="4.64491">
        <ele>227.60000610352</ele>
        <time>2020-06-14T12:39:15.000Z</time>
      </trkpt>
      <trkpt lat="44.54365" lon="4.64489">
        <ele>228</ele>
        <time>2020-06-14T12:39:17.000Z</time>
      </trkpt>
      <trkpt lat="44.54359" lon="4.64487">
        <ele>228.80000305176</ele>
        <time>2020-06-14T12:39:21.000Z</time>
      </trkpt>
      <trkpt lat="44.54355" lon="4.64486">
        <ele>229.19999694824</ele>
        <time>2020-06-14T12:39:23.000Z</time>
      </trkpt>
      <trkpt lat="44.54347" lon="4.64484">
        <ele>229.80000305176</ele>
        <time>2020-06-14T12:39:27.000Z</time>
      </trkpt>
      <trkpt lat="44.54343" lon="4.64483">
        <ele>230.19999694824</ele>
        <time>2020-06-14T12:39:29.000Z</time>
      </trkpt>
      <trkpt lat="44.5433" lon="4.64479">
        <ele>230.60000610352</ele>
        <time>2020-06-14T12:39:36.000Z</time>
      </trkpt>
      <trkpt lat="44.54328" lon="4.64479">
        <ele>230.80000305176</ele>
        <time>2020-06-14T12:39:37.000Z</time>
      </trkpt>
      <trkpt lat="44.5432" lon="4.64477">
        <ele>231.80000305176</ele>
        <time>2020-06-14T12:39:41.000Z</time>
      </trkpt>
      <trkpt lat="44.54315" lon="4.64475">
        <ele>232.39999389648</ele>
        <time>2020-06-14T12:39:44.000Z</time>
      </trkpt>
      <trkpt lat="44.54312" lon="4.64475">
        <ele>232.80000305176</ele>
        <time>2020-06-14T12:39:46.000Z</time>
      </trkpt>
      <trkpt lat="44.54305" lon="4.64473">
        <ele>234</ele>
        <time>2020-06-14T12:39:50.000Z</time>
      </trkpt>
      <trkpt lat="44.54303" lon="4.64472">
        <ele>234.19999694824</ele>
        <time>2020-06-14T12:39:51.000Z</time>
      </trkpt>
      <trkpt lat="44.54295" lon="4.64467">
        <ele>235.19999694824</ele>
        <time>2020-06-14T12:39:56.000Z</time>
      </trkpt>
      <trkpt lat="44.54293" lon="4.64466">
        <ele>235.39999389648</ele>
        <time>2020-06-14T12:39:57.000Z</time>
      </trkpt>
      <trkpt lat="44.54286" lon="4.64464">
        <ele>236.19999694824</ele>
        <time>2020-06-14T12:40:01.000Z</time>
      </trkpt>
      <trkpt lat="44.54277" lon="4.6446">
        <ele>237</ele>
        <time>2020-06-14T12:40:06.000Z</time>
      </trkpt>
      <trkpt lat="44.54274" lon="4.6446">
        <ele>237.19999694824</ele>
        <time>2020-06-14T12:40:08.000Z</time>
      </trkpt>
      <trkpt lat="44.54263" lon="4.64454">
        <ele>238.19999694824</ele>
        <time>2020-06-14T12:40:14.000Z</time>
      </trkpt>
      <trkpt lat="44.54261" lon="4.64453">
        <ele>238.19999694824</ele>
        <time>2020-06-14T12:40:15.000Z</time>
      </trkpt>
      <trkpt lat="44.5425" lon="4.64447">
        <ele>239.19999694824</ele>
        <time>2020-06-14T12:40:21.000Z</time>
      </trkpt>
      <trkpt lat="44.54249" lon="4.64446">
        <ele>239.39999389648</ele>
        <time>2020-06-14T12:40:22.000Z</time>
      </trkpt>
      <trkpt lat="44.5424" lon="4.64441">
        <ele>240.39999389648</ele>
        <time>2020-06-14T12:40:27.000Z</time>
      </trkpt>
      <trkpt lat="44.54235" lon="4.64438">
        <ele>240.60000610352</ele>
        <time>2020-06-14T12:40:30.000Z</time>
      </trkpt>
      <trkpt lat="44.54224" lon="4.64431">
        <ele>241.39999389648</ele>
        <time>2020-06-14T12:40:36.000Z</time>
      </trkpt>
      <trkpt lat="44.54217" lon="4.64427">
        <ele>242.39999389648</ele>
        <time>2020-06-14T12:40:40.000Z</time>
      </trkpt>
      <trkpt lat="44.54215" lon="4.64426">
        <ele>242.60000610352</ele>
        <time>2020-06-14T12:40:41.000Z</time>
      </trkpt>
      <trkpt lat="44.54205" lon="4.6442">
        <ele>243.60000610352</ele>
        <time>2020-06-14T12:40:47.000Z</time>
      </trkpt>
      <trkpt lat="44.54202" lon="4.64418">
        <ele>243.80000305176</ele>
        <time>2020-06-14T12:40:49.000Z</time>
      </trkpt>
      <trkpt lat="44.54193" lon="4.64413">
        <ele>244.60000610352</ele>
        <time>2020-06-14T12:40:54.000Z</time>
      </trkpt>
      <trkpt lat="44.54185" lon="4.64409">
        <ele>245.60000610352</ele>
        <time>2020-06-14T12:40:58.000Z</time>
      </trkpt>
      <trkpt lat="44.54183" lon="4.64409">
        <ele>245.60000610352</ele>
        <time>2020-06-14T12:40:59.000Z</time>
      </trkpt>
      <trkpt lat="44.54172" lon="4.64404">
        <ele>246.39999389648</ele>
        <time>2020-06-14T12:41:05.000Z</time>
      </trkpt>
      <trkpt lat="44.54171" lon="4.64403">
        <ele>246.60000610352</ele>
        <time>2020-06-14T12:41:06.000Z</time>
      </trkpt>
      <trkpt lat="44.54157" lon="4.64398">
        <ele>247.80000305176</ele>
        <time>2020-06-14T12:41:13.000Z</time>
      </trkpt>
      <trkpt lat="44.54155" lon="4.64397">
        <ele>248</ele>
        <time>2020-06-14T12:41:14.000Z</time>
      </trkpt>
      <trkpt lat="44.54145" lon="4.64391">
        <ele>248.80000305176</ele>
        <time>2020-06-14T12:41:20.000Z</time>
      </trkpt>
      <trkpt lat="44.54139" lon="4.64388">
        <ele>249.19999694824</ele>
        <time>2020-06-14T12:41:23.000Z</time>
      </trkpt>
      <trkpt lat="44.54134" lon="4.64384">
        <ele>249.80000305176</ele>
        <time>2020-06-14T12:41:26.000Z</time>
      </trkpt>
      <trkpt lat="44.54123" lon="4.64377">
        <ele>251</ele>
        <time>2020-06-14T12:41:32.000Z</time>
      </trkpt>
      <trkpt lat="44.54122" lon="4.64376">
        <ele>251</ele>
        <time>2020-06-14T12:41:33.000Z</time>
      </trkpt>
      <trkpt lat="44.54117" lon="4.64372">
        <ele>251.80000305176</ele>
        <time>2020-06-14T12:41:36.000Z</time>
      </trkpt>
      <trkpt lat="44.54109" lon="4.64364">
        <ele>252.80000305176</ele>
        <time>2020-06-14T12:41:41.000Z</time>
      </trkpt>
      <trkpt lat="44.54109" lon="4.64362">
        <ele>253</ele>
        <time>2020-06-14T12:41:42.000Z</time>
      </trkpt>
      <trkpt lat="44.54113" lon="4.6436">
        <ele>253.80000305176</ele>
        <time>2020-06-14T12:41:45.000Z</time>
      </trkpt>
      <trkpt lat="44.54118" lon="4.64363">
        <ele>254.39999389648</ele>
        <time>2020-06-14T12:41:48.000Z</time>
      </trkpt>
      <trkpt lat="44.54125" lon="4.64365">
        <ele>254.80000305176</ele>
        <time>2020-06-14T12:41:52.000Z</time>
      </trkpt>
      <trkpt lat="44.54127" lon="4.64365">
        <ele>255</ele>
        <time>2020-06-14T12:41:53.000Z</time>
      </trkpt>
      <trkpt lat="44.54141" lon="4.64366">
        <ele>255.80000305176</ele>
        <time>2020-06-14T12:42:00.000Z</time>
      </trkpt>
      <trkpt lat="44.54142" lon="4.64366">
        <ele>256</ele>
        <time>2020-06-14T12:42:01.000Z</time>
      </trkpt>
      <trkpt lat="44.54152" lon="4.64367">
        <ele>257</ele>
        <time>2020-06-14T12:42:06.000Z</time>
      </trkpt>
      <trkpt lat="44.54156" lon="4.64367">
        <ele>257.60000610352</ele>
        <time>2020-06-14T12:42:08.000Z</time>
      </trkpt>
      <trkpt lat="44.54158" lon="4.64367">
        <ele>257.79998779297</ele>
        <time>2020-06-14T12:42:09.000Z</time>
      </trkpt>
      <trkpt lat="44.54169" lon="4.64367">
        <ele>259</ele>
        <time>2020-06-14T12:42:14.000Z</time>
      </trkpt>
      <trkpt lat="44.54179" lon="4.64367">
        <ele>260.20001220703</ele>
        <time>2020-06-14T12:42:19.000Z</time>
      </trkpt>
      <trkpt lat="44.54185" lon="4.64367">
        <ele>260.60000610352</ele>
        <time>2020-06-14T12:42:22.000Z</time>
      </trkpt>
      <trkpt lat="44.54191" lon="4.64367">
        <ele>261.20001220703</ele>
        <time>2020-06-14T12:42:25.000Z</time>
      </trkpt>
      <trkpt lat="44.54202" lon="4.64367">
        <ele>262.20001220703</ele>
        <time>2020-06-14T12:42:31.000Z</time>
      </trkpt>
      <trkpt lat="44.54204" lon="4.64367">
        <ele>262.20001220703</ele>
        <time>2020-06-14T12:42:32.000Z</time>
      </trkpt>
      <trkpt lat="44.54215" lon="4.64367">
        <ele>263.20001220703</ele>
        <time>2020-06-14T12:42:38.000Z</time>
      </trkpt>
      <trkpt lat="44.54224" lon="4.64366">
        <ele>264.79998779297</ele>
        <time>2020-06-14T12:42:42.000Z</time>
      </trkpt>
      <trkpt lat="44.5423" lon="4.64365">
        <ele>265.79998779297</ele>
        <time>2020-06-14T12:42:45.000Z</time>
      </trkpt>
      <trkpt lat="44.54232" lon="4.64365">
        <ele>266</ele>
        <time>2020-06-14T12:42:46.000Z</time>
      </trkpt>
      <trkpt lat="44.54245" lon="4.64363">
        <ele>266.60000610352</ele>
        <time>2020-06-14T12:42:52.000Z</time>
      </trkpt>
      <trkpt lat="44.54253" lon="4.64362">
        <ele>266.79998779297</ele>
        <time>2020-06-14T12:42:56.000Z</time>
      </trkpt>
      <trkpt lat="44.54261" lon="4.64361">
        <ele>267.39999389648</ele>
        <time>2020-06-14T12:43:00.000Z</time>
      </trkpt>
      <trkpt lat="44.54265" lon="4.6436">
        <ele>267.79998779297</ele>
        <time>2020-06-14T12:43:02.000Z</time>
      </trkpt>
      <trkpt lat="44.54275" lon="4.64359">
        <ele>268.79998779297</ele>
        <time>2020-06-14T12:43:07.000Z</time>
      </trkpt>
      <trkpt lat="44.54283" lon="4.64357">
        <ele>270.20001220703</ele>
        <time>2020-06-14T12:43:11.000Z</time>
      </trkpt>
      <trkpt lat="44.54293" lon="4.64355">
        <ele>271.20001220703</ele>
        <time>2020-06-14T12:43:16.000Z</time>
      </trkpt>
      <trkpt lat="44.54307" lon="4.64351">
        <ele>272.39999389648</ele>
        <time>2020-06-14T12:43:24.000Z</time>
      </trkpt>
      <trkpt lat="44.54309" lon="4.64351">
        <ele>272.39999389648</ele>
        <time>2020-06-14T12:43:25.000Z</time>
      </trkpt>
      <trkpt lat="44.54314" lon="4.6435">
        <ele>273.39999389648</ele>
        <time>2020-06-14T12:43:28.000Z</time>
      </trkpt>
      <trkpt lat="44.54324" lon="4.64346">
        <ele>273.79998779297</ele>
        <time>2020-06-14T12:43:33.000Z</time>
      </trkpt>
      <trkpt lat="44.54334" lon="4.64344">
        <ele>274.39999389648</ele>
        <time>2020-06-14T12:43:38.000Z</time>
      </trkpt>
      <trkpt lat="44.54339" lon="4.64342">
        <ele>275</ele>
        <time>2020-06-14T12:43:41.000Z</time>
      </trkpt>
      <trkpt lat="44.54347" lon="4.6434">
        <ele>275.39999389648</ele>
        <time>2020-06-14T12:43:45.000Z</time>
      </trkpt>
      <trkpt lat="44.54354" lon="4.64338">
        <ele>275.79998779297</ele>
        <time>2020-06-14T12:43:49.000Z</time>
      </trkpt>
      <trkpt lat="44.54362" lon="4.64335">
        <ele>276.60000610352</ele>
        <time>2020-06-14T12:43:53.000Z</time>
      </trkpt>
      <trkpt lat="44.54372" lon="4.64331">
        <ele>277.79998779297</ele>
        <time>2020-06-14T12:43:59.000Z</time>
      </trkpt>
      <trkpt lat="44.54374" lon="4.64331">
        <ele>278</ele>
        <time>2020-06-14T12:44:00.000Z</time>
      </trkpt>
      <trkpt lat="44.54378" lon="4.64329">
        <ele>278.79998779297</ele>
        <time>2020-06-14T12:44:02.000Z</time>
      </trkpt>
      <trkpt lat="44.54387" lon="4.64326">
        <ele>280</ele>
        <time>2020-06-14T12:44:07.000Z</time>
      </trkpt>
      <trkpt lat="44.54389" lon="4.64325">
        <ele>280.20001220703</ele>
        <time>2020-06-14T12:44:08.000Z</time>
      </trkpt>
      <trkpt lat="44.54402" lon="4.64318">
        <ele>281</ele>
        <time>2020-06-14T12:44:16.000Z</time>
      </trkpt>
      <trkpt lat="44.54404" lon="4.64318">
        <ele>281.20001220703</ele>
        <time>2020-06-14T12:44:17.000Z</time>
      </trkpt>
      <trkpt lat="44.54411" lon="4.64314">
        <ele>282.20001220703</ele>
        <time>2020-06-14T12:44:21.000Z</time>
      </trkpt>
      <trkpt lat="44.5442" lon="4.64308">
        <ele>283</ele>
        <time>2020-06-14T12:44:26.000Z</time>
      </trkpt>
      <trkpt lat="44.54422" lon="4.64307">
        <ele>283.39999389648</ele>
        <time>2020-06-14T12:44:27.000Z</time>
      </trkpt>
      <trkpt lat="44.5443" lon="4.64303">
        <ele>284.39999389648</ele>
        <time>2020-06-14T12:44:32.000Z</time>
      </trkpt>
      <trkpt lat="44.54434" lon="4.64301">
        <ele>284.60000610352</ele>
        <time>2020-06-14T12:44:34.000Z</time>
      </trkpt>
      <trkpt lat="44.54444" lon="4.64296">
        <ele>285.79998779297</ele>
        <time>2020-06-14T12:44:40.000Z</time>
      </trkpt>
      <trkpt lat="44.54446" lon="4.64295">
        <ele>286.20001220703</ele>
        <time>2020-06-14T12:44:41.000Z</time>
      </trkpt>
      <trkpt lat="44.54453" lon="4.64291">
        <ele>286.60000610352</ele>
        <time>2020-06-14T12:44:45.000Z</time>
      </trkpt>
      <trkpt lat="44.54464" lon="4.64283">
        <ele>287.20001220703</ele>
        <time>2020-06-14T12:44:52.000Z</time>
      </trkpt>
      <trkpt lat="44.54469" lon="4.6428">
        <ele>287.60000610352</ele>
        <time>2020-06-14T12:44:55.000Z</time>
      </trkpt>
      <trkpt lat="44.54476" lon="4.64275">
        <ele>288.79998779297</ele>
        <time>2020-06-14T12:44:59.000Z</time>
      </trkpt>
      <trkpt lat="44.54477" lon="4.64274">
        <ele>289</ele>
        <time>2020-06-14T12:45:00.000Z</time>
      </trkpt>
      <trkpt lat="44.54484" lon="4.64269">
        <ele>289.79998779297</ele>
        <time>2020-06-14T12:45:04.000Z</time>
      </trkpt>
      <trkpt lat="44.5449" lon="4.64264">
        <ele>290.79998779297</ele>
        <time>2020-06-14T12:45:08.000Z</time>
      </trkpt>
      <trkpt lat="44.54492" lon="4.64263">
        <ele>291</ele>
        <time>2020-06-14T12:45:09.000Z</time>
      </trkpt>
      <trkpt lat="44.54499" lon="4.64257">
        <ele>291.60000610352</ele>
        <time>2020-06-14T12:45:14.000Z</time>
      </trkpt>
      <trkpt lat="44.54503" lon="4.64254">
        <ele>292.20001220703</ele>
        <time>2020-06-14T12:45:17.000Z</time>
      </trkpt>
      <trkpt lat="44.54509" lon="4.64249">
        <ele>292.79998779297</ele>
        <time>2020-06-14T12:45:21.000Z</time>
      </trkpt>
      <trkpt lat="44.54514" lon="4.64244">
        <ele>293.20001220703</ele>
        <time>2020-06-14T12:45:25.000Z</time>
      </trkpt>
      <trkpt lat="44.54518" lon="4.64241">
        <ele>293.79998779297</ele>
        <time>2020-06-14T12:45:28.000Z</time>
      </trkpt>
      <trkpt lat="44.54521" lon="4.64238">
        <ele>294.20001220703</ele>
        <time>2020-06-14T12:45:30.000Z</time>
      </trkpt>
      <trkpt lat="44.5453" lon="4.6423">
        <ele>295.20001220703</ele>
        <time>2020-06-14T12:45:36.000Z</time>
      </trkpt>
      <trkpt lat="44.5454" lon="4.64221">
        <ele>296.20001220703</ele>
        <time>2020-06-14T12:45:43.000Z</time>
      </trkpt>
      <trkpt lat="44.54541" lon="4.6422">
        <ele>296.39999389648</ele>
        <time>2020-06-14T12:45:44.000Z</time>
      </trkpt>
      <trkpt lat="44.54542" lon="4.64219">
        <ele>296.60000610352</ele>
        <time>2020-06-14T12:45:45.000Z</time>
      </trkpt>
      <trkpt lat="44.54546" lon="4.64215">
        <ele>297.60000610352</ele>
        <time>2020-06-14T12:45:48.000Z</time>
      </trkpt>
      <trkpt lat="44.54549" lon="4.6421">
        <ele>298.39999389648</ele>
        <time>2020-06-14T12:45:51.000Z</time>
      </trkpt>
      <trkpt lat="44.5455" lon="4.64208">
        <ele>298.60000610352</ele>
        <time>2020-06-14T12:45:52.000Z</time>
      </trkpt>
      <trkpt lat="44.54555" lon="4.64203">
        <ele>299.60000610352</ele>
        <time>2020-06-14T12:45:56.000Z</time>
      </trkpt>
      <trkpt lat="44.54559" lon="4.64197">
        <ele>300.60000610352</ele>
        <time>2020-06-14T12:45:59.000Z</time>
      </trkpt>
      <trkpt lat="44.54564" lon="4.64191">
        <ele>301.79998779297</ele>
        <time>2020-06-14T12:46:03.000Z</time>
      </trkpt>
      <trkpt lat="44.54567" lon="4.64188">
        <ele>302.79998779297</ele>
        <time>2020-06-14T12:46:05.000Z</time>
      </trkpt>
      <trkpt lat="44.54568" lon="4.64186">
        <ele>303.20001220703</ele>
        <time>2020-06-14T12:46:06.000Z</time>
      </trkpt>
      <trkpt lat="44.54575" lon="4.64177">
        <ele>304.39999389648</ele>
        <time>2020-06-14T12:46:11.000Z</time>
      </trkpt>
      <trkpt lat="44.54578" lon="4.64173">
        <ele>304.79998779297</ele>
        <time>2020-06-14T12:46:13.000Z</time>
      </trkpt>
      <trkpt lat="44.54584" lon="4.64164">
        <ele>305.39999389648</ele>
        <time>2020-06-14T12:46:17.000Z</time>
      </trkpt>
      <trkpt lat="44.54588" lon="4.64157">
        <ele>306.20001220703</ele>
        <time>2020-06-14T12:46:20.000Z</time>
      </trkpt>
      <trkpt lat="44.54591" lon="4.64153">
        <ele>306.60000610352</ele>
        <time>2020-06-14T12:46:22.000Z</time>
      </trkpt>
      <trkpt lat="44.54603" lon="4.64134">
        <ele>307.60000610352</ele>
        <time>2020-06-14T12:46:30.000Z</time>
      </trkpt>
      <trkpt lat="44.54606" lon="4.64129">
        <ele>307.60000610352</ele>
        <time>2020-06-14T12:46:32.000Z</time>
      </trkpt>
      <trkpt lat="44.54613" lon="4.64114">
        <ele>308.79998779297</ele>
        <time>2020-06-14T12:46:38.000Z</time>
      </trkpt>
      <trkpt lat="44.54615" lon="4.64109">
        <ele>309</ele>
        <time>2020-06-14T12:46:40.000Z</time>
      </trkpt>
      <trkpt lat="44.5462" lon="4.64095">
        <ele>310</ele>
        <time>2020-06-14T12:46:45.000Z</time>
      </trkpt>
      <trkpt lat="44.54623" lon="4.64087">
        <ele>310.39999389648</ele>
        <time>2020-06-14T12:46:48.000Z</time>
      </trkpt>
      <trkpt lat="44.54626" lon="4.64079">
        <ele>311.20001220703</ele>
        <time>2020-06-14T12:46:51.000Z</time>
      </trkpt>
      <trkpt lat="44.54631" lon="4.64067">
        <ele>311.60000610352</ele>
        <time>2020-06-14T12:46:55.000Z</time>
      </trkpt>
      <trkpt lat="44.54638" lon="4.6405">
        <ele>312.20001220703</ele>
        <time>2020-06-14T12:47:01.000Z</time>
      </trkpt>
      <trkpt lat="44.54639" lon="4.64047">
        <ele>312.39999389648</ele>
        <time>2020-06-14T12:47:02.000Z</time>
      </trkpt>
      <trkpt lat="44.54641" lon="4.64037">
        <ele>313.39999389648</ele>
        <time>2020-06-14T12:47:05.000Z</time>
      </trkpt>
      <trkpt lat="44.54644" lon="4.64026">
        <ele>313.79998779297</ele>
        <time>2020-06-14T12:47:08.000Z</time>
      </trkpt>
      <trkpt lat="44.5465" lon="4.64006">
        <ele>314.20001220703</ele>
        <time>2020-06-14T12:47:14.000Z</time>
      </trkpt>
      <trkpt lat="44.5465" lon="4.64002">
        <ele>314.39999389648</ele>
        <time>2020-06-14T12:47:15.000Z</time>
      </trkpt>
      <trkpt lat="44.54649" lon="4.63982">
        <ele>315.20001220703</ele>
        <time>2020-06-14T12:47:21.000Z</time>
      </trkpt>
      <trkpt lat="44.54648" lon="4.63978">
        <ele>315.39999389648</ele>
        <time>2020-06-14T12:47:22.000Z</time>
      </trkpt>
      <trkpt lat="44.54644" lon="4.63961">
        <ele>316.79998779297</ele>
        <time>2020-06-14T12:47:27.000Z</time>
      </trkpt>
      <trkpt lat="44.54641" lon="4.63955">
        <ele>317.39999389648</ele>
        <time>2020-06-14T12:47:29.000Z</time>
      </trkpt>
      <trkpt lat="44.54636" lon="4.63946">
        <ele>318.20001220703</ele>
        <time>2020-06-14T12:47:32.000Z</time>
      </trkpt>
      <trkpt lat="44.5463" lon="4.63936">
        <ele>319</ele>
        <time>2020-06-14T12:47:36.000Z</time>
      </trkpt>
      <trkpt lat="44.54628" lon="4.63933">
        <ele>319.20001220703</ele>
        <time>2020-06-14T12:47:37.000Z</time>
      </trkpt>
      <trkpt lat="44.54622" lon="4.63923">
        <ele>319.39999389648</ele>
        <time>2020-06-14T12:47:41.000Z</time>
      </trkpt>
      <trkpt lat="44.54614" lon="4.63912">
        <ele>320.39999389648</ele>
        <time>2020-06-14T12:47:45.000Z</time>
      </trkpt>
      <trkpt lat="44.54604" lon="4.63899">
        <ele>321.20001220703</ele>
        <time>2020-06-14T12:47:50.000Z</time>
      </trkpt>
      <trkpt lat="44.546" lon="4.63894">
        <ele>321.39999389648</ele>
        <time>2020-06-14T12:47:52.000Z</time>
      </trkpt>
      <trkpt lat="44.54582" lon="4.63875">
        <ele>322.39999389648</ele>
        <time>2020-06-14T12:48:00.000Z</time>
      </trkpt>
      <trkpt lat="44.5458" lon="4.63873">
        <ele>322.60000610352</ele>
        <time>2020-06-14T12:48:01.000Z</time>
      </trkpt>
      <trkpt lat="44.54572" lon="4.63863">
        <ele>323</ele>
        <time>2020-06-14T12:48:06.000Z</time>
      </trkpt>
      <trkpt lat="44.54568" lon="4.63854">
        <ele>323.39999389648</ele>
        <time>2020-06-14T12:48:09.000Z</time>
      </trkpt>
      <trkpt lat="44.54565" lon="4.63845">
        <ele>324</ele>
        <time>2020-06-14T12:48:12.000Z</time>
      </trkpt>
      <trkpt lat="44.54564" lon="4.63831">
        <ele>324.60000610352</ele>
        <time>2020-06-14T12:48:16.000Z</time>
      </trkpt>
      <trkpt lat="44.54564" lon="4.63824">
        <ele>324.79998779297</ele>
        <time>2020-06-14T12:48:18.000Z</time>
      </trkpt>
      <trkpt lat="44.54562" lon="4.63803">
        <ele>325.60000610352</ele>
        <time>2020-06-14T12:48:25.000Z</time>
      </trkpt>
      <trkpt lat="44.54561" lon="4.63791">
        <ele>326.79998779297</ele>
        <time>2020-06-14T12:48:29.000Z</time>
      </trkpt>
      <trkpt lat="44.54562" lon="4.63784">
        <ele>327.79998779297</ele>
        <time>2020-06-14T12:48:31.000Z</time>
      </trkpt>
      <trkpt lat="44.54563" lon="4.63781">
        <ele>328</ele>
        <time>2020-06-14T12:48:32.000Z</time>
      </trkpt>
      <trkpt lat="44.54571" lon="4.63776">
        <ele>328.79998779297</ele>
        <time>2020-06-14T12:48:37.000Z</time>
      </trkpt>
      <trkpt lat="44.54573" lon="4.63776">
        <ele>329</ele>
        <time>2020-06-14T12:48:38.000Z</time>
      </trkpt>
      <trkpt lat="44.54584" lon="4.63778">
        <ele>330.20001220703</ele>
        <time>2020-06-14T12:48:44.000Z</time>
      </trkpt>
      <trkpt lat="44.54588" lon="4.63779">
        <ele>331</ele>
        <time>2020-06-14T12:48:46.000Z</time>
      </trkpt>
      <trkpt lat="44.54592" lon="4.63779">
        <ele>331.20001220703</ele>
        <time>2020-06-14T12:48:48.000Z</time>
      </trkpt>
      <trkpt lat="44.54599" lon="4.63779">
        <ele>331.79998779297</ele>
        <time>2020-06-14T12:48:52.000Z</time>
      </trkpt>
      <trkpt lat="44.54601" lon="4.63779">
        <ele>332.20001220703</ele>
        <time>2020-06-14T12:48:53.000Z</time>
      </trkpt>
      <trkpt lat="44.54611" lon="4.63778">
        <ele>333.39999389648</ele>
        <time>2020-06-14T12:48:58.000Z</time>
      </trkpt>
      <trkpt lat="44.54624" lon="4.63773">
        <ele>334.60000610352</ele>
        <time>2020-06-14T12:49:05.000Z</time>
      </trkpt>
      <trkpt lat="44.54628" lon="4.63772">
        <ele>335</ele>
        <time>2020-06-14T12:49:07.000Z</time>
      </trkpt>
      <trkpt lat="44.54635" lon="4.63771">
        <ele>335.79998779297</ele>
        <time>2020-06-14T12:49:11.000Z</time>
      </trkpt>
      <trkpt lat="44.54642" lon="4.63769">
        <ele>336.79998779297</ele>
        <time>2020-06-14T12:49:15.000Z</time>
      </trkpt>
      <trkpt lat="44.54644" lon="4.63768">
        <ele>336.79998779297</ele>
        <time>2020-06-14T12:49:16.000Z</time>
      </trkpt>
      <trkpt lat="44.54657" lon="4.63766">
        <ele>337.79998779297</ele>
        <time>2020-06-14T12:49:23.000Z</time>
      </trkpt>
      <trkpt lat="44.54659" lon="4.63765">
        <ele>338</ele>
        <time>2020-06-14T12:49:24.000Z</time>
      </trkpt>
      <trkpt lat="44.54669" lon="4.63762">
        <ele>339.39999389648</ele>
        <time>2020-06-14T12:49:29.000Z</time>
      </trkpt>
      <trkpt lat="44.54677" lon="4.6376">
        <ele>340.39999389648</ele>
        <time>2020-06-14T12:49:33.000Z</time>
      </trkpt>
      <trkpt lat="44.5469" lon="4.63757">
        <ele>341.39999389648</ele>
        <time>2020-06-14T12:49:40.000Z</time>
      </trkpt>
      <trkpt lat="44.54701" lon="4.63749">
        <ele>342</ele>
        <time>2020-06-14T12:49:47.000Z</time>
      </trkpt>
      <trkpt lat="44.54703" lon="4.63744">
        <ele>342.39999389648</ele>
        <time>2020-06-14T12:49:52.000Z</time>
      </trkpt>
      <trkpt lat="44.54704" lon="4.63744">
        <ele>344.39999389648</ele>
        <time>2020-06-14T12:51:07.000Z</time>
      </trkpt>
      <trkpt lat="44.54705" lon="4.63744">
        <ele>344.39999389648</ele>
        <time>2020-06-14T12:51:08.000Z</time>
      </trkpt>
      <trkpt lat="44.54713" lon="4.63746">
        <ele>344.60000610352</ele>
        <time>2020-06-14T12:51:12.000Z</time>
      </trkpt>
      <trkpt lat="44.54726" lon="4.63742">
        <ele>344.60000610352</ele>
        <time>2020-06-14T12:51:18.000Z</time>
      </trkpt>
      <trkpt lat="44.54735" lon="4.63736">
        <ele>344.79998779297</ele>
        <time>2020-06-14T12:51:23.000Z</time>
      </trkpt>
      <trkpt lat="44.54736" lon="4.63736">
        <ele>344.79998779297</ele>
        <time>2020-06-14T12:51:24.000Z</time>
      </trkpt>
      <trkpt lat="44.54741" lon="4.63736">
        <ele>345.79998779297</ele>
        <time>2020-06-14T12:51:27.000Z</time>
      </trkpt>
      <trkpt lat="44.54743" lon="4.63736">
        <ele>345.79998779297</ele>
        <time>2020-06-14T12:51:28.000Z</time>
      </trkpt>
      <trkpt lat="44.54745" lon="4.63735">
        <ele>346</ele>
        <time>2020-06-14T12:51:29.000Z</time>
      </trkpt>
      <trkpt lat="44.54749" lon="4.63734">
        <ele>346.20001220703</ele>
        <time>2020-06-14T12:51:31.000Z</time>
      </trkpt>
      <trkpt lat="44.54756" lon="4.63735">
        <ele>346.79998779297</ele>
        <time>2020-06-14T12:51:34.000Z</time>
      </trkpt>
      <trkpt lat="44.54758" lon="4.63736">
        <ele>347</ele>
        <time>2020-06-14T12:51:35.000Z</time>
      </trkpt>
      <trkpt lat="44.54761" lon="4.63736">
        <ele>347</ele>
        <time>2020-06-14T12:51:36.000Z</time>
      </trkpt>
      <trkpt lat="44.54766" lon="4.63734">
        <ele>347.20001220703</ele>
        <time>2020-06-14T12:51:38.000Z</time>
      </trkpt>
      <trkpt lat="44.54772" lon="4.63729">
        <ele>347.60000610352</ele>
        <time>2020-06-14T12:51:41.000Z</time>
      </trkpt>
      <trkpt lat="44.54776" lon="4.63728">
        <ele>347.79998779297</ele>
        <time>2020-06-14T12:51:43.000Z</time>
      </trkpt>
      <trkpt lat="44.54778" lon="4.63728">
        <ele>348</ele>
        <time>2020-06-14T12:51:44.000Z</time>
      </trkpt>
      <trkpt lat="44.54791" lon="4.63726">
        <ele>348.60000610352</ele>
        <time>2020-06-14T12:51:49.000Z</time>
      </trkpt>
      <trkpt lat="44.54797" lon="4.63724">
        <ele>349</ele>
        <time>2020-06-14T12:51:51.000Z</time>
      </trkpt>
      <trkpt lat="44.54806" lon="4.6372">
        <ele>349.60000610352</ele>
        <time>2020-06-14T12:51:55.000Z</time>
      </trkpt>
      <trkpt lat="44.54816" lon="4.63714">
        <ele>350</ele>
        <time>2020-06-14T12:52:00.000Z</time>
      </trkpt>
      <trkpt lat="44.54825" lon="4.63712">
        <ele>350</ele>
        <time>2020-06-14T12:52:05.000Z</time>
      </trkpt>
      <trkpt lat="44.54834" lon="4.63708">
        <ele>350</ele>
        <time>2020-06-14T12:52:09.000Z</time>
      </trkpt>
      <trkpt lat="44.54836" lon="4.63706">
        <ele>350</ele>
        <time>2020-06-14T12:52:10.000Z</time>
      </trkpt>
      <trkpt lat="44.54853" lon="4.637">
        <ele>350.20001220703</ele>
        <time>2020-06-14T12:52:16.000Z</time>
      </trkpt>
      <trkpt lat="44.54863" lon="4.63698">
        <ele>350</ele>
        <time>2020-06-14T12:52:20.000Z</time>
      </trkpt>
      <trkpt lat="44.54868" lon="4.63695">
        <ele>350</ele>
        <time>2020-06-14T12:52:22.000Z</time>
      </trkpt>
      <trkpt lat="44.54881" lon="4.63688">
        <ele>350.39999389648</ele>
        <time>2020-06-14T12:52:28.000Z</time>
      </trkpt>
      <trkpt lat="44.54889" lon="4.63684">
        <ele>350.60000610352</ele>
        <time>2020-06-14T12:52:33.000Z</time>
      </trkpt>
      <trkpt lat="44.54889" lon="4.63683">
        <ele>350.79998779297</ele>
        <time>2020-06-14T12:52:34.000Z</time>
      </trkpt>
      <trkpt lat="44.54889" lon="4.63683">
        <ele>350.79998779297</ele>
        <time>2020-06-14T12:52:35.000Z</time>
      </trkpt>
      <trkpt lat="44.5489" lon="4.63681">
        <ele>352</ele>
        <time>2020-06-14T12:52:41.000Z</time>
      </trkpt>
      <trkpt lat="44.54891" lon="4.6368">
        <ele>353</ele>
        <time>2020-06-14T12:52:44.000Z</time>
      </trkpt>
      <trkpt lat="44.5489" lon="4.63678">
        <ele>353.39999389648</ele>
        <time>2020-06-14T12:52:51.000Z</time>
      </trkpt>
      <trkpt lat="44.54888" lon="4.63673">
        <ele>353.79998779297</ele>
        <time>2020-06-14T12:52:56.000Z</time>
      </trkpt>
      <trkpt lat="44.54887" lon="4.6367">
        <ele>353.79998779297</ele>
        <time>2020-06-14T12:52:59.000Z</time>
      </trkpt>
      <trkpt lat="44.54887" lon="4.63668">
        <ele>354</ele>
        <time>2020-06-14T12:53:04.000Z</time>
      </trkpt>
      <trkpt lat="44.54889" lon="4.63666">
        <ele>354.79998779297</ele>
        <time>2020-06-14T12:53:11.000Z</time>
      </trkpt>
      <trkpt lat="44.54889" lon="4.63666">
        <ele>355</ele>
        <time>2020-06-14T12:53:12.000Z</time>
      </trkpt>
      <trkpt lat="44.54889" lon="4.63666">
        <ele>355.20001220703</ele>
        <time>2020-06-14T12:53:13.000Z</time>
      </trkpt>
      <trkpt lat="44.54891" lon="4.63665">
        <ele>355.20001220703</ele>
        <time>2020-06-14T12:53:15.000Z</time>
      </trkpt>
      <trkpt lat="44.54893" lon="4.63661">
        <ele>355.20001220703</ele>
        <time>2020-06-14T12:53:17.000Z</time>
      </trkpt>
      <trkpt lat="44.54896" lon="4.63654">
        <ele>355.20001220703</ele>
        <time>2020-06-14T12:53:20.000Z</time>
      </trkpt>
      <trkpt lat="44.549" lon="4.63651">
        <ele>355.20001220703</ele>
        <time>2020-06-14T12:53:22.000Z</time>
      </trkpt>
      <trkpt lat="44.54916" lon="4.63642">
        <ele>355.20001220703</ele>
        <time>2020-06-14T12:53:29.000Z</time>
      </trkpt>
      <trkpt lat="44.54929" lon="4.63633">
        <ele>355.79998779297</ele>
        <time>2020-06-14T12:53:34.000Z</time>
      </trkpt>
      <trkpt lat="44.54934" lon="4.63629">
        <ele>356</ele>
        <time>2020-06-14T12:53:36.000Z</time>
      </trkpt>
      <trkpt lat="44.54957" lon="4.63616">
        <ele>356.79998779297</ele>
        <time>2020-06-14T12:53:44.000Z</time>
      </trkpt>
      <trkpt lat="44.54963" lon="4.63613">
        <ele>357</ele>
        <time>2020-06-14T12:53:46.000Z</time>
      </trkpt>
      <trkpt lat="44.54968" lon="4.6361">
        <ele>357</ele>
        <time>2020-06-14T12:53:48.000Z</time>
      </trkpt>
      <trkpt lat="44.5497" lon="4.63607">
        <ele>357.20001220703</ele>
        <time>2020-06-14T12:53:49.000Z</time>
      </trkpt>
      <trkpt lat="44.54978" lon="4.636">
        <ele>357.39999389648</ele>
        <time>2020-06-14T12:53:53.000Z</time>
      </trkpt>
      <trkpt lat="44.54983" lon="4.63592">
        <ele>357.79998779297</ele>
        <time>2020-06-14T12:53:56.000Z</time>
      </trkpt>
      <trkpt lat="44.54987" lon="4.63587">
        <ele>357.79998779297</ele>
        <time>2020-06-14T12:53:58.000Z</time>
      </trkpt>
      <trkpt lat="44.54989" lon="4.63586">
        <ele>357.79998779297</ele>
        <time>2020-06-14T12:53:59.000Z</time>
      </trkpt>
      <trkpt lat="44.55007" lon="4.63582">
        <ele>358</ele>
        <time>2020-06-14T12:54:06.000Z</time>
      </trkpt>
      <trkpt lat="44.5501" lon="4.6358">
        <ele>358</ele>
        <time>2020-06-14T12:54:07.000Z</time>
      </trkpt>
      <trkpt lat="44.55016" lon="4.63573">
        <ele>358</ele>
        <time>2020-06-14T12:54:11.000Z</time>
      </trkpt>
      <trkpt lat="44.55027" lon="4.63564">
        <ele>359</ele>
        <time>2020-06-14T12:54:17.000Z</time>
      </trkpt>
      <trkpt lat="44.5503" lon="4.63564">
        <ele>359.20001220703</ele>
        <time>2020-06-14T12:54:18.000Z</time>
      </trkpt>
      <trkpt lat="44.55035" lon="4.63561">
        <ele>359.39999389648</ele>
        <time>2020-06-14T12:54:21.000Z</time>
      </trkpt>
      <trkpt lat="44.55036" lon="4.6356">
        <ele>359.39999389648</ele>
        <time>2020-06-14T12:54:22.000Z</time>
      </trkpt>
      <trkpt lat="44.5504" lon="4.63552">
        <ele>359.60000610352</ele>
        <time>2020-06-14T12:54:28.000Z</time>
      </trkpt>
      <trkpt lat="44.55041" lon="4.63551">
        <ele>359.60000610352</ele>
        <time>2020-06-14T12:54:29.000Z</time>
      </trkpt>
      <trkpt lat="44.55045" lon="4.63548">
        <ele>360.39999389648</ele>
        <time>2020-06-14T12:54:32.000Z</time>
      </trkpt>
      <trkpt lat="44.55049" lon="4.63541">
        <ele>361.39999389648</ele>
        <time>2020-06-14T12:54:36.000Z</time>
      </trkpt>
      <trkpt lat="44.55051" lon="4.63538">
        <ele>361.79998779297</ele>
        <time>2020-06-14T12:54:38.000Z</time>
      </trkpt>
      <trkpt lat="44.55054" lon="4.63531">
        <ele>362.60000610352</ele>
        <time>2020-06-14T12:54:42.000Z</time>
      </trkpt>
      <trkpt lat="44.55055" lon="4.63529">
        <ele>362.79998779297</ele>
        <time>2020-06-14T12:54:43.000Z</time>
      </trkpt>
      <trkpt lat="44.55057" lon="4.63524">
        <ele>363.60000610352</ele>
        <time>2020-06-14T12:54:46.000Z</time>
      </trkpt>
      <trkpt lat="44.5506" lon="4.63514">
        <ele>365</ele>
        <time>2020-06-14T12:54:51.000Z</time>
      </trkpt>
      <trkpt lat="44.55062" lon="4.63504">
        <ele>366.20001220703</ele>
        <time>2020-06-14T12:54:56.000Z</time>
      </trkpt>
      <trkpt lat="44.55063" lon="4.63498">
        <ele>366.79998779297</ele>
        <time>2020-06-14T12:54:59.000Z</time>
      </trkpt>
      <trkpt lat="44.55065" lon="4.63496">
        <ele>367</ele>
        <time>2020-06-14T12:55:01.000Z</time>
      </trkpt>
      <trkpt lat="44.55067" lon="4.63493">
        <ele>367.39999389648</ele>
        <time>2020-06-14T12:55:03.000Z</time>
      </trkpt>
      <trkpt lat="44.55069" lon="4.63493">
        <ele>367.60000610352</ele>
        <time>2020-06-14T12:55:04.000Z</time>
      </trkpt>
      <trkpt lat="44.55074" lon="4.6349">
        <ele>368.60000610352</ele>
        <time>2020-06-14T12:55:07.000Z</time>
      </trkpt>
      <trkpt lat="44.5508" lon="4.63485">
        <ele>369.60000610352</ele>
        <time>2020-06-14T12:55:11.000Z</time>
      </trkpt>
      <trkpt lat="44.55082" lon="4.63483">
        <ele>369.79998779297</ele>
        <time>2020-06-14T12:55:12.000Z</time>
      </trkpt>
      <trkpt lat="44.55088" lon="4.63471">
        <ele>370.60000610352</ele>
        <time>2020-06-14T12:55:19.000Z</time>
      </trkpt>
      <trkpt lat="44.55089" lon="4.6347">
        <ele>371</ele>
        <time>2020-06-14T12:55:20.000Z</time>
      </trkpt>
      <trkpt lat="44.5509" lon="4.63469">
        <ele>371.20001220703</ele>
        <time>2020-06-14T12:55:21.000Z</time>
      </trkpt>
      <trkpt lat="44.55096" lon="4.63467">
        <ele>371.79998779297</ele>
        <time>2020-06-14T12:55:25.000Z</time>
      </trkpt>
      <trkpt lat="44.55099" lon="4.63466">
        <ele>372.20001220703</ele>
        <time>2020-06-14T12:55:27.000Z</time>
      </trkpt>
      <trkpt lat="44.55105" lon="4.63464">
        <ele>373.20001220703</ele>
        <time>2020-06-14T12:55:32.000Z</time>
      </trkpt>
      <trkpt lat="44.55106" lon="4.63464">
        <ele>373.39999389648</ele>
        <time>2020-06-14T12:55:33.000Z</time>
      </trkpt>
      <trkpt lat="44.55107" lon="4.63463">
        <ele>373.60000610352</ele>
        <time>2020-06-14T12:55:34.000Z</time>
      </trkpt>
      <trkpt lat="44.55111" lon="4.63461">
        <ele>374.20001220703</ele>
        <time>2020-06-14T12:55:37.000Z</time>
      </trkpt>
      <trkpt lat="44.55114" lon="4.6346">
        <ele>374.60000610352</ele>
        <time>2020-06-14T12:55:39.000Z</time>
      </trkpt>
      <trkpt lat="44.55119" lon="4.63458">
        <ele>375.60000610352</ele>
        <time>2020-06-14T12:55:42.000Z</time>
      </trkpt>
      <trkpt lat="44.5512" lon="4.63457">
        <ele>375.79998779297</ele>
        <time>2020-06-14T12:55:43.000Z</time>
      </trkpt>
      <trkpt lat="44.5513" lon="4.63454">
        <ele>376.39999389648</ele>
        <time>2020-06-14T12:55:49.000Z</time>
      </trkpt>
      <trkpt lat="44.55133" lon="4.63452">
        <ele>376.60000610352</ele>
        <time>2020-06-14T12:55:51.000Z</time>
      </trkpt>
      <trkpt lat="44.55138" lon="4.63447">
        <ele>377.79998779297</ele>
        <time>2020-06-14T12:55:55.000Z</time>
      </trkpt>
      <trkpt lat="44.55139" lon="4.63446">
        <ele>377.79998779297</ele>
        <time>2020-06-14T12:55:56.000Z</time>
      </trkpt>
      <trkpt lat="44.55142" lon="4.63443">
        <ele>378</ele>
        <time>2020-06-14T12:55:58.000Z</time>
      </trkpt>
      <trkpt lat="44.55146" lon="4.63438">
        <ele>378.39999389648</ele>
        <time>2020-06-14T12:56:01.000Z</time>
      </trkpt>
      <trkpt lat="44.55147" lon="4.63438">
        <ele>378.60000610352</ele>
        <time>2020-06-14T12:56:02.000Z</time>
      </trkpt>
      <trkpt lat="44.55149" lon="4.63437">
        <ele>379</ele>
        <time>2020-06-14T12:56:03.000Z</time>
      </trkpt>
      <trkpt lat="44.55152" lon="4.63436">
        <ele>379.39999389648</ele>
        <time>2020-06-14T12:56:05.000Z</time>
      </trkpt>
      <trkpt lat="44.5516" lon="4.63432">
        <ele>380.20001220703</ele>
        <time>2020-06-14T12:56:10.000Z</time>
      </trkpt>
      <trkpt lat="44.55162" lon="4.63431">
        <ele>380.20001220703</ele>
        <time>2020-06-14T12:56:11.000Z</time>
      </trkpt>
      <trkpt lat="44.5517" lon="4.63429">
        <ele>380.60000610352</ele>
        <time>2020-06-14T12:56:15.000Z</time>
      </trkpt>
      <trkpt lat="44.55175" lon="4.63429">
        <ele>381</ele>
        <time>2020-06-14T12:56:17.000Z</time>
      </trkpt>
      <trkpt lat="44.55177" lon="4.63428">
        <ele>381.20001220703</ele>
        <time>2020-06-14T12:56:18.000Z</time>
      </trkpt>
      <trkpt lat="44.55188" lon="4.63426">
        <ele>382.20001220703</ele>
        <time>2020-06-14T12:56:23.000Z</time>
      </trkpt>
      <trkpt lat="44.5519" lon="4.63426">
        <ele>382.39999389648</ele>
        <time>2020-06-14T12:56:24.000Z</time>
      </trkpt>
      <trkpt lat="44.55198" lon="4.63426">
        <ele>383.20001220703</ele>
        <time>2020-06-14T12:56:28.000Z</time>
      </trkpt>
      <trkpt lat="44.552" lon="4.63425">
        <ele>383.20001220703</ele>
        <time>2020-06-14T12:56:29.000Z</time>
      </trkpt>
      <trkpt lat="44.55206" lon="4.63428">
        <ele>383.39999389648</ele>
        <time>2020-06-14T12:56:32.000Z</time>
      </trkpt>
      <trkpt lat="44.55218" lon="4.63425">
        <ele>383.79998779297</ele>
        <time>2020-06-14T12:56:37.000Z</time>
      </trkpt>
      <trkpt lat="44.55229" lon="4.63425">
        <ele>383.79998779297</ele>
        <time>2020-06-14T12:56:41.000Z</time>
      </trkpt>
      <trkpt lat="44.55247" lon="4.63423">
        <ele>384</ele>
        <time>2020-06-14T12:56:47.000Z</time>
      </trkpt>
      <trkpt lat="44.55252" lon="4.6342">
        <ele>384.20001220703</ele>
        <time>2020-06-14T12:56:49.000Z</time>
      </trkpt>
      <trkpt lat="44.55256" lon="4.63415">
        <ele>384.20001220703</ele>
        <time>2020-06-14T12:56:51.000Z</time>
      </trkpt>
      <trkpt lat="44.55258" lon="4.63413">
        <ele>384.20001220703</ele>
        <time>2020-06-14T12:56:52.000Z</time>
      </trkpt>
      <trkpt lat="44.55267" lon="4.63409">
        <ele>384.39999389648</ele>
        <time>2020-06-14T12:56:56.000Z</time>
      </trkpt>
      <trkpt lat="44.55281" lon="4.63411">
        <ele>384.79998779297</ele>
        <time>2020-06-14T12:57:01.000Z</time>
      </trkpt>
      <trkpt lat="44.55298" lon="4.63414">
        <ele>385.20001220703</ele>
        <time>2020-06-14T12:57:06.000Z</time>
      </trkpt>
      <trkpt lat="44.55312" lon="4.63425">
        <ele>385.20001220703</ele>
        <time>2020-06-14T12:57:10.000Z</time>
      </trkpt>
      <trkpt lat="44.55327" lon="4.63423">
        <ele>385.20001220703</ele>
        <time>2020-06-14T12:57:14.000Z</time>
      </trkpt>
      <trkpt lat="44.55338" lon="4.63417">
        <ele>384.79998779297</ele>
        <time>2020-06-14T12:57:18.000Z</time>
      </trkpt>
      <trkpt lat="44.5535" lon="4.63423">
        <ele>385</ele>
        <time>2020-06-14T12:57:22.000Z</time>
      </trkpt>
      <trkpt lat="44.55362" lon="4.63421">
        <ele>385.39999389648</ele>
        <time>2020-06-14T12:57:26.000Z</time>
      </trkpt>
      <trkpt lat="44.55368" lon="4.63417">
        <ele>385.60000610352</ele>
        <time>2020-06-14T12:57:28.000Z</time>
      </trkpt>
      <trkpt lat="44.55374" lon="4.63415">
        <ele>385.79998779297</ele>
        <time>2020-06-14T12:57:30.000Z</time>
      </trkpt>
      <trkpt lat="44.55386" lon="4.63419">
        <ele>386.20001220703</ele>
        <time>2020-06-14T12:57:34.000Z</time>
      </trkpt>
      <trkpt lat="44.55388" lon="4.6342">
        <ele>386.60000610352</ele>
        <time>2020-06-14T12:57:35.000Z</time>
      </trkpt>
      <trkpt lat="44.55398" lon="4.63425">
        <ele>387.39999389648</ele>
        <time>2020-06-14T12:57:38.000Z</time>
      </trkpt>
      <trkpt lat="44.55404" lon="4.63426">
        <ele>387.39999389648</ele>
        <time>2020-06-14T12:57:40.000Z</time>
      </trkpt>
      <trkpt lat="44.5542" lon="4.63428">
        <ele>388.20001220703</ele>
        <time>2020-06-14T12:57:45.000Z</time>
      </trkpt>
      <trkpt lat="44.55423" lon="4.63428">
        <ele>388.20001220703</ele>
        <time>2020-06-14T12:57:46.000Z</time>
      </trkpt>
      <trkpt lat="44.55428" lon="4.63427">
        <ele>388.60000610352</ele>
        <time>2020-06-14T12:57:48.000Z</time>
      </trkpt>
      <trkpt lat="44.55429" lon="4.63426">
        <ele>388.60000610352</ele>
        <time>2020-06-14T12:57:49.000Z</time>
      </trkpt>
      <trkpt lat="44.55436" lon="4.63419">
        <ele>389.20001220703</ele>
        <time>2020-06-14T12:57:53.000Z</time>
      </trkpt>
      <trkpt lat="44.55439" lon="4.63421">
        <ele>389.39999389648</ele>
        <time>2020-06-14T12:57:55.000Z</time>
      </trkpt>
      <trkpt lat="44.55442" lon="4.63424">
        <ele>389.60000610352</ele>
        <time>2020-06-14T12:57:57.000Z</time>
      </trkpt>
      <trkpt lat="44.55443" lon="4.63426">
        <ele>389.60000610352</ele>
        <time>2020-06-14T12:57:58.000Z</time>
      </trkpt>
      <trkpt lat="44.55445" lon="4.63428">
        <ele>389.79998779297</ele>
        <time>2020-06-14T12:57:59.000Z</time>
      </trkpt>
      <trkpt lat="44.55452" lon="4.63434">
        <ele>390</ele>
        <time>2020-06-14T12:58:02.000Z</time>
      </trkpt>
      <trkpt lat="44.55469" lon="4.63438">
        <ele>390.20001220703</ele>
        <time>2020-06-14T12:58:08.000Z</time>
      </trkpt>
      <trkpt lat="44.55486" lon="4.63449">
        <ele>390.39999389648</ele>
        <time>2020-06-14T12:58:14.000Z</time>
      </trkpt>
      <trkpt lat="44.55488" lon="4.63451">
        <ele>390.60000610352</ele>
        <time>2020-06-14T12:58:15.000Z</time>
      </trkpt>
      <trkpt lat="44.55496" lon="4.63454">
        <ele>390.79998779297</ele>
        <time>2020-06-14T12:58:18.000Z</time>
      </trkpt>
      <trkpt lat="44.55514" lon="4.63453">
        <ele>391.60000610352</ele>
        <time>2020-06-14T12:58:24.000Z</time>
      </trkpt>
      <trkpt lat="44.55517" lon="4.63454">
        <ele>391.79998779297</ele>
        <time>2020-06-14T12:58:25.000Z</time>
      </trkpt>
      <trkpt lat="44.55524" lon="4.6346">
        <ele>392</ele>
        <time>2020-06-14T12:58:28.000Z</time>
      </trkpt>
      <trkpt lat="44.55531" lon="4.63472">
        <ele>392.79998779297</ele>
        <time>2020-06-14T12:58:33.000Z</time>
      </trkpt>
      <trkpt lat="44.55533" lon="4.63475">
        <ele>393</ele>
        <time>2020-06-14T12:58:34.000Z</time>
      </trkpt>
      <trkpt lat="44.55538" lon="4.6348">
        <ele>393.79998779297</ele>
        <time>2020-06-14T12:58:37.000Z</time>
      </trkpt>
      <trkpt lat="44.5554" lon="4.63482">
        <ele>394</ele>
        <time>2020-06-14T12:58:38.000Z</time>
      </trkpt>
      <trkpt lat="44.55542" lon="4.63483">
        <ele>394</ele>
        <time>2020-06-14T12:58:39.000Z</time>
      </trkpt>
      <trkpt lat="44.5555" lon="4.63487">
        <ele>395</ele>
        <time>2020-06-14T12:58:44.000Z</time>
      </trkpt>
      <trkpt lat="44.55558" lon="4.63498">
        <ele>396</ele>
        <time>2020-06-14T12:58:50.000Z</time>
      </trkpt>
      <trkpt lat="44.55559" lon="4.635">
        <ele>396.39999389648</ele>
        <time>2020-06-14T12:58:51.000Z</time>
      </trkpt>
      <trkpt lat="44.55562" lon="4.63504">
        <ele>396.79998779297</ele>
        <time>2020-06-14T12:58:53.000Z</time>
      </trkpt>
      <trkpt lat="44.55566" lon="4.63507">
        <ele>397.20001220703</ele>
        <time>2020-06-14T12:58:56.000Z</time>
      </trkpt>
      <trkpt lat="44.55567" lon="4.63507">
        <ele>397.39999389648</ele>
        <time>2020-06-14T12:58:57.000Z</time>
      </trkpt>
      <trkpt lat="44.55576" lon="4.63509">
        <ele>398.20001220703</ele>
        <time>2020-06-14T12:59:02.000Z</time>
      </trkpt>
      <trkpt lat="44.55578" lon="4.63509">
        <ele>398.39999389648</ele>
        <time>2020-06-14T12:59:03.000Z</time>
      </trkpt>
      <trkpt lat="44.55582" lon="4.63515">
        <ele>399.20001220703</ele>
        <time>2020-06-14T12:59:06.000Z</time>
      </trkpt>
      <trkpt lat="44.55584" lon="4.63516">
        <ele>399.39999389648</ele>
        <time>2020-06-14T12:59:07.000Z</time>
      </trkpt>
      <trkpt lat="44.55585" lon="4.63516">
        <ele>399.60000610352</ele>
        <time>2020-06-14T12:59:08.000Z</time>
      </trkpt>
      <trkpt lat="44.5559" lon="4.63516">
        <ele>400.20001220703</ele>
        <time>2020-06-14T12:59:11.000Z</time>
      </trkpt>
      <trkpt lat="44.55592" lon="4.63516">
        <ele>400.60000610352</ele>
        <time>2020-06-14T12:59:12.000Z</time>
      </trkpt>
      <trkpt lat="44.55599" lon="4.63518">
        <ele>401.39999389648</ele>
        <time>2020-06-14T12:59:16.000Z</time>
      </trkpt>
      <trkpt lat="44.55601" lon="4.63518">
        <ele>401.60000610352</ele>
        <time>2020-06-14T12:59:17.000Z</time>
      </trkpt>
      <trkpt lat="44.55607" lon="4.63519">
        <ele>402.79998779297</ele>
        <time>2020-06-14T12:59:21.000Z</time>
      </trkpt>
      <trkpt lat="44.55609" lon="4.63518">
        <ele>403</ele>
        <time>2020-06-14T12:59:22.000Z</time>
      </trkpt>
      <trkpt lat="44.55616" lon="4.63515">
        <ele>403.79998779297</ele>
        <time>2020-06-14T12:59:26.000Z</time>
      </trkpt>
      <trkpt lat="44.55622" lon="4.63515">
        <ele>404.60000610352</ele>
        <time>2020-06-14T12:59:29.000Z</time>
      </trkpt>
      <trkpt lat="44.55625" lon="4.63518">
        <ele>404.79998779297</ele>
        <time>2020-06-14T12:59:32.000Z</time>
      </trkpt>
      <trkpt lat="44.55626" lon="4.63519">
        <ele>405</ele>
        <time>2020-06-14T12:59:33.000Z</time>
      </trkpt>
      <trkpt lat="44.55627" lon="4.6352">
        <ele>405</ele>
        <time>2020-06-14T12:59:34.000Z</time>
      </trkpt>
      <trkpt lat="44.55636" lon="4.63523">
        <ele>406</ele>
        <time>2020-06-14T12:59:39.000Z</time>
      </trkpt>
      <trkpt lat="44.55642" lon="4.63522">
        <ele>406.39999389648</ele>
        <time>2020-06-14T12:59:43.000Z</time>
      </trkpt>
      <trkpt lat="44.55646" lon="4.63518">
        <ele>406.79998779297</ele>
        <time>2020-06-14T12:59:46.000Z</time>
      </trkpt>
      <trkpt lat="44.55647" lon="4.63517">
        <ele>407</ele>
        <time>2020-06-14T12:59:47.000Z</time>
      </trkpt>
      <trkpt lat="44.55649" lon="4.63519">
        <ele>407.20001220703</ele>
        <time>2020-06-14T12:59:50.000Z</time>
      </trkpt>
      <trkpt lat="44.5565" lon="4.63521">
        <ele>407.39999389648</ele>
        <time>2020-06-14T12:59:51.000Z</time>
      </trkpt>
      <trkpt lat="44.55649" lon="4.6353">
        <ele>407.60000610352</ele>
        <time>2020-06-14T12:59:55.000Z</time>
      </trkpt>
      <trkpt lat="44.55649" lon="4.63532">
        <ele>407.79998779297</ele>
        <time>2020-06-14T12:59:56.000Z</time>
      </trkpt>
      <trkpt lat="44.55649" lon="4.63536">
        <ele>408.20001220703</ele>
        <time>2020-06-14T12:59:58.000Z</time>
      </trkpt>
      <trkpt lat="44.55646" lon="4.63545">
        <ele>408.60000610352</ele>
        <time>2020-06-14T13:00:02.000Z</time>
      </trkpt>
      <trkpt lat="44.55645" lon="4.63566">
        <ele>409</ele>
        <time>2020-06-14T13:00:09.000Z</time>
      </trkpt>
      <trkpt lat="44.55646" lon="4.6357">
        <ele>409.20001220703</ele>
        <time>2020-06-14T13:00:10.000Z</time>
      </trkpt>
      <trkpt lat="44.55644" lon="4.63585">
        <ele>409.20001220703</ele>
        <time>2020-06-14T13:00:14.000Z</time>
      </trkpt>
      <trkpt lat="44.55643" lon="4.63609">
        <ele>409.39999389648</ele>
        <time>2020-06-14T13:00:19.000Z</time>
      </trkpt>
      <trkpt lat="44.55645" lon="4.63644">
        <ele>409.20001220703</ele>
        <time>2020-06-14T13:00:26.000Z</time>
      </trkpt>
      <trkpt lat="44.55646" lon="4.6368">
        <ele>408.79998779297</ele>
        <time>2020-06-14T13:00:33.000Z</time>
      </trkpt>
      <trkpt lat="44.55653" lon="4.63733">
        <ele>408.79998779297</ele>
        <time>2020-06-14T13:00:44.000Z</time>
      </trkpt>
      <trkpt lat="44.5566" lon="4.63756">
        <ele>408.79998779297</ele>
        <time>2020-06-14T13:00:49.000Z</time>
      </trkpt>
      <trkpt lat="44.55665" lon="4.63781">
        <ele>408.79998779297</ele>
        <time>2020-06-14T13:00:54.000Z</time>
      </trkpt>
      <trkpt lat="44.5567" lon="4.63816">
        <ele>408.60000610352</ele>
        <time>2020-06-14T13:01:00.000Z</time>
      </trkpt>
      <trkpt lat="44.55667" lon="4.63839">
        <ele>408.60000610352</ele>
        <time>2020-06-14T13:01:04.000Z</time>
      </trkpt>
      <trkpt lat="44.55658" lon="4.63853">
        <ele>408.60000610352</ele>
        <time>2020-06-14T13:01:07.000Z</time>
      </trkpt>
      <trkpt lat="44.55655" lon="4.63857">
        <ele>408.39999389648</ele>
        <time>2020-06-14T13:01:08.000Z</time>
      </trkpt>
      <trkpt lat="44.55652" lon="4.6386">
        <ele>408.20001220703</ele>
        <time>2020-06-14T13:01:09.000Z</time>
      </trkpt>
      <trkpt lat="44.55639" lon="4.63869">
        <ele>408</ele>
        <time>2020-06-14T13:01:12.000Z</time>
      </trkpt>
      <trkpt lat="44.5563" lon="4.63876">
        <ele>407.79998779297</ele>
        <time>2020-06-14T13:01:14.000Z</time>
      </trkpt>
      <trkpt lat="44.55599" lon="4.63903">
        <ele>406.79998779297</ele>
        <time>2020-06-14T13:01:21.000Z</time>
      </trkpt>
      <trkpt lat="44.55592" lon="4.63912">
        <ele>405.60000610352</ele>
        <time>2020-06-14T13:01:23.000Z</time>
      </trkpt>
      <trkpt lat="44.55586" lon="4.63922">
        <ele>405.20001220703</ele>
        <time>2020-06-14T13:01:25.000Z</time>
      </trkpt>
      <trkpt lat="44.55583" lon="4.63933">
        <ele>404.79998779297</ele>
        <time>2020-06-14T13:01:27.000Z</time>
      </trkpt>
      <trkpt lat="44.55586" lon="4.63954">
        <ele>404.79998779297</ele>
        <time>2020-06-14T13:01:31.000Z</time>
      </trkpt>
      <trkpt lat="44.55596" lon="4.6397">
        <ele>404.79998779297</ele>
        <time>2020-06-14T13:01:35.000Z</time>
      </trkpt>
      <trkpt lat="44.55599" lon="4.63973">
        <ele>404.79998779297</ele>
        <time>2020-06-14T13:01:36.000Z</time>
      </trkpt>
      <trkpt lat="44.55612" lon="4.63982">
        <ele>405.39999389648</ele>
        <time>2020-06-14T13:01:40.000Z</time>
      </trkpt>
      <trkpt lat="44.55632" lon="4.64001">
        <ele>406.20001220703</ele>
        <time>2020-06-14T13:01:47.000Z</time>
      </trkpt>
      <trkpt lat="44.55639" lon="4.64015">
        <ele>406.60000610352</ele>
        <time>2020-06-14T13:01:50.000Z</time>
      </trkpt>
      <trkpt lat="44.55641" lon="4.6402">
        <ele>406.60000610352</ele>
        <time>2020-06-14T13:01:51.000Z</time>
      </trkpt>
      <trkpt lat="44.55645" lon="4.64031">
        <ele>406.79998779297</ele>
        <time>2020-06-14T13:01:53.000Z</time>
      </trkpt>
      <trkpt lat="44.55647" lon="4.64036">
        <ele>406.79998779297</ele>
        <time>2020-06-14T13:01:54.000Z</time>
      </trkpt>
      <trkpt lat="44.55654" lon="4.64054">
        <ele>407</ele>
        <time>2020-06-14T13:01:58.000Z</time>
      </trkpt>
      <trkpt lat="44.55663" lon="4.64065">
        <ele>407.39999389648</ele>
        <time>2020-06-14T13:02:02.000Z</time>
      </trkpt>
      <trkpt lat="44.55672" lon="4.64073">
        <ele>407.60000610352</ele>
        <time>2020-06-14T13:02:06.000Z</time>
      </trkpt>
      <trkpt lat="44.55674" lon="4.64075">
        <ele>407.60000610352</ele>
        <time>2020-06-14T13:02:07.000Z</time>
      </trkpt>
      <trkpt lat="44.55681" lon="4.64078">
        <ele>408</ele>
        <time>2020-06-14T13:02:11.000Z</time>
      </trkpt>
      <trkpt lat="44.55682" lon="4.64077">
        <ele>408.20001220703</ele>
        <time>2020-06-14T13:02:12.000Z</time>
      </trkpt>
      <trkpt lat="44.55683" lon="4.64077">
        <ele>408.20001220703</ele>
        <time>2020-06-14T13:02:14.000Z</time>
      </trkpt>
      <trkpt lat="44.55687" lon="4.64074">
        <ele>409</ele>
        <time>2020-06-14T13:02:20.000Z</time>
      </trkpt>
      <trkpt lat="44.55688" lon="4.64073">
        <ele>409.39999389648</ele>
        <time>2020-06-14T13:02:21.000Z</time>
      </trkpt>
      <trkpt lat="44.55691" lon="4.64069">
        <ele>410.20001220703</ele>
        <time>2020-06-14T13:02:25.000Z</time>
      </trkpt>
      <trkpt lat="44.55691" lon="4.64069">
        <ele>410.60000610352</ele>
        <time>2020-06-14T13:02:26.000Z</time>
      </trkpt>
      <trkpt lat="44.55694" lon="4.64068">
        <ele>411.39999389648</ele>
        <time>2020-06-14T13:02:31.000Z</time>
      </trkpt>
      <trkpt lat="44.55695" lon="4.64068">
        <ele>411.60000610352</ele>
        <time>2020-06-14T13:02:32.000Z</time>
      </trkpt>
      <trkpt lat="44.55697" lon="4.64067">
        <ele>411.79998779297</ele>
        <time>2020-06-14T13:02:33.000Z</time>
      </trkpt>
      <trkpt lat="44.55704" lon="4.64067">
        <ele>412.39999389648</ele>
        <time>2020-06-14T13:02:38.000Z</time>
      </trkpt>
      <trkpt lat="44.55706" lon="4.64066">
        <ele>412.60000610352</ele>
        <time>2020-06-14T13:02:39.000Z</time>
      </trkpt>
      <trkpt lat="44.5571" lon="4.64062">
        <ele>412.60000610352</ele>
        <time>2020-06-14T13:02:42.000Z</time>
      </trkpt>
      <trkpt lat="44.55712" lon="4.64058">
        <ele>412.60000610352</ele>
        <time>2020-06-14T13:02:44.000Z</time>
      </trkpt>
      <trkpt lat="44.55713" lon="4.64054">
        <ele>413.60000610352</ele>
        <time>2020-06-14T13:02:47.000Z</time>
      </trkpt>
      <trkpt lat="44.55712" lon="4.64052">
        <ele>414.20001220703</ele>
        <time>2020-06-14T13:02:49.000Z</time>
      </trkpt>
      <trkpt lat="44.5571" lon="4.64049">
        <ele>414.79998779297</ele>
        <time>2020-06-14T13:02:52.000Z</time>
      </trkpt>
      <trkpt lat="44.55707" lon="4.64044">
        <ele>415.20001220703</ele>
        <time>2020-06-14T13:02:55.000Z</time>
      </trkpt>
      <trkpt lat="44.55706" lon="4.64044">
        <ele>415.39999389648</ele>
        <time>2020-06-14T13:02:56.000Z</time>
      </trkpt>
      <trkpt lat="44.55705" lon="4.64042">
        <ele>416</ele>
        <time>2020-06-14T13:02:58.000Z</time>
      </trkpt>
      <trkpt lat="44.55704" lon="4.64041">
        <ele>416.60000610352</ele>
        <time>2020-06-14T13:03:00.000Z</time>
      </trkpt>
      <trkpt lat="44.55705" lon="4.64039">
        <ele>418.20001220703</ele>
        <time>2020-06-14T13:03:20.000Z</time>
      </trkpt>
      <trkpt lat="44.55705" lon="4.64036">
        <ele>418.20001220703</ele>
        <time>2020-06-14T13:03:24.000Z</time>
      </trkpt>
      <trkpt lat="44.55705" lon="4.64035">
        <ele>418.20001220703</ele>
        <time>2020-06-14T13:03:27.000Z</time>
      </trkpt>
      <trkpt lat="44.55706" lon="4.64033">
        <ele>418.79998779297</ele>
        <time>2020-06-14T13:03:30.000Z</time>
      </trkpt>
      <trkpt lat="44.55706" lon="4.64032">
        <ele>419.39999389648</ele>
        <time>2020-06-14T13:03:32.000Z</time>
      </trkpt>
      <trkpt lat="44.55706" lon="4.64031">
        <ele>419.79998779297</ele>
        <time>2020-06-14T13:03:34.000Z</time>
      </trkpt>
      <trkpt lat="44.55706" lon="4.6403">
        <ele>419.79998779297</ele>
        <time>2020-06-14T13:03:35.000Z</time>
      </trkpt>
      <trkpt lat="44.55709" lon="4.64027">
        <ele>420.39999389648</ele>
        <time>2020-06-14T13:03:42.000Z</time>
      </trkpt>
      <trkpt lat="44.55709" lon="4.64026">
        <ele>420.60000610352</ele>
        <time>2020-06-14T13:03:43.000Z</time>
      </trkpt>
      <trkpt lat="44.5571" lon="4.64025">
        <ele>420.60000610352</ele>
        <time>2020-06-14T13:03:44.000Z</time>
      </trkpt>
      <trkpt lat="44.55711" lon="4.64023">
        <ele>421.60000610352</ele>
        <time>2020-06-14T13:03:47.000Z</time>
      </trkpt>
      <trkpt lat="44.55713" lon="4.64022">
        <ele>422</ele>
        <time>2020-06-14T13:03:50.000Z</time>
      </trkpt>
      <trkpt lat="44.55714" lon="4.6402">
        <ele>422.60000610352</ele>
        <time>2020-06-14T13:03:53.000Z</time>
      </trkpt>
      <trkpt lat="44.55716" lon="4.64017">
        <ele>423.20001220703</ele>
        <time>2020-06-14T13:03:57.000Z</time>
      </trkpt>
      <trkpt lat="44.55717" lon="4.64016">
        <ele>423.39999389648</ele>
        <time>2020-06-14T13:03:59.000Z</time>
      </trkpt>
      <trkpt lat="44.55717" lon="4.64015">
        <ele>423.60000610352</ele>
        <time>2020-06-14T13:04:01.000Z</time>
      </trkpt>
      <trkpt lat="44.55718" lon="4.64012">
        <ele>424.20001220703</ele>
        <time>2020-06-14T13:04:05.000Z</time>
      </trkpt>
      <trkpt lat="44.5572" lon="4.64007">
        <ele>425.79998779297</ele>
        <time>2020-06-14T13:04:16.000Z</time>
      </trkpt>
      <trkpt lat="44.55722" lon="4.64002">
        <ele>426.79998779297</ele>
        <time>2020-06-14T13:04:22.000Z</time>
      </trkpt>
      <trkpt lat="44.55722" lon="4.64001">
        <ele>427</ele>
        <time>2020-06-14T13:04:23.000Z</time>
      </trkpt>
      <trkpt lat="44.55722" lon="4.63991">
        <ele>428</ele>
        <time>2020-06-14T13:04:32.000Z</time>
      </trkpt>
      <trkpt lat="44.55722" lon="4.6399">
        <ele>428</ele>
        <time>2020-06-14T13:04:33.000Z</time>
      </trkpt>
      <trkpt lat="44.5572" lon="4.63987">
        <ele>429</ele>
        <time>2020-06-14T13:04:39.000Z</time>
      </trkpt>
      <trkpt lat="44.5572" lon="4.63986">
        <ele>429.20001220703</ele>
        <time>2020-06-14T13:04:40.000Z</time>
      </trkpt>
      <trkpt lat="44.55719" lon="4.63983">
        <ele>430</ele>
        <time>2020-06-14T13:04:43.000Z</time>
      </trkpt>
      <trkpt lat="44.55718" lon="4.63981">
        <ele>430.60000610352</ele>
        <time>2020-06-14T13:04:46.000Z</time>
      </trkpt>
      <trkpt lat="44.55718" lon="4.63979">
        <ele>431.20001220703</ele>
        <time>2020-06-14T13:04:48.000Z</time>
      </trkpt>
      <trkpt lat="44.55718" lon="4.63973">
        <ele>431.60000610352</ele>
        <time>2020-06-14T13:04:54.000Z</time>
      </trkpt>
      <trkpt lat="44.55717" lon="4.63972">
        <ele>431.79998779297</ele>
        <time>2020-06-14T13:04:55.000Z</time>
      </trkpt>
      <trkpt lat="44.55715" lon="4.63964">
        <ele>432.79998779297</ele>
        <time>2020-06-14T13:05:02.000Z</time>
      </trkpt>
      <trkpt lat="44.55715" lon="4.63963">
        <ele>432.79998779297</ele>
        <time>2020-06-14T13:05:03.000Z</time>
      </trkpt>
      <trkpt lat="44.55713" lon="4.63954">
        <ele>433.79998779297</ele>
        <time>2020-06-14T13:05:09.000Z</time>
      </trkpt>
      <trkpt lat="44.55713" lon="4.63952">
        <ele>434</ele>
        <time>2020-06-14T13:05:11.000Z</time>
      </trkpt>
      <trkpt lat="44.55714" lon="4.63947">
        <ele>434.60000610352</ele>
        <time>2020-06-14T13:05:16.000Z</time>
      </trkpt>
      <trkpt lat="44.55715" lon="4.63946">
        <ele>434.79998779297</ele>
        <time>2020-06-14T13:05:18.000Z</time>
      </trkpt>
      <trkpt lat="44.55717" lon="4.63946">
        <ele>435</ele>
        <time>2020-06-14T13:05:19.000Z</time>
      </trkpt>
      <trkpt lat="44.5572" lon="4.63942">
        <ele>435.60000610352</ele>
        <time>2020-06-14T13:05:22.000Z</time>
      </trkpt>
      <trkpt lat="44.55721" lon="4.63936">
        <ele>436</ele>
        <time>2020-06-14T13:05:26.000Z</time>
      </trkpt>
      <trkpt lat="44.55722" lon="4.63936">
        <ele>436</ele>
        <time>2020-06-14T13:05:27.000Z</time>
      </trkpt>
      <trkpt lat="44.55733" lon="4.63927">
        <ele>437</ele>
        <time>2020-06-14T13:05:35.000Z</time>
      </trkpt>
      <trkpt lat="44.55734" lon="4.63925">
        <ele>437.39999389648</ele>
        <time>2020-06-14T13:05:36.000Z</time>
      </trkpt>
      <trkpt lat="44.55738" lon="4.63918">
        <ele>438.39999389648</ele>
        <time>2020-06-14T13:05:40.000Z</time>
      </trkpt>
      <trkpt lat="44.5574" lon="4.63913">
        <ele>439</ele>
        <time>2020-06-14T13:05:43.000Z</time>
      </trkpt>
      <trkpt lat="44.55742" lon="4.63907">
        <ele>439.79998779297</ele>
        <time>2020-06-14T13:05:46.000Z</time>
      </trkpt>
      <trkpt lat="44.55742" lon="4.63906">
        <ele>439.79998779297</ele>
        <time>2020-06-14T13:05:47.000Z</time>
      </trkpt>
      <trkpt lat="44.55743" lon="4.63904">
        <ele>439.79998779297</ele>
        <time>2020-06-14T13:05:48.000Z</time>
      </trkpt>
      <trkpt lat="44.55747" lon="4.63898">
        <ele>440.20001220703</ele>
        <time>2020-06-14T13:05:52.000Z</time>
      </trkpt>
      <trkpt lat="44.55753" lon="4.63892">
        <ele>440.79998779297</ele>
        <time>2020-06-14T13:05:56.000Z</time>
      </trkpt>
      <trkpt lat="44.55761" lon="4.63882">
        <ele>441.39999389648</ele>
        <time>2020-06-14T13:06:03.000Z</time>
      </trkpt>
      <trkpt lat="44.55764" lon="4.63871">
        <ele>442</ele>
        <time>2020-06-14T13:06:08.000Z</time>
      </trkpt>
      <trkpt lat="44.55764" lon="4.63869">
        <ele>442</ele>
        <time>2020-06-14T13:06:09.000Z</time>
      </trkpt>
      <trkpt lat="44.55762" lon="4.63849">
        <ele>442.79998779297</ele>
        <time>2020-06-14T13:06:15.000Z</time>
      </trkpt>
      <trkpt lat="44.5576" lon="4.63827">
        <ele>443</ele>
        <time>2020-06-14T13:06:21.000Z</time>
      </trkpt>
      <trkpt lat="44.5576" lon="4.63799">
        <ele>442.60000610352</ele>
        <time>2020-06-14T13:06:29.000Z</time>
      </trkpt>
      <trkpt lat="44.55761" lon="4.63778">
        <ele>442.60000610352</ele>
        <time>2020-06-14T13:06:36.000Z</time>
      </trkpt>
      <trkpt lat="44.5576" lon="4.63766">
        <ele>443.20001220703</ele>
        <time>2020-06-14T13:06:41.000Z</time>
      </trkpt>
      <trkpt lat="44.5576" lon="4.63761">
        <ele>443.60000610352</ele>
        <time>2020-06-14T13:06:43.000Z</time>
      </trkpt>
      <trkpt lat="44.5576" lon="4.63754">
        <ele>444</ele>
        <time>2020-06-14T13:06:46.000Z</time>
      </trkpt>
      <trkpt lat="44.55759" lon="4.63747">
        <ele>444.39999389648</ele>
        <time>2020-06-14T13:06:49.000Z</time>
      </trkpt>
      <trkpt lat="44.55759" lon="4.63744">
        <ele>444.60000610352</ele>
        <time>2020-06-14T13:06:50.000Z</time>
      </trkpt>
      <trkpt lat="44.5576" lon="4.63734">
        <ele>445.39999389648</ele>
        <time>2020-06-14T13:06:55.000Z</time>
      </trkpt>
      <trkpt lat="44.5576" lon="4.63732">
        <ele>445.60000610352</ele>
        <time>2020-06-14T13:06:56.000Z</time>
      </trkpt>
      <trkpt lat="44.5576" lon="4.63724">
        <ele>446.79998779297</ele>
        <time>2020-06-14T13:06:59.000Z</time>
      </trkpt>
      <trkpt lat="44.55763" lon="4.63712">
        <ele>447.79998779297</ele>
        <time>2020-06-14T13:07:04.000Z</time>
      </trkpt>
      <trkpt lat="44.55764" lon="4.63709">
        <ele>448</ele>
        <time>2020-06-14T13:07:06.000Z</time>
      </trkpt>
      <trkpt lat="44.55767" lon="4.63701">
        <ele>448.20001220703</ele>
        <time>2020-06-14T13:07:09.000Z</time>
      </trkpt>
      <trkpt lat="44.55773" lon="4.63676">
        <ele>448.20001220703</ele>
        <time>2020-06-14T13:07:13.000Z</time>
      </trkpt>
      <trkpt lat="44.55786" lon="4.63659">
        <ele>448.20001220703</ele>
        <time>2020-06-14T13:07:16.000Z</time>
      </trkpt>
      <trkpt lat="44.558" lon="4.63634">
        <ele>446.79998779297</ele>
        <time>2020-06-14T13:07:20.000Z</time>
      </trkpt>
      <trkpt lat="44.55805" lon="4.63629">
        <ele>445.60000610352</ele>
        <time>2020-06-14T13:07:21.000Z</time>
      </trkpt>
      <trkpt lat="44.55813" lon="4.63617">
        <ele>444.20001220703</ele>
        <time>2020-06-14T13:07:23.000Z</time>
      </trkpt>
      <trkpt lat="44.55817" lon="4.6361">
        <ele>443.20001220703</ele>
        <time>2020-06-14T13:07:24.000Z</time>
      </trkpt>
      <trkpt lat="44.55822" lon="4.63603">
        <ele>442.60000610352</ele>
        <time>2020-06-14T13:07:25.000Z</time>
      </trkpt>
      <trkpt lat="44.55832" lon="4.63591">
        <ele>441.20001220703</ele>
        <time>2020-06-14T13:07:27.000Z</time>
      </trkpt>
      <trkpt lat="44.55838" lon="4.63586">
        <ele>440.20001220703</ele>
        <time>2020-06-14T13:07:28.000Z</time>
      </trkpt>
      <trkpt lat="44.55843" lon="4.6358">
        <ele>439.60000610352</ele>
        <time>2020-06-14T13:07:29.000Z</time>
      </trkpt>
      <trkpt lat="44.55852" lon="4.63571">
        <ele>438</ele>
        <time>2020-06-14T13:07:31.000Z</time>
      </trkpt>
      <trkpt lat="44.55857" lon="4.63567">
        <ele>437.39999389648</ele>
        <time>2020-06-14T13:07:32.000Z</time>
      </trkpt>
      <trkpt lat="44.55861" lon="4.63562">
        <ele>435.79998779297</ele>
        <time>2020-06-14T13:07:33.000Z</time>
      </trkpt>
      <trkpt lat="44.55866" lon="4.63558">
        <ele>434</ele>
        <time>2020-06-14T13:07:34.000Z</time>
      </trkpt>
      <trkpt lat="44.55871" lon="4.63554">
        <ele>433</ele>
        <time>2020-06-14T13:07:35.000Z</time>
      </trkpt>
      <trkpt lat="44.55875" lon="4.6355">
        <ele>431.79998779297</ele>
        <time>2020-06-14T13:07:36.000Z</time>
      </trkpt>
      <trkpt lat="44.55879" lon="4.63548">
        <ele>431</ele>
        <time>2020-06-14T13:07:37.000Z</time>
      </trkpt>
      <trkpt lat="44.55883" lon="4.63546">
        <ele>428.60000610352</ele>
        <time>2020-06-14T13:07:38.000Z</time>
      </trkpt>
      <trkpt lat="44.55894" lon="4.63543">
        <ele>427</ele>
        <time>2020-06-14T13:07:40.000Z</time>
      </trkpt>
      <trkpt lat="44.559" lon="4.63539">
        <ele>425.79998779297</ele>
        <time>2020-06-14T13:07:41.000Z</time>
      </trkpt>
      <trkpt lat="44.55905" lon="4.63534">
        <ele>424.39999389648</ele>
        <time>2020-06-14T13:07:42.000Z</time>
      </trkpt>
      <trkpt lat="44.5591" lon="4.63527">
        <ele>422.60000610352</ele>
        <time>2020-06-14T13:07:43.000Z</time>
      </trkpt>
      <trkpt lat="44.55915" lon="4.63522">
        <ele>421.39999389648</ele>
        <time>2020-06-14T13:07:44.000Z</time>
      </trkpt>
      <trkpt lat="44.55921" lon="4.63517">
        <ele>420.60000610352</ele>
        <time>2020-06-14T13:07:45.000Z</time>
      </trkpt>
      <trkpt lat="44.55927" lon="4.63513">
        <ele>420</ele>
        <time>2020-06-14T13:07:46.000Z</time>
      </trkpt>
      <trkpt lat="44.55936" lon="4.63502">
        <ele>419</ele>
        <time>2020-06-14T13:07:48.000Z</time>
      </trkpt>
      <trkpt lat="44.55941" lon="4.63497">
        <ele>418.39999389648</ele>
        <time>2020-06-14T13:07:49.000Z</time>
      </trkpt>
      <trkpt lat="44.55945" lon="4.63493">
        <ele>417.60000610352</ele>
        <time>2020-06-14T13:07:50.000Z</time>
      </trkpt>
      <trkpt lat="44.55956" lon="4.63487">
        <ele>416</ele>
        <time>2020-06-14T13:07:52.000Z</time>
      </trkpt>
      <trkpt lat="44.55962" lon="4.63486">
        <ele>415.60000610352</ele>
        <time>2020-06-14T13:07:53.000Z</time>
      </trkpt>
      <trkpt lat="44.55968" lon="4.63484">
        <ele>415.39999389648</ele>
        <time>2020-06-14T13:07:54.000Z</time>
      </trkpt>
      <trkpt lat="44.55975" lon="4.63482">
        <ele>414.79998779297</ele>
        <time>2020-06-14T13:07:55.000Z</time>
      </trkpt>
      <trkpt lat="44.55994" lon="4.63473">
        <ele>413.60000610352</ele>
        <time>2020-06-14T13:07:58.000Z</time>
      </trkpt>
      <trkpt lat="44.56" lon="4.63471">
        <ele>413.39999389648</ele>
        <time>2020-06-14T13:07:59.000Z</time>
      </trkpt>
      <trkpt lat="44.56018" lon="4.63467">
        <ele>412.20001220703</ele>
        <time>2020-06-14T13:08:02.000Z</time>
      </trkpt>
      <trkpt lat="44.56028" lon="4.63464">
        <ele>411.60000610352</ele>
        <time>2020-06-14T13:08:04.000Z</time>
      </trkpt>
      <trkpt lat="44.56034" lon="4.63462">
        <ele>411.60000610352</ele>
        <time>2020-06-14T13:08:05.000Z</time>
      </trkpt>
      <trkpt lat="44.56045" lon="4.63457">
        <ele>411.20001220703</ele>
        <time>2020-06-14T13:08:07.000Z</time>
      </trkpt>
      <trkpt lat="44.5605" lon="4.63455">
        <ele>411</ele>
        <time>2020-06-14T13:08:08.000Z</time>
      </trkpt>
      <trkpt lat="44.56055" lon="4.63452">
        <ele>411</ele>
        <time>2020-06-14T13:08:09.000Z</time>
      </trkpt>
      <trkpt lat="44.5607" lon="4.63445">
        <ele>410.20001220703</ele>
        <time>2020-06-14T13:08:12.000Z</time>
      </trkpt>
      <trkpt lat="44.56076" lon="4.63443">
        <ele>410</ele>
        <time>2020-06-14T13:08:13.000Z</time>
      </trkpt>
      <trkpt lat="44.56086" lon="4.63436">
        <ele>409.79998779297</ele>
        <time>2020-06-14T13:08:15.000Z</time>
      </trkpt>
      <trkpt lat="44.5611" lon="4.63422">
        <ele>409.20001220703</ele>
        <time>2020-06-14T13:08:19.000Z</time>
      </trkpt>
      <trkpt lat="44.56115" lon="4.63418">
        <ele>409</ele>
        <time>2020-06-14T13:08:20.000Z</time>
      </trkpt>
      <trkpt lat="44.5613" lon="4.63405">
        <ele>408.39999389648</ele>
        <time>2020-06-14T13:08:23.000Z</time>
      </trkpt>
      <trkpt lat="44.5614" lon="4.63399">
        <ele>407.60000610352</ele>
        <time>2020-06-14T13:08:25.000Z</time>
      </trkpt>
      <trkpt lat="44.56147" lon="4.6339">
        <ele>406.39999389648</ele>
        <time>2020-06-14T13:08:27.000Z</time>
      </trkpt>
      <trkpt lat="44.56148" lon="4.63378">
        <ele>405.39999389648</ele>
        <time>2020-06-14T13:08:29.000Z</time>
      </trkpt>
      <trkpt lat="44.56149" lon="4.63372">
        <ele>405</ele>
        <time>2020-06-14T13:08:30.000Z</time>
      </trkpt>
      <trkpt lat="44.56158" lon="4.63352">
        <ele>404.20001220703</ele>
        <time>2020-06-14T13:08:34.000Z</time>
      </trkpt>
      <trkpt lat="44.56164" lon="4.63346">
        <ele>403.79998779297</ele>
        <time>2020-06-14T13:08:36.000Z</time>
      </trkpt>
      <trkpt lat="44.56172" lon="4.63338">
        <ele>403</ele>
        <time>2020-06-14T13:08:39.000Z</time>
      </trkpt>
      <trkpt lat="44.56189" lon="4.63322">
        <ele>402.79998779297</ele>
        <time>2020-06-14T13:08:46.000Z</time>
      </trkpt>
      <trkpt lat="44.56206" lon="4.63308">
        <ele>403.39999389648</ele>
        <time>2020-06-14T13:08:53.000Z</time>
      </trkpt>
      <trkpt lat="44.56212" lon="4.63302">
        <ele>404.20001220703</ele>
        <time>2020-06-14T13:08:56.000Z</time>
      </trkpt>
      <trkpt lat="44.56222" lon="4.63295">
        <ele>404.79998779297</ele>
        <time>2020-06-14T13:09:00.000Z</time>
      </trkpt>
      <trkpt lat="44.56229" lon="4.6329">
        <ele>405.20001220703</ele>
        <time>2020-06-14T13:09:03.000Z</time>
      </trkpt>
      <trkpt lat="44.56236" lon="4.63284">
        <ele>405.60000610352</ele>
        <time>2020-06-14T13:09:06.000Z</time>
      </trkpt>
      <trkpt lat="44.56257" lon="4.63272">
        <ele>405.79998779297</ele>
        <time>2020-06-14T13:09:14.000Z</time>
      </trkpt>
      <trkpt lat="44.56272" lon="4.63265">
        <ele>406</ele>
        <time>2020-06-14T13:09:20.000Z</time>
      </trkpt>
      <trkpt lat="44.56282" lon="4.63263">
        <ele>406.20001220703</ele>
        <time>2020-06-14T13:09:24.000Z</time>
      </trkpt>
      <trkpt lat="44.5629" lon="4.63262">
        <ele>406.39999389648</ele>
        <time>2020-06-14T13:09:27.000Z</time>
      </trkpt>
      <trkpt lat="44.5631" lon="4.63253">
        <ele>406.60000610352</ele>
        <time>2020-06-14T13:09:34.000Z</time>
      </trkpt>
      <trkpt lat="44.56326" lon="4.63239">
        <ele>406.60000610352</ele>
        <time>2020-06-14T13:09:40.000Z</time>
      </trkpt>
      <trkpt lat="44.56341" lon="4.63214">
        <ele>406.60000610352</ele>
        <time>2020-06-14T13:09:47.000Z</time>
      </trkpt>
      <trkpt lat="44.56355" lon="4.63191">
        <ele>406.60000610352</ele>
        <time>2020-06-14T13:09:54.000Z</time>
      </trkpt>
      <trkpt lat="44.56367" lon="4.63172">
        <ele>406.79998779297</ele>
        <time>2020-06-14T13:10:01.000Z</time>
      </trkpt>
      <trkpt lat="44.56371" lon="4.63164">
        <ele>407.20001220703</ele>
        <time>2020-06-14T13:10:04.000Z</time>
      </trkpt>
      <trkpt lat="44.56377" lon="4.63155">
        <ele>408.20001220703</ele>
        <time>2020-06-14T13:10:08.000Z</time>
      </trkpt>
      <trkpt lat="44.56383" lon="4.63147">
        <ele>409.20001220703</ele>
        <time>2020-06-14T13:10:12.000Z</time>
      </trkpt>
      <trkpt lat="44.56386" lon="4.63142">
        <ele>409.39999389648</ele>
        <time>2020-06-14T13:10:14.000Z</time>
      </trkpt>
      <trkpt lat="44.56395" lon="4.63129">
        <ele>410.60000610352</ele>
        <time>2020-06-14T13:10:20.000Z</time>
      </trkpt>
      <trkpt lat="44.56396" lon="4.63127">
        <ele>410.60000610352</ele>
        <time>2020-06-14T13:10:21.000Z</time>
      </trkpt>
      <trkpt lat="44.56398" lon="4.63117">
        <ele>411.60000610352</ele>
        <time>2020-06-14T13:10:25.000Z</time>
      </trkpt>
      <trkpt lat="44.56397" lon="4.63115">
        <ele>411.79998779297</ele>
        <time>2020-06-14T13:10:26.000Z</time>
      </trkpt>
      <trkpt lat="44.56395" lon="4.63108">
        <ele>412</ele>
        <time>2020-06-14T13:10:29.000Z</time>
      </trkpt>
      <trkpt lat="44.56392" lon="4.63104">
        <ele>412</ele>
        <time>2020-06-14T13:10:31.000Z</time>
      </trkpt>
      <trkpt lat="44.56379" lon="4.63095">
        <ele>412</ele>
        <time>2020-06-14T13:10:35.000Z</time>
      </trkpt>
      <trkpt lat="44.56369" lon="4.63095">
        <ele>411.79998779297</ele>
        <time>2020-06-14T13:10:38.000Z</time>
      </trkpt>
      <trkpt lat="44.56362" lon="4.63097">
        <ele>411.39999389648</ele>
        <time>2020-06-14T13:10:40.000Z</time>
      </trkpt>
      <trkpt lat="44.56355" lon="4.63094">
        <ele>410.79998779297</ele>
        <time>2020-06-14T13:10:42.000Z</time>
      </trkpt>
      <trkpt lat="44.56352" lon="4.63091">
        <ele>410.20001220703</ele>
        <time>2020-06-14T13:10:43.000Z</time>
      </trkpt>
      <trkpt lat="44.56342" lon="4.63086">
        <ele>409.20001220703</ele>
        <time>2020-06-14T13:10:46.000Z</time>
      </trkpt>
      <trkpt lat="44.56334" lon="4.63084">
        <ele>408.60000610352</ele>
        <time>2020-06-14T13:10:48.000Z</time>
      </trkpt>
      <trkpt lat="44.56329" lon="4.63083">
        <ele>408</ele>
        <time>2020-06-14T13:10:49.000Z</time>
      </trkpt>
      <trkpt lat="44.56325" lon="4.63081">
        <ele>406.60000610352</ele>
        <time>2020-06-14T13:10:50.000Z</time>
      </trkpt>
      <trkpt lat="44.56319" lon="4.63074">
        <ele>405.39999389648</ele>
        <time>2020-06-14T13:10:52.000Z</time>
      </trkpt>
      <trkpt lat="44.56314" lon="4.63063">
        <ele>404.20001220703</ele>
        <time>2020-06-14T13:10:55.000Z</time>
      </trkpt>
      <trkpt lat="44.5631" lon="4.63057">
        <ele>402.79998779297</ele>
        <time>2020-06-14T13:10:57.000Z</time>
      </trkpt>
      <trkpt lat="44.56308" lon="4.63054">
        <ele>401</ele>
        <time>2020-06-14T13:10:59.000Z</time>
      </trkpt>
      <trkpt lat="44.56305" lon="4.63053">
        <ele>399.39999389648</ele>
        <time>2020-06-14T13:11:01.000Z</time>
      </trkpt>
      <trkpt lat="44.56301" lon="4.63057">
        <ele>398.60000610352</ele>
        <time>2020-06-14T13:11:03.000Z</time>
      </trkpt>
      <trkpt lat="44.563" lon="4.63059">
        <ele>398.39999389648</ele>
        <time>2020-06-14T13:11:04.000Z</time>
      </trkpt>
      <trkpt lat="44.56296" lon="4.63064">
        <ele>398</ele>
        <time>2020-06-14T13:11:06.000Z</time>
      </trkpt>
      <trkpt lat="44.56283" lon="4.6307">
        <ele>397</ele>
        <time>2020-06-14T13:11:10.000Z</time>
      </trkpt>
      <trkpt lat="44.56268" lon="4.63059">
        <ele>396.39999389648</ele>
        <time>2020-06-14T13:11:14.000Z</time>
      </trkpt>
      <trkpt lat="44.56253" lon="4.63059">
        <ele>395.60000610352</ele>
        <time>2020-06-14T13:11:17.000Z</time>
      </trkpt>
      <trkpt lat="44.56249" lon="4.63059">
        <ele>394.79998779297</ele>
        <time>2020-06-14T13:11:18.000Z</time>
      </trkpt>
      <trkpt lat="44.56245" lon="4.63056">
        <ele>394.20001220703</ele>
        <time>2020-06-14T13:11:19.000Z</time>
      </trkpt>
      <trkpt lat="44.56241" lon="4.63052">
        <ele>393.60000610352</ele>
        <time>2020-06-14T13:11:20.000Z</time>
      </trkpt>
      <trkpt lat="44.56238" lon="4.63046">
        <ele>393</ele>
        <time>2020-06-14T13:11:21.000Z</time>
      </trkpt>
      <trkpt lat="44.56234" lon="4.63033">
        <ele>392</ele>
        <time>2020-06-14T13:11:23.000Z</time>
      </trkpt>
      <trkpt lat="44.56232" lon="4.63026">
        <ele>391</ele>
        <time>2020-06-14T13:11:24.000Z</time>
      </trkpt>
      <trkpt lat="44.56229" lon="4.6302">
        <ele>390.60000610352</ele>
        <time>2020-06-14T13:11:25.000Z</time>
      </trkpt>
      <trkpt lat="44.56227" lon="4.63014">
        <ele>390</ele>
        <time>2020-06-14T13:11:26.000Z</time>
      </trkpt>
      <trkpt lat="44.56226" lon="4.63007">
        <ele>388.20001220703</ele>
        <time>2020-06-14T13:11:27.000Z</time>
      </trkpt>
      <trkpt lat="44.56227" lon="4.62991">
        <ele>387.39999389648</ele>
        <time>2020-06-14T13:11:29.000Z</time>
      </trkpt>
      <trkpt lat="44.56227" lon="4.62984">
        <ele>387</ele>
        <time>2020-06-14T13:11:30.000Z</time>
      </trkpt>
      <trkpt lat="44.56227" lon="4.62976">
        <ele>386.60000610352</ele>
        <time>2020-06-14T13:11:31.000Z</time>
      </trkpt>
      <trkpt lat="44.56228" lon="4.62969">
        <ele>386</ele>
        <time>2020-06-14T13:11:32.000Z</time>
      </trkpt>
      <trkpt lat="44.56231" lon="4.62953">
        <ele>384.60000610352</ele>
        <time>2020-06-14T13:11:34.000Z</time>
      </trkpt>
      <trkpt lat="44.56236" lon="4.62936">
        <ele>383</ele>
        <time>2020-06-14T13:11:36.000Z</time>
      </trkpt>
      <trkpt lat="44.56239" lon="4.62927">
        <ele>382.60000610352</ele>
        <time>2020-06-14T13:11:37.000Z</time>
      </trkpt>
      <trkpt lat="44.56248" lon="4.62899">
        <ele>381.60000610352</ele>
        <time>2020-06-14T13:11:40.000Z</time>
      </trkpt>
      <trkpt lat="44.56251" lon="4.62891">
        <ele>380.39999389648</ele>
        <time>2020-06-14T13:11:41.000Z</time>
      </trkpt>
      <trkpt lat="44.56252" lon="4.62882">
        <ele>379.79998779297</ele>
        <time>2020-06-14T13:11:42.000Z</time>
      </trkpt>
      <trkpt lat="44.56253" lon="4.62873">
        <ele>379</ele>
        <time>2020-06-14T13:11:43.000Z</time>
      </trkpt>
      <trkpt lat="44.56253" lon="4.62855">
        <ele>377.39999389648</ele>
        <time>2020-06-14T13:11:45.000Z</time>
      </trkpt>
      <trkpt lat="44.56254" lon="4.62846">
        <ele>376.39999389648</ele>
        <time>2020-06-14T13:11:46.000Z</time>
      </trkpt>
      <trkpt lat="44.56255" lon="4.62838">
        <ele>375.79998779297</ele>
        <time>2020-06-14T13:11:47.000Z</time>
      </trkpt>
      <trkpt lat="44.56252" lon="4.62822">
        <ele>375.20001220703</ele>
        <time>2020-06-14T13:11:49.000Z</time>
      </trkpt>
      <trkpt lat="44.56251" lon="4.62814">
        <ele>375</ele>
        <time>2020-06-14T13:11:50.000Z</time>
      </trkpt>
      <trkpt lat="44.56249" lon="4.62806">
        <ele>374.79998779297</ele>
        <time>2020-06-14T13:11:51.000Z</time>
      </trkpt>
      <trkpt lat="44.56245" lon="4.62783">
        <ele>374.60000610352</ele>
        <time>2020-06-14T13:11:54.000Z</time>
      </trkpt>
      <trkpt lat="44.56246" lon="4.62762">
        <ele>374.20001220703</ele>
        <time>2020-06-14T13:11:57.000Z</time>
      </trkpt>
      <trkpt lat="44.56247" lon="4.62756">
        <ele>374</ele>
        <time>2020-06-14T13:11:58.000Z</time>
      </trkpt>
      <trkpt lat="44.56246" lon="4.62749">
        <ele>373.60000610352</ele>
        <time>2020-06-14T13:11:59.000Z</time>
      </trkpt>
      <trkpt lat="44.56241" lon="4.62733">
        <ele>373.39999389648</ele>
        <time>2020-06-14T13:12:02.000Z</time>
      </trkpt>
      <trkpt lat="44.5623" lon="4.62713">
        <ele>373.20001220703</ele>
        <time>2020-06-14T13:12:06.000Z</time>
      </trkpt>
      <trkpt lat="44.56227" lon="4.62709">
        <ele>373.20001220703</ele>
        <time>2020-06-14T13:12:07.000Z</time>
      </trkpt>
      <trkpt lat="44.56213" lon="4.62693">
        <ele>373</ele>
        <time>2020-06-14T13:12:11.000Z</time>
      </trkpt>
      <trkpt lat="44.56205" lon="4.62686">
        <ele>372.79998779297</ele>
        <time>2020-06-14T13:12:13.000Z</time>
      </trkpt>
      <trkpt lat="44.56201" lon="4.62683">
        <ele>372.60000610352</ele>
        <time>2020-06-14T13:12:14.000Z</time>
      </trkpt>
      <trkpt lat="44.56197" lon="4.62679">
        <ele>372.60000610352</ele>
        <time>2020-06-14T13:12:15.000Z</time>
      </trkpt>
      <trkpt lat="44.56189" lon="4.62664">
        <ele>372.20001220703</ele>
        <time>2020-06-14T13:12:18.000Z</time>
      </trkpt>
      <trkpt lat="44.5618" lon="4.62635">
        <ele>372</ele>
        <time>2020-06-14T13:12:22.000Z</time>
      </trkpt>
      <trkpt lat="44.56176" lon="4.62628">
        <ele>371.79998779297</ele>
        <time>2020-06-14T13:12:23.000Z</time>
      </trkpt>
      <trkpt lat="44.56173" lon="4.62621">
        <ele>371.39999389648</ele>
        <time>2020-06-14T13:12:24.000Z</time>
      </trkpt>
      <trkpt lat="44.56169" lon="4.62615">
        <ele>371.20001220703</ele>
        <time>2020-06-14T13:12:25.000Z</time>
      </trkpt>
      <trkpt lat="44.56158" lon="4.62604">
        <ele>370.79998779297</ele>
        <time>2020-06-14T13:12:27.000Z</time>
      </trkpt>
      <trkpt lat="44.56152" lon="4.626">
        <ele>370.20001220703</ele>
        <time>2020-06-14T13:12:28.000Z</time>
      </trkpt>
      <trkpt lat="44.56146" lon="4.62596">
        <ele>369.20001220703</ele>
        <time>2020-06-14T13:12:29.000Z</time>
      </trkpt>
      <trkpt lat="44.5614" lon="4.62591">
        <ele>368.60000610352</ele>
        <time>2020-06-14T13:12:30.000Z</time>
      </trkpt>
      <trkpt lat="44.56134" lon="4.62587">
        <ele>368.20001220703</ele>
        <time>2020-06-14T13:12:31.000Z</time>
      </trkpt>
      <trkpt lat="44.56113" lon="4.62577">
        <ele>367.39999389648</ele>
        <time>2020-06-14T13:12:34.000Z</time>
      </trkpt>
      <trkpt lat="44.56099" lon="4.62569">
        <ele>366.79998779297</ele>
        <time>2020-06-14T13:12:36.000Z</time>
      </trkpt>
      <trkpt lat="44.56093" lon="4.62565">
        <ele>366.60000610352</ele>
        <time>2020-06-14T13:12:37.000Z</time>
      </trkpt>
      <trkpt lat="44.5608" lon="4.62557">
        <ele>366</ele>
        <time>2020-06-14T13:12:39.000Z</time>
      </trkpt>
      <trkpt lat="44.56074" lon="4.62554">
        <ele>364.60000610352</ele>
        <time>2020-06-14T13:12:40.000Z</time>
      </trkpt>
      <trkpt lat="44.56063" lon="4.62548">
        <ele>363.39999389648</ele>
        <time>2020-06-14T13:12:42.000Z</time>
      </trkpt>
      <trkpt lat="44.56036" lon="4.62531">
        <ele>362.39999389648</ele>
        <time>2020-06-14T13:12:47.000Z</time>
      </trkpt>
      <trkpt lat="44.56032" lon="4.62527">
        <ele>362.39999389648</ele>
        <time>2020-06-14T13:12:48.000Z</time>
      </trkpt>
      <trkpt lat="44.56026" lon="4.62512">
        <ele>362.20001220703</ele>
        <time>2020-06-14T13:12:51.000Z</time>
      </trkpt>
      <trkpt lat="44.56024" lon="4.6248">
        <ele>362</ele>
        <time>2020-06-14T13:12:56.000Z</time>
      </trkpt>
      <trkpt lat="44.56024" lon="4.62467">
        <ele>361.20001220703</ele>
        <time>2020-06-14T13:12:58.000Z</time>
      </trkpt>
      <trkpt lat="44.56023" lon="4.62452">
        <ele>360.39999389648</ele>
        <time>2020-06-14T13:13:00.000Z</time>
      </trkpt>
      <trkpt lat="44.56022" lon="4.62445">
        <ele>359.60000610352</ele>
        <time>2020-06-14T13:13:01.000Z</time>
      </trkpt>
      <trkpt lat="44.5602" lon="4.62425">
        <ele>358.20001220703</ele>
        <time>2020-06-14T13:13:04.000Z</time>
      </trkpt>
      <trkpt lat="44.56019" lon="4.62421">
        <ele>357.79998779297</ele>
        <time>2020-06-14T13:13:05.000Z</time>
      </trkpt>
      <trkpt lat="44.5602" lon="4.62413">
        <ele>357</ele>
        <time>2020-06-14T13:13:07.000Z</time>
      </trkpt>
      <trkpt lat="44.56023" lon="4.62406">
        <ele>356.39999389648</ele>
        <time>2020-06-14T13:13:09.000Z</time>
      </trkpt>
      <trkpt lat="44.56025" lon="4.62395">
        <ele>355.79998779297</ele>
        <time>2020-06-14T13:13:11.000Z</time>
      </trkpt>
      <trkpt lat="44.56031" lon="4.62387">
        <ele>355.39999389648</ele>
        <time>2020-06-14T13:13:13.000Z</time>
      </trkpt>
      <trkpt lat="44.56036" lon="4.62382">
        <ele>355</ele>
        <time>2020-06-14T13:13:15.000Z</time>
      </trkpt>
      <trkpt lat="44.56038" lon="4.6238">
        <ele>354.79998779297</ele>
        <time>2020-06-14T13:13:16.000Z</time>
      </trkpt>
      <trkpt lat="44.5604" lon="4.62377">
        <ele>354.60000610352</ele>
        <time>2020-06-14T13:13:17.000Z</time>
      </trkpt>
      <trkpt lat="44.56042" lon="4.62373">
        <ele>354.39999389648</ele>
        <time>2020-06-14T13:13:18.000Z</time>
      </trkpt>
      <trkpt lat="44.56049" lon="4.62366">
        <ele>353.79998779297</ele>
        <time>2020-06-14T13:13:20.000Z</time>
      </trkpt>
      <trkpt lat="44.56053" lon="4.62361">
        <ele>352.79998779297</ele>
        <time>2020-06-14T13:13:21.000Z</time>
      </trkpt>
      <trkpt lat="44.56065" lon="4.62348">
        <ele>351.60000610352</ele>
        <time>2020-06-14T13:13:24.000Z</time>
      </trkpt>
      <trkpt lat="44.56073" lon="4.6234">
        <ele>350.60000610352</ele>
        <time>2020-06-14T13:13:26.000Z</time>
      </trkpt>
      <trkpt lat="44.56081" lon="4.62332">
        <ele>350</ele>
        <time>2020-06-14T13:13:28.000Z</time>
      </trkpt>
      <trkpt lat="44.56084" lon="4.6233">
        <ele>349.20001220703</ele>
        <time>2020-06-14T13:13:29.000Z</time>
      </trkpt>
      <trkpt lat="44.56085" lon="4.6233">
        <ele>348</ele>
        <time>2020-06-14T13:13:30.000Z</time>
      </trkpt>
      <trkpt lat="44.56086" lon="4.62333">
        <ele>347.20001220703</ele>
        <time>2020-06-14T13:13:31.000Z</time>
      </trkpt>
      <trkpt lat="44.56087" lon="4.62338">
        <ele>346.79998779297</ele>
        <time>2020-06-14T13:13:32.000Z</time>
      </trkpt>
      <trkpt lat="44.5609" lon="4.62347">
        <ele>345.60000610352</ele>
        <time>2020-06-14T13:13:34.000Z</time>
      </trkpt>
      <trkpt lat="44.56091" lon="4.62352">
        <ele>345</ele>
        <time>2020-06-14T13:13:35.000Z</time>
      </trkpt>
      <trkpt lat="44.56091" lon="4.62358">
        <ele>344.39999389648</ele>
        <time>2020-06-14T13:13:36.000Z</time>
      </trkpt>
      <trkpt lat="44.56091" lon="4.62376">
        <ele>343.39999389648</ele>
        <time>2020-06-14T13:13:39.000Z</time>
      </trkpt>
      <trkpt lat="44.56093" lon="4.62378">
        <ele>343.39999389648</ele>
        <time>2020-06-14T13:13:40.000Z</time>
      </trkpt>
      <trkpt lat="44.56098" lon="4.62379">
        <ele>343.20001220703</ele>
        <time>2020-06-14T13:13:42.000Z</time>
      </trkpt>
      <trkpt lat="44.56103" lon="4.62381">
        <ele>343.20001220703</ele>
        <time>2020-06-14T13:13:44.000Z</time>
      </trkpt>
      <trkpt lat="44.56112" lon="4.62383">
        <ele>342.79998779297</ele>
        <time>2020-06-14T13:13:48.000Z</time>
      </trkpt>
      <trkpt lat="44.56114" lon="4.62384">
        <ele>342.60000610352</ele>
        <time>2020-06-14T13:13:49.000Z</time>
      </trkpt>
      <trkpt lat="44.56115" lon="4.62387">
        <ele>341.60000610352</ele>
        <time>2020-06-14T13:13:51.000Z</time>
      </trkpt>
      <trkpt lat="44.56116" lon="4.6239">
        <ele>341</ele>
        <time>2020-06-14T13:13:52.000Z</time>
      </trkpt>
      <trkpt lat="44.56116" lon="4.62392">
        <ele>340.39999389648</ele>
        <time>2020-06-14T13:13:53.000Z</time>
      </trkpt>
      <trkpt lat="44.5612" lon="4.62394">
        <ele>338.79998779297</ele>
        <time>2020-06-14T13:13:55.000Z</time>
      </trkpt>
      <trkpt lat="44.56122" lon="4.62394">
        <ele>338.39999389648</ele>
        <time>2020-06-14T13:13:56.000Z</time>
      </trkpt>
      <trkpt lat="44.56125" lon="4.62394">
        <ele>337.79998779297</ele>
        <time>2020-06-14T13:13:57.000Z</time>
      </trkpt>
      <trkpt lat="44.56131" lon="4.62392">
        <ele>336.79998779297</ele>
        <time>2020-06-14T13:13:59.000Z</time>
      </trkpt>
      <trkpt lat="44.56134" lon="4.62391">
        <ele>336.20001220703</ele>
        <time>2020-06-14T13:14:00.000Z</time>
      </trkpt>
      <trkpt lat="44.56136" lon="4.62391">
        <ele>335.39999389648</ele>
        <time>2020-06-14T13:14:01.000Z</time>
      </trkpt>
      <trkpt lat="44.56138" lon="4.62391">
        <ele>335</ele>
        <time>2020-06-14T13:14:02.000Z</time>
      </trkpt>
      <trkpt lat="44.56142" lon="4.62387">
        <ele>334</ele>
        <time>2020-06-14T13:14:04.000Z</time>
      </trkpt>
      <trkpt lat="44.56147" lon="4.62382">
        <ele>332</ele>
        <time>2020-06-14T13:14:06.000Z</time>
      </trkpt>
      <trkpt lat="44.56149" lon="4.62381">
        <ele>330.79998779297</ele>
        <time>2020-06-14T13:14:07.000Z</time>
      </trkpt>
      <trkpt lat="44.56152" lon="4.6238">
        <ele>330</ele>
        <time>2020-06-14T13:14:08.000Z</time>
      </trkpt>
      <trkpt lat="44.56154" lon="4.62379">
        <ele>329.39999389648</ele>
        <time>2020-06-14T13:14:09.000Z</time>
      </trkpt>
      <trkpt lat="44.56162" lon="4.62373">
        <ele>328.60000610352</ele>
        <time>2020-06-14T13:14:12.000Z</time>
      </trkpt>
      <trkpt lat="44.56164" lon="4.62371">
        <ele>328.20001220703</ele>
        <time>2020-06-14T13:14:13.000Z</time>
      </trkpt>
      <trkpt lat="44.56168" lon="4.62365">
        <ele>326.60000610352</ele>
        <time>2020-06-14T13:14:15.000Z</time>
      </trkpt>
      <trkpt lat="44.56172" lon="4.62362">
        <ele>325.39999389648</ele>
        <time>2020-06-14T13:14:17.000Z</time>
      </trkpt>
      <trkpt lat="44.56173" lon="4.62362">
        <ele>324.60000610352</ele>
        <time>2020-06-14T13:14:18.000Z</time>
      </trkpt>
      <trkpt lat="44.56173" lon="4.62361">
        <ele>324</ele>
        <time>2020-06-14T13:14:19.000Z</time>
      </trkpt>
      <trkpt lat="44.56173" lon="4.62361">
        <ele>322.79998779297</ele>
        <time>2020-06-14T13:14:20.000Z</time>
      </trkpt>
      <trkpt lat="44.56174" lon="4.62361">
        <ele>322</ele>
        <time>2020-06-14T13:14:21.000Z</time>
      </trkpt>
      <trkpt lat="44.56176" lon="4.62357">
        <ele>318.60000610352</ele>
        <time>2020-06-14T13:14:57.000Z</time>
      </trkpt>
      <trkpt lat="44.56177" lon="4.62356">
        <ele>318.60000610352</ele>
        <time>2020-06-14T13:14:58.000Z</time>
      </trkpt>
      <trkpt lat="44.5618" lon="4.62353">
        <ele>318.60000610352</ele>
        <time>2020-06-14T13:15:04.000Z</time>
      </trkpt>
      <trkpt lat="44.56183" lon="4.6235">
        <ele>316.39999389648</ele>
        <time>2020-06-14T13:15:22.000Z</time>
      </trkpt>
      <trkpt lat="44.56183" lon="4.62347">
        <ele>316.39999389648</ele>
        <time>2020-06-14T13:15:23.000Z</time>
      </trkpt>
      <trkpt lat="44.56184" lon="4.62344">
        <ele>316.39999389648</ele>
        <time>2020-06-14T13:15:24.000Z</time>
      </trkpt>
      <trkpt lat="44.56188" lon="4.62328">
        <ele>316.39999389648</ele>
        <time>2020-06-14T13:15:29.000Z</time>
      </trkpt>
      <trkpt lat="44.56194" lon="4.62317">
        <ele>314.60000610352</ele>
        <time>2020-06-14T13:15:33.000Z</time>
      </trkpt>
      <trkpt lat="44.56196" lon="4.62311">
        <ele>314</ele>
        <time>2020-06-14T13:15:35.000Z</time>
      </trkpt>
      <trkpt lat="44.56197" lon="4.62308">
        <ele>313.60000610352</ele>
        <time>2020-06-14T13:15:36.000Z</time>
      </trkpt>
      <trkpt lat="44.562" lon="4.623">
        <ele>312</ele>
        <time>2020-06-14T13:15:39.000Z</time>
      </trkpt>
      <trkpt lat="44.562" lon="4.62297">
        <ele>311.60000610352</ele>
        <time>2020-06-14T13:15:40.000Z</time>
      </trkpt>
      <trkpt lat="44.56201" lon="4.62293">
        <ele>310.20001220703</ele>
        <time>2020-06-14T13:15:42.000Z</time>
      </trkpt>
      <trkpt lat="44.56202" lon="4.62287">
        <ele>308.60000610352</ele>
        <time>2020-06-14T13:15:45.000Z</time>
      </trkpt>
      <trkpt lat="44.56202" lon="4.62286">
        <ele>308.39999389648</ele>
        <time>2020-06-14T13:15:46.000Z</time>
      </trkpt>
      <trkpt lat="44.56202" lon="4.62286">
        <ele>308</ele>
        <time>2020-06-14T13:15:47.000Z</time>
      </trkpt>
      <trkpt lat="44.56207" lon="4.62283">
        <ele>304.79998779297</ele>
        <time>2020-06-14T13:15:55.000Z</time>
      </trkpt>
      <trkpt lat="44.56208" lon="4.62284">
        <ele>304.60000610352</ele>
        <time>2020-06-14T13:15:57.000Z</time>
      </trkpt>
      <trkpt lat="44.56208" lon="4.62286">
        <ele>302.60000610352</ele>
        <time>2020-06-14T13:16:18.000Z</time>
      </trkpt>
      <trkpt lat="44.56209" lon="4.62287">
        <ele>302.39999389648</ele>
        <time>2020-06-14T13:16:19.000Z</time>
      </trkpt>
      <trkpt lat="44.56212" lon="4.62288">
        <ele>302.60000610352</ele>
        <time>2020-06-14T13:16:21.000Z</time>
      </trkpt>
      <trkpt lat="44.56215" lon="4.62283">
        <ele>302.39999389648</ele>
        <time>2020-06-14T13:16:24.000Z</time>
      </trkpt>
      <trkpt lat="44.56215" lon="4.62281">
        <ele>301.79998779297</ele>
        <time>2020-06-14T13:16:26.000Z</time>
      </trkpt>
      <trkpt lat="44.56216" lon="4.6228">
        <ele>299.39999389648</ele>
        <time>2020-06-14T13:16:43.000Z</time>
      </trkpt>
      <trkpt lat="44.56216" lon="4.62279">
        <ele>299.39999389648</ele>
        <time>2020-06-14T13:16:44.000Z</time>
      </trkpt>
      <trkpt lat="44.56214" lon="4.62264">
        <ele>299.20001220703</ele>
        <time>2020-06-14T13:16:50.000Z</time>
      </trkpt>
      <trkpt lat="44.56206" lon="4.62239">
        <ele>298.39999389648</ele>
        <time>2020-06-14T13:16:57.000Z</time>
      </trkpt>
      <trkpt lat="44.56202" lon="4.62232">
        <ele>298</ele>
        <time>2020-06-14T13:16:59.000Z</time>
      </trkpt>
      <trkpt lat="44.56197" lon="4.62217">
        <ele>297.79998779297</ele>
        <time>2020-06-14T13:17:02.000Z</time>
      </trkpt>
      <trkpt lat="44.56191" lon="4.62196">
        <ele>297</ele>
        <time>2020-06-14T13:17:06.000Z</time>
      </trkpt>
      <trkpt lat="44.5619" lon="4.62191">
        <ele>296.39999389648</ele>
        <time>2020-06-14T13:17:07.000Z</time>
      </trkpt>
      <trkpt lat="44.56188" lon="4.62169">
        <ele>295.79998779297</ele>
        <time>2020-06-14T13:17:11.000Z</time>
      </trkpt>
      <trkpt lat="44.56189" lon="4.62159">
        <ele>295</ele>
        <time>2020-06-14T13:17:13.000Z</time>
      </trkpt>
      <trkpt lat="44.56191" lon="4.62151">
        <ele>294.60000610352</ele>
        <time>2020-06-14T13:17:15.000Z</time>
      </trkpt>
      <trkpt lat="44.56193" lon="4.62145">
        <ele>294</ele>
        <time>2020-06-14T13:17:18.000Z</time>
      </trkpt>
      <trkpt lat="44.56194" lon="4.62143">
        <ele>293.60000610352</ele>
        <time>2020-06-14T13:17:19.000Z</time>
      </trkpt>
      <trkpt lat="44.56196" lon="4.62136">
        <ele>292.60000610352</ele>
        <time>2020-06-14T13:17:22.000Z</time>
      </trkpt>
      <trkpt lat="44.56197" lon="4.62131">
        <ele>291.60000610352</ele>
        <time>2020-06-14T13:17:24.000Z</time>
      </trkpt>
      <trkpt lat="44.56198" lon="4.62126">
        <ele>291.39999389648</ele>
        <time>2020-06-14T13:17:26.000Z</time>
      </trkpt>
      <trkpt lat="44.56199" lon="4.6212">
        <ele>291.20001220703</ele>
        <time>2020-06-14T13:17:28.000Z</time>
      </trkpt>
      <trkpt lat="44.56199" lon="4.62115">
        <ele>291.20001220703</ele>
        <time>2020-06-14T13:17:30.000Z</time>
      </trkpt>
      <trkpt lat="44.56201" lon="4.62098">
        <ele>292</ele>
        <time>2020-06-14T13:17:36.000Z</time>
      </trkpt>
      <trkpt lat="44.56203" lon="4.62093">
        <ele>292.39999389648</ele>
        <time>2020-06-14T13:17:38.000Z</time>
      </trkpt>
      <trkpt lat="44.56204" lon="4.62081">
        <ele>293.39999389648</ele>
        <time>2020-06-14T13:17:42.000Z</time>
      </trkpt>
      <trkpt lat="44.56203" lon="4.62068">
        <ele>294</ele>
        <time>2020-06-14T13:17:47.000Z</time>
      </trkpt>
      <trkpt lat="44.56204" lon="4.62066">
        <ele>294.20001220703</ele>
        <time>2020-06-14T13:17:48.000Z</time>
      </trkpt>
      <trkpt lat="44.56206" lon="4.62059">
        <ele>294.39999389648</ele>
        <time>2020-06-14T13:17:51.000Z</time>
      </trkpt>
      <trkpt lat="44.56209" lon="4.62046">
        <ele>295.20001220703</ele>
        <time>2020-06-14T13:17:57.000Z</time>
      </trkpt>
      <trkpt lat="44.56209" lon="4.62044">
        <ele>295.20001220703</ele>
        <time>2020-06-14T13:17:58.000Z</time>
      </trkpt>
      <trkpt lat="44.5621" lon="4.62032">
        <ele>295.20001220703</ele>
        <time>2020-06-14T13:18:03.000Z</time>
      </trkpt>
      <trkpt lat="44.56211" lon="4.62019">
        <ele>296.20001220703</ele>
        <time>2020-06-14T13:18:09.000Z</time>
      </trkpt>
      <trkpt lat="44.56211" lon="4.62015">
        <ele>296.39999389648</ele>
        <time>2020-06-14T13:18:11.000Z</time>
      </trkpt>
      <trkpt lat="44.56212" lon="4.62005">
        <ele>297.20001220703</ele>
        <time>2020-06-14T13:18:16.000Z</time>
      </trkpt>
      <trkpt lat="44.56212" lon="4.62">
        <ele>297.39999389648</ele>
        <time>2020-06-14T13:18:19.000Z</time>
      </trkpt>
      <trkpt lat="44.5621" lon="4.61986">
        <ele>298</ele>
        <time>2020-06-14T13:18:24.000Z</time>
      </trkpt>
      <trkpt lat="44.56209" lon="4.61979">
        <ele>298.39999389648</ele>
        <time>2020-06-14T13:18:27.000Z</time>
      </trkpt>
      <trkpt lat="44.56208" lon="4.61972">
        <ele>298.79998779297</ele>
        <time>2020-06-14T13:18:30.000Z</time>
      </trkpt>
      <trkpt lat="44.56205" lon="4.61959">
        <ele>299.60000610352</ele>
        <time>2020-06-14T13:18:35.000Z</time>
      </trkpt>
      <trkpt lat="44.56205" lon="4.61954">
        <ele>299.79998779297</ele>
        <time>2020-06-14T13:18:37.000Z</time>
      </trkpt>
      <trkpt lat="44.56203" lon="4.61934">
        <ele>300</ele>
        <time>2020-06-14T13:18:44.000Z</time>
      </trkpt>
      <trkpt lat="44.562" lon="4.61913">
        <ele>300.79998779297</ele>
        <time>2020-06-14T13:18:51.000Z</time>
      </trkpt>
      <trkpt lat="44.56197" lon="4.61897">
        <ele>301.79998779297</ele>
        <time>2020-06-14T13:18:57.000Z</time>
      </trkpt>
      <trkpt lat="44.56197" lon="4.61894">
        <ele>301.79998779297</ele>
        <time>2020-06-14T13:18:58.000Z</time>
      </trkpt>
      <trkpt lat="44.56193" lon="4.61874">
        <ele>302.79998779297</ele>
        <time>2020-06-14T13:19:05.000Z</time>
      </trkpt>
      <trkpt lat="44.56192" lon="4.61871">
        <ele>303</ele>
        <time>2020-06-14T13:19:06.000Z</time>
      </trkpt>
      <trkpt lat="44.56186" lon="4.61848">
        <ele>303.60000610352</ele>
        <time>2020-06-14T13:19:13.000Z</time>
      </trkpt>
      <trkpt lat="44.56184" lon="4.6183">
        <ele>303.79998779297</ele>
        <time>2020-06-14T13:19:19.000Z</time>
      </trkpt>
      <trkpt lat="44.56183" lon="4.61827">
        <ele>303.79998779297</ele>
        <time>2020-06-14T13:19:20.000Z</time>
      </trkpt>
      <trkpt lat="44.56175" lon="4.61805">
        <ele>303.79998779297</ele>
        <time>2020-06-14T13:19:26.000Z</time>
      </trkpt>
      <trkpt lat="44.56168" lon="4.61781">
        <ele>303.60000610352</ele>
        <time>2020-06-14T13:19:32.000Z</time>
      </trkpt>
      <trkpt lat="44.56158" lon="4.61753">
        <ele>303.20001220703</ele>
        <time>2020-06-14T13:19:38.000Z</time>
      </trkpt>
      <trkpt lat="44.56144" lon="4.61733">
        <ele>302</ele>
        <time>2020-06-14T13:19:43.000Z</time>
      </trkpt>
      <trkpt lat="44.56128" lon="4.6171">
        <ele>301</ele>
        <time>2020-06-14T13:19:49.000Z</time>
      </trkpt>
      <trkpt lat="44.56109" lon="4.61678">
        <ele>300</ele>
        <time>2020-06-14T13:19:56.000Z</time>
      </trkpt>
      <trkpt lat="44.56106" lon="4.61673">
        <ele>299.60000610352</ele>
        <time>2020-06-14T13:19:57.000Z</time>
      </trkpt>
      <trkpt lat="44.56098" lon="4.61658">
        <ele>299</ele>
        <time>2020-06-14T13:20:00.000Z</time>
      </trkpt>
      <trkpt lat="44.56092" lon="4.61647">
        <ele>298.39999389648</ele>
        <time>2020-06-14T13:20:02.000Z</time>
      </trkpt>
      <trkpt lat="44.56074" lon="4.61617">
        <ele>297.60000610352</ele>
        <time>2020-06-14T13:20:07.000Z</time>
      </trkpt>
      <trkpt lat="44.5607" lon="4.61612">
        <ele>297.39999389648</ele>
        <time>2020-06-14T13:20:08.000Z</time>
      </trkpt>
      <trkpt lat="44.5606" lon="4.61595">
        <ele>296.20001220703</ele>
        <time>2020-06-14T13:20:11.000Z</time>
      </trkpt>
      <trkpt lat="44.56049" lon="4.61578">
        <ele>295</ele>
        <time>2020-06-14T13:20:14.000Z</time>
      </trkpt>
      <trkpt lat="44.56045" lon="4.61572">
        <ele>294.39999389648</ele>
        <time>2020-06-14T13:20:15.000Z</time>
      </trkpt>
      <trkpt lat="44.56041" lon="4.61566">
        <ele>294</ele>
        <time>2020-06-14T13:20:16.000Z</time>
      </trkpt>
      <trkpt lat="44.56023" lon="4.61544">
        <ele>292.79998779297</ele>
        <time>2020-06-14T13:20:20.000Z</time>
      </trkpt>
      <trkpt lat="44.56019" lon="4.61539">
        <ele>292.39999389648</ele>
        <time>2020-06-14T13:20:21.000Z</time>
      </trkpt>
      <trkpt lat="44.56009" lon="4.61529">
        <ele>291.60000610352</ele>
        <time>2020-06-14T13:20:23.000Z</time>
      </trkpt>
      <trkpt lat="44.56001" lon="4.6152">
        <ele>291</ele>
        <time>2020-06-14T13:20:25.000Z</time>
      </trkpt>
      <trkpt lat="44.55996" lon="4.61516">
        <ele>290.39999389648</ele>
        <time>2020-06-14T13:20:26.000Z</time>
      </trkpt>
      <trkpt lat="44.55992" lon="4.61512">
        <ele>290.20001220703</ele>
        <time>2020-06-14T13:20:27.000Z</time>
      </trkpt>
      <trkpt lat="44.55984" lon="4.61502">
        <ele>289.39999389648</ele>
        <time>2020-06-14T13:20:29.000Z</time>
      </trkpt>
      <trkpt lat="44.5598" lon="4.61497">
        <ele>289.39999389648</ele>
        <time>2020-06-14T13:20:30.000Z</time>
      </trkpt>
      <trkpt lat="44.55976" lon="4.61491">
        <ele>288.79998779297</ele>
        <time>2020-06-14T13:20:31.000Z</time>
      </trkpt>
      <trkpt lat="44.55964" lon="4.61471">
        <ele>288.20001220703</ele>
        <time>2020-06-14T13:20:34.000Z</time>
      </trkpt>
      <trkpt lat="44.55952" lon="4.61452">
        <ele>287.79998779297</ele>
        <time>2020-06-14T13:20:37.000Z</time>
      </trkpt>
      <trkpt lat="44.55939" lon="4.61434">
        <ele>287</ele>
        <time>2020-06-14T13:20:40.000Z</time>
      </trkpt>
      <trkpt lat="44.5593" lon="4.61422">
        <ele>286.20001220703</ele>
        <time>2020-06-14T13:20:42.000Z</time>
      </trkpt>
      <trkpt lat="44.55926" lon="4.61416">
        <ele>285.60000610352</ele>
        <time>2020-06-14T13:20:43.000Z</time>
      </trkpt>
      <trkpt lat="44.55913" lon="4.61396">
        <ele>284.60000610352</ele>
        <time>2020-06-14T13:20:46.000Z</time>
      </trkpt>
      <trkpt lat="44.55908" lon="4.61389">
        <ele>284.39999389648</ele>
        <time>2020-06-14T13:20:47.000Z</time>
      </trkpt>
      <trkpt lat="44.55904" lon="4.61383">
        <ele>283.39999389648</ele>
        <time>2020-06-14T13:20:48.000Z</time>
      </trkpt>
      <trkpt lat="44.55896" lon="4.6137">
        <ele>282</ele>
        <time>2020-06-14T13:20:50.000Z</time>
      </trkpt>
      <trkpt lat="44.55888" lon="4.61357">
        <ele>280.39999389648</ele>
        <time>2020-06-14T13:20:52.000Z</time>
      </trkpt>
      <trkpt lat="44.55875" lon="4.61339">
        <ele>278.79998779297</ele>
        <time>2020-06-14T13:20:55.000Z</time>
      </trkpt>
      <trkpt lat="44.55869" lon="4.61328">
        <ele>277.60000610352</ele>
        <time>2020-06-14T13:20:57.000Z</time>
      </trkpt>
      <trkpt lat="44.55864" lon="4.61321">
        <ele>276.60000610352</ele>
        <time>2020-06-14T13:20:59.000Z</time>
      </trkpt>
      <trkpt lat="44.55858" lon="4.61314">
        <ele>275.39999389648</ele>
        <time>2020-06-14T13:21:01.000Z</time>
      </trkpt>
      <trkpt lat="44.55855" lon="4.6131">
        <ele>275</ele>
        <time>2020-06-14T13:21:02.000Z</time>
      </trkpt>
      <trkpt lat="44.55844" lon="4.61293">
        <ele>274.39999389648</ele>
        <time>2020-06-14T13:21:06.000Z</time>
      </trkpt>
      <trkpt lat="44.55839" lon="4.61285">
        <ele>274</ele>
        <time>2020-06-14T13:21:08.000Z</time>
      </trkpt>
      <trkpt lat="44.55838" lon="4.61281">
        <ele>274</ele>
        <time>2020-06-14T13:21:09.000Z</time>
      </trkpt>
      <trkpt lat="44.55836" lon="4.61276">
        <ele>273.39999389648</ele>
        <time>2020-06-14T13:21:11.000Z</time>
      </trkpt>
      <trkpt lat="44.55835" lon="4.61274">
        <ele>273</ele>
        <time>2020-06-14T13:21:12.000Z</time>
      </trkpt>
      <trkpt lat="44.55831" lon="4.6127">
        <ele>272.60000610352</ele>
        <time>2020-06-14T13:21:14.000Z</time>
      </trkpt>
      <trkpt lat="44.55826" lon="4.61264">
        <ele>272.39999389648</ele>
        <time>2020-06-14T13:21:16.000Z</time>
      </trkpt>
      <trkpt lat="44.55815" lon="4.61248">
        <ele>272.20001220703</ele>
        <time>2020-06-14T13:21:20.000Z</time>
      </trkpt>
      <trkpt lat="44.55807" lon="4.61238">
        <ele>272</ele>
        <time>2020-06-14T13:21:23.000Z</time>
      </trkpt>
      <trkpt lat="44.55801" lon="4.61232">
        <ele>272</ele>
        <time>2020-06-14T13:21:25.000Z</time>
      </trkpt>
      <trkpt lat="44.55797" lon="4.61228">
        <ele>271</ele>
        <time>2020-06-14T13:21:27.000Z</time>
      </trkpt>
      <trkpt lat="44.55797" lon="4.61226">
        <ele>270.60000610352</ele>
        <time>2020-06-14T13:21:28.000Z</time>
      </trkpt>
      <trkpt lat="44.55798" lon="4.61223">
        <ele>270.20001220703</ele>
        <time>2020-06-14T13:21:30.000Z</time>
      </trkpt>
      <trkpt lat="44.558" lon="4.6122">
        <ele>269.79998779297</ele>
        <time>2020-06-14T13:21:32.000Z</time>
      </trkpt>
      <trkpt lat="44.558" lon="4.61215">
        <ele>269.39999389648</ele>
        <time>2020-06-14T13:21:34.000Z</time>
      </trkpt>
      <trkpt lat="44.55797" lon="4.61206">
        <ele>269</ele>
        <time>2020-06-14T13:21:37.000Z</time>
      </trkpt>
      <trkpt lat="44.55794" lon="4.61199">
        <ele>268.79998779297</ele>
        <time>2020-06-14T13:21:39.000Z</time>
      </trkpt>
      <trkpt lat="44.55793" lon="4.61196">
        <ele>268.20001220703</ele>
        <time>2020-06-14T13:21:40.000Z</time>
      </trkpt>
      <trkpt lat="44.55792" lon="4.61193">
        <ele>267.79998779297</ele>
        <time>2020-06-14T13:21:41.000Z</time>
      </trkpt>
      <trkpt lat="44.55788" lon="4.61186">
        <ele>266.60000610352</ele>
        <time>2020-06-14T13:21:43.000Z</time>
      </trkpt>
      <trkpt lat="44.55784" lon="4.61178">
        <ele>265.60000610352</ele>
        <time>2020-06-14T13:21:45.000Z</time>
      </trkpt>
      <trkpt lat="44.55782" lon="4.61173">
        <ele>264.39999389648</ele>
        <time>2020-06-14T13:21:46.000Z</time>
      </trkpt>
      <trkpt lat="44.55778" lon="4.61165">
        <ele>263</ele>
        <time>2020-06-14T13:21:48.000Z</time>
      </trkpt>
      <trkpt lat="44.55775" lon="4.61156">
        <ele>262.39999389648</ele>
        <time>2020-06-14T13:21:50.000Z</time>
      </trkpt>
      <trkpt lat="44.55773" lon="4.61151">
        <ele>261.79998779297</ele>
        <time>2020-06-14T13:21:51.000Z</time>
      </trkpt>
      <trkpt lat="44.5577" lon="4.61142">
        <ele>259.79998779297</ele>
        <time>2020-06-14T13:21:53.000Z</time>
      </trkpt>
      <trkpt lat="44.55767" lon="4.61134">
        <ele>258.39999389648</ele>
        <time>2020-06-14T13:21:55.000Z</time>
      </trkpt>
      <trkpt lat="44.55765" lon="4.61123">
        <ele>257.20001220703</ele>
        <time>2020-06-14T13:21:57.000Z</time>
      </trkpt>
      <trkpt lat="44.55763" lon="4.61111">
        <ele>254.60000610352</ele>
        <time>2020-06-14T13:21:59.000Z</time>
      </trkpt>
      <trkpt lat="44.55763" lon="4.61106">
        <ele>253.80000305176</ele>
        <time>2020-06-14T13:22:00.000Z</time>
      </trkpt>
      <trkpt lat="44.55762" lon="4.61093">
        <ele>252.39999389648</ele>
        <time>2020-06-14T13:22:02.000Z</time>
      </trkpt>
      <trkpt lat="44.5576" lon="4.61088">
        <ele>251.19999694824</ele>
        <time>2020-06-14T13:22:03.000Z</time>
      </trkpt>
      <trkpt lat="44.55759" lon="4.61082">
        <ele>250</ele>
        <time>2020-06-14T13:22:04.000Z</time>
      </trkpt>
      <trkpt lat="44.55757" lon="4.61077">
        <ele>249</ele>
        <time>2020-06-14T13:22:05.000Z</time>
      </trkpt>
      <trkpt lat="44.55754" lon="4.61068">
        <ele>247.19999694824</ele>
        <time>2020-06-14T13:22:07.000Z</time>
      </trkpt>
      <trkpt lat="44.55751" lon="4.61066">
        <ele>246.39999389648</ele>
        <time>2020-06-14T13:22:08.000Z</time>
      </trkpt>
      <trkpt lat="44.55749" lon="4.61064">
        <ele>245.39999389648</ele>
        <time>2020-06-14T13:22:09.000Z</time>
      </trkpt>
      <trkpt lat="44.55749" lon="4.61062">
        <ele>244.19999694824</ele>
        <time>2020-06-14T13:22:10.000Z</time>
      </trkpt>
      <trkpt lat="44.55748" lon="4.61061">
        <ele>243.39999389648</ele>
        <time>2020-06-14T13:22:11.000Z</time>
      </trkpt>
      <trkpt lat="44.55749" lon="4.6106">
        <ele>242.60000610352</ele>
        <time>2020-06-14T13:22:12.000Z</time>
      </trkpt>
      <trkpt lat="44.55751" lon="4.61059">
        <ele>241.60000610352</ele>
        <time>2020-06-14T13:22:13.000Z</time>
      </trkpt>
      <trkpt lat="44.55752" lon="4.61058">
        <ele>240.60000610352</ele>
        <time>2020-06-14T13:22:14.000Z</time>
      </trkpt>
      <trkpt lat="44.55753" lon="4.61053">
        <ele>239.19999694824</ele>
        <time>2020-06-14T13:22:16.000Z</time>
      </trkpt>
      <trkpt lat="44.55749" lon="4.61042">
        <ele>238.19999694824</ele>
        <time>2020-06-14T13:22:18.000Z</time>
      </trkpt>
      <trkpt lat="44.55747" lon="4.61038">
        <ele>238</ele>
        <time>2020-06-14T13:22:19.000Z</time>
      </trkpt>
      <trkpt lat="44.55742" lon="4.61029">
        <ele>237</ele>
        <time>2020-06-14T13:22:21.000Z</time>
      </trkpt>
      <trkpt lat="44.55736" lon="4.61015">
        <ele>236.19999694824</ele>
        <time>2020-06-14T13:22:24.000Z</time>
      </trkpt>
      <trkpt lat="44.55734" lon="4.61011">
        <ele>235.80000305176</ele>
        <time>2020-06-14T13:22:25.000Z</time>
      </trkpt>
      <trkpt lat="44.5573" lon="4.61004">
        <ele>234.19999694824</ele>
        <time>2020-06-14T13:22:27.000Z</time>
      </trkpt>
      <trkpt lat="44.55727" lon="4.60997">
        <ele>233</ele>
        <time>2020-06-14T13:22:29.000Z</time>
      </trkpt>
      <trkpt lat="44.55725" lon="4.60994">
        <ele>232.19999694824</ele>
        <time>2020-06-14T13:22:30.000Z</time>
      </trkpt>
      <trkpt lat="44.55724" lon="4.60992">
        <ele>231.80000305176</ele>
        <time>2020-06-14T13:22:31.000Z</time>
      </trkpt>
      <trkpt lat="44.55722" lon="4.60987">
        <ele>230.39999389648</ele>
        <time>2020-06-14T13:22:33.000Z</time>
      </trkpt>
      <trkpt lat="44.5572" lon="4.60983">
        <ele>229.19999694824</ele>
        <time>2020-06-14T13:22:35.000Z</time>
      </trkpt>
      <trkpt lat="44.55719" lon="4.6098">
        <ele>227.80000305176</ele>
        <time>2020-06-14T13:22:37.000Z</time>
      </trkpt>
      <trkpt lat="44.55718" lon="4.60977">
        <ele>226.80000305176</ele>
        <time>2020-06-14T13:22:39.000Z</time>
      </trkpt>
      <trkpt lat="44.55714" lon="4.60969">
        <ele>225.80000305176</ele>
        <time>2020-06-14T13:22:42.000Z</time>
      </trkpt>
      <trkpt lat="44.55708" lon="4.60953">
        <ele>224.60000610352</ele>
        <time>2020-06-14T13:22:46.000Z</time>
      </trkpt>
      <trkpt lat="44.55708" lon="4.60948">
        <ele>224.60000610352</ele>
        <time>2020-06-14T13:22:47.000Z</time>
      </trkpt>
      <trkpt lat="44.55707" lon="4.60936">
        <ele>224.39999389648</ele>
        <time>2020-06-14T13:22:49.000Z</time>
      </trkpt>
      <trkpt lat="44.55707" lon="4.60923">
        <ele>223.39999389648</ele>
        <time>2020-06-14T13:22:51.000Z</time>
      </trkpt>
      <trkpt lat="44.55708" lon="4.60917">
        <ele>223</ele>
        <time>2020-06-14T13:22:52.000Z</time>
      </trkpt>
      <trkpt lat="44.55712" lon="4.60911">
        <ele>222</ele>
        <time>2020-06-14T13:22:54.000Z</time>
      </trkpt>
      <trkpt lat="44.55714" lon="4.60908">
        <ele>221</ele>
        <time>2020-06-14T13:22:55.000Z</time>
      </trkpt>
      <trkpt lat="44.55714" lon="4.60903">
        <ele>219.39999389648</ele>
        <time>2020-06-14T13:22:57.000Z</time>
      </trkpt>
      <trkpt lat="44.55714" lon="4.60902">
        <ele>218.60000610352</ele>
        <time>2020-06-14T13:22:58.000Z</time>
      </trkpt>
      <trkpt lat="44.55713" lon="4.60902">
        <ele>218</ele>
        <time>2020-06-14T13:22:59.000Z</time>
      </trkpt>
      <trkpt lat="44.55714" lon="4.60902">
        <ele>217.39999389648</ele>
        <time>2020-06-14T13:23:00.000Z</time>
      </trkpt>
      <trkpt lat="44.55714" lon="4.609">
        <ele>215.80000305176</ele>
        <time>2020-06-14T13:23:18.000Z</time>
      </trkpt>
      <trkpt lat="44.55714" lon="4.60899">
        <ele>215.80000305176</ele>
        <time>2020-06-14T13:23:19.000Z</time>
      </trkpt>
      <trkpt lat="44.55714" lon="4.60896">
        <ele>215.80000305176</ele>
        <time>2020-06-14T13:23:20.000Z</time>
      </trkpt>
      <trkpt lat="44.55713" lon="4.60872">
        <ele>215.39999389648</ele>
        <time>2020-06-14T13:23:27.000Z</time>
      </trkpt>
      <trkpt lat="44.55712" lon="4.60851">
        <ele>214.80000305176</ele>
        <time>2020-06-14T13:23:33.000Z</time>
      </trkpt>
      <trkpt lat="44.55713" lon="4.60846">
        <ele>214.39999389648</ele>
        <time>2020-06-14T13:23:34.000Z</time>
      </trkpt>
      <trkpt lat="44.55719" lon="4.60823">
        <ele>213.80000305176</ele>
        <time>2020-06-14T13:23:40.000Z</time>
      </trkpt>
      <trkpt lat="44.55722" lon="4.60814">
        <ele>213.60000610352</ele>
        <time>2020-06-14T13:23:42.000Z</time>
      </trkpt>
      <trkpt lat="44.55726" lon="4.60798">
        <ele>212.80000305176</ele>
        <time>2020-06-14T13:23:45.000Z</time>
      </trkpt>
      <trkpt lat="44.55728" lon="4.60793">
        <ele>212.60000610352</ele>
        <time>2020-06-14T13:23:46.000Z</time>
      </trkpt>
      <trkpt lat="44.55732" lon="4.60782">
        <ele>212.19999694824</ele>
        <time>2020-06-14T13:23:48.000Z</time>
      </trkpt>
      <trkpt lat="44.55734" lon="4.60771">
        <ele>211.60000610352</ele>
        <time>2020-06-14T13:23:50.000Z</time>
      </trkpt>
      <trkpt lat="44.55735" lon="4.60765">
        <ele>211.19999694824</ele>
        <time>2020-06-14T13:23:51.000Z</time>
      </trkpt>
      <trkpt lat="44.55736" lon="4.6076">
        <ele>210.39999389648</ele>
        <time>2020-06-14T13:23:52.000Z</time>
      </trkpt>
      <trkpt lat="44.55738" lon="4.60754">
        <ele>210</ele>
        <time>2020-06-14T13:23:53.000Z</time>
      </trkpt>
      <trkpt lat="44.5574" lon="4.60741">
        <ele>208.80000305176</ele>
        <time>2020-06-14T13:23:55.000Z</time>
      </trkpt>
      <trkpt lat="44.55745" lon="4.60713">
        <ele>208</ele>
        <time>2020-06-14T13:23:59.000Z</time>
      </trkpt>
      <trkpt lat="44.55747" lon="4.60697">
        <ele>207.80000305176</ele>
        <time>2020-06-14T13:24:01.000Z</time>
      </trkpt>
      <trkpt lat="44.55747" lon="4.60688">
        <ele>207.80000305176</ele>
        <time>2020-06-14T13:24:02.000Z</time>
      </trkpt>
      <trkpt lat="44.55747" lon="4.60664">
        <ele>207.60000610352</ele>
        <time>2020-06-14T13:24:05.000Z</time>
      </trkpt>
      <trkpt lat="44.55749" lon="4.60632">
        <ele>206.60000610352</ele>
        <time>2020-06-14T13:24:09.000Z</time>
      </trkpt>
      <trkpt lat="44.55751" lon="4.60618">
        <ele>206.19999694824</ele>
        <time>2020-06-14T13:24:11.000Z</time>
      </trkpt>
      <trkpt lat="44.55748" lon="4.60605">
        <ele>205.60000610352</ele>
        <time>2020-06-14T13:24:13.000Z</time>
      </trkpt>
      <trkpt lat="44.55744" lon="4.60599">
        <ele>205.19999694824</ele>
        <time>2020-06-14T13:24:14.000Z</time>
      </trkpt>
      <trkpt lat="44.55741" lon="4.60593">
        <ele>204.60000610352</ele>
        <time>2020-06-14T13:24:15.000Z</time>
      </trkpt>
      <trkpt lat="44.55737" lon="4.60587">
        <ele>203.39999389648</ele>
        <time>2020-06-14T13:24:16.000Z</time>
      </trkpt>
      <trkpt lat="44.5573" lon="4.60575">
        <ele>202</ele>
        <time>2020-06-14T13:24:18.000Z</time>
      </trkpt>
      <trkpt lat="44.55723" lon="4.60561">
        <ele>200.39999389648</ele>
        <time>2020-06-14T13:24:20.000Z</time>
      </trkpt>
      <trkpt lat="44.5572" lon="4.60554">
        <ele>200</ele>
        <time>2020-06-14T13:24:21.000Z</time>
      </trkpt>
      <trkpt lat="44.5571" lon="4.60533">
        <ele>199.19999694824</ele>
        <time>2020-06-14T13:24:24.000Z</time>
      </trkpt>
      <trkpt lat="44.55697" lon="4.60505">
        <ele>198</ele>
        <time>2020-06-14T13:24:28.000Z</time>
      </trkpt>
      <trkpt lat="44.55693" lon="4.60499">
        <ele>197.60000610352</ele>
        <time>2020-06-14T13:24:29.000Z</time>
      </trkpt>
      <trkpt lat="44.55679" lon="4.60472">
        <ele>196.80000305176</ele>
        <time>2020-06-14T13:24:33.000Z</time>
      </trkpt>
      <trkpt lat="44.55669" lon="4.60452">
        <ele>195.80000305176</ele>
        <time>2020-06-14T13:24:36.000Z</time>
      </trkpt>
      <trkpt lat="44.55662" lon="4.6044">
        <ele>194.60000610352</ele>
        <time>2020-06-14T13:24:38.000Z</time>
      </trkpt>
      <trkpt lat="44.55651" lon="4.60421">
        <ele>193.39999389648</ele>
        <time>2020-06-14T13:24:41.000Z</time>
      </trkpt>
      <trkpt lat="44.55648" lon="4.60415">
        <ele>193.19999694824</ele>
        <time>2020-06-14T13:24:42.000Z</time>
      </trkpt>
      <trkpt lat="44.55647" lon="4.6041">
        <ele>193.39999389648</ele>
        <time>2020-06-14T13:24:43.000Z</time>
      </trkpt>
      <trkpt lat="44.55652" lon="4.60401">
        <ele>193</ele>
        <time>2020-06-14T13:24:46.000Z</time>
      </trkpt>
      <trkpt lat="44.55657" lon="4.60397">
        <ele>193</ele>
        <time>2020-06-14T13:24:48.000Z</time>
      </trkpt>
      <trkpt lat="44.55674" lon="4.60386">
        <ele>193.60000610352</ele>
        <time>2020-06-14T13:24:54.000Z</time>
      </trkpt>
      <trkpt lat="44.55698" lon="4.60369">
        <ele>193.80000305176</ele>
        <time>2020-06-14T13:25:02.000Z</time>
      </trkpt>
      <trkpt lat="44.55727" lon="4.60336">
        <ele>193.80000305176</ele>
        <time>2020-06-14T13:25:12.000Z</time>
      </trkpt>
      <trkpt lat="44.55757" lon="4.60293">
        <ele>194</ele>
        <time>2020-06-14T13:25:23.000Z</time>
      </trkpt>
      <trkpt lat="44.5578" lon="4.6027">
        <ele>194</ele>
        <time>2020-06-14T13:25:31.000Z</time>
      </trkpt>
      <trkpt lat="44.55788" lon="4.60264">
        <ele>194</ele>
        <time>2020-06-14T13:25:36.000Z</time>
      </trkpt>
      <trkpt lat="44.55788" lon="4.60264">
        <ele>194</ele>
        <time>2020-06-14T13:25:37.000Z</time>
      </trkpt>
      <trkpt lat="44.55793" lon="4.60261">
        <ele>194.39999389648</ele>
        <time>2020-06-14T13:25:40.000Z</time>
      </trkpt>
      <trkpt lat="44.55794" lon="4.6026">
        <ele>194.60000610352</ele>
        <time>2020-06-14T13:25:41.000Z</time>
      </trkpt>
      <trkpt lat="44.55796" lon="4.60258">
        <ele>195.19999694824</ele>
        <time>2020-06-14T13:25:42.000Z</time>
      </trkpt>
      <trkpt lat="44.55804" lon="4.60245">
        <ele>195.80000305176</ele>
        <time>2020-06-14T13:25:47.000Z</time>
      </trkpt>
      <trkpt lat="44.55815" lon="4.6024">
        <ele>196</ele>
        <time>2020-06-14T13:25:52.000Z</time>
      </trkpt>
      <trkpt lat="44.55819" lon="4.60239">
        <ele>196.19999694824</ele>
        <time>2020-06-14T13:25:54.000Z</time>
      </trkpt>
      <trkpt lat="44.55825" lon="4.60234">
        <ele>196.39999389648</ele>
        <time>2020-06-14T13:25:58.000Z</time>
      </trkpt>
      <trkpt lat="44.55829" lon="4.60229">
        <ele>196.60000610352</ele>
        <time>2020-06-14T13:26:03.000Z</time>
      </trkpt>
      <trkpt lat="44.55835" lon="4.60219">
        <ele>196.60000610352</ele>
        <time>2020-06-14T13:26:08.000Z</time>
      </trkpt>
      <trkpt lat="44.55837" lon="4.60216">
        <ele>196.60000610352</ele>
        <time>2020-06-14T13:26:09.000Z</time>
      </trkpt>
      <trkpt lat="44.55842" lon="4.6021">
        <ele>196.39999389648</ele>
        <time>2020-06-14T13:26:12.000Z</time>
      </trkpt>
      <trkpt lat="44.55843" lon="4.60212">
        <ele>196.39999389648</ele>
        <time>2020-06-14T13:26:13.000Z</time>
      </trkpt>
      <trkpt lat="44.55841" lon="4.60224">
        <ele>196</ele>
        <time>2020-06-14T13:26:16.000Z</time>
      </trkpt>
      <trkpt lat="44.55839" lon="4.60235">
        <ele>195.60000610352</ele>
        <time>2020-06-14T13:26:18.000Z</time>
      </trkpt>
      <trkpt lat="44.55841" lon="4.6024">
        <ele>195.60000610352</ele>
        <time>2020-06-14T13:26:19.000Z</time>
      </trkpt>
      <trkpt lat="44.55846" lon="4.60237">
        <ele>195.39999389648</ele>
        <time>2020-06-14T13:26:21.000Z</time>
      </trkpt>
      <trkpt lat="44.55849" lon="4.60232">
        <ele>195.39999389648</ele>
        <time>2020-06-14T13:26:22.000Z</time>
      </trkpt>
      <trkpt lat="44.55852" lon="4.60227">
        <ele>195.19999694824</ele>
        <time>2020-06-14T13:26:23.000Z</time>
      </trkpt>
      <trkpt lat="44.55861" lon="4.6021">
        <ele>195</ele>
        <time>2020-06-14T13:26:26.000Z</time>
      </trkpt>
      <trkpt lat="44.55873" lon="4.60204">
        <ele>194.60000610352</ele>
        <time>2020-06-14T13:26:29.000Z</time>
      </trkpt>
      <trkpt lat="44.55877" lon="4.60201">
        <ele>194.19999694824</ele>
        <time>2020-06-14T13:26:30.000Z</time>
      </trkpt>
      <trkpt lat="44.55881" lon="4.60191">
        <ele>193.39999389648</ele>
        <time>2020-06-14T13:26:32.000Z</time>
      </trkpt>
      <trkpt lat="44.55884" lon="4.60187">
        <ele>192.80000305176</ele>
        <time>2020-06-14T13:26:33.000Z</time>
      </trkpt>
      <trkpt lat="44.55887" lon="4.60184">
        <ele>192.60000610352</ele>
        <time>2020-06-14T13:26:34.000Z</time>
      </trkpt>
      <trkpt lat="44.55891" lon="4.60183">
        <ele>192.19999694824</ele>
        <time>2020-06-14T13:26:35.000Z</time>
      </trkpt>
      <trkpt lat="44.55899" lon="4.60183">
        <ele>191.80000305176</ele>
        <time>2020-06-14T13:26:37.000Z</time>
      </trkpt>
      <trkpt lat="44.55902" lon="4.60184">
        <ele>191.80000305176</ele>
        <time>2020-06-14T13:26:38.000Z</time>
      </trkpt>
      <trkpt lat="44.55908" lon="4.60186">
        <ele>191.60000610352</ele>
        <time>2020-06-14T13:26:40.000Z</time>
      </trkpt>
      <trkpt lat="44.55915" lon="4.60186">
        <ele>191.39999389648</ele>
        <time>2020-06-14T13:26:43.000Z</time>
      </trkpt>
      <trkpt lat="44.55917" lon="4.60181">
        <ele>191.39999389648</ele>
        <time>2020-06-14T13:26:45.000Z</time>
      </trkpt>
      <trkpt lat="44.55917" lon="4.60172">
        <ele>191.60000610352</ele>
        <time>2020-06-14T13:26:48.000Z</time>
      </trkpt>
      <trkpt lat="44.55917" lon="4.60166">
        <ele>191.60000610352</ele>
        <time>2020-06-14T13:26:50.000Z</time>
      </trkpt>
      <trkpt lat="44.55912" lon="4.60147">
        <ele>192.60000610352</ele>
        <time>2020-06-14T13:26:57.000Z</time>
      </trkpt>
      <trkpt lat="44.55911" lon="4.60144">
        <ele>192.80000305176</ele>
        <time>2020-06-14T13:26:58.000Z</time>
      </trkpt>
      <trkpt lat="44.55906" lon="4.60133">
        <ele>194.19999694824</ele>
        <time>2020-06-14T13:27:03.000Z</time>
      </trkpt>
      <trkpt lat="44.55906" lon="4.60131">
        <ele>194.39999389648</ele>
        <time>2020-06-14T13:27:04.000Z</time>
      </trkpt>
      <trkpt lat="44.55908" lon="4.60127">
        <ele>195.19999694824</ele>
        <time>2020-06-14T13:27:06.000Z</time>
      </trkpt>
      <trkpt lat="44.55912" lon="4.60125">
        <ele>195.80000305176</ele>
        <time>2020-06-14T13:27:08.000Z</time>
      </trkpt>
      <trkpt lat="44.55916" lon="4.60123">
        <ele>196.39999389648</ele>
        <time>2020-06-14T13:27:10.000Z</time>
      </trkpt>
      <trkpt lat="44.55924" lon="4.60119">
        <ele>197.19999694824</ele>
        <time>2020-06-14T13:27:14.000Z</time>
      </trkpt>
      <trkpt lat="44.55926" lon="4.60118">
        <ele>197.39999389648</ele>
        <time>2020-06-14T13:27:15.000Z</time>
      </trkpt>
      <trkpt lat="44.55941" lon="4.6012">
        <ele>198.19999694824</ele>
        <time>2020-06-14T13:27:21.000Z</time>
      </trkpt>
      <trkpt lat="44.55952" lon="4.60123">
        <ele>198.39999389648</ele>
        <time>2020-06-14T13:27:25.000Z</time>
      </trkpt>
      <trkpt lat="44.55966" lon="4.60129">
        <ele>198.80000305176</ele>
        <time>2020-06-14T13:27:30.000Z</time>
      </trkpt>
      <trkpt lat="44.55987" lon="4.6014">
        <ele>200</ele>
        <time>2020-06-14T13:27:38.000Z</time>
      </trkpt>
      <trkpt lat="44.56011" lon="4.60148">
        <ele>200.60000610352</ele>
        <time>2020-06-14T13:27:47.000Z</time>
      </trkpt>
      <trkpt lat="44.56032" lon="4.60152">
        <ele>200.80000305176</ele>
        <time>2020-06-14T13:27:55.000Z</time>
      </trkpt>
      <trkpt lat="44.56037" lon="4.60151">
        <ele>201</ele>
        <time>2020-06-14T13:27:57.000Z</time>
      </trkpt>
      <trkpt lat="44.56048" lon="4.60145">
        <ele>201.19999694824</ele>
        <time>2020-06-14T13:28:01.000Z</time>
      </trkpt>
      <trkpt lat="44.5606" lon="4.6013">
        <ele>202.19999694824</ele>
        <time>2020-06-14T13:28:07.000Z</time>
      </trkpt>
      <trkpt lat="44.56062" lon="4.60128">
        <ele>202.39999389648</ele>
        <time>2020-06-14T13:28:08.000Z</time>
      </trkpt>
      <trkpt lat="44.56069" lon="4.60115">
        <ele>203.19999694824</ele>
        <time>2020-06-14T13:28:12.000Z</time>
      </trkpt>
      <trkpt lat="44.56079" lon="4.60102">
        <ele>204</ele>
        <time>2020-06-14T13:28:17.000Z</time>
      </trkpt>
      <trkpt lat="44.56091" lon="4.60091">
        <ele>204.39999389648</ele>
        <time>2020-06-14T13:28:22.000Z</time>
      </trkpt>
      <trkpt lat="44.56094" lon="4.60089">
        <ele>204.60000610352</ele>
        <time>2020-06-14T13:28:23.000Z</time>
      </trkpt>
      <trkpt lat="44.5611" lon="4.60082">
        <ele>205.19999694824</ele>
        <time>2020-06-14T13:28:29.000Z</time>
      </trkpt>
      <trkpt lat="44.56113" lon="4.60082">
        <ele>205.39999389648</ele>
        <time>2020-06-14T13:28:30.000Z</time>
      </trkpt>
      <trkpt lat="44.56134" lon="4.60082">
        <ele>206.19999694824</ele>
        <time>2020-06-14T13:28:37.000Z</time>
      </trkpt>
      <trkpt lat="44.56141" lon="4.60084">
        <ele>206.60000610352</ele>
        <time>2020-06-14T13:28:39.000Z</time>
      </trkpt>
      <trkpt lat="44.5616" lon="4.60089">
        <ele>206.80000305176</ele>
        <time>2020-06-14T13:28:45.000Z</time>
      </trkpt>
      <trkpt lat="44.56183" lon="4.60095">
        <ele>206.80000305176</ele>
        <time>2020-06-14T13:28:52.000Z</time>
      </trkpt>
      <trkpt lat="44.56202" lon="4.601">
        <ele>206.80000305176</ele>
        <time>2020-06-14T13:28:58.000Z</time>
      </trkpt>
      <trkpt lat="44.56227" lon="4.60107">
        <ele>206.19999694824</ele>
        <time>2020-06-14T13:29:06.000Z</time>
      </trkpt>
      <trkpt lat="44.56253" lon="4.60113">
        <ele>206.39999389648</ele>
        <time>2020-06-14T13:29:14.000Z</time>
      </trkpt>
      <trkpt lat="44.56261" lon="4.60117">
        <ele>206.60000610352</ele>
        <time>2020-06-14T13:29:18.000Z</time>
      </trkpt>
      <trkpt lat="44.56262" lon="4.60119">
        <ele>206.60000610352</ele>
        <time>2020-06-14T13:29:19.000Z</time>
      </trkpt>
      <trkpt lat="44.56267" lon="4.60122">
        <ele>207.19999694824</ele>
        <time>2020-06-14T13:29:23.000Z</time>
      </trkpt>
      <trkpt lat="44.56275" lon="4.60116">
        <ele>207.60000610352</ele>
        <time>2020-06-14T13:29:28.000Z</time>
      </trkpt>
      <trkpt lat="44.56276" lon="4.60107">
        <ele>207.80000305176</ele>
        <time>2020-06-14T13:29:31.000Z</time>
      </trkpt>
      <trkpt lat="44.56276" lon="4.60104">
        <ele>207.80000305176</ele>
        <time>2020-06-14T13:29:32.000Z</time>
      </trkpt>
      <trkpt lat="44.56279" lon="4.60084">
        <ele>208</ele>
        <time>2020-06-14T13:29:38.000Z</time>
      </trkpt>
      <trkpt lat="44.56282" lon="4.60083">
        <ele>208</ele>
        <time>2020-06-14T13:29:39.000Z</time>
      </trkpt>
      <trkpt lat="44.56287" lon="4.60084">
        <ele>208.19999694824</ele>
        <time>2020-06-14T13:29:41.000Z</time>
      </trkpt>
      <trkpt lat="44.56309" lon="4.60091">
        <ele>208.39999389648</ele>
        <time>2020-06-14T13:29:49.000Z</time>
      </trkpt>
      <trkpt lat="44.56334" lon="4.60098">
        <ele>208.39999389648</ele>
        <time>2020-06-14T13:29:58.000Z</time>
      </trkpt>
      <trkpt lat="44.56354" lon="4.601">
        <ele>209</ele>
        <time>2020-06-14T13:30:05.000Z</time>
      </trkpt>
      <trkpt lat="44.56357" lon="4.601">
        <ele>209.19999694824</ele>
        <time>2020-06-14T13:30:06.000Z</time>
      </trkpt>
      <trkpt lat="44.56379" lon="4.60102">
        <ele>210</ele>
        <time>2020-06-14T13:30:14.000Z</time>
      </trkpt>
      <trkpt lat="44.56382" lon="4.60102">
        <ele>210.19999694824</ele>
        <time>2020-06-14T13:30:15.000Z</time>
      </trkpt>
      <trkpt lat="44.56407" lon="4.60106">
        <ele>211</ele>
        <time>2020-06-14T13:30:24.000Z</time>
      </trkpt>
      <trkpt lat="44.5641" lon="4.60107">
        <ele>211.39999389648</ele>
        <time>2020-06-14T13:30:25.000Z</time>
      </trkpt>
      <trkpt lat="44.56433" lon="4.60111">
        <ele>212.19999694824</ele>
        <time>2020-06-14T13:30:33.000Z</time>
      </trkpt>
      <trkpt lat="44.56444" lon="4.60113">
        <ele>212.60000610352</ele>
        <time>2020-06-14T13:30:37.000Z</time>
      </trkpt>
      <trkpt lat="44.56461" lon="4.60115">
        <ele>213.60000610352</ele>
        <time>2020-06-14T13:30:43.000Z</time>
      </trkpt>
      <trkpt lat="44.56486" lon="4.60118">
        <ele>214.60000610352</ele>
        <time>2020-06-14T13:30:51.000Z</time>
      </trkpt>
      <trkpt lat="44.56489" lon="4.60119">
        <ele>214.60000610352</ele>
        <time>2020-06-14T13:30:52.000Z</time>
      </trkpt>
      <trkpt lat="44.56512" lon="4.60116">
        <ele>215.39999389648</ele>
        <time>2020-06-14T13:30:59.000Z</time>
      </trkpt>
      <trkpt lat="44.56525" lon="4.60114">
        <ele>215.80000305176</ele>
        <time>2020-06-14T13:31:03.000Z</time>
      </trkpt>
      <trkpt lat="44.56541" lon="4.6011">
        <ele>216</ele>
        <time>2020-06-14T13:31:08.000Z</time>
      </trkpt>
      <trkpt lat="44.56567" lon="4.60102">
        <ele>216.39999389648</ele>
        <time>2020-06-14T13:31:16.000Z</time>
      </trkpt>
      <trkpt lat="44.56582" lon="4.60096">
        <ele>216.80000305176</ele>
        <time>2020-06-14T13:31:21.000Z</time>
      </trkpt>
      <trkpt lat="44.56593" lon="4.60093">
        <ele>217</ele>
        <time>2020-06-14T13:31:25.000Z</time>
      </trkpt>
      <trkpt lat="44.56604" lon="4.60091">
        <ele>217.39999389648</ele>
        <time>2020-06-14T13:31:29.000Z</time>
      </trkpt>
      <trkpt lat="44.56609" lon="4.60091">
        <ele>217.80000305176</ele>
        <time>2020-06-14T13:31:31.000Z</time>
      </trkpt>
      <trkpt lat="44.56615" lon="4.60091">
        <ele>218.19999694824</ele>
        <time>2020-06-14T13:31:33.000Z</time>
      </trkpt>
      <trkpt lat="44.56637" lon="4.6009">
        <ele>218.39999389648</ele>
        <time>2020-06-14T13:31:41.000Z</time>
      </trkpt>
      <trkpt lat="44.56666" lon="4.60087">
        <ele>218.80000305176</ele>
        <time>2020-06-14T13:31:51.000Z</time>
      </trkpt>
      <trkpt lat="44.56672" lon="4.60086">
        <ele>219</ele>
        <time>2020-06-14T13:31:53.000Z</time>
      </trkpt>
      <trkpt lat="44.56695" lon="4.60085">
        <ele>220</ele>
        <time>2020-06-14T13:32:01.000Z</time>
      </trkpt>
      <trkpt lat="44.56698" lon="4.60085">
        <ele>220</ele>
        <time>2020-06-14T13:32:02.000Z</time>
      </trkpt>
      <trkpt lat="44.56701" lon="4.60085">
        <ele>220.19999694824</ele>
        <time>2020-06-14T13:32:04.000Z</time>
      </trkpt>
      <trkpt lat="44.56704" lon="4.60086">
        <ele>220.19999694824</ele>
        <time>2020-06-14T13:32:06.000Z</time>
      </trkpt>
      <trkpt lat="44.56707" lon="4.60085">
        <ele>221.39999389648</ele>
        <time>2020-06-14T13:32:10.000Z</time>
      </trkpt>
      <trkpt lat="44.56708" lon="4.60087">
        <ele>221.80000305176</ele>
        <time>2020-06-14T13:32:12.000Z</time>
      </trkpt>
      <trkpt lat="44.56708" lon="4.60088">
        <ele>221.80000305176</ele>
        <time>2020-06-14T13:32:13.000Z</time>
      </trkpt>
      <trkpt lat="44.56707" lon="4.60091">
        <ele>222.19999694824</ele>
        <time>2020-06-14T13:32:15.000Z</time>
      </trkpt>
      <trkpt lat="44.56707" lon="4.60092">
        <ele>222.39999389648</ele>
        <time>2020-06-14T13:32:16.000Z</time>
      </trkpt>
      <trkpt lat="44.56707" lon="4.60096">
        <ele>222.80000305176</ele>
        <time>2020-06-14T13:32:19.000Z</time>
      </trkpt>
      <trkpt lat="44.56708" lon="4.60097">
        <ele>223.19999694824</ele>
        <time>2020-06-14T13:32:21.000Z</time>
      </trkpt>
      <trkpt lat="44.56709" lon="4.60098">
        <ele>223.19999694824</ele>
        <time>2020-06-14T13:32:24.000Z</time>
      </trkpt>
      <trkpt lat="44.56712" lon="4.60098">
        <ele>223.19999694824</ele>
        <time>2020-06-14T13:32:25.000Z</time>
      </trkpt>
      <trkpt lat="44.56721" lon="4.60089">
        <ele>223</ele>
        <time>2020-06-14T13:32:28.000Z</time>
      </trkpt>
      <trkpt lat="44.56724" lon="4.60085">
        <ele>223.19999694824</ele>
        <time>2020-06-14T13:32:29.000Z</time>
      </trkpt>
      <trkpt lat="44.56727" lon="4.6008">
        <ele>223.19999694824</ele>
        <time>2020-06-14T13:32:30.000Z</time>
      </trkpt>
      <trkpt lat="44.56736" lon="4.60074">
        <ele>223.19999694824</ele>
        <time>2020-06-14T13:32:33.000Z</time>
      </trkpt>
      <trkpt lat="44.56739" lon="4.60073">
        <ele>223</ele>
        <time>2020-06-14T13:32:34.000Z</time>
      </trkpt>
      <trkpt lat="44.56771" lon="4.60066">
        <ele>222.60000610352</ele>
        <time>2020-06-14T13:32:43.000Z</time>
      </trkpt>
      <trkpt lat="44.56797" lon="4.60061">
        <ele>223</ele>
        <time>2020-06-14T13:32:51.000Z</time>
      </trkpt>
      <trkpt lat="44.56817" lon="4.60057">
        <ele>223.60000610352</ele>
        <time>2020-06-14T13:32:57.000Z</time>
      </trkpt>
      <trkpt lat="44.5682" lon="4.60057">
        <ele>223.60000610352</ele>
        <time>2020-06-14T13:32:58.000Z</time>
      </trkpt>
      <trkpt lat="44.56841" lon="4.60051">
        <ele>224.60000610352</ele>
        <time>2020-06-14T13:33:04.000Z</time>
      </trkpt>
      <trkpt lat="44.56852" lon="4.60049">
        <ele>225.19999694824</ele>
        <time>2020-06-14T13:33:07.000Z</time>
      </trkpt>
      <trkpt lat="44.56884" lon="4.60044">
        <ele>225.39999389648</ele>
        <time>2020-06-14T13:33:16.000Z</time>
      </trkpt>
      <trkpt lat="44.569" lon="4.60041">
        <ele>225.60000610352</ele>
        <time>2020-06-14T13:33:20.000Z</time>
      </trkpt>
      <trkpt lat="44.56917" lon="4.60036">
        <ele>225.80000305176</ele>
        <time>2020-06-14T13:33:24.000Z</time>
      </trkpt>
      <trkpt lat="44.56945" lon="4.60025">
        <ele>225.39999389648</ele>
        <time>2020-06-14T13:33:30.000Z</time>
      </trkpt>
      <trkpt lat="44.56969" lon="4.60007">
        <ele>224.80000305176</ele>
        <time>2020-06-14T13:33:36.000Z</time>
      </trkpt>
      <trkpt lat="44.56977" lon="4.60003">
        <ele>224.80000305176</ele>
        <time>2020-06-14T13:33:38.000Z</time>
      </trkpt>
      <trkpt lat="44.56985" lon="4.60001">
        <ele>224.60000610352</ele>
        <time>2020-06-14T13:33:40.000Z</time>
      </trkpt>
      <trkpt lat="44.57" lon="4.60003">
        <ele>224.80000305176</ele>
        <time>2020-06-14T13:33:44.000Z</time>
      </trkpt>
      <trkpt lat="44.57019" lon="4.60022">
        <ele>224.80000305176</ele>
        <time>2020-06-14T13:33:51.000Z</time>
      </trkpt>
      <trkpt lat="44.57038" lon="4.60042">
        <ele>225.60000610352</ele>
        <time>2020-06-14T13:33:58.000Z</time>
      </trkpt>
      <trkpt lat="44.57041" lon="4.60044">
        <ele>225.80000305176</ele>
        <time>2020-06-14T13:33:59.000Z</time>
      </trkpt>
      <trkpt lat="44.57054" lon="4.6005">
        <ele>226.80000305176</ele>
        <time>2020-06-14T13:34:04.000Z</time>
      </trkpt>
      <trkpt lat="44.57056" lon="4.60051">
        <ele>227</ele>
        <time>2020-06-14T13:34:05.000Z</time>
      </trkpt>
      <trkpt lat="44.57065" lon="4.60053">
        <ele>227.80000305176</ele>
        <time>2020-06-14T13:34:09.000Z</time>
      </trkpt>
      <trkpt lat="44.57072" lon="4.60054">
        <ele>228.80000305176</ele>
        <time>2020-06-14T13:34:12.000Z</time>
      </trkpt>
      <trkpt lat="44.57074" lon="4.60055">
        <ele>229.19999694824</ele>
        <time>2020-06-14T13:34:13.000Z</time>
      </trkpt>
      <trkpt lat="44.57083" lon="4.60057">
        <ele>230.39999389648</ele>
        <time>2020-06-14T13:34:17.000Z</time>
      </trkpt>
      <trkpt lat="44.57091" lon="4.6006">
        <ele>231.19999694824</ele>
        <time>2020-06-14T13:34:21.000Z</time>
      </trkpt>
      <trkpt lat="44.57095" lon="4.60062">
        <ele>231.60000610352</ele>
        <time>2020-06-14T13:34:23.000Z</time>
      </trkpt>
      <trkpt lat="44.57108" lon="4.6007">
        <ele>232.60000610352</ele>
        <time>2020-06-14T13:34:29.000Z</time>
      </trkpt>
      <trkpt lat="44.57116" lon="4.60076">
        <ele>233.80000305176</ele>
        <time>2020-06-14T13:34:33.000Z</time>
      </trkpt>
      <trkpt lat="44.57122" lon="4.6008">
        <ele>234.19999694824</ele>
        <time>2020-06-14T13:34:36.000Z</time>
      </trkpt>
      <trkpt lat="44.57126" lon="4.60082">
        <ele>234.80000305176</ele>
        <time>2020-06-14T13:34:38.000Z</time>
      </trkpt>
      <trkpt lat="44.57138" lon="4.60089">
        <ele>235.39999389648</ele>
        <time>2020-06-14T13:34:44.000Z</time>
      </trkpt>
      <trkpt lat="44.57142" lon="4.60091">
        <ele>235.80000305176</ele>
        <time>2020-06-14T13:34:46.000Z</time>
      </trkpt>
      <trkpt lat="44.57147" lon="4.60094">
        <ele>237.19999694824</ele>
        <time>2020-06-14T13:34:49.000Z</time>
      </trkpt>
      <trkpt lat="44.57149" lon="4.60095">
        <ele>237.39999389648</ele>
        <time>2020-06-14T13:34:50.000Z</time>
      </trkpt>
      <trkpt lat="44.57156" lon="4.601">
        <ele>238.19999694824</ele>
        <time>2020-06-14T13:34:54.000Z</time>
      </trkpt>
      <trkpt lat="44.57162" lon="4.60103">
        <ele>238.80000305176</ele>
        <time>2020-06-14T13:34:57.000Z</time>
      </trkpt>
      <trkpt lat="44.57168" lon="4.60106">
        <ele>239.39999389648</ele>
        <time>2020-06-14T13:35:00.000Z</time>
      </trkpt>
      <trkpt lat="44.57174" lon="4.60107">
        <ele>240.39999389648</ele>
        <time>2020-06-14T13:35:03.000Z</time>
      </trkpt>
      <trkpt lat="44.57178" lon="4.60109">
        <ele>240.60000610352</ele>
        <time>2020-06-14T13:35:05.000Z</time>
      </trkpt>
      <trkpt lat="44.57188" lon="4.60112">
        <ele>241.39999389648</ele>
        <time>2020-06-14T13:35:10.000Z</time>
      </trkpt>
      <trkpt lat="44.57195" lon="4.60113">
        <ele>241.80000305176</ele>
        <time>2020-06-14T13:35:13.000Z</time>
      </trkpt>
      <trkpt lat="44.57205" lon="4.60115">
        <ele>242.60000610352</ele>
        <time>2020-06-14T13:35:17.000Z</time>
      </trkpt>
      <trkpt lat="44.57213" lon="4.60117">
        <ele>243.80000305176</ele>
        <time>2020-06-14T13:35:20.000Z</time>
      </trkpt>
      <trkpt lat="44.57215" lon="4.60117">
        <ele>243.80000305176</ele>
        <time>2020-06-14T13:35:21.000Z</time>
      </trkpt>
      <trkpt lat="44.57234" lon="4.60126">
        <ele>244.60000610352</ele>
        <time>2020-06-14T13:35:30.000Z</time>
      </trkpt>
      <trkpt lat="44.57235" lon="4.60127">
        <ele>244.80000305176</ele>
        <time>2020-06-14T13:35:31.000Z</time>
      </trkpt>
      <trkpt lat="44.57251" lon="4.60134">
        <ele>245</ele>
        <time>2020-06-14T13:35:38.000Z</time>
      </trkpt>
      <trkpt lat="44.5727" lon="4.60144">
        <ele>245.80000305176</ele>
        <time>2020-06-14T13:35:46.000Z</time>
      </trkpt>
      <trkpt lat="44.57289" lon="4.60155">
        <ele>246.80000305176</ele>
        <time>2020-06-14T13:35:54.000Z</time>
      </trkpt>
      <trkpt lat="44.57293" lon="4.60158">
        <ele>247</ele>
        <time>2020-06-14T13:35:56.000Z</time>
      </trkpt>
      <trkpt lat="44.57311" lon="4.60169">
        <ele>248</ele>
        <time>2020-06-14T13:36:04.000Z</time>
      </trkpt>
      <trkpt lat="44.57315" lon="4.60171">
        <ele>248</ele>
        <time>2020-06-14T13:36:06.000Z</time>
      </trkpt>
      <trkpt lat="44.57327" lon="4.60179">
        <ele>249.19999694824</ele>
        <time>2020-06-14T13:36:12.000Z</time>
      </trkpt>
      <trkpt lat="44.57331" lon="4.60182">
        <ele>249.39999389648</ele>
        <time>2020-06-14T13:36:14.000Z</time>
      </trkpt>
      <trkpt lat="44.5734" lon="4.60186">
        <ele>250.39999389648</ele>
        <time>2020-06-14T13:36:18.000Z</time>
      </trkpt>
      <trkpt lat="44.57347" lon="4.60189">
        <ele>250.60000610352</ele>
        <time>2020-06-14T13:36:21.000Z</time>
      </trkpt>
      <trkpt lat="44.57368" lon="4.60196">
        <ele>251.19999694824</ele>
        <time>2020-06-14T13:36:30.000Z</time>
      </trkpt>
      <trkpt lat="44.5737" lon="4.60197">
        <ele>251.39999389648</ele>
        <time>2020-06-14T13:36:31.000Z</time>
      </trkpt>
      <trkpt lat="44.57381" lon="4.60202">
        <ele>252.39999389648</ele>
        <time>2020-06-14T13:36:36.000Z</time>
      </trkpt>
      <trkpt lat="44.5739" lon="4.60207">
        <ele>253.60000610352</ele>
        <time>2020-06-14T13:36:40.000Z</time>
      </trkpt>
      <trkpt lat="44.57392" lon="4.60209">
        <ele>254.19999694824</ele>
        <time>2020-06-14T13:36:41.000Z</time>
      </trkpt>
      <trkpt lat="44.574" lon="4.60213">
        <ele>254.60000610352</ele>
        <time>2020-06-14T13:36:45.000Z</time>
      </trkpt>
      <trkpt lat="44.5741" lon="4.60221">
        <ele>255.60000610352</ele>
        <time>2020-06-14T13:36:50.000Z</time>
      </trkpt>
      <trkpt lat="44.57412" lon="4.60223">
        <ele>255.60000610352</ele>
        <time>2020-06-14T13:36:51.000Z</time>
      </trkpt>
      <trkpt lat="44.57426" lon="4.60229">
        <ele>256.60000610352</ele>
        <time>2020-06-14T13:36:57.000Z</time>
      </trkpt>
      <trkpt lat="44.5743" lon="4.60232">
        <ele>256.60000610352</ele>
        <time>2020-06-14T13:36:59.000Z</time>
      </trkpt>
      <trkpt lat="44.57448" lon="4.60241">
        <ele>257.60000610352</ele>
        <time>2020-06-14T13:37:07.000Z</time>
      </trkpt>
      <trkpt lat="44.5745" lon="4.60242">
        <ele>257.79998779297</ele>
        <time>2020-06-14T13:37:08.000Z</time>
      </trkpt>
      <trkpt lat="44.57461" lon="4.60249">
        <ele>259</ele>
        <time>2020-06-14T13:37:13.000Z</time>
      </trkpt>
      <trkpt lat="44.57467" lon="4.60254">
        <ele>259.39999389648</ele>
        <time>2020-06-14T13:37:16.000Z</time>
      </trkpt>
      <trkpt lat="44.57478" lon="4.60261">
        <ele>260</ele>
        <time>2020-06-14T13:37:21.000Z</time>
      </trkpt>
      <trkpt lat="44.57488" lon="4.6027">
        <ele>261</ele>
        <time>2020-06-14T13:37:26.000Z</time>
      </trkpt>
      <trkpt lat="44.5749" lon="4.60271">
        <ele>261.20001220703</ele>
        <time>2020-06-14T13:37:27.000Z</time>
      </trkpt>
      <trkpt lat="44.57505" lon="4.60282">
        <ele>262.20001220703</ele>
        <time>2020-06-14T13:37:34.000Z</time>
      </trkpt>
      <trkpt lat="44.57507" lon="4.60283">
        <ele>262.60000610352</ele>
        <time>2020-06-14T13:37:35.000Z</time>
      </trkpt>
      <trkpt lat="44.57516" lon="4.60289">
        <ele>263.20001220703</ele>
        <time>2020-06-14T13:37:39.000Z</time>
      </trkpt>
      <trkpt lat="44.57526" lon="4.60294">
        <ele>264</ele>
        <time>2020-06-14T13:37:43.000Z</time>
      </trkpt>
      <trkpt lat="44.57531" lon="4.60296">
        <ele>264.20001220703</ele>
        <time>2020-06-14T13:37:45.000Z</time>
      </trkpt>
      <trkpt lat="44.57546" lon="4.60304">
        <ele>265</ele>
        <time>2020-06-14T13:37:51.000Z</time>
      </trkpt>
      <trkpt lat="44.57553" lon="4.60306">
        <ele>265.39999389648</ele>
        <time>2020-06-14T13:37:54.000Z</time>
      </trkpt>
      <trkpt lat="44.57568" lon="4.60311">
        <ele>266</ele>
        <time>2020-06-14T13:38:00.000Z</time>
      </trkpt>
      <trkpt lat="44.57573" lon="4.60314">
        <ele>266.39999389648</ele>
        <time>2020-06-14T13:38:02.000Z</time>
      </trkpt>
      <trkpt lat="44.57579" lon="4.60319">
        <ele>267</ele>
        <time>2020-06-14T13:38:05.000Z</time>
      </trkpt>
      <trkpt lat="44.57581" lon="4.60321">
        <ele>267</ele>
        <time>2020-06-14T13:38:06.000Z</time>
      </trkpt>
      <trkpt lat="44.57588" lon="4.6033">
        <ele>267.60000610352</ele>
        <time>2020-06-14T13:38:10.000Z</time>
      </trkpt>
      <trkpt lat="44.57595" lon="4.60336">
        <ele>268.20001220703</ele>
        <time>2020-06-14T13:38:13.000Z</time>
      </trkpt>
      <trkpt lat="44.57603" lon="4.60343">
        <ele>268.79998779297</ele>
        <time>2020-06-14T13:38:17.000Z</time>
      </trkpt>
      <trkpt lat="44.57614" lon="4.60352">
        <ele>269.20001220703</ele>
        <time>2020-06-14T13:38:22.000Z</time>
      </trkpt>
      <trkpt lat="44.57621" lon="4.60358">
        <ele>269.79998779297</ele>
        <time>2020-06-14T13:38:25.000Z</time>
      </trkpt>
      <trkpt lat="44.57636" lon="4.6037">
        <ele>270.39999389648</ele>
        <time>2020-06-14T13:38:31.000Z</time>
      </trkpt>
      <trkpt lat="44.57641" lon="4.60373">
        <ele>270.79998779297</ele>
        <time>2020-06-14T13:38:33.000Z</time>
      </trkpt>
      <trkpt lat="44.57648" lon="4.60378">
        <ele>271.79998779297</ele>
        <time>2020-06-14T13:38:36.000Z</time>
      </trkpt>
      <trkpt lat="44.5766" lon="4.60387">
        <ele>272.60000610352</ele>
        <time>2020-06-14T13:38:41.000Z</time>
      </trkpt>
      <trkpt lat="44.57673" lon="4.604">
        <ele>273</ele>
        <time>2020-06-14T13:38:47.000Z</time>
      </trkpt>
      <trkpt lat="44.57684" lon="4.60409">
        <ele>273.20001220703</ele>
        <time>2020-06-14T13:38:52.000Z</time>
      </trkpt>
      <trkpt lat="44.57701" lon="4.60422">
        <ele>274</ele>
        <time>2020-06-14T13:39:00.000Z</time>
      </trkpt>
      <trkpt lat="44.57709" lon="4.60428">
        <ele>275.20001220703</ele>
        <time>2020-06-14T13:39:04.000Z</time>
      </trkpt>
      <trkpt lat="44.57716" lon="4.6043">
        <ele>276</ele>
        <time>2020-06-14T13:39:07.000Z</time>
      </trkpt>
      <trkpt lat="44.57725" lon="4.60433">
        <ele>276.20001220703</ele>
        <time>2020-06-14T13:39:11.000Z</time>
      </trkpt>
      <trkpt lat="44.57731" lon="4.60434">
        <ele>276.79998779297</ele>
        <time>2020-06-14T13:39:14.000Z</time>
      </trkpt>
      <trkpt lat="44.57736" lon="4.60434">
        <ele>277.79998779297</ele>
        <time>2020-06-14T13:39:16.000Z</time>
      </trkpt>
      <trkpt lat="44.57742" lon="4.60435">
        <ele>279</ele>
        <time>2020-06-14T13:39:19.000Z</time>
      </trkpt>
      <trkpt lat="44.57753" lon="4.60436">
        <ele>280.39999389648</ele>
        <time>2020-06-14T13:39:24.000Z</time>
      </trkpt>
      <trkpt lat="44.57761" lon="4.60437">
        <ele>281.39999389648</ele>
        <time>2020-06-14T13:39:28.000Z</time>
      </trkpt>
      <trkpt lat="44.57771" lon="4.60438">
        <ele>282</ele>
        <time>2020-06-14T13:39:33.000Z</time>
      </trkpt>
      <trkpt lat="44.57777" lon="4.60439">
        <ele>282.60000610352</ele>
        <time>2020-06-14T13:39:36.000Z</time>
      </trkpt>
      <trkpt lat="44.5779" lon="4.6044">
        <ele>283.79998779297</ele>
        <time>2020-06-14T13:39:42.000Z</time>
      </trkpt>
      <trkpt lat="44.57805" lon="4.60441">
        <ele>284.79998779297</ele>
        <time>2020-06-14T13:39:49.000Z</time>
      </trkpt>
      <trkpt lat="44.57807" lon="4.60441">
        <ele>285</ele>
        <time>2020-06-14T13:39:50.000Z</time>
      </trkpt>
      <trkpt lat="44.57821" lon="4.60442">
        <ele>286</ele>
        <time>2020-06-14T13:39:57.000Z</time>
      </trkpt>
      <trkpt lat="44.57829" lon="4.60444">
        <ele>287</ele>
        <time>2020-06-14T13:40:01.000Z</time>
      </trkpt>
      <trkpt lat="44.57839" lon="4.60444">
        <ele>288</ele>
        <time>2020-06-14T13:40:06.000Z</time>
      </trkpt>
      <trkpt lat="44.57846" lon="4.60444">
        <ele>288.79998779297</ele>
        <time>2020-06-14T13:40:09.000Z</time>
      </trkpt>
      <trkpt lat="44.5785" lon="4.60444">
        <ele>289.20001220703</ele>
        <time>2020-06-14T13:40:11.000Z</time>
      </trkpt>
      <trkpt lat="44.57858" lon="4.60445">
        <ele>290.60000610352</ele>
        <time>2020-06-14T13:40:15.000Z</time>
      </trkpt>
      <trkpt lat="44.5786" lon="4.60446">
        <ele>290.60000610352</ele>
        <time>2020-06-14T13:40:16.000Z</time>
      </trkpt>
      <trkpt lat="44.57868" lon="4.60446">
        <ele>291.60000610352</ele>
        <time>2020-06-14T13:40:20.000Z</time>
      </trkpt>
      <trkpt lat="44.57878" lon="4.60446">
        <ele>292.39999389648</ele>
        <time>2020-06-14T13:40:25.000Z</time>
      </trkpt>
      <trkpt lat="44.5788" lon="4.60446">
        <ele>292.60000610352</ele>
        <time>2020-06-14T13:40:26.000Z</time>
      </trkpt>
      <trkpt lat="44.57891" lon="4.60448">
        <ele>294</ele>
        <time>2020-06-14T13:40:32.000Z</time>
      </trkpt>
      <trkpt lat="44.57907" lon="4.60452">
        <ele>295.20001220703</ele>
        <time>2020-06-14T13:40:40.000Z</time>
      </trkpt>
      <trkpt lat="44.57916" lon="4.60454">
        <ele>296.60000610352</ele>
        <time>2020-06-14T13:40:45.000Z</time>
      </trkpt>
      <trkpt lat="44.57924" lon="4.60457">
        <ele>297.60000610352</ele>
        <time>2020-06-14T13:40:49.000Z</time>
      </trkpt>
      <trkpt lat="44.57937" lon="4.6046">
        <ele>298</ele>
        <time>2020-06-14T13:40:56.000Z</time>
      </trkpt>
      <trkpt lat="44.57943" lon="4.60461">
        <ele>298.79998779297</ele>
        <time>2020-06-14T13:40:59.000Z</time>
      </trkpt>
      <trkpt lat="44.57948" lon="4.60463">
        <ele>300</ele>
        <time>2020-06-14T13:41:02.000Z</time>
      </trkpt>
      <trkpt lat="44.57951" lon="4.60464">
        <ele>300.60000610352</ele>
        <time>2020-06-14T13:41:04.000Z</time>
      </trkpt>
      <trkpt lat="44.57955" lon="4.60465">
        <ele>301</ele>
        <time>2020-06-14T13:41:06.000Z</time>
      </trkpt>
      <trkpt lat="44.57964" lon="4.60468">
        <ele>302.20001220703</ele>
        <time>2020-06-14T13:41:11.000Z</time>
      </trkpt>
      <trkpt lat="44.57968" lon="4.60469">
        <ele>302.60000610352</ele>
        <time>2020-06-14T13:41:13.000Z</time>
      </trkpt>
      <trkpt lat="44.57975" lon="4.60471">
        <ele>303.20001220703</ele>
        <time>2020-06-14T13:41:17.000Z</time>
      </trkpt>
      <trkpt lat="44.57986" lon="4.60474">
        <ele>304.20001220703</ele>
        <time>2020-06-14T13:41:23.000Z</time>
      </trkpt>
      <trkpt lat="44.57988" lon="4.60474">
        <ele>304.20001220703</ele>
        <time>2020-06-14T13:41:24.000Z</time>
      </trkpt>
      <trkpt lat="44.58002" lon="4.60478">
        <ele>305.39999389648</ele>
        <time>2020-06-14T13:41:31.000Z</time>
      </trkpt>
      <trkpt lat="44.58005" lon="4.60479">
        <ele>305.60000610352</ele>
        <time>2020-06-14T13:41:33.000Z</time>
      </trkpt>
      <trkpt lat="44.58019" lon="4.60487">
        <ele>306.60000610352</ele>
        <time>2020-06-14T13:41:41.000Z</time>
      </trkpt>
      <trkpt lat="44.58021" lon="4.60488">
        <ele>306.60000610352</ele>
        <time>2020-06-14T13:41:42.000Z</time>
      </trkpt>
      <trkpt lat="44.58028" lon="4.60492">
        <ele>307.60000610352</ele>
        <time>2020-06-14T13:41:46.000Z</time>
      </trkpt>
      <trkpt lat="44.58035" lon="4.60495">
        <ele>308.20001220703</ele>
        <time>2020-06-14T13:41:50.000Z</time>
      </trkpt>
      <trkpt lat="44.58041" lon="4.60499">
        <ele>308.79998779297</ele>
        <time>2020-06-14T13:41:54.000Z</time>
      </trkpt>
      <trkpt lat="44.58047" lon="4.60504">
        <ele>309.60000610352</ele>
        <time>2020-06-14T13:41:58.000Z</time>
      </trkpt>
      <trkpt lat="44.58049" lon="4.60504">
        <ele>309.79998779297</ele>
        <time>2020-06-14T13:41:59.000Z</time>
      </trkpt>
      <trkpt lat="44.58052" lon="4.60505">
        <ele>311</ele>
        <time>2020-06-14T13:42:01.000Z</time>
      </trkpt>
      <trkpt lat="44.58058" lon="4.60504">
        <ele>311.79998779297</ele>
        <time>2020-06-14T13:42:05.000Z</time>
      </trkpt>
      <trkpt lat="44.5806" lon="4.60504">
        <ele>312</ele>
        <time>2020-06-14T13:42:06.000Z</time>
      </trkpt>
      <trkpt lat="44.58067" lon="4.60503">
        <ele>312.79998779297</ele>
        <time>2020-06-14T13:42:11.000Z</time>
      </trkpt>
      <trkpt lat="44.58069" lon="4.60504">
        <ele>313</ele>
        <time>2020-06-14T13:42:12.000Z</time>
      </trkpt>
      <trkpt lat="44.58079" lon="4.60507">
        <ele>314</ele>
        <time>2020-06-14T13:42:19.000Z</time>
      </trkpt>
      <trkpt lat="44.58086" lon="4.6051">
        <ele>315.39999389648</ele>
        <time>2020-06-14T13:42:24.000Z</time>
      </trkpt>
      <trkpt lat="44.5809" lon="4.60512">
        <ele>315.79998779297</ele>
        <time>2020-06-14T13:42:27.000Z</time>
      </trkpt>
      <trkpt lat="44.58093" lon="4.60513">
        <ele>316.39999389648</ele>
        <time>2020-06-14T13:42:29.000Z</time>
      </trkpt>
      <trkpt lat="44.58099" lon="4.60516">
        <ele>317.39999389648</ele>
        <time>2020-06-14T13:42:34.000Z</time>
      </trkpt>
      <trkpt lat="44.58106" lon="4.60521">
        <ele>318.39999389648</ele>
        <time>2020-06-14T13:42:40.000Z</time>
      </trkpt>
      <trkpt lat="44.58109" lon="4.60522">
        <ele>318.60000610352</ele>
        <time>2020-06-14T13:42:42.000Z</time>
      </trkpt>
      <trkpt lat="44.58114" lon="4.60525">
        <ele>319.60000610352</ele>
        <time>2020-06-14T13:42:46.000Z</time>
      </trkpt>
      <trkpt lat="44.58117" lon="4.60527">
        <ele>320.39999389648</ele>
        <time>2020-06-14T13:42:48.000Z</time>
      </trkpt>
      <trkpt lat="44.58118" lon="4.60528">
        <ele>320.79998779297</ele>
        <time>2020-06-14T13:42:49.000Z</time>
      </trkpt>
      <trkpt lat="44.58126" lon="4.60529">
        <ele>321.79998779297</ele>
        <time>2020-06-14T13:42:54.000Z</time>
      </trkpt>
      <trkpt lat="44.58127" lon="4.6053">
        <ele>322</ele>
        <time>2020-06-14T13:42:55.000Z</time>
      </trkpt>
      <trkpt lat="44.58136" lon="4.60531">
        <ele>323</ele>
        <time>2020-06-14T13:43:02.000Z</time>
      </trkpt>
      <trkpt lat="44.58137" lon="4.60532">
        <ele>323.20001220703</ele>
        <time>2020-06-14T13:43:03.000Z</time>
      </trkpt>
      <trkpt lat="44.58141" lon="4.60537">
        <ele>324.39999389648</ele>
        <time>2020-06-14T13:43:08.000Z</time>
      </trkpt>
      <trkpt lat="44.58141" lon="4.60538">
        <ele>324.79998779297</ele>
        <time>2020-06-14T13:43:09.000Z</time>
      </trkpt>
      <trkpt lat="44.58143" lon="4.60546">
        <ele>325.39999389648</ele>
        <time>2020-06-14T13:43:14.000Z</time>
      </trkpt>
      <trkpt lat="44.58144" lon="4.60549">
        <ele>325.60000610352</ele>
        <time>2020-06-14T13:43:16.000Z</time>
      </trkpt>
      <trkpt lat="44.58148" lon="4.60556">
        <ele>326.60000610352</ele>
        <time>2020-06-14T13:43:20.000Z</time>
      </trkpt>
      <trkpt lat="44.58152" lon="4.6056">
        <ele>327.20001220703</ele>
        <time>2020-06-14T13:43:23.000Z</time>
      </trkpt>
      <trkpt lat="44.58155" lon="4.60562">
        <ele>327.60000610352</ele>
        <time>2020-06-14T13:43:25.000Z</time>
      </trkpt>
      <trkpt lat="44.5816" lon="4.60565">
        <ele>328</ele>
        <time>2020-06-14T13:43:29.000Z</time>
      </trkpt>
      <trkpt lat="44.58168" lon="4.60567">
        <ele>328.79998779297</ele>
        <time>2020-06-14T13:43:34.000Z</time>
      </trkpt>
      <trkpt lat="44.58171" lon="4.60568">
        <ele>329.20001220703</ele>
        <time>2020-06-14T13:43:36.000Z</time>
      </trkpt>
      <trkpt lat="44.58176" lon="4.6057">
        <ele>330</ele>
        <time>2020-06-14T13:43:40.000Z</time>
      </trkpt>
      <trkpt lat="44.58181" lon="4.60572">
        <ele>330.79998779297</ele>
        <time>2020-06-14T13:43:44.000Z</time>
      </trkpt>
      <trkpt lat="44.58182" lon="4.60572">
        <ele>331.20001220703</ele>
        <time>2020-06-14T13:43:45.000Z</time>
      </trkpt>
      <trkpt lat="44.58184" lon="4.60572">
        <ele>331.39999389648</ele>
        <time>2020-06-14T13:43:46.000Z</time>
      </trkpt>
      <trkpt lat="44.58187" lon="4.60574">
        <ele>332</ele>
        <time>2020-06-14T13:43:49.000Z</time>
      </trkpt>
      <trkpt lat="44.58188" lon="4.60575">
        <ele>332.20001220703</ele>
        <time>2020-06-14T13:43:50.000Z</time>
      </trkpt>
      <trkpt lat="44.58189" lon="4.60575">
        <ele>332.39999389648</ele>
        <time>2020-06-14T13:43:51.000Z</time>
      </trkpt>
      <trkpt lat="44.58193" lon="4.60575">
        <ele>333.39999389648</ele>
        <time>2020-06-14T13:43:54.000Z</time>
      </trkpt>
      <trkpt lat="44.58194" lon="4.60575">
        <ele>334</ele>
        <time>2020-06-14T13:43:55.000Z</time>
      </trkpt>
      <trkpt lat="44.58201" lon="4.60567">
        <ele>334.39999389648</ele>
        <time>2020-06-14T13:44:00.000Z</time>
      </trkpt>
      <trkpt lat="44.58203" lon="4.60565">
        <ele>334.60000610352</ele>
        <time>2020-06-14T13:44:01.000Z</time>
      </trkpt>
      <trkpt lat="44.58212" lon="4.60553">
        <ele>335</ele>
        <time>2020-06-14T13:44:07.000Z</time>
      </trkpt>
      <trkpt lat="44.58226" lon="4.60537">
        <ele>335</ele>
        <time>2020-06-14T13:44:13.000Z</time>
      </trkpt>
      <trkpt lat="44.58233" lon="4.60529">
        <ele>335</ele>
        <time>2020-06-14T13:44:15.000Z</time>
      </trkpt>
      <trkpt lat="44.58241" lon="4.60523">
        <ele>335</ele>
        <time>2020-06-14T13:44:17.000Z</time>
      </trkpt>
      <trkpt lat="44.58244" lon="4.6052">
        <ele>335</ele>
        <time>2020-06-14T13:44:18.000Z</time>
      </trkpt>
      <trkpt lat="44.58257" lon="4.60512">
        <ele>334</ele>
        <time>2020-06-14T13:44:22.000Z</time>
      </trkpt>
      <trkpt lat="44.5827" lon="4.60498">
        <ele>333.60000610352</ele>
        <time>2020-06-14T13:44:28.000Z</time>
      </trkpt>
      <trkpt lat="44.58285" lon="4.60475">
        <ele>334</ele>
        <time>2020-06-14T13:44:36.000Z</time>
      </trkpt>
      <trkpt lat="44.58284" lon="4.60455">
        <ele>334.79998779297</ele>
        <time>2020-06-14T13:44:41.000Z</time>
      </trkpt>
      <trkpt lat="44.5828" lon="4.60441">
        <ele>335</ele>
        <time>2020-06-14T13:44:46.000Z</time>
      </trkpt>
      <trkpt lat="44.58276" lon="4.60427">
        <ele>335</ele>
        <time>2020-06-14T13:44:51.000Z</time>
      </trkpt>
      <trkpt lat="44.58275" lon="4.60419">
        <ele>335.60000610352</ele>
        <time>2020-06-14T13:44:54.000Z</time>
      </trkpt>
      <trkpt lat="44.58276" lon="4.60409">
        <ele>336.39999389648</ele>
        <time>2020-06-14T13:44:58.000Z</time>
      </trkpt>
      <trkpt lat="44.58278" lon="4.60405">
        <ele>336.60000610352</ele>
        <time>2020-06-14T13:45:00.000Z</time>
      </trkpt>
      <trkpt lat="44.58281" lon="4.60404">
        <ele>336.79998779297</ele>
        <time>2020-06-14T13:45:02.000Z</time>
      </trkpt>
      <trkpt lat="44.58283" lon="4.60405">
        <ele>337</ele>
        <time>2020-06-14T13:45:03.000Z</time>
      </trkpt>
      <trkpt lat="44.58291" lon="4.60414">
        <ele>337.60000610352</ele>
        <time>2020-06-14T13:45:08.000Z</time>
      </trkpt>
      <trkpt lat="44.58292" lon="4.60416">
        <ele>337.79998779297</ele>
        <time>2020-06-14T13:45:09.000Z</time>
      </trkpt>
      <trkpt lat="44.58304" lon="4.60431">
        <ele>338.39999389648</ele>
        <time>2020-06-14T13:45:15.000Z</time>
      </trkpt>
      <trkpt lat="44.58315" lon="4.60442">
        <ele>338.39999389648</ele>
        <time>2020-06-14T13:45:20.000Z</time>
      </trkpt>
      <trkpt lat="44.58316" lon="4.60444">
        <ele>338.39999389648</ele>
        <time>2020-06-14T13:45:21.000Z</time>
      </trkpt>
      <trkpt lat="44.58317" lon="4.6045">
        <ele>338.39999389648</ele>
        <time>2020-06-14T13:45:24.000Z</time>
      </trkpt>
      <trkpt lat="44.58316" lon="4.6045">
        <ele>338.39999389648</ele>
        <time>2020-06-14T13:45:27.000Z</time>
      </trkpt>
      <trkpt lat="44.58316" lon="4.60453">
        <ele>339</ele>
        <time>2020-06-14T13:45:39.000Z</time>
      </trkpt>
      <trkpt lat="44.58316" lon="4.60453">
        <ele>339</ele>
        <time>2020-06-14T13:45:41.000Z</time>
      </trkpt>
      <trkpt lat="44.58316" lon="4.60455">
        <ele>338.79998779297</ele>
        <time>2020-06-14T13:46:53.000Z</time>
      </trkpt>
      <trkpt lat="44.58316" lon="4.60455">
        <ele>338.79998779297</ele>
        <time>2020-06-14T13:46:55.000Z</time>
      </trkpt>
      <trkpt lat="44.58315" lon="4.60458">
        <ele>338.79998779297</ele>
        <time>2020-06-14T13:47:01.000Z</time>
      </trkpt>
      <trkpt lat="44.58312" lon="4.60467">
        <ele>338.79998779297</ele>
        <time>2020-06-14T13:47:06.000Z</time>
      </trkpt>
      <trkpt lat="44.58313" lon="4.60486">
        <ele>339.20001220703</ele>
        <time>2020-06-14T13:47:15.000Z</time>
      </trkpt>
      <trkpt lat="44.58315" lon="4.60491">
        <ele>340</ele>
        <time>2020-06-14T13:47:18.000Z</time>
      </trkpt>
      <trkpt lat="44.58318" lon="4.60495">
        <ele>340.79998779297</ele>
        <time>2020-06-14T13:47:21.000Z</time>
      </trkpt>
      <trkpt lat="44.58319" lon="4.60495">
        <ele>340.79998779297</ele>
        <time>2020-06-14T13:47:22.000Z</time>
      </trkpt>
      <trkpt lat="44.58322" lon="4.60496">
        <ele>341.39999389648</ele>
        <time>2020-06-14T13:47:24.000Z</time>
      </trkpt>
      <trkpt lat="44.58325" lon="4.60497">
        <ele>342.20001220703</ele>
        <time>2020-06-14T13:47:27.000Z</time>
      </trkpt>
      <trkpt lat="44.58326" lon="4.60497">
        <ele>342.39999389648</ele>
        <time>2020-06-14T13:47:28.000Z</time>
      </trkpt>
      <trkpt lat="44.58334" lon="4.60499">
        <ele>343.20001220703</ele>
        <time>2020-06-14T13:47:34.000Z</time>
      </trkpt>
      <trkpt lat="44.58335" lon="4.60499">
        <ele>343.60000610352</ele>
        <time>2020-06-14T13:47:35.000Z</time>
      </trkpt>
      <trkpt lat="44.58343" lon="4.605">
        <ele>344.60000610352</ele>
        <time>2020-06-14T13:47:41.000Z</time>
      </trkpt>
      <trkpt lat="44.58348" lon="4.60503">
        <ele>346.20001220703</ele>
        <time>2020-06-14T13:47:46.000Z</time>
      </trkpt>
      <trkpt lat="44.58352" lon="4.60504">
        <ele>346.60000610352</ele>
        <time>2020-06-14T13:47:49.000Z</time>
      </trkpt>
      <trkpt lat="44.58357" lon="4.60514">
        <ele>347</ele>
        <time>2020-06-14T13:47:56.000Z</time>
      </trkpt>
      <trkpt lat="44.58358" lon="4.60516">
        <ele>347.20001220703</ele>
        <time>2020-06-14T13:47:57.000Z</time>
      </trkpt>
      <trkpt lat="44.58362" lon="4.60524">
        <ele>348</ele>
        <time>2020-06-14T13:48:02.000Z</time>
      </trkpt>
      <trkpt lat="44.58364" lon="4.60527">
        <ele>348.60000610352</ele>
        <time>2020-06-14T13:48:04.000Z</time>
      </trkpt>
      <trkpt lat="44.58369" lon="4.60536">
        <ele>349.20001220703</ele>
        <time>2020-06-14T13:48:10.000Z</time>
      </trkpt>
      <trkpt lat="44.58375" lon="4.60549">
        <ele>350</ele>
        <time>2020-06-14T13:48:18.000Z</time>
      </trkpt>
      <trkpt lat="44.58376" lon="4.60553">
        <ele>350.39999389648</ele>
        <time>2020-06-14T13:48:20.000Z</time>
      </trkpt>
      <trkpt lat="44.58379" lon="4.60562">
        <ele>351</ele>
        <time>2020-06-14T13:48:25.000Z</time>
      </trkpt>
      <trkpt lat="44.5838" lon="4.60568">
        <ele>351.60000610352</ele>
        <time>2020-06-14T13:48:28.000Z</time>
      </trkpt>
      <trkpt lat="44.58379" lon="4.60575">
        <ele>352.39999389648</ele>
        <time>2020-06-14T13:48:32.000Z</time>
      </trkpt>
      <trkpt lat="44.58378" lon="4.60582">
        <ele>352.79998779297</ele>
        <time>2020-06-14T13:48:35.000Z</time>
      </trkpt>
      <trkpt lat="44.58378" lon="4.60591">
        <ele>354</ele>
        <time>2020-06-14T13:48:39.000Z</time>
      </trkpt>
      <trkpt lat="44.58379" lon="4.60595">
        <ele>354.20001220703</ele>
        <time>2020-06-14T13:48:41.000Z</time>
      </trkpt>
      <trkpt lat="44.58377" lon="4.60608">
        <ele>355</ele>
        <time>2020-06-14T13:48:47.000Z</time>
      </trkpt>
      <trkpt lat="44.58377" lon="4.6061">
        <ele>355.20001220703</ele>
        <time>2020-06-14T13:48:48.000Z</time>
      </trkpt>
      <trkpt lat="44.58378" lon="4.60616">
        <ele>355.79998779297</ele>
        <time>2020-06-14T13:48:51.000Z</time>
      </trkpt>
      <trkpt lat="44.5838" lon="4.60618">
        <ele>356.20001220703</ele>
        <time>2020-06-14T13:48:53.000Z</time>
      </trkpt>
      <trkpt lat="44.58385" lon="4.60622">
        <ele>357</ele>
        <time>2020-06-14T13:48:57.000Z</time>
      </trkpt>
      <trkpt lat="44.58386" lon="4.60622">
        <ele>357.20001220703</ele>
        <time>2020-06-14T13:48:58.000Z</time>
      </trkpt>
      <trkpt lat="44.58387" lon="4.60622">
        <ele>357.39999389648</ele>
        <time>2020-06-14T13:48:59.000Z</time>
      </trkpt>
      <trkpt lat="44.58394" lon="4.60619">
        <ele>358.39999389648</ele>
        <time>2020-06-14T13:49:04.000Z</time>
      </trkpt>
      <trkpt lat="44.58398" lon="4.60615">
        <ele>359.20001220703</ele>
        <time>2020-06-14T13:49:07.000Z</time>
      </trkpt>
      <trkpt lat="44.58399" lon="4.60614">
        <ele>359.39999389648</ele>
        <time>2020-06-14T13:49:08.000Z</time>
      </trkpt>
      <trkpt lat="44.58408" lon="4.60607">
        <ele>360</ele>
        <time>2020-06-14T13:49:14.000Z</time>
      </trkpt>
      <trkpt lat="44.5841" lon="4.60605">
        <ele>360.39999389648</ele>
        <time>2020-06-14T13:49:16.000Z</time>
      </trkpt>
      <trkpt lat="44.58415" lon="4.60603">
        <ele>360.79998779297</ele>
        <time>2020-06-14T13:49:19.000Z</time>
      </trkpt>
      <trkpt lat="44.58421" lon="4.606">
        <ele>361.39999389648</ele>
        <time>2020-06-14T13:49:23.000Z</time>
      </trkpt>
      <trkpt lat="44.58425" lon="4.60595">
        <ele>362</ele>
        <time>2020-06-14T13:49:26.000Z</time>
      </trkpt>
      <trkpt lat="44.58427" lon="4.60592">
        <ele>362.20001220703</ele>
        <time>2020-06-14T13:49:28.000Z</time>
      </trkpt>
      <trkpt lat="44.58428" lon="4.60591">
        <ele>362.60000610352</ele>
        <time>2020-06-14T13:49:29.000Z</time>
      </trkpt>
      <trkpt lat="44.58432" lon="4.60588">
        <ele>363</ele>
        <time>2020-06-14T13:49:32.000Z</time>
      </trkpt>
      <trkpt lat="44.58438" lon="4.60581">
        <ele>363.39999389648</ele>
        <time>2020-06-14T13:49:37.000Z</time>
      </trkpt>
      <trkpt lat="44.58441" lon="4.60579">
        <ele>363.79998779297</ele>
        <time>2020-06-14T13:49:40.000Z</time>
      </trkpt>
      <trkpt lat="44.58447" lon="4.6058">
        <ele>364.39999389648</ele>
        <time>2020-06-14T13:49:44.000Z</time>
      </trkpt>
      <trkpt lat="44.58448" lon="4.60581">
        <ele>364.39999389648</ele>
        <time>2020-06-14T13:49:45.000Z</time>
      </trkpt>
      <trkpt lat="44.58449" lon="4.60582">
        <ele>364.79998779297</ele>
        <time>2020-06-14T13:49:46.000Z</time>
      </trkpt>
      <trkpt lat="44.58449" lon="4.6059">
        <ele>365.60000610352</ele>
        <time>2020-06-14T13:49:50.000Z</time>
      </trkpt>
      <trkpt lat="44.58449" lon="4.60592">
        <ele>365.60000610352</ele>
        <time>2020-06-14T13:49:51.000Z</time>
      </trkpt>
      <trkpt lat="44.58449" lon="4.60606">
        <ele>366.60000610352</ele>
        <time>2020-06-14T13:49:58.000Z</time>
      </trkpt>
      <trkpt lat="44.58448" lon="4.60613">
        <ele>367.20001220703</ele>
        <time>2020-06-14T13:50:01.000Z</time>
      </trkpt>
      <trkpt lat="44.58447" lon="4.60622">
        <ele>367.60000610352</ele>
        <time>2020-06-14T13:50:05.000Z</time>
      </trkpt>
      <trkpt lat="44.58446" lon="4.60625">
        <ele>367.79998779297</ele>
        <time>2020-06-14T13:50:07.000Z</time>
      </trkpt>
      <trkpt lat="44.58445" lon="4.60634">
        <ele>368</ele>
        <time>2020-06-14T13:50:11.000Z</time>
      </trkpt>
      <trkpt lat="44.58444" lon="4.60641">
        <ele>368.79998779297</ele>
        <time>2020-06-14T13:50:14.000Z</time>
      </trkpt>
      <trkpt lat="44.58441" lon="4.60648">
        <ele>369.39999389648</ele>
        <time>2020-06-14T13:50:18.000Z</time>
      </trkpt>
      <trkpt lat="44.5844" lon="4.60654">
        <ele>369.79998779297</ele>
        <time>2020-06-14T13:50:21.000Z</time>
      </trkpt>
      <trkpt lat="44.58437" lon="4.60665">
        <ele>370.79998779297</ele>
        <time>2020-06-14T13:50:26.000Z</time>
      </trkpt>
      <trkpt lat="44.58437" lon="4.60667">
        <ele>371</ele>
        <time>2020-06-14T13:50:27.000Z</time>
      </trkpt>
      <trkpt lat="44.58435" lon="4.60679">
        <ele>372</ele>
        <time>2020-06-14T13:50:32.000Z</time>
      </trkpt>
      <trkpt lat="44.58433" lon="4.60686">
        <ele>372.39999389648</ele>
        <time>2020-06-14T13:50:35.000Z</time>
      </trkpt>
      <trkpt lat="44.58429" lon="4.60703">
        <ele>373</ele>
        <time>2020-06-14T13:50:43.000Z</time>
      </trkpt>
      <trkpt lat="44.58425" lon="4.60714">
        <ele>373.39999389648</ele>
        <time>2020-06-14T13:50:49.000Z</time>
      </trkpt>
      <trkpt lat="44.58423" lon="4.60722">
        <ele>374</ele>
        <time>2020-06-14T13:50:53.000Z</time>
      </trkpt>
      <trkpt lat="44.58422" lon="4.60729">
        <ele>374.60000610352</ele>
        <time>2020-06-14T13:50:56.000Z</time>
      </trkpt>
      <trkpt lat="44.58419" lon="4.6074">
        <ele>374.79998779297</ele>
        <time>2020-06-14T13:51:01.000Z</time>
      </trkpt>
      <trkpt lat="44.58419" lon="4.60754">
        <ele>375.39999389648</ele>
        <time>2020-06-14T13:51:07.000Z</time>
      </trkpt>
      <trkpt lat="44.58419" lon="4.60758">
        <ele>375.79998779297</ele>
        <time>2020-06-14T13:51:09.000Z</time>
      </trkpt>
      <trkpt lat="44.58419" lon="4.6076">
        <ele>376</ele>
        <time>2020-06-14T13:51:10.000Z</time>
      </trkpt>
      <trkpt lat="44.58419" lon="4.60763">
        <ele>376.20001220703</ele>
        <time>2020-06-14T13:51:12.000Z</time>
      </trkpt>
      <trkpt lat="44.58419" lon="4.60772">
        <ele>377</ele>
        <time>2020-06-14T13:51:16.000Z</time>
      </trkpt>
      <trkpt lat="44.58419" lon="4.60776">
        <ele>377.20001220703</ele>
        <time>2020-06-14T13:51:18.000Z</time>
      </trkpt>
      <trkpt lat="44.58423" lon="4.60792">
        <ele>378.39999389648</ele>
        <time>2020-06-14T13:51:25.000Z</time>
      </trkpt>
      <trkpt lat="44.58424" lon="4.60794">
        <ele>378.60000610352</ele>
        <time>2020-06-14T13:51:26.000Z</time>
      </trkpt>
      <trkpt lat="44.58429" lon="4.60804">
        <ele>379.39999389648</ele>
        <time>2020-06-14T13:51:31.000Z</time>
      </trkpt>
      <trkpt lat="44.58431" lon="4.60809">
        <ele>379.60000610352</ele>
        <time>2020-06-14T13:51:34.000Z</time>
      </trkpt>
      <trkpt lat="44.58434" lon="4.60818">
        <ele>380.39999389648</ele>
        <time>2020-06-14T13:51:39.000Z</time>
      </trkpt>
      <trkpt lat="44.58436" lon="4.60819">
        <ele>380.39999389648</ele>
        <time>2020-06-14T13:51:40.000Z</time>
      </trkpt>
      <trkpt lat="44.58443" lon="4.60821">
        <ele>381.39999389648</ele>
        <time>2020-06-14T13:51:45.000Z</time>
      </trkpt>
      <trkpt lat="44.58444" lon="4.6082">
        <ele>381.79998779297</ele>
        <time>2020-06-14T13:51:46.000Z</time>
      </trkpt>
      <trkpt lat="44.58447" lon="4.60817">
        <ele>382.39999389648</ele>
        <time>2020-06-14T13:51:49.000Z</time>
      </trkpt>
      <trkpt lat="44.58449" lon="4.60811">
        <ele>383.60000610352</ele>
        <time>2020-06-14T13:51:53.000Z</time>
      </trkpt>
      <trkpt lat="44.58453" lon="4.608">
        <ele>384.60000610352</ele>
        <time>2020-06-14T13:51:59.000Z</time>
      </trkpt>
      <trkpt lat="44.58453" lon="4.60799">
        <ele>384.60000610352</ele>
        <time>2020-06-14T13:52:00.000Z</time>
      </trkpt>
      <trkpt lat="44.58456" lon="4.60792">
        <ele>385.60000610352</ele>
        <time>2020-06-14T13:52:05.000Z</time>
      </trkpt>
      <trkpt lat="44.58463" lon="4.60783">
        <ele>386.39999389648</ele>
        <time>2020-06-14T13:52:12.000Z</time>
      </trkpt>
      <trkpt lat="44.58465" lon="4.6078">
        <ele>386.60000610352</ele>
        <time>2020-06-14T13:52:14.000Z</time>
      </trkpt>
      <trkpt lat="44.58468" lon="4.60774">
        <ele>387.20001220703</ele>
        <time>2020-06-14T13:52:18.000Z</time>
      </trkpt>
      <trkpt lat="44.58471" lon="4.60769">
        <ele>387.79998779297</ele>
        <time>2020-06-14T13:52:21.000Z</time>
      </trkpt>
      <trkpt lat="44.58475" lon="4.60762">
        <ele>388.39999389648</ele>
        <time>2020-06-14T13:52:25.000Z</time>
      </trkpt>
      <trkpt lat="44.58477" lon="4.60759">
        <ele>388.79998779297</ele>
        <time>2020-06-14T13:52:27.000Z</time>
      </trkpt>
      <trkpt lat="44.58481" lon="4.60752">
        <ele>389.39999389648</ele>
        <time>2020-06-14T13:52:31.000Z</time>
      </trkpt>
      <trkpt lat="44.58485" lon="4.60744">
        <ele>389.79998779297</ele>
        <time>2020-06-14T13:52:35.000Z</time>
      </trkpt>
      <trkpt lat="44.58491" lon="4.60734">
        <ele>390</ele>
        <time>2020-06-14T13:52:40.000Z</time>
      </trkpt>
      <trkpt lat="44.58499" lon="4.60724">
        <ele>390.60000610352</ele>
        <time>2020-06-14T13:52:46.000Z</time>
      </trkpt>
      <trkpt lat="44.58501" lon="4.60721">
        <ele>390.79998779297</ele>
        <time>2020-06-14T13:52:48.000Z</time>
      </trkpt>
      <trkpt lat="44.58502" lon="4.60719">
        <ele>391</ele>
        <time>2020-06-14T13:52:49.000Z</time>
      </trkpt>
      <trkpt lat="44.58504" lon="4.60715">
        <ele>391.20001220703</ele>
        <time>2020-06-14T13:52:51.000Z</time>
      </trkpt>
      <trkpt lat="44.58512" lon="4.60705">
        <ele>391.79998779297</ele>
        <time>2020-06-14T13:52:57.000Z</time>
      </trkpt>
      <trkpt lat="44.58513" lon="4.60703">
        <ele>392</ele>
        <time>2020-06-14T13:52:58.000Z</time>
      </trkpt>
      <trkpt lat="44.58522" lon="4.60698">
        <ele>392.79998779297</ele>
        <time>2020-06-14T13:53:04.000Z</time>
      </trkpt>
      <trkpt lat="44.58524" lon="4.60698">
        <ele>393.20001220703</ele>
        <time>2020-06-14T13:53:05.000Z</time>
      </trkpt>
      <trkpt lat="44.58524" lon="4.60699">
        <ele>393.39999389648</ele>
        <time>2020-06-14T13:53:06.000Z</time>
      </trkpt>
      <trkpt lat="44.58526" lon="4.60702">
        <ele>393.79998779297</ele>
        <time>2020-06-14T13:53:08.000Z</time>
      </trkpt>
      <trkpt lat="44.58525" lon="4.60704">
        <ele>394.20001220703</ele>
        <time>2020-06-14T13:53:09.000Z</time>
      </trkpt>
      <trkpt lat="44.58522" lon="4.60718">
        <ele>395.20001220703</ele>
        <time>2020-06-14T13:53:15.000Z</time>
      </trkpt>
      <trkpt lat="44.58521" lon="4.60721">
        <ele>395.39999389648</ele>
        <time>2020-06-14T13:53:16.000Z</time>
      </trkpt>
      <trkpt lat="44.58518" lon="4.60733">
        <ele>396</ele>
        <time>2020-06-14T13:53:22.000Z</time>
      </trkpt>
      <trkpt lat="44.58517" lon="4.60738">
        <ele>396.39999389648</ele>
        <time>2020-06-14T13:53:24.000Z</time>
      </trkpt>
      <trkpt lat="44.58516" lon="4.60744">
        <ele>397</ele>
        <time>2020-06-14T13:53:27.000Z</time>
      </trkpt>
      <trkpt lat="44.58513" lon="4.60752">
        <ele>397.39999389648</ele>
        <time>2020-06-14T13:53:31.000Z</time>
      </trkpt>
      <trkpt lat="44.58513" lon="4.60758">
        <ele>397.79998779297</ele>
        <time>2020-06-14T13:53:33.000Z</time>
      </trkpt>
      <trkpt lat="44.5851" lon="4.60771">
        <ele>398.39999389648</ele>
        <time>2020-06-14T13:53:39.000Z</time>
      </trkpt>
      <trkpt lat="44.5851" lon="4.60774">
        <ele>398.60000610352</ele>
        <time>2020-06-14T13:53:40.000Z</time>
      </trkpt>
      <trkpt lat="44.58507" lon="4.6079">
        <ele>399.20001220703</ele>
        <time>2020-06-14T13:53:47.000Z</time>
      </trkpt>
      <trkpt lat="44.58506" lon="4.60794">
        <ele>399.60000610352</ele>
        <time>2020-06-14T13:53:49.000Z</time>
      </trkpt>
      <trkpt lat="44.58504" lon="4.60805">
        <ele>399.79998779297</ele>
        <time>2020-06-14T13:53:53.000Z</time>
      </trkpt>
      <trkpt lat="44.58502" lon="4.60823">
        <ele>400.39999389648</ele>
        <time>2020-06-14T13:54:00.000Z</time>
      </trkpt>
      <trkpt lat="44.58501" lon="4.60826">
        <ele>400.60000610352</ele>
        <time>2020-06-14T13:54:01.000Z</time>
      </trkpt>
      <trkpt lat="44.58498" lon="4.60844">
        <ele>401.39999389648</ele>
        <time>2020-06-14T13:54:08.000Z</time>
      </trkpt>
      <trkpt lat="44.58498" lon="4.60847">
        <ele>401.60000610352</ele>
        <time>2020-06-14T13:54:09.000Z</time>
      </trkpt>
      <trkpt lat="44.58497" lon="4.60854">
        <ele>401.79998779297</ele>
        <time>2020-06-14T13:54:12.000Z</time>
      </trkpt>
      <trkpt lat="44.58498" lon="4.60863">
        <ele>402</ele>
        <time>2020-06-14T13:54:15.000Z</time>
      </trkpt>
      <trkpt lat="44.58499" lon="4.6088">
        <ele>402.60000610352</ele>
        <time>2020-06-14T13:54:21.000Z</time>
      </trkpt>
      <trkpt lat="44.58499" lon="4.60886">
        <ele>403.20001220703</ele>
        <time>2020-06-14T13:54:23.000Z</time>
      </trkpt>
      <trkpt lat="44.58497" lon="4.60896">
        <ele>403.79998779297</ele>
        <time>2020-06-14T13:54:26.000Z</time>
      </trkpt>
      <trkpt lat="44.58493" lon="4.60913">
        <ele>404</ele>
        <time>2020-06-14T13:54:31.000Z</time>
      </trkpt>
      <trkpt lat="44.58491" lon="4.60929">
        <ele>404.20001220703</ele>
        <time>2020-06-14T13:54:36.000Z</time>
      </trkpt>
      <trkpt lat="44.58491" lon="4.60938">
        <ele>404.79998779297</ele>
        <time>2020-06-14T13:54:39.000Z</time>
      </trkpt>
      <trkpt lat="44.58492" lon="4.60941">
        <ele>404.79998779297</ele>
        <time>2020-06-14T13:54:40.000Z</time>
      </trkpt>
      <trkpt lat="44.58493" lon="4.60944">
        <ele>405</ele>
        <time>2020-06-14T13:54:41.000Z</time>
      </trkpt>
      <trkpt lat="44.58496" lon="4.60957">
        <ele>406</ele>
        <time>2020-06-14T13:54:45.000Z</time>
      </trkpt>
      <trkpt lat="44.58497" lon="4.6096">
        <ele>406.20001220703</ele>
        <time>2020-06-14T13:54:46.000Z</time>
      </trkpt>
      <trkpt lat="44.58498" lon="4.60969">
        <ele>406.60000610352</ele>
        <time>2020-06-14T13:54:49.000Z</time>
      </trkpt>
      <trkpt lat="44.58499" lon="4.60976">
        <ele>406.79998779297</ele>
        <time>2020-06-14T13:54:51.000Z</time>
      </trkpt>
      <trkpt lat="44.58499" lon="4.60979">
        <ele>407</ele>
        <time>2020-06-14T13:54:52.000Z</time>
      </trkpt>
      <trkpt lat="44.585" lon="4.60991">
        <ele>407.79998779297</ele>
        <time>2020-06-14T13:54:56.000Z</time>
      </trkpt>
      <trkpt lat="44.58501" lon="4.60994">
        <ele>408.20001220703</ele>
        <time>2020-06-14T13:54:57.000Z</time>
      </trkpt>
      <trkpt lat="44.58503" lon="4.61005">
        <ele>408.79998779297</ele>
        <time>2020-06-14T13:55:01.000Z</time>
      </trkpt>
      <trkpt lat="44.58503" lon="4.61012">
        <ele>409.20001220703</ele>
        <time>2020-06-14T13:55:04.000Z</time>
      </trkpt>
      <trkpt lat="44.58504" lon="4.6102">
        <ele>409.60000610352</ele>
        <time>2020-06-14T13:55:07.000Z</time>
      </trkpt>
      <trkpt lat="44.585" lon="4.61033">
        <ele>410.39999389648</ele>
        <time>2020-06-14T13:55:11.000Z</time>
      </trkpt>
      <trkpt lat="44.58499" lon="4.61036">
        <ele>410.60000610352</ele>
        <time>2020-06-14T13:55:12.000Z</time>
      </trkpt>
      <trkpt lat="44.58492" lon="4.61056">
        <ele>411.39999389648</ele>
        <time>2020-06-14T13:55:20.000Z</time>
      </trkpt>
      <trkpt lat="44.58482" lon="4.61068">
        <ele>412</ele>
        <time>2020-06-14T13:55:27.000Z</time>
      </trkpt>
      <trkpt lat="44.58478" lon="4.6107">
        <ele>412.39999389648</ele>
        <time>2020-06-14T13:55:29.000Z</time>
      </trkpt>
      <trkpt lat="44.58464" lon="4.61077">
        <ele>413.39999389648</ele>
        <time>2020-06-14T13:55:36.000Z</time>
      </trkpt>
      <trkpt lat="44.58459" lon="4.61079">
        <ele>413.60000610352</ele>
        <time>2020-06-14T13:55:38.000Z</time>
      </trkpt>
      <trkpt lat="44.58452" lon="4.61082">
        <ele>413.79998779297</ele>
        <time>2020-06-14T13:55:42.000Z</time>
      </trkpt>
      <trkpt lat="44.58443" lon="4.61087">
        <ele>414.60000610352</ele>
        <time>2020-06-14T13:55:47.000Z</time>
      </trkpt>
      <trkpt lat="44.58441" lon="4.61091">
        <ele>414.79998779297</ele>
        <time>2020-06-14T13:55:49.000Z</time>
      </trkpt>
      <trkpt lat="44.58436" lon="4.61103">
        <ele>415.79998779297</ele>
        <time>2020-06-14T13:55:55.000Z</time>
      </trkpt>
      <trkpt lat="44.58436" lon="4.61105">
        <ele>415.79998779297</ele>
        <time>2020-06-14T13:55:56.000Z</time>
      </trkpt>
      <trkpt lat="44.58433" lon="4.61116">
        <ele>416.79998779297</ele>
        <time>2020-06-14T13:56:02.000Z</time>
      </trkpt>
      <trkpt lat="44.58433" lon="4.61119">
        <ele>417</ele>
        <time>2020-06-14T13:56:03.000Z</time>
      </trkpt>
      <trkpt lat="44.58431" lon="4.61129">
        <ele>417.79998779297</ele>
        <time>2020-06-14T13:56:08.000Z</time>
      </trkpt>
      <trkpt lat="44.58428" lon="4.61145">
        <ele>418.79998779297</ele>
        <time>2020-06-14T13:56:15.000Z</time>
      </trkpt>
      <trkpt lat="44.58427" lon="4.61147">
        <ele>419</ele>
        <time>2020-06-14T13:56:16.000Z</time>
      </trkpt>
      <trkpt lat="44.58424" lon="4.61157">
        <ele>420</ele>
        <time>2020-06-14T13:56:20.000Z</time>
      </trkpt>
      <trkpt lat="44.58423" lon="4.61162">
        <ele>420.39999389648</ele>
        <time>2020-06-14T13:56:22.000Z</time>
      </trkpt>
      <trkpt lat="44.58421" lon="4.61166">
        <ele>421</ele>
        <time>2020-06-14T13:56:24.000Z</time>
      </trkpt>
      <trkpt lat="44.58422" lon="4.61175">
        <ele>421.60000610352</ele>
        <time>2020-06-14T13:56:28.000Z</time>
      </trkpt>
      <trkpt lat="44.58424" lon="4.61182">
        <ele>422</ele>
        <time>2020-06-14T13:56:31.000Z</time>
      </trkpt>
      <trkpt lat="44.58425" lon="4.61189">
        <ele>422.60000610352</ele>
        <time>2020-06-14T13:56:34.000Z</time>
      </trkpt>
      <trkpt lat="44.58426" lon="4.61196">
        <ele>423.20001220703</ele>
        <time>2020-06-14T13:56:37.000Z</time>
      </trkpt>
      <trkpt lat="44.58429" lon="4.61203">
        <ele>423.39999389648</ele>
        <time>2020-06-14T13:56:40.000Z</time>
      </trkpt>
      <trkpt lat="44.58435" lon="4.61215">
        <ele>424</ele>
        <time>2020-06-14T13:56:46.000Z</time>
      </trkpt>
      <trkpt lat="44.58437" lon="4.61219">
        <ele>424.39999389648</ele>
        <time>2020-06-14T13:56:48.000Z</time>
      </trkpt>
      <trkpt lat="44.58445" lon="4.61233">
        <ele>424.79998779297</ele>
        <time>2020-06-14T13:56:55.000Z</time>
      </trkpt>
      <trkpt lat="44.58446" lon="4.61237">
        <ele>425.20001220703</ele>
        <time>2020-06-14T13:56:57.000Z</time>
      </trkpt>
      <trkpt lat="44.5845" lon="4.61245">
        <ele>425.60000610352</ele>
        <time>2020-06-14T13:57:01.000Z</time>
      </trkpt>
      <trkpt lat="44.58454" lon="4.61253">
        <ele>426.20001220703</ele>
        <time>2020-06-14T13:57:05.000Z</time>
      </trkpt>
      <trkpt lat="44.58456" lon="4.6126">
        <ele>426.60000610352</ele>
        <time>2020-06-14T13:57:08.000Z</time>
      </trkpt>
      <trkpt lat="44.58458" lon="4.6127">
        <ele>427.39999389648</ele>
        <time>2020-06-14T13:57:12.000Z</time>
      </trkpt>
      <trkpt lat="44.5846" lon="4.61278">
        <ele>428</ele>
        <time>2020-06-14T13:57:15.000Z</time>
      </trkpt>
      <trkpt lat="44.58462" lon="4.61286">
        <ele>428.60000610352</ele>
        <time>2020-06-14T13:57:18.000Z</time>
      </trkpt>
      <trkpt lat="44.58463" lon="4.61294">
        <ele>429</ele>
        <time>2020-06-14T13:57:21.000Z</time>
      </trkpt>
      <trkpt lat="44.58468" lon="4.61315">
        <ele>429.39999389648</ele>
        <time>2020-06-14T13:57:29.000Z</time>
      </trkpt>
      <trkpt lat="44.58468" lon="4.61318">
        <ele>429.79998779297</ele>
        <time>2020-06-14T13:57:30.000Z</time>
      </trkpt>
      <trkpt lat="44.58469" lon="4.61326">
        <ele>430.79998779297</ele>
        <time>2020-06-14T13:57:33.000Z</time>
      </trkpt>
      <trkpt lat="44.58471" lon="4.61337">
        <ele>431.60000610352</ele>
        <time>2020-06-14T13:57:37.000Z</time>
      </trkpt>
      <trkpt lat="44.58473" lon="4.61348">
        <ele>432</ele>
        <time>2020-06-14T13:57:41.000Z</time>
      </trkpt>
      <trkpt lat="44.58476" lon="4.61361">
        <ele>432.39999389648</ele>
        <time>2020-06-14T13:57:46.000Z</time>
      </trkpt>
      <trkpt lat="44.58477" lon="4.61366">
        <ele>433</ele>
        <time>2020-06-14T13:57:48.000Z</time>
      </trkpt>
      <trkpt lat="44.58478" lon="4.61381">
        <ele>433.79998779297</ele>
        <time>2020-06-14T13:57:54.000Z</time>
      </trkpt>
      <trkpt lat="44.58479" lon="4.61386">
        <ele>434.20001220703</ele>
        <time>2020-06-14T13:57:56.000Z</time>
      </trkpt>
      <trkpt lat="44.5848" lon="4.61398">
        <ele>434.79998779297</ele>
        <time>2020-06-14T13:58:01.000Z</time>
      </trkpt>
      <trkpt lat="44.58481" lon="4.6141">
        <ele>435.39999389648</ele>
        <time>2020-06-14T13:58:06.000Z</time>
      </trkpt>
      <trkpt lat="44.58481" lon="4.61418">
        <ele>436</ele>
        <time>2020-06-14T13:58:09.000Z</time>
      </trkpt>
      <trkpt lat="44.58484" lon="4.61431">
        <ele>436.39999389648</ele>
        <time>2020-06-14T13:58:14.000Z</time>
      </trkpt>
      <trkpt lat="44.58486" lon="4.61436">
        <ele>436.79998779297</ele>
        <time>2020-06-14T13:58:16.000Z</time>
      </trkpt>
      <trkpt lat="44.58488" lon="4.61443">
        <ele>437.39999389648</ele>
        <time>2020-06-14T13:58:19.000Z</time>
      </trkpt>
      <trkpt lat="44.58491" lon="4.6145">
        <ele>437.79998779297</ele>
        <time>2020-06-14T13:58:22.000Z</time>
      </trkpt>
      <trkpt lat="44.58497" lon="4.61465">
        <ele>438.60000610352</ele>
        <time>2020-06-14T13:58:29.000Z</time>
      </trkpt>
      <trkpt lat="44.58506" lon="4.61476">
        <ele>439.60000610352</ele>
        <time>2020-06-14T13:58:36.000Z</time>
      </trkpt>
      <trkpt lat="44.58511" lon="4.61479">
        <ele>439.79998779297</ele>
        <time>2020-06-14T13:58:39.000Z</time>
      </trkpt>
      <trkpt lat="44.58517" lon="4.61482">
        <ele>440</ele>
        <time>2020-06-14T13:58:42.000Z</time>
      </trkpt>
      <trkpt lat="44.58524" lon="4.61486">
        <ele>440.79998779297</ele>
        <time>2020-06-14T13:58:47.000Z</time>
      </trkpt>
      <trkpt lat="44.58531" lon="4.6149">
        <ele>442</ele>
        <time>2020-06-14T13:58:51.000Z</time>
      </trkpt>
      <trkpt lat="44.58535" lon="4.61492">
        <ele>442.20001220703</ele>
        <time>2020-06-14T13:58:53.000Z</time>
      </trkpt>
      <trkpt lat="44.58543" lon="4.61495">
        <ele>443</ele>
        <time>2020-06-14T13:58:58.000Z</time>
      </trkpt>
      <trkpt lat="44.58546" lon="4.61495">
        <ele>443.39999389648</ele>
        <time>2020-06-14T13:59:00.000Z</time>
      </trkpt>
      <trkpt lat="44.58549" lon="4.61492">
        <ele>443.79998779297</ele>
        <time>2020-06-14T13:59:03.000Z</time>
      </trkpt>
      <trkpt lat="44.5855" lon="4.61489">
        <ele>444</ele>
        <time>2020-06-14T13:59:05.000Z</time>
      </trkpt>
      <trkpt lat="44.58546" lon="4.61481">
        <ele>445.20001220703</ele>
        <time>2020-06-14T13:59:10.000Z</time>
      </trkpt>
      <trkpt lat="44.58545" lon="4.6148">
        <ele>445.60000610352</ele>
        <time>2020-06-14T13:59:11.000Z</time>
      </trkpt>
      <trkpt lat="44.58544" lon="4.61479">
        <ele>446</ele>
        <time>2020-06-14T13:59:12.000Z</time>
      </trkpt>
      <trkpt lat="44.58543" lon="4.61478">
        <ele>446.39999389648</ele>
        <time>2020-06-14T13:59:13.000Z</time>
      </trkpt>
      <trkpt lat="44.58536" lon="4.61471">
        <ele>447.39999389648</ele>
        <time>2020-06-14T13:59:19.000Z</time>
      </trkpt>
      <trkpt lat="44.58524" lon="4.6146">
        <ele>448.20001220703</ele>
        <time>2020-06-14T13:59:28.000Z</time>
      </trkpt>
      <trkpt lat="44.58522" lon="4.61457">
        <ele>448.39999389648</ele>
        <time>2020-06-14T13:59:30.000Z</time>
      </trkpt>
      <trkpt lat="44.5852" lon="4.61454">
        <ele>448.60000610352</ele>
        <time>2020-06-14T13:59:32.000Z</time>
      </trkpt>
      <trkpt lat="44.58518" lon="4.61446">
        <ele>449.20001220703</ele>
        <time>2020-06-14T13:59:36.000Z</time>
      </trkpt>
      <trkpt lat="44.58518" lon="4.61444">
        <ele>449.60000610352</ele>
        <time>2020-06-14T13:59:37.000Z</time>
      </trkpt>
      <trkpt lat="44.58517" lon="4.61436">
        <ele>450.39999389648</ele>
        <time>2020-06-14T13:59:41.000Z</time>
      </trkpt>
      <trkpt lat="44.58518" lon="4.61433">
        <ele>450.79998779297</ele>
        <time>2020-06-14T13:59:42.000Z</time>
      </trkpt>
      <trkpt lat="44.58518" lon="4.61431">
        <ele>451.20001220703</ele>
        <time>2020-06-14T13:59:43.000Z</time>
      </trkpt>
      <trkpt lat="44.58521" lon="4.61424">
        <ele>451.60000610352</ele>
        <time>2020-06-14T13:59:47.000Z</time>
      </trkpt>
      <trkpt lat="44.58524" lon="4.61419">
        <ele>451.79998779297</ele>
        <time>2020-06-14T13:59:50.000Z</time>
      </trkpt>
      <trkpt lat="44.58524" lon="4.61417">
        <ele>451.79998779297</ele>
        <time>2020-06-14T13:59:51.000Z</time>
      </trkpt>
      <trkpt lat="44.58527" lon="4.61412">
        <ele>452.20001220703</ele>
        <time>2020-06-14T13:59:54.000Z</time>
      </trkpt>
      <trkpt lat="44.58528" lon="4.61408">
        <ele>452.39999389648</ele>
        <time>2020-06-14T13:59:56.000Z</time>
      </trkpt>
      <trkpt lat="44.5853" lon="4.61404">
        <ele>452.60000610352</ele>
        <time>2020-06-14T13:59:58.000Z</time>
      </trkpt>
      <trkpt lat="44.58532" lon="4.61397">
        <ele>453</ele>
        <time>2020-06-14T14:00:01.000Z</time>
      </trkpt>
      <trkpt lat="44.5854" lon="4.61378">
        <ele>454</ele>
        <time>2020-06-14T14:00:09.000Z</time>
      </trkpt>
      <trkpt lat="44.58541" lon="4.61375">
        <ele>454.20001220703</ele>
        <time>2020-06-14T14:00:10.000Z</time>
      </trkpt>
      <trkpt lat="44.58545" lon="4.61359">
        <ele>455</ele>
        <time>2020-06-14T14:00:16.000Z</time>
      </trkpt>
      <trkpt lat="44.58546" lon="4.61344">
        <ele>455.79998779297</ele>
        <time>2020-06-14T14:00:22.000Z</time>
      </trkpt>
      <trkpt lat="44.58548" lon="4.61336">
        <ele>456.20001220703</ele>
        <time>2020-06-14T14:00:25.000Z</time>
      </trkpt>
      <trkpt lat="44.58549" lon="4.61325">
        <ele>457</ele>
        <time>2020-06-14T14:00:29.000Z</time>
      </trkpt>
      <trkpt lat="44.58549" lon="4.61322">
        <ele>457.20001220703</ele>
        <time>2020-06-14T14:00:30.000Z</time>
      </trkpt>
      <trkpt lat="44.58553" lon="4.61306">
        <ele>458</ele>
        <time>2020-06-14T14:00:36.000Z</time>
      </trkpt>
      <trkpt lat="44.58553" lon="4.61299">
        <ele>458.20001220703</ele>
        <time>2020-06-14T14:00:39.000Z</time>
      </trkpt>
      <trkpt lat="44.58554" lon="4.61295">
        <ele>458.79998779297</ele>
        <time>2020-06-14T14:00:41.000Z</time>
      </trkpt>
      <trkpt lat="44.58557" lon="4.6128">
        <ele>459.20001220703</ele>
        <time>2020-06-14T14:00:47.000Z</time>
      </trkpt>
      <trkpt lat="44.58557" lon="4.61278">
        <ele>459.20001220703</ele>
        <time>2020-06-14T14:00:48.000Z</time>
      </trkpt>
      <trkpt lat="44.58559" lon="4.6126">
        <ele>460.20001220703</ele>
        <time>2020-06-14T14:00:54.000Z</time>
      </trkpt>
      <trkpt lat="44.5856" lon="4.61258">
        <ele>460.39999389648</ele>
        <time>2020-06-14T14:00:55.000Z</time>
      </trkpt>
      <trkpt lat="44.58562" lon="4.61246">
        <ele>461.20001220703</ele>
        <time>2020-06-14T14:01:00.000Z</time>
      </trkpt>
      <trkpt lat="44.58563" lon="4.61245">
        <ele>461.39999389648</ele>
        <time>2020-06-14T14:01:01.000Z</time>
      </trkpt>
      <trkpt lat="44.58568" lon="4.61243">
        <ele>462.39999389648</ele>
        <time>2020-06-14T14:01:06.000Z</time>
      </trkpt>
      <trkpt lat="44.58568" lon="4.61244">
        <ele>462.39999389648</ele>
        <time>2020-06-14T14:01:07.000Z</time>
      </trkpt>
      <trkpt lat="44.58571" lon="4.61249">
        <ele>463.39999389648</ele>
        <time>2020-06-14T14:01:11.000Z</time>
      </trkpt>
      <trkpt lat="44.58571" lon="4.61252">
        <ele>463.79998779297</ele>
        <time>2020-06-14T14:01:13.000Z</time>
      </trkpt>
      <trkpt lat="44.58571" lon="4.61258">
        <ele>464.39999389648</ele>
        <time>2020-06-14T14:01:17.000Z</time>
      </trkpt>
      <trkpt lat="44.58572" lon="4.61259">
        <ele>464.79998779297</ele>
        <time>2020-06-14T14:01:18.000Z</time>
      </trkpt>
      <trkpt lat="44.58573" lon="4.61268">
        <ele>465.20001220703</ele>
        <time>2020-06-14T14:01:24.000Z</time>
      </trkpt>
      <trkpt lat="44.58574" lon="4.61273">
        <ele>465.39999389648</ele>
        <time>2020-06-14T14:01:26.000Z</time>
      </trkpt>
      <trkpt lat="44.58574" lon="4.61275">
        <ele>465.39999389648</ele>
        <time>2020-06-14T14:01:27.000Z</time>
      </trkpt>
      <trkpt lat="44.58575" lon="4.61276">
        <ele>465.60000610352</ele>
        <time>2020-06-14T14:01:28.000Z</time>
      </trkpt>
      <trkpt lat="44.58576" lon="4.61283">
        <ele>466.39999389648</ele>
        <time>2020-06-14T14:01:32.000Z</time>
      </trkpt>
      <trkpt lat="44.58576" lon="4.61285">
        <ele>466.79998779297</ele>
        <time>2020-06-14T14:01:33.000Z</time>
      </trkpt>
      <trkpt lat="44.58577" lon="4.61291">
        <ele>467.60000610352</ele>
        <time>2020-06-14T14:01:36.000Z</time>
      </trkpt>
      <trkpt lat="44.58578" lon="4.61293">
        <ele>467.79998779297</ele>
        <time>2020-06-14T14:01:37.000Z</time>
      </trkpt>
      <trkpt lat="44.58579" lon="4.61295">
        <ele>468.20001220703</ele>
        <time>2020-06-14T14:01:38.000Z</time>
      </trkpt>
      <trkpt lat="44.58582" lon="4.61302">
        <ele>468.39999389648</ele>
        <time>2020-06-14T14:01:43.000Z</time>
      </trkpt>
      <trkpt lat="44.58582" lon="4.61304">
        <ele>468.60000610352</ele>
        <time>2020-06-14T14:01:44.000Z</time>
      </trkpt>
      <trkpt lat="44.58587" lon="4.61316">
        <ele>469</ele>
        <time>2020-06-14T14:01:50.000Z</time>
      </trkpt>
      <trkpt lat="44.58587" lon="4.61318">
        <ele>469.39999389648</ele>
        <time>2020-06-14T14:01:51.000Z</time>
      </trkpt>
      <trkpt lat="44.58591" lon="4.61325">
        <ele>470.20001220703</ele>
        <time>2020-06-14T14:01:55.000Z</time>
      </trkpt>
      <trkpt lat="44.58592" lon="4.6133">
        <ele>470.79998779297</ele>
        <time>2020-06-14T14:01:57.000Z</time>
      </trkpt>
      <trkpt lat="44.58594" lon="4.61338">
        <ele>471.39999389648</ele>
        <time>2020-06-14T14:02:00.000Z</time>
      </trkpt>
      <trkpt lat="44.58595" lon="4.61343">
        <ele>471.79998779297</ele>
        <time>2020-06-14T14:02:02.000Z</time>
      </trkpt>
      <trkpt lat="44.58596" lon="4.61348">
        <ele>472.39999389648</ele>
        <time>2020-06-14T14:02:04.000Z</time>
      </trkpt>
      <trkpt lat="44.58596" lon="4.6136">
        <ele>472.79998779297</ele>
        <time>2020-06-14T14:02:09.000Z</time>
      </trkpt>
      <trkpt lat="44.58597" lon="4.6138">
        <ele>473.39999389648</ele>
        <time>2020-06-14T14:02:16.000Z</time>
      </trkpt>
      <trkpt lat="44.58597" lon="4.61383">
        <ele>473.60000610352</ele>
        <time>2020-06-14T14:02:17.000Z</time>
      </trkpt>
      <trkpt lat="44.586" lon="4.61402">
        <ele>474</ele>
        <time>2020-06-14T14:02:25.000Z</time>
      </trkpt>
      <trkpt lat="44.58603" lon="4.61404">
        <ele>474.39999389648</ele>
        <time>2020-06-14T14:02:27.000Z</time>
      </trkpt>
      <trkpt lat="44.58607" lon="4.61401">
        <ele>475.60000610352</ele>
        <time>2020-06-14T14:02:30.000Z</time>
      </trkpt>
      <trkpt lat="44.58609" lon="4.61399">
        <ele>476</ele>
        <time>2020-06-14T14:02:32.000Z</time>
      </trkpt>
      <trkpt lat="44.58612" lon="4.61393">
        <ele>476.60000610352</ele>
        <time>2020-06-14T14:02:36.000Z</time>
      </trkpt>
      <trkpt lat="44.58617" lon="4.61378">
        <ele>477.39999389648</ele>
        <time>2020-06-14T14:02:43.000Z</time>
      </trkpt>
      <trkpt lat="44.58619" lon="4.61371">
        <ele>477.79998779297</ele>
        <time>2020-06-14T14:02:46.000Z</time>
      </trkpt>
      <trkpt lat="44.58621" lon="4.61364">
        <ele>478.39999389648</ele>
        <time>2020-06-14T14:02:49.000Z</time>
      </trkpt>
      <trkpt lat="44.58621" lon="4.61359">
        <ele>478.79998779297</ele>
        <time>2020-06-14T14:02:51.000Z</time>
      </trkpt>
      <trkpt lat="44.58622" lon="4.61347">
        <ele>478.79998779297</ele>
        <time>2020-06-14T14:02:56.000Z</time>
      </trkpt>
      <trkpt lat="44.58623" lon="4.61334">
        <ele>479.60000610352</ele>
        <time>2020-06-14T14:03:02.000Z</time>
      </trkpt>
      <trkpt lat="44.58623" lon="4.6132">
        <ele>480.39999389648</ele>
        <time>2020-06-14T14:03:08.000Z</time>
      </trkpt>
      <trkpt lat="44.58624" lon="4.61315">
        <ele>480.79998779297</ele>
        <time>2020-06-14T14:03:10.000Z</time>
      </trkpt>
      <trkpt lat="44.58625" lon="4.61301">
        <ele>481.39999389648</ele>
        <time>2020-06-14T14:03:15.000Z</time>
      </trkpt>
      <trkpt lat="44.58628" lon="4.61288">
        <ele>482</ele>
        <time>2020-06-14T14:03:20.000Z</time>
      </trkpt>
      <trkpt lat="44.58632" lon="4.61279">
        <ele>483</ele>
        <time>2020-06-14T14:03:26.000Z</time>
      </trkpt>
      <trkpt lat="44.58633" lon="4.61279">
        <ele>483.20001220703</ele>
        <time>2020-06-14T14:03:27.000Z</time>
      </trkpt>
      <trkpt lat="44.58636" lon="4.61282">
        <ele>483.79998779297</ele>
        <time>2020-06-14T14:03:31.000Z</time>
      </trkpt>
      <trkpt lat="44.58637" lon="4.61285">
        <ele>484</ele>
        <time>2020-06-14T14:03:33.000Z</time>
      </trkpt>
      <trkpt lat="44.58638" lon="4.61286">
        <ele>484.20001220703</ele>
        <time>2020-06-14T14:03:34.000Z</time>
      </trkpt>
      <trkpt lat="44.58639" lon="4.61289">
        <ele>484.79998779297</ele>
        <time>2020-06-14T14:03:36.000Z</time>
      </trkpt>
      <trkpt lat="44.58639" lon="4.61291">
        <ele>485.20001220703</ele>
        <time>2020-06-14T14:03:38.000Z</time>
      </trkpt>
      <trkpt lat="44.5864" lon="4.61294">
        <ele>485.60000610352</ele>
        <time>2020-06-14T14:03:40.000Z</time>
      </trkpt>
      <trkpt lat="44.5864" lon="4.613">
        <ele>485.79998779297</ele>
        <time>2020-06-14T14:03:43.000Z</time>
      </trkpt>
      <trkpt lat="44.5864" lon="4.61305">
        <ele>486.20001220703</ele>
        <time>2020-06-14T14:03:46.000Z</time>
      </trkpt>
      <trkpt lat="44.5864" lon="4.61307">
        <ele>486.39999389648</ele>
        <time>2020-06-14T14:03:47.000Z</time>
      </trkpt>
      <trkpt lat="44.5864" lon="4.61312">
        <ele>487</ele>
        <time>2020-06-14T14:03:50.000Z</time>
      </trkpt>
      <trkpt lat="44.58641" lon="4.61316">
        <ele>487.39999389648</ele>
        <time>2020-06-14T14:03:52.000Z</time>
      </trkpt>
      <trkpt lat="44.58641" lon="4.61323">
        <ele>487.60000610352</ele>
        <time>2020-06-14T14:03:55.000Z</time>
      </trkpt>
      <trkpt lat="44.58642" lon="4.61332">
        <ele>488.39999389648</ele>
        <time>2020-06-14T14:04:00.000Z</time>
      </trkpt>
      <trkpt lat="44.58643" lon="4.61337">
        <ele>488.60000610352</ele>
        <time>2020-06-14T14:04:03.000Z</time>
      </trkpt>
      <trkpt lat="44.58643" lon="4.61346">
        <ele>489.60000610352</ele>
        <time>2020-06-14T14:04:08.000Z</time>
      </trkpt>
      <trkpt lat="44.58642" lon="4.61351">
        <ele>489.79998779297</ele>
        <time>2020-06-14T14:04:11.000Z</time>
      </trkpt>
      <trkpt lat="44.58643" lon="4.61367">
        <ele>490.39999389648</ele>
        <time>2020-06-14T14:04:19.000Z</time>
      </trkpt>
      <trkpt lat="44.58643" lon="4.61369">
        <ele>490.60000610352</ele>
        <time>2020-06-14T14:04:20.000Z</time>
      </trkpt>
      <trkpt lat="44.58647" lon="4.61383">
        <ele>491.60000610352</ele>
        <time>2020-06-14T14:04:26.000Z</time>
      </trkpt>
      <trkpt lat="44.58648" lon="4.61386">
        <ele>491.60000610352</ele>
        <time>2020-06-14T14:04:27.000Z</time>
      </trkpt>
      <trkpt lat="44.5865" lon="4.61392">
        <ele>492.79998779297</ele>
        <time>2020-06-14T14:04:30.000Z</time>
      </trkpt>
      <trkpt lat="44.58653" lon="4.61395">
        <ele>493.20001220703</ele>
        <time>2020-06-14T14:04:32.000Z</time>
      </trkpt>
      <trkpt lat="44.58657" lon="4.61393">
        <ele>493.79998779297</ele>
        <time>2020-06-14T14:04:36.000Z</time>
      </trkpt>
      <trkpt lat="44.58658" lon="4.61391">
        <ele>494</ele>
        <time>2020-06-14T14:04:37.000Z</time>
      </trkpt>
      <trkpt lat="44.58659" lon="4.61386">
        <ele>494.39999389648</ele>
        <time>2020-06-14T14:04:40.000Z</time>
      </trkpt>
      <trkpt lat="44.58659" lon="4.61382">
        <ele>494.79998779297</ele>
        <time>2020-06-14T14:04:42.000Z</time>
      </trkpt>
      <trkpt lat="44.58659" lon="4.61377">
        <ele>495.20001220703</ele>
        <time>2020-06-14T14:04:44.000Z</time>
      </trkpt>
      <trkpt lat="44.58661" lon="4.61364">
        <ele>496</ele>
        <time>2020-06-14T14:04:49.000Z</time>
      </trkpt>
      <trkpt lat="44.58663" lon="4.61357">
        <ele>496.20001220703</ele>
        <time>2020-06-14T14:04:52.000Z</time>
      </trkpt>
      <trkpt lat="44.58667" lon="4.61344">
        <ele>496.39999389648</ele>
        <time>2020-06-14T14:04:58.000Z</time>
      </trkpt>
      <trkpt lat="44.58672" lon="4.61333">
        <ele>496.60000610352</ele>
        <time>2020-06-14T14:05:04.000Z</time>
      </trkpt>
      <trkpt lat="44.58677" lon="4.61324">
        <ele>496.60000610352</ele>
        <time>2020-06-14T14:05:10.000Z</time>
      </trkpt>
      <trkpt lat="44.58682" lon="4.61314">
        <ele>496.79998779297</ele>
        <time>2020-06-14T14:05:15.000Z</time>
      </trkpt>
      <trkpt lat="44.58686" lon="4.61306">
        <ele>497</ele>
        <time>2020-06-14T14:05:19.000Z</time>
      </trkpt>
      <trkpt lat="44.58689" lon="4.613">
        <ele>497.79998779297</ele>
        <time>2020-06-14T14:05:22.000Z</time>
      </trkpt>
      <trkpt lat="44.58691" lon="4.61298">
        <ele>498</ele>
        <time>2020-06-14T14:05:23.000Z</time>
      </trkpt>
      <trkpt lat="44.58693" lon="4.61293">
        <ele>498.39999389648</ele>
        <time>2020-06-14T14:05:25.000Z</time>
      </trkpt>
      <trkpt lat="44.58698" lon="4.61288">
        <ele>498.60000610352</ele>
        <time>2020-06-14T14:05:28.000Z</time>
      </trkpt>
      <trkpt lat="44.58701" lon="4.6129">
        <ele>499</ele>
        <time>2020-06-14T14:05:31.000Z</time>
      </trkpt>
      <trkpt lat="44.58701" lon="4.61291">
        <ele>499.20001220703</ele>
        <time>2020-06-14T14:05:32.000Z</time>
      </trkpt>
      <trkpt lat="44.58702" lon="4.61295">
        <ele>500.20001220703</ele>
        <time>2020-06-14T14:05:36.000Z</time>
      </trkpt>
      <trkpt lat="44.58702" lon="4.61299">
        <ele>500.79998779297</ele>
        <time>2020-06-14T14:05:38.000Z</time>
      </trkpt>
      <trkpt lat="44.58703" lon="4.613">
        <ele>501</ele>
        <time>2020-06-14T14:05:39.000Z</time>
      </trkpt>
      <trkpt lat="44.58702" lon="4.61305">
        <ele>502</ele>
        <time>2020-06-14T14:05:42.000Z</time>
      </trkpt>
      <trkpt lat="44.58701" lon="4.61309">
        <ele>502.39999389648</ele>
        <time>2020-06-14T14:05:44.000Z</time>
      </trkpt>
      <trkpt lat="44.58699" lon="4.61326">
        <ele>503</ele>
        <time>2020-06-14T14:05:51.000Z</time>
      </trkpt>
      <trkpt lat="44.58699" lon="4.61329">
        <ele>503.20001220703</ele>
        <time>2020-06-14T14:05:52.000Z</time>
      </trkpt>
      <trkpt lat="44.58698" lon="4.61338">
        <ele>504.39999389648</ele>
        <time>2020-06-14T14:05:56.000Z</time>
      </trkpt>
      <trkpt lat="44.58702" lon="4.61356">
        <ele>504.60000610352</ele>
        <time>2020-06-14T14:06:04.000Z</time>
      </trkpt>
      <trkpt lat="44.58705" lon="4.61368">
        <ele>505.20001220703</ele>
        <time>2020-06-14T14:06:09.000Z</time>
      </trkpt>
      <trkpt lat="44.58705" lon="4.6137">
        <ele>505.39999389648</ele>
        <time>2020-06-14T14:06:10.000Z</time>
      </trkpt>
      <trkpt lat="44.58705" lon="4.61372">
        <ele>505.60000610352</ele>
        <time>2020-06-14T14:06:11.000Z</time>
      </trkpt>
      <trkpt lat="44.58707" lon="4.61378">
        <ele>506.39999389648</ele>
        <time>2020-06-14T14:06:14.000Z</time>
      </trkpt>
      <trkpt lat="44.58709" lon="4.61379">
        <ele>506.60000610352</ele>
        <time>2020-06-14T14:06:16.000Z</time>
      </trkpt>
      <trkpt lat="44.58711" lon="4.61381">
        <ele>506.79998779297</ele>
        <time>2020-06-14T14:06:18.000Z</time>
      </trkpt>
      <trkpt lat="44.58716" lon="4.61379">
        <ele>507.20001220703</ele>
        <time>2020-06-14T14:06:22.000Z</time>
      </trkpt>
      <trkpt lat="44.58717" lon="4.61378">
        <ele>507.60000610352</ele>
        <time>2020-06-14T14:06:23.000Z</time>
      </trkpt>
      <trkpt lat="44.58721" lon="4.61376">
        <ele>508.39999389648</ele>
        <time>2020-06-14T14:06:27.000Z</time>
      </trkpt>
      <trkpt lat="44.58723" lon="4.61375">
        <ele>508.79998779297</ele>
        <time>2020-06-14T14:06:29.000Z</time>
      </trkpt>
      <trkpt lat="44.58726" lon="4.61373">
        <ele>510.20001220703</ele>
        <time>2020-06-14T14:06:34.000Z</time>
      </trkpt>
      <trkpt lat="44.58727" lon="4.61372">
        <ele>510.60000610352</ele>
        <time>2020-06-14T14:06:35.000Z</time>
      </trkpt>
      <trkpt lat="44.58729" lon="4.61371">
        <ele>511.39999389648</ele>
        <time>2020-06-14T14:06:37.000Z</time>
      </trkpt>
      <trkpt lat="44.5873" lon="4.61371">
        <ele>512</ele>
        <time>2020-06-14T14:06:40.000Z</time>
      </trkpt>
      <trkpt lat="44.5873" lon="4.61369">
        <ele>513.20001220703</ele>
        <time>2020-06-14T14:06:59.000Z</time>
      </trkpt>
      <trkpt lat="44.5873" lon="4.61369">
        <ele>513.20001220703</ele>
        <time>2020-06-14T14:07:01.000Z</time>
      </trkpt>
      <trkpt lat="44.58731" lon="4.61368">
        <ele>513.59997558594</ele>
        <time>2020-06-14T14:07:09.000Z</time>
      </trkpt>
      <trkpt lat="44.58734" lon="4.61364">
        <ele>514</ele>
        <time>2020-06-14T14:07:16.000Z</time>
      </trkpt>
      <trkpt lat="44.58738" lon="4.61359">
        <ele>514.40002441406</ele>
        <time>2020-06-14T14:07:22.000Z</time>
      </trkpt>
      <trkpt lat="44.5874" lon="4.61355">
        <ele>515</ele>
        <time>2020-06-14T14:07:27.000Z</time>
      </trkpt>
      <trkpt lat="44.58742" lon="4.61354">
        <ele>515.40002441406</ele>
        <time>2020-06-14T14:07:30.000Z</time>
      </trkpt>
      <trkpt lat="44.58746" lon="4.61349">
        <ele>515.59997558594</ele>
        <time>2020-06-14T14:07:38.000Z</time>
      </trkpt>
      <trkpt lat="44.58748" lon="4.61347">
        <ele>516.40002441406</ele>
        <time>2020-06-14T14:07:43.000Z</time>
      </trkpt>
      <trkpt lat="44.58751" lon="4.61344">
        <ele>518</ele>
        <time>2020-06-14T14:07:50.000Z</time>
      </trkpt>
      <trkpt lat="44.58751" lon="4.61343">
        <ele>518.20001220703</ele>
        <time>2020-06-14T14:07:51.000Z</time>
      </trkpt>
      <trkpt lat="44.58755" lon="4.6134">
        <ele>519</ele>
        <time>2020-06-14T14:07:56.000Z</time>
      </trkpt>
      <trkpt lat="44.58757" lon="4.61338">
        <ele>519.40002441406</ele>
        <time>2020-06-14T14:08:01.000Z</time>
      </trkpt>
      <trkpt lat="44.58759" lon="4.61336">
        <ele>520</ele>
        <time>2020-06-14T14:08:05.000Z</time>
      </trkpt>
      <trkpt lat="44.58763" lon="4.61332">
        <ele>521</ele>
        <time>2020-06-14T14:08:13.000Z</time>
      </trkpt>
      <trkpt lat="44.58763" lon="4.61331">
        <ele>521.20001220703</ele>
        <time>2020-06-14T14:08:14.000Z</time>
      </trkpt>
      <trkpt lat="44.58765" lon="4.61328">
        <ele>521.79998779297</ele>
        <time>2020-06-14T14:08:19.000Z</time>
      </trkpt>
      <trkpt lat="44.58766" lon="4.61325">
        <ele>522.79998779297</ele>
        <time>2020-06-14T14:08:24.000Z</time>
      </trkpt>
      <trkpt lat="44.58768" lon="4.61324">
        <ele>523</ele>
        <time>2020-06-14T14:08:27.000Z</time>
      </trkpt>
      <trkpt lat="44.58768" lon="4.61324">
        <ele>523</ele>
        <time>2020-06-14T14:08:28.000Z</time>
      </trkpt>
      <trkpt lat="44.58768" lon="4.61322">
        <ele>523.20001220703</ele>
        <time>2020-06-14T14:08:30.000Z</time>
      </trkpt>
      <trkpt lat="44.58772" lon="4.61316">
        <ele>523.79998779297</ele>
        <time>2020-06-14T14:08:37.000Z</time>
      </trkpt>
      <trkpt lat="44.58772" lon="4.61315">
        <ele>523.79998779297</ele>
        <time>2020-06-14T14:08:38.000Z</time>
      </trkpt>
      <trkpt lat="44.58774" lon="4.61311">
        <ele>524.40002441406</ele>
        <time>2020-06-14T14:08:44.000Z</time>
      </trkpt>
      <trkpt lat="44.58776" lon="4.61308">
        <ele>525.20001220703</ele>
        <time>2020-06-14T14:08:49.000Z</time>
      </trkpt>
      <trkpt lat="44.58777" lon="4.61306">
        <ele>525.40002441406</ele>
        <time>2020-06-14T14:08:50.000Z</time>
      </trkpt>
      <trkpt lat="44.58781" lon="4.61296">
        <ele>526</ele>
        <time>2020-06-14T14:08:56.000Z</time>
      </trkpt>
      <trkpt lat="44.58786" lon="4.61291">
        <ele>526.20001220703</ele>
        <time>2020-06-14T14:09:01.000Z</time>
      </trkpt>
      <trkpt lat="44.58788" lon="4.61289">
        <ele>526.40002441406</ele>
        <time>2020-06-14T14:09:04.000Z</time>
      </trkpt>
      <trkpt lat="44.58793" lon="4.61283">
        <ele>527.40002441406</ele>
        <time>2020-06-14T14:09:09.000Z</time>
      </trkpt>
      <trkpt lat="44.58795" lon="4.61281">
        <ele>527.79998779297</ele>
        <time>2020-06-14T14:09:11.000Z</time>
      </trkpt>
      <trkpt lat="44.58798" lon="4.61282">
        <ele>528.59997558594</ele>
        <time>2020-06-14T14:09:15.000Z</time>
      </trkpt>
      <trkpt lat="44.58797" lon="4.61286">
        <ele>528.79998779297</ele>
        <time>2020-06-14T14:09:17.000Z</time>
      </trkpt>
      <trkpt lat="44.58794" lon="4.61296">
        <ele>529.40002441406</ele>
        <time>2020-06-14T14:09:21.000Z</time>
      </trkpt>
      <trkpt lat="44.58792" lon="4.61302">
        <ele>529.59997558594</ele>
        <time>2020-06-14T14:09:23.000Z</time>
      </trkpt>
      <trkpt lat="44.58786" lon="4.61323">
        <ele>529.79998779297</ele>
        <time>2020-06-14T14:09:30.000Z</time>
      </trkpt>
      <trkpt lat="44.58776" lon="4.61352">
        <ele>529.79998779297</ele>
        <time>2020-06-14T14:09:38.000Z</time>
      </trkpt>
      <trkpt lat="44.5877" lon="4.61373">
        <ele>530</ele>
        <time>2020-06-14T14:09:44.000Z</time>
      </trkpt>
      <trkpt lat="44.58766" lon="4.61389">
        <ele>530</ele>
        <time>2020-06-14T14:09:49.000Z</time>
      </trkpt>
      <trkpt lat="44.58759" lon="4.61418">
        <ele>530.20001220703</ele>
        <time>2020-06-14T14:09:58.000Z</time>
      </trkpt>
      <trkpt lat="44.58754" lon="4.61434">
        <ele>530.40002441406</ele>
        <time>2020-06-14T14:10:04.000Z</time>
      </trkpt>
      <trkpt lat="44.58751" lon="4.61446">
        <ele>530.79998779297</ele>
        <time>2020-06-14T14:10:10.000Z</time>
      </trkpt>
      <trkpt lat="44.58751" lon="4.61446">
        <ele>530.79998779297</ele>
        <time>2020-06-14T14:10:11.000Z</time>
      </trkpt>
      <trkpt lat="44.5875" lon="4.61448">
        <ele>531.40002441406</ele>
        <time>2020-06-14T14:10:50.000Z</time>
      </trkpt>
      <trkpt lat="44.58749" lon="4.61453">
        <ele>531.40002441406</ele>
        <time>2020-06-14T14:10:52.000Z</time>
      </trkpt>
      <trkpt lat="44.58744" lon="4.61473">
        <ele>531.20001220703</ele>
        <time>2020-06-14T14:10:58.000Z</time>
      </trkpt>
      <trkpt lat="44.58743" lon="4.6148">
        <ele>531.20001220703</ele>
        <time>2020-06-14T14:11:02.000Z</time>
      </trkpt>
      <trkpt lat="44.58744" lon="4.61482">
        <ele>531.20001220703</ele>
        <time>2020-06-14T14:11:03.000Z</time>
      </trkpt>
      <trkpt lat="44.58748" lon="4.61484">
        <ele>531.20001220703</ele>
        <time>2020-06-14T14:11:08.000Z</time>
      </trkpt>
      <trkpt lat="44.58749" lon="4.61484">
        <ele>533</ele>
        <time>2020-06-14T14:11:42.000Z</time>
      </trkpt>
      <trkpt lat="44.5875" lon="4.61484">
        <ele>533</ele>
        <time>2020-06-14T14:11:46.000Z</time>
      </trkpt>
      <trkpt lat="44.58752" lon="4.61484">
        <ele>532.59997558594</ele>
        <time>2020-06-14T14:11:51.000Z</time>
      </trkpt>
      <trkpt lat="44.58754" lon="4.61484">
        <ele>532.59997558594</ele>
        <time>2020-06-14T14:11:55.000Z</time>
      </trkpt>
      <trkpt lat="44.58754" lon="4.61484">
        <ele>532.59997558594</ele>
        <time>2020-06-14T14:11:56.000Z</time>
      </trkpt>
      <trkpt lat="44.58754" lon="4.61483">
        <ele>532.79998779297</ele>
        <time>2020-06-14T14:12:08.000Z</time>
      </trkpt>
      <trkpt lat="44.58752" lon="4.61483">
        <ele>533.40002441406</ele>
        <time>2020-06-14T14:12:11.000Z</time>
      </trkpt>
      <trkpt lat="44.58751" lon="4.61483">
        <ele>534.59997558594</ele>
        <time>2020-06-14T14:12:14.000Z</time>
      </trkpt>
      <trkpt lat="44.5875" lon="4.61483">
        <ele>535</ele>
        <time>2020-06-14T14:12:17.000Z</time>
      </trkpt>
      <trkpt lat="44.58749" lon="4.61483">
        <ele>535.20001220703</ele>
        <time>2020-06-14T14:12:18.000Z</time>
      </trkpt>
      <trkpt lat="44.58749" lon="4.61483">
        <ele>535.20001220703</ele>
        <time>2020-06-14T14:12:19.000Z</time>
      </trkpt>
      <trkpt lat="44.58747" lon="4.61483">
        <ele>534</ele>
        <time>2020-06-14T14:12:28.000Z</time>
      </trkpt>
      <trkpt lat="44.58745" lon="4.61481">
        <ele>533.79998779297</ele>
        <time>2020-06-14T14:12:30.000Z</time>
      </trkpt>
      <trkpt lat="44.58745" lon="4.61469">
        <ele>533.40002441406</ele>
        <time>2020-06-14T14:12:36.000Z</time>
      </trkpt>
      <trkpt lat="44.58746" lon="4.61463">
        <ele>532.40002441406</ele>
        <time>2020-06-14T14:12:39.000Z</time>
      </trkpt>
      <trkpt lat="44.58746" lon="4.61461">
        <ele>532.40002441406</ele>
        <time>2020-06-14T14:12:40.000Z</time>
      </trkpt>
      <trkpt lat="44.58745" lon="4.6146">
        <ele>532</ele>
        <time>2020-06-14T14:12:41.000Z</time>
      </trkpt>
      <trkpt lat="44.58739" lon="4.61462">
        <ele>531.59997558594</ele>
        <time>2020-06-14T14:12:45.000Z</time>
      </trkpt>
      <trkpt lat="44.58739" lon="4.61462">
        <ele>531.59997558594</ele>
        <time>2020-06-14T14:12:46.000Z</time>
      </trkpt>
      <trkpt lat="44.58738" lon="4.61463">
        <ele>530.59997558594</ele>
        <time>2020-06-14T14:12:53.000Z</time>
      </trkpt>
      <trkpt lat="44.58737" lon="4.61463">
        <ele>530.40002441406</ele>
        <time>2020-06-14T14:12:54.000Z</time>
      </trkpt>
      <trkpt lat="44.58737" lon="4.61464">
        <ele>530.40002441406</ele>
        <time>2020-06-14T14:12:56.000Z</time>
      </trkpt>
      <trkpt lat="44.58734" lon="4.61466">
        <ele>530</ele>
        <time>2020-06-14T14:13:00.000Z</time>
      </trkpt>
      <trkpt lat="44.58734" lon="4.61467">
        <ele>529.79998779297</ele>
        <time>2020-06-14T14:13:01.000Z</time>
      </trkpt>
      <trkpt lat="44.58734" lon="4.61467">
        <ele>529.79998779297</ele>
        <time>2020-06-14T14:13:02.000Z</time>
      </trkpt>
      <trkpt lat="44.58733" lon="4.61477">
        <ele>523.20001220703</ele>
        <time>2020-06-14T14:14:12.000Z</time>
      </trkpt>
      <trkpt lat="44.58732" lon="4.61478">
        <ele>523</ele>
        <time>2020-06-14T14:14:15.000Z</time>
      </trkpt>
      <trkpt lat="44.58732" lon="4.61479">
        <ele>522.79998779297</ele>
        <time>2020-06-14T14:14:16.000Z</time>
      </trkpt>
      <trkpt lat="44.58731" lon="4.6148">
        <ele>521</ele>
        <time>2020-06-14T14:14:24.000Z</time>
      </trkpt>
      <trkpt lat="44.58731" lon="4.61482">
        <ele>520.79998779297</ele>
        <time>2020-06-14T14:14:26.000Z</time>
      </trkpt>
      <trkpt lat="44.58732" lon="4.61484">
        <ele>520.79998779297</ele>
        <time>2020-06-14T14:14:27.000Z</time>
      </trkpt>
      <trkpt lat="44.58732" lon="4.61485">
        <ele>520.59997558594</ele>
        <time>2020-06-14T14:14:29.000Z</time>
      </trkpt>
      <trkpt lat="44.58733" lon="4.61492">
        <ele>518.40002441406</ele>
        <time>2020-06-14T14:14:45.000Z</time>
      </trkpt>
      <trkpt lat="44.58733" lon="4.61492">
        <ele>518.20001220703</ele>
        <time>2020-06-14T14:14:47.000Z</time>
      </trkpt>
      <trkpt lat="44.58733" lon="4.61495">
        <ele>517.40002441406</ele>
        <time>2020-06-14T14:14:52.000Z</time>
      </trkpt>
      <trkpt lat="44.58734" lon="4.61497">
        <ele>517.20001220703</ele>
        <time>2020-06-14T14:14:56.000Z</time>
      </trkpt>
      <trkpt lat="44.58736" lon="4.615">
        <ele>518.20001220703</ele>
        <time>2020-06-14T14:15:22.000Z</time>
      </trkpt>
      <trkpt lat="44.58736" lon="4.615">
        <ele>518.40002441406</ele>
        <time>2020-06-14T14:15:24.000Z</time>
      </trkpt>
      <trkpt lat="44.58737" lon="4.61501">
        <ele>519</ele>
        <time>2020-06-14T14:15:35.000Z</time>
      </trkpt>
      <trkpt lat="44.5874" lon="4.61503">
        <ele>519</ele>
        <time>2020-06-14T14:15:38.000Z</time>
      </trkpt>
      <trkpt lat="44.58742" lon="4.61505">
        <ele>518.79998779297</ele>
        <time>2020-06-14T14:15:42.000Z</time>
      </trkpt>
      <trkpt lat="44.58745" lon="4.61506">
        <ele>518.79998779297</ele>
        <time>2020-06-14T14:16:24.000Z</time>
      </trkpt>
      <trkpt lat="44.58752" lon="4.61509">
        <ele>518.59997558594</ele>
        <time>2020-06-14T14:16:29.000Z</time>
      </trkpt>
      <trkpt lat="44.58768" lon="4.61513">
        <ele>518.59997558594</ele>
        <time>2020-06-14T14:16:37.000Z</time>
      </trkpt>
      <trkpt lat="44.58782" lon="4.6151">
        <ele>518.59997558594</ele>
        <time>2020-06-14T14:16:44.000Z</time>
      </trkpt>
      <trkpt lat="44.58793" lon="4.61504">
        <ele>518.59997558594</ele>
        <time>2020-06-14T14:16:49.000Z</time>
      </trkpt>
      <trkpt lat="44.58803" lon="4.61499">
        <ele>518</ele>
        <time>2020-06-14T14:16:54.000Z</time>
      </trkpt>
      <trkpt lat="44.58816" lon="4.61493">
        <ele>517.79998779297</ele>
        <time>2020-06-14T14:16:59.000Z</time>
      </trkpt>
      <trkpt lat="44.58828" lon="4.61485">
        <ele>517.59997558594</ele>
        <time>2020-06-14T14:17:04.000Z</time>
      </trkpt>
      <trkpt lat="44.58837" lon="4.61477">
        <ele>517</ele>
        <time>2020-06-14T14:17:09.000Z</time>
      </trkpt>
      <trkpt lat="44.58845" lon="4.61474">
        <ele>517</ele>
        <time>2020-06-14T14:17:12.000Z</time>
      </trkpt>
      <trkpt lat="44.58854" lon="4.61467">
        <ele>517</ele>
        <time>2020-06-14T14:17:16.000Z</time>
      </trkpt>
      <trkpt lat="44.58866" lon="4.61457">
        <ele>517.59997558594</ele>
        <time>2020-06-14T14:17:22.000Z</time>
      </trkpt>
      <trkpt lat="44.58875" lon="4.61448">
        <ele>517.79998779297</ele>
        <time>2020-06-14T14:17:28.000Z</time>
      </trkpt>
      <trkpt lat="44.58882" lon="4.61442">
        <ele>517.79998779297</ele>
        <time>2020-06-14T14:17:33.000Z</time>
      </trkpt>
      <trkpt lat="44.58883" lon="4.6144">
        <ele>517.79998779297</ele>
        <time>2020-06-14T14:17:34.000Z</time>
      </trkpt>
      <trkpt lat="44.58893" lon="4.61431">
        <ele>517.59997558594</ele>
        <time>2020-06-14T14:17:39.000Z</time>
      </trkpt>
      <trkpt lat="44.58904" lon="4.61417">
        <ele>516.79998779297</ele>
        <time>2020-06-14T14:17:45.000Z</time>
      </trkpt>
      <trkpt lat="44.5891" lon="4.61415">
        <ele>516.20001220703</ele>
        <time>2020-06-14T14:17:49.000Z</time>
      </trkpt>
      <trkpt lat="44.58915" lon="4.61413">
        <ele>516</ele>
        <time>2020-06-14T14:17:52.000Z</time>
      </trkpt>
      <trkpt lat="44.58916" lon="4.61412">
        <ele>516</ele>
        <time>2020-06-14T14:17:53.000Z</time>
      </trkpt>
      <trkpt lat="44.58921" lon="4.61409">
        <ele>514.79998779297</ele>
        <time>2020-06-14T14:18:01.000Z</time>
      </trkpt>
      <trkpt lat="44.58925" lon="4.61412">
        <ele>512.59997558594</ele>
        <time>2020-06-14T14:18:12.000Z</time>
      </trkpt>
      <trkpt lat="44.58925" lon="4.61415">
        <ele>512.20001220703</ele>
        <time>2020-06-14T14:18:14.000Z</time>
      </trkpt>
      <trkpt lat="44.58925" lon="4.61418">
        <ele>511.79998779297</ele>
        <time>2020-06-14T14:18:16.000Z</time>
      </trkpt>
      <trkpt lat="44.58924" lon="4.61423">
        <ele>511.39999389648</ele>
        <time>2020-06-14T14:18:19.000Z</time>
      </trkpt>
      <trkpt lat="44.58923" lon="4.61424">
        <ele>510.39999389648</ele>
        <time>2020-06-14T14:18:21.000Z</time>
      </trkpt>
      <trkpt lat="44.58922" lon="4.61425">
        <ele>509</ele>
        <time>2020-06-14T14:18:23.000Z</time>
      </trkpt>
      <trkpt lat="44.58922" lon="4.61426">
        <ele>508.39999389648</ele>
        <time>2020-06-14T14:18:24.000Z</time>
      </trkpt>
      <trkpt lat="44.58921" lon="4.61427">
        <ele>507.79998779297</ele>
        <time>2020-06-14T14:18:26.000Z</time>
      </trkpt>
      <trkpt lat="44.5892" lon="4.61431">
        <ele>506.60000610352</ele>
        <time>2020-06-14T14:18:31.000Z</time>
      </trkpt>
      <trkpt lat="44.58919" lon="4.61434">
        <ele>506.60000610352</ele>
        <time>2020-06-14T14:18:33.000Z</time>
      </trkpt>
      <trkpt lat="44.58915" lon="4.61445">
        <ele>505.79998779297</ele>
        <time>2020-06-14T14:18:42.000Z</time>
      </trkpt>
      <trkpt lat="44.58914" lon="4.61448">
        <ele>505.20001220703</ele>
        <time>2020-06-14T14:18:45.000Z</time>
      </trkpt>
      <trkpt lat="44.58914" lon="4.61448">
        <ele>505</ele>
        <time>2020-06-14T14:18:46.000Z</time>
      </trkpt>
      <trkpt lat="44.58915" lon="4.61451">
        <ele>504.39999389648</ele>
        <time>2020-06-14T14:18:50.000Z</time>
      </trkpt>
      <trkpt lat="44.58915" lon="4.61454">
        <ele>504.39999389648</ele>
        <time>2020-06-14T14:18:51.000Z</time>
      </trkpt>
      <trkpt lat="44.58916" lon="4.61456">
        <ele>504.39999389648</ele>
        <time>2020-06-14T14:18:52.000Z</time>
      </trkpt>
      <trkpt lat="44.58918" lon="4.61464">
        <ele>504.20001220703</ele>
        <time>2020-06-14T14:18:55.000Z</time>
      </trkpt>
      <trkpt lat="44.5892" lon="4.61471">
        <ele>504.20001220703</ele>
        <time>2020-06-14T14:18:57.000Z</time>
      </trkpt>
      <trkpt lat="44.58918" lon="4.61476">
        <ele>503.20001220703</ele>
        <time>2020-06-14T14:19:01.000Z</time>
      </trkpt>
      <trkpt lat="44.58916" lon="4.61482">
        <ele>502.20001220703</ele>
        <time>2020-06-14T14:19:04.000Z</time>
      </trkpt>
      <trkpt lat="44.58916" lon="4.61484">
        <ele>502</ele>
        <time>2020-06-14T14:19:05.000Z</time>
      </trkpt>
      <trkpt lat="44.58917" lon="4.61495">
        <ele>501.20001220703</ele>
        <time>2020-06-14T14:19:10.000Z</time>
      </trkpt>
      <trkpt lat="44.5892" lon="4.61503">
        <ele>500.79998779297</ele>
        <time>2020-06-14T14:19:13.000Z</time>
      </trkpt>
      <trkpt lat="44.5892" lon="4.61507">
        <ele>500.39999389648</ele>
        <time>2020-06-14T14:19:14.000Z</time>
      </trkpt>
      <trkpt lat="44.5892" lon="4.61509">
        <ele>500.20001220703</ele>
        <time>2020-06-14T14:19:15.000Z</time>
      </trkpt>
      <trkpt lat="44.58919" lon="4.61511">
        <ele>499.60000610352</ele>
        <time>2020-06-14T14:19:16.000Z</time>
      </trkpt>
      <trkpt lat="44.58913" lon="4.61518">
        <ele>498.39999389648</ele>
        <time>2020-06-14T14:19:19.000Z</time>
      </trkpt>
      <trkpt lat="44.58911" lon="4.61521">
        <ele>497.79998779297</ele>
        <time>2020-06-14T14:19:20.000Z</time>
      </trkpt>
      <trkpt lat="44.58906" lon="4.61527">
        <ele>497</ele>
        <time>2020-06-14T14:19:22.000Z</time>
      </trkpt>
      <trkpt lat="44.589" lon="4.61534">
        <ele>496</ele>
        <time>2020-06-14T14:19:24.000Z</time>
      </trkpt>
      <trkpt lat="44.58898" lon="4.61539">
        <ele>495</ele>
        <time>2020-06-14T14:19:26.000Z</time>
      </trkpt>
      <trkpt lat="44.58898" lon="4.61543">
        <ele>494.20001220703</ele>
        <time>2020-06-14T14:19:27.000Z</time>
      </trkpt>
      <trkpt lat="44.58902" lon="4.61552">
        <ele>492.39999389648</ele>
        <time>2020-06-14T14:19:29.000Z</time>
      </trkpt>
      <trkpt lat="44.58905" lon="4.61554">
        <ele>491.39999389648</ele>
        <time>2020-06-14T14:19:30.000Z</time>
      </trkpt>
      <trkpt lat="44.58908" lon="4.61556">
        <ele>490.79998779297</ele>
        <time>2020-06-14T14:19:31.000Z</time>
      </trkpt>
      <trkpt lat="44.58913" lon="4.61562">
        <ele>490</ele>
        <time>2020-06-14T14:19:34.000Z</time>
      </trkpt>
      <trkpt lat="44.58913" lon="4.61566">
        <ele>489.20001220703</ele>
        <time>2020-06-14T14:19:35.000Z</time>
      </trkpt>
      <trkpt lat="44.58909" lon="4.61577">
        <ele>487.39999389648</ele>
        <time>2020-06-14T14:19:37.000Z</time>
      </trkpt>
      <trkpt lat="44.58907" lon="4.61583">
        <ele>486.79998779297</ele>
        <time>2020-06-14T14:19:38.000Z</time>
      </trkpt>
      <trkpt lat="44.58905" lon="4.61589">
        <ele>486.20001220703</ele>
        <time>2020-06-14T14:19:39.000Z</time>
      </trkpt>
      <trkpt lat="44.58901" lon="4.61598">
        <ele>485</ele>
        <time>2020-06-14T14:19:41.000Z</time>
      </trkpt>
      <trkpt lat="44.58898" lon="4.61607">
        <ele>483</ele>
        <time>2020-06-14T14:19:43.000Z</time>
      </trkpt>
      <trkpt lat="44.58896" lon="4.61612">
        <ele>481.79998779297</ele>
        <time>2020-06-14T14:19:44.000Z</time>
      </trkpt>
      <trkpt lat="44.58893" lon="4.61616">
        <ele>480.79998779297</ele>
        <time>2020-06-14T14:19:45.000Z</time>
      </trkpt>
      <trkpt lat="44.58888" lon="4.61625">
        <ele>479.39999389648</ele>
        <time>2020-06-14T14:19:47.000Z</time>
      </trkpt>
      <trkpt lat="44.58884" lon="4.6163">
        <ele>478.79998779297</ele>
        <time>2020-06-14T14:19:48.000Z</time>
      </trkpt>
      <trkpt lat="44.5888" lon="4.61634">
        <ele>478</ele>
        <time>2020-06-14T14:19:49.000Z</time>
      </trkpt>
      <trkpt lat="44.58873" lon="4.61647">
        <ele>476.20001220703</ele>
        <time>2020-06-14T14:19:51.000Z</time>
      </trkpt>
      <trkpt lat="44.58871" lon="4.61657">
        <ele>474.79998779297</ele>
        <time>2020-06-14T14:19:52.000Z</time>
      </trkpt>
      <trkpt lat="44.5887" lon="4.61666">
        <ele>473.39999389648</ele>
        <time>2020-06-14T14:19:53.000Z</time>
      </trkpt>
      <trkpt lat="44.5887" lon="4.61675">
        <ele>472.39999389648</ele>
        <time>2020-06-14T14:19:54.000Z</time>
      </trkpt>
      <trkpt lat="44.58872" lon="4.61683">
        <ele>471.79998779297</ele>
        <time>2020-06-14T14:19:55.000Z</time>
      </trkpt>
      <trkpt lat="44.58874" lon="4.61689">
        <ele>471</ele>
        <time>2020-06-14T14:19:56.000Z</time>
      </trkpt>
      <trkpt lat="44.58877" lon="4.61695">
        <ele>469.60000610352</ele>
        <time>2020-06-14T14:19:57.000Z</time>
      </trkpt>
      <trkpt lat="44.58881" lon="4.61704">
        <ele>468.39999389648</ele>
        <time>2020-06-14T14:19:59.000Z</time>
      </trkpt>
      <trkpt lat="44.58875" lon="4.61723">
        <ele>466.39999389648</ele>
        <time>2020-06-14T14:20:02.000Z</time>
      </trkpt>
      <trkpt lat="44.58869" lon="4.61737">
        <ele>464.79998779297</ele>
        <time>2020-06-14T14:20:04.000Z</time>
      </trkpt>
      <trkpt lat="44.58866" lon="4.61743">
        <ele>464.39999389648</ele>
        <time>2020-06-14T14:20:05.000Z</time>
      </trkpt>
      <trkpt lat="44.58863" lon="4.61748">
        <ele>463.60000610352</ele>
        <time>2020-06-14T14:20:06.000Z</time>
      </trkpt>
      <trkpt lat="44.5886" lon="4.61754">
        <ele>462.79998779297</ele>
        <time>2020-06-14T14:20:07.000Z</time>
      </trkpt>
      <trkpt lat="44.58857" lon="4.61759">
        <ele>461.79998779297</ele>
        <time>2020-06-14T14:20:08.000Z</time>
      </trkpt>
      <trkpt lat="44.58852" lon="4.61769">
        <ele>460.79998779297</ele>
        <time>2020-06-14T14:20:10.000Z</time>
      </trkpt>
      <trkpt lat="44.58846" lon="4.61781">
        <ele>459.20001220703</ele>
        <time>2020-06-14T14:20:12.000Z</time>
      </trkpt>
      <trkpt lat="44.58842" lon="4.61788">
        <ele>458.60000610352</ele>
        <time>2020-06-14T14:20:13.000Z</time>
      </trkpt>
      <trkpt lat="44.58838" lon="4.61794">
        <ele>457.60000610352</ele>
        <time>2020-06-14T14:20:14.000Z</time>
      </trkpt>
      <trkpt lat="44.58834" lon="4.61801">
        <ele>456.79998779297</ele>
        <time>2020-06-14T14:20:15.000Z</time>
      </trkpt>
      <trkpt lat="44.58831" lon="4.61809">
        <ele>456.20001220703</ele>
        <time>2020-06-14T14:20:16.000Z</time>
      </trkpt>
      <trkpt lat="44.58826" lon="4.61827">
        <ele>454.20001220703</ele>
        <time>2020-06-14T14:20:18.000Z</time>
      </trkpt>
      <trkpt lat="44.58824" lon="4.61837">
        <ele>452.79998779297</ele>
        <time>2020-06-14T14:20:19.000Z</time>
      </trkpt>
      <trkpt lat="44.58822" lon="4.61847">
        <ele>451.39999389648</ele>
        <time>2020-06-14T14:20:20.000Z</time>
      </trkpt>
      <trkpt lat="44.5882" lon="4.61856">
        <ele>450</ele>
        <time>2020-06-14T14:20:21.000Z</time>
      </trkpt>
      <trkpt lat="44.58816" lon="4.61865">
        <ele>448.60000610352</ele>
        <time>2020-06-14T14:20:22.000Z</time>
      </trkpt>
      <trkpt lat="44.58811" lon="4.61872">
        <ele>447.20001220703</ele>
        <time>2020-06-14T14:20:23.000Z</time>
      </trkpt>
      <trkpt lat="44.58805" lon="4.61878">
        <ele>445.60000610352</ele>
        <time>2020-06-14T14:20:24.000Z</time>
      </trkpt>
      <trkpt lat="44.58799" lon="4.61884">
        <ele>444.20001220703</ele>
        <time>2020-06-14T14:20:25.000Z</time>
      </trkpt>
      <trkpt lat="44.58794" lon="4.61889">
        <ele>441.39999389648</ele>
        <time>2020-06-14T14:20:26.000Z</time>
      </trkpt>
      <trkpt lat="44.5879" lon="4.61894">
        <ele>440</ele>
        <time>2020-06-14T14:20:27.000Z</time>
      </trkpt>
      <trkpt lat="44.58786" lon="4.61898">
        <ele>438.79998779297</ele>
        <time>2020-06-14T14:20:28.000Z</time>
      </trkpt>
      <trkpt lat="44.58783" lon="4.61902">
        <ele>437.60000610352</ele>
        <time>2020-06-14T14:20:29.000Z</time>
      </trkpt>
      <trkpt lat="44.58779" lon="4.61907">
        <ele>436.39999389648</ele>
        <time>2020-06-14T14:20:30.000Z</time>
      </trkpt>
      <trkpt lat="44.58775" lon="4.61913">
        <ele>434.79998779297</ele>
        <time>2020-06-14T14:20:31.000Z</time>
      </trkpt>
      <trkpt lat="44.58771" lon="4.6192">
        <ele>433.39999389648</ele>
        <time>2020-06-14T14:20:32.000Z</time>
      </trkpt>
      <trkpt lat="44.58767" lon="4.61928">
        <ele>432.39999389648</ele>
        <time>2020-06-14T14:20:33.000Z</time>
      </trkpt>
      <trkpt lat="44.58762" lon="4.61936">
        <ele>431</ele>
        <time>2020-06-14T14:20:34.000Z</time>
      </trkpt>
      <trkpt lat="44.58753" lon="4.61952">
        <ele>429.79998779297</ele>
        <time>2020-06-14T14:20:36.000Z</time>
      </trkpt>
      <trkpt lat="44.58744" lon="4.61964">
        <ele>428</ele>
        <time>2020-06-14T14:20:38.000Z</time>
      </trkpt>
      <trkpt lat="44.5874" lon="4.61969">
        <ele>426.79998779297</ele>
        <time>2020-06-14T14:20:39.000Z</time>
      </trkpt>
      <trkpt lat="44.58735" lon="4.61974">
        <ele>425.60000610352</ele>
        <time>2020-06-14T14:20:40.000Z</time>
      </trkpt>
      <trkpt lat="44.5873" lon="4.61979">
        <ele>424.39999389648</ele>
        <time>2020-06-14T14:20:41.000Z</time>
      </trkpt>
      <trkpt lat="44.58725" lon="4.61984">
        <ele>423.20001220703</ele>
        <time>2020-06-14T14:20:42.000Z</time>
      </trkpt>
      <trkpt lat="44.58719" lon="4.61988">
        <ele>421.60000610352</ele>
        <time>2020-06-14T14:20:43.000Z</time>
      </trkpt>
      <trkpt lat="44.58713" lon="4.6199">
        <ele>420</ele>
        <time>2020-06-14T14:20:44.000Z</time>
      </trkpt>
      <trkpt lat="44.58709" lon="4.61989">
        <ele>418.60000610352</ele>
        <time>2020-06-14T14:20:45.000Z</time>
      </trkpt>
      <trkpt lat="44.58706" lon="4.61986">
        <ele>417.60000610352</ele>
        <time>2020-06-14T14:20:46.000Z</time>
      </trkpt>
      <trkpt lat="44.58704" lon="4.61981">
        <ele>416.79998779297</ele>
        <time>2020-06-14T14:20:47.000Z</time>
      </trkpt>
      <trkpt lat="44.58697" lon="4.61975">
        <ele>415.20001220703</ele>
        <time>2020-06-14T14:20:50.000Z</time>
      </trkpt>
      <trkpt lat="44.58695" lon="4.61984">
        <ele>413.20001220703</ele>
        <time>2020-06-14T14:20:52.000Z</time>
      </trkpt>
      <trkpt lat="44.58694" lon="4.61991">
        <ele>410.79998779297</ele>
        <time>2020-06-14T14:20:53.000Z</time>
      </trkpt>
      <trkpt lat="44.58692" lon="4.62007">
        <ele>409.60000610352</ele>
        <time>2020-06-14T14:20:55.000Z</time>
      </trkpt>
      <trkpt lat="44.58691" lon="4.62015">
        <ele>408.79998779297</ele>
        <time>2020-06-14T14:20:56.000Z</time>
      </trkpt>
      <trkpt lat="44.58691" lon="4.62024">
        <ele>408.20001220703</ele>
        <time>2020-06-14T14:20:57.000Z</time>
      </trkpt>
      <trkpt lat="44.58689" lon="4.62041">
        <ele>407.79998779297</ele>
        <time>2020-06-14T14:20:59.000Z</time>
      </trkpt>
      <trkpt lat="44.58688" lon="4.62048">
        <ele>407.20001220703</ele>
        <time>2020-06-14T14:21:00.000Z</time>
      </trkpt>
      <trkpt lat="44.58685" lon="4.62054">
        <ele>406.39999389648</ele>
        <time>2020-06-14T14:21:01.000Z</time>
      </trkpt>
      <trkpt lat="44.58682" lon="4.6206">
        <ele>405.20001220703</ele>
        <time>2020-06-14T14:21:02.000Z</time>
      </trkpt>
      <trkpt lat="44.58679" lon="4.62065">
        <ele>403.20001220703</ele>
        <time>2020-06-14T14:21:03.000Z</time>
      </trkpt>
      <trkpt lat="44.58676" lon="4.62071">
        <ele>401.39999389648</ele>
        <time>2020-06-14T14:21:04.000Z</time>
      </trkpt>
      <trkpt lat="44.58672" lon="4.62077">
        <ele>400</ele>
        <time>2020-06-14T14:21:05.000Z</time>
      </trkpt>
      <trkpt lat="44.58668" lon="4.62083">
        <ele>398</ele>
        <time>2020-06-14T14:21:06.000Z</time>
      </trkpt>
      <trkpt lat="44.58664" lon="4.62088">
        <ele>396.60000610352</ele>
        <time>2020-06-14T14:21:07.000Z</time>
      </trkpt>
      <trkpt lat="44.58654" lon="4.62096">
        <ele>395.20001220703</ele>
        <time>2020-06-14T14:21:09.000Z</time>
      </trkpt>
      <trkpt lat="44.58645" lon="4.62108">
        <ele>394.20001220703</ele>
        <time>2020-06-14T14:21:12.000Z</time>
      </trkpt>
      <trkpt lat="44.58643" lon="4.62113">
        <ele>393.39999389648</ele>
        <time>2020-06-14T14:21:13.000Z</time>
      </trkpt>
      <trkpt lat="44.58642" lon="4.62118">
        <ele>392.20001220703</ele>
        <time>2020-06-14T14:21:14.000Z</time>
      </trkpt>
      <trkpt lat="44.58638" lon="4.62129">
        <ele>390.79998779297</ele>
        <time>2020-06-14T14:21:16.000Z</time>
      </trkpt>
      <trkpt lat="44.58636" lon="4.62135">
        <ele>389.79998779297</ele>
        <time>2020-06-14T14:21:17.000Z</time>
      </trkpt>
      <trkpt lat="44.58635" lon="4.62141">
        <ele>388.20001220703</ele>
        <time>2020-06-14T14:21:18.000Z</time>
      </trkpt>
      <trkpt lat="44.58635" lon="4.62147">
        <ele>386.79998779297</ele>
        <time>2020-06-14T14:21:19.000Z</time>
      </trkpt>
      <trkpt lat="44.58635" lon="4.62153">
        <ele>385.79998779297</ele>
        <time>2020-06-14T14:21:20.000Z</time>
      </trkpt>
      <trkpt lat="44.58636" lon="4.62158">
        <ele>385</ele>
        <time>2020-06-14T14:21:21.000Z</time>
      </trkpt>
      <trkpt lat="44.58636" lon="4.62163">
        <ele>383</ele>
        <time>2020-06-14T14:21:22.000Z</time>
      </trkpt>
      <trkpt lat="44.58634" lon="4.62166">
        <ele>381.20001220703</ele>
        <time>2020-06-14T14:21:23.000Z</time>
      </trkpt>
      <trkpt lat="44.58631" lon="4.62168">
        <ele>379.60000610352</ele>
        <time>2020-06-14T14:21:24.000Z</time>
      </trkpt>
      <trkpt lat="44.58622" lon="4.62169">
        <ele>377.60000610352</ele>
        <time>2020-06-14T14:21:26.000Z</time>
      </trkpt>
      <trkpt lat="44.58617" lon="4.62171">
        <ele>376.60000610352</ele>
        <time>2020-06-14T14:21:27.000Z</time>
      </trkpt>
      <trkpt lat="44.58611" lon="4.62172">
        <ele>375.79998779297</ele>
        <time>2020-06-14T14:21:28.000Z</time>
      </trkpt>
      <trkpt lat="44.58605" lon="4.62172">
        <ele>375.39999389648</ele>
        <time>2020-06-14T14:21:29.000Z</time>
      </trkpt>
      <trkpt lat="44.58592" lon="4.62173">
        <ele>374</ele>
        <time>2020-06-14T14:21:31.000Z</time>
      </trkpt>
      <trkpt lat="44.58587" lon="4.62174">
        <ele>373.20001220703</ele>
        <time>2020-06-14T14:21:32.000Z</time>
      </trkpt>
      <trkpt lat="44.58583" lon="4.62176">
        <ele>372.39999389648</ele>
        <time>2020-06-14T14:21:33.000Z</time>
      </trkpt>
      <trkpt lat="44.58581" lon="4.6218">
        <ele>371.60000610352</ele>
        <time>2020-06-14T14:21:34.000Z</time>
      </trkpt>
      <trkpt lat="44.58581" lon="4.62184">
        <ele>370.39999389648</ele>
        <time>2020-06-14T14:21:35.000Z</time>
      </trkpt>
      <trkpt lat="44.5858" lon="4.62193">
        <ele>368.60000610352</ele>
        <time>2020-06-14T14:21:37.000Z</time>
      </trkpt>
      <trkpt lat="44.58579" lon="4.62197">
        <ele>367.20001220703</ele>
        <time>2020-06-14T14:21:38.000Z</time>
      </trkpt>
      <trkpt lat="44.58576" lon="4.62199">
        <ele>365.60000610352</ele>
        <time>2020-06-14T14:21:39.000Z</time>
      </trkpt>
      <trkpt lat="44.58573" lon="4.62199">
        <ele>364.39999389648</ele>
        <time>2020-06-14T14:21:40.000Z</time>
      </trkpt>
      <trkpt lat="44.58571" lon="4.62198">
        <ele>363.79998779297</ele>
        <time>2020-06-14T14:21:41.000Z</time>
      </trkpt>
      <trkpt lat="44.58564" lon="4.62192">
        <ele>363.20001220703</ele>
        <time>2020-06-14T14:21:43.000Z</time>
      </trkpt>
      <trkpt lat="44.5856" lon="4.6219">
        <ele>363</ele>
        <time>2020-06-14T14:21:44.000Z</time>
      </trkpt>
      <trkpt lat="44.58554" lon="4.62189">
        <ele>362.79998779297</ele>
        <time>2020-06-14T14:21:45.000Z</time>
      </trkpt>
      <trkpt lat="44.5855" lon="4.62191">
        <ele>362.20001220703</ele>
        <time>2020-06-14T14:21:46.000Z</time>
      </trkpt>
      <trkpt lat="44.58546" lon="4.62195">
        <ele>361.20001220703</ele>
        <time>2020-06-14T14:21:47.000Z</time>
      </trkpt>
      <trkpt lat="44.58543" lon="4.62199">
        <ele>360.39999389648</ele>
        <time>2020-06-14T14:21:48.000Z</time>
      </trkpt>
      <trkpt lat="44.58539" lon="4.62203">
        <ele>359.79998779297</ele>
        <time>2020-06-14T14:21:49.000Z</time>
      </trkpt>
      <trkpt lat="44.58529" lon="4.62212">
        <ele>358.20001220703</ele>
        <time>2020-06-14T14:21:51.000Z</time>
      </trkpt>
      <trkpt lat="44.58524" lon="4.62218">
        <ele>357.79998779297</ele>
        <time>2020-06-14T14:21:52.000Z</time>
      </trkpt>
      <trkpt lat="44.58518" lon="4.62224">
        <ele>357.20001220703</ele>
        <time>2020-06-14T14:21:53.000Z</time>
      </trkpt>
      <trkpt lat="44.58511" lon="4.62231">
        <ele>355.79998779297</ele>
        <time>2020-06-14T14:21:54.000Z</time>
      </trkpt>
      <trkpt lat="44.58498" lon="4.62246">
        <ele>354.39999389648</ele>
        <time>2020-06-14T14:21:56.000Z</time>
      </trkpt>
      <trkpt lat="44.58492" lon="4.62251">
        <ele>353.79998779297</ele>
        <time>2020-06-14T14:21:57.000Z</time>
      </trkpt>
      <trkpt lat="44.58487" lon="4.62254">
        <ele>353</ele>
        <time>2020-06-14T14:21:58.000Z</time>
      </trkpt>
      <trkpt lat="44.58484" lon="4.62258">
        <ele>352</ele>
        <time>2020-06-14T14:21:59.000Z</time>
      </trkpt>
      <trkpt lat="44.58481" lon="4.62262">
        <ele>350.79998779297</ele>
        <time>2020-06-14T14:22:00.000Z</time>
      </trkpt>
      <trkpt lat="44.58477" lon="4.62264">
        <ele>349.79998779297</ele>
        <time>2020-06-14T14:22:01.000Z</time>
      </trkpt>
      <trkpt lat="44.58472" lon="4.62266">
        <ele>348</ele>
        <time>2020-06-14T14:22:02.000Z</time>
      </trkpt>
      <trkpt lat="44.58468" lon="4.62267">
        <ele>346.39999389648</ele>
        <time>2020-06-14T14:22:03.000Z</time>
      </trkpt>
      <trkpt lat="44.58463" lon="4.62268">
        <ele>344.39999389648</ele>
        <time>2020-06-14T14:22:04.000Z</time>
      </trkpt>
      <trkpt lat="44.5846" lon="4.62268">
        <ele>343.20001220703</ele>
        <time>2020-06-14T14:22:05.000Z</time>
      </trkpt>
      <trkpt lat="44.58455" lon="4.62272">
        <ele>341.79998779297</ele>
        <time>2020-06-14T14:22:07.000Z</time>
      </trkpt>
      <trkpt lat="44.58455" lon="4.62278">
        <ele>341</ele>
        <time>2020-06-14T14:22:10.000Z</time>
      </trkpt>
      <trkpt lat="44.58455" lon="4.62278">
        <ele>340</ele>
        <time>2020-06-14T14:22:11.000Z</time>
      </trkpt>
      <trkpt lat="44.58455" lon="4.62279">
        <ele>337.39999389648</ele>
        <time>2020-06-14T14:26:44.000Z</time>
      </trkpt>
      <trkpt lat="44.58456" lon="4.62284">
        <ele>337.39999389648</ele>
        <time>2020-06-14T14:26:47.000Z</time>
      </trkpt>
      <trkpt lat="44.58462" lon="4.62309">
        <ele>337.20001220703</ele>
        <time>2020-06-14T14:26:54.000Z</time>
      </trkpt>
      <trkpt lat="44.58463" lon="4.62322">
        <ele>336.79998779297</ele>
        <time>2020-06-14T14:26:56.000Z</time>
      </trkpt>
      <trkpt lat="44.58463" lon="4.62336">
        <ele>336.60000610352</ele>
        <time>2020-06-14T14:26:58.000Z</time>
      </trkpt>
      <trkpt lat="44.58464" lon="4.62344">
        <ele>336.20001220703</ele>
        <time>2020-06-14T14:26:59.000Z</time>
      </trkpt>
      <trkpt lat="44.58465" lon="4.62371">
        <ele>335.20001220703</ele>
        <time>2020-06-14T14:27:02.000Z</time>
      </trkpt>
      <trkpt lat="44.58466" lon="4.62381">
        <ele>334.79998779297</ele>
        <time>2020-06-14T14:27:03.000Z</time>
      </trkpt>
      <trkpt lat="44.58472" lon="4.62412">
        <ele>334</ele>
        <time>2020-06-14T14:27:06.000Z</time>
      </trkpt>
      <trkpt lat="44.58474" lon="4.62422">
        <ele>333.60000610352</ele>
        <time>2020-06-14T14:27:07.000Z</time>
      </trkpt>
      <trkpt lat="44.58476" lon="4.62432">
        <ele>332.79998779297</ele>
        <time>2020-06-14T14:27:08.000Z</time>
      </trkpt>
      <trkpt lat="44.58479" lon="4.62442">
        <ele>331</ele>
        <time>2020-06-14T14:27:09.000Z</time>
      </trkpt>
      <trkpt lat="44.58481" lon="4.62453">
        <ele>329.20001220703</ele>
        <time>2020-06-14T14:27:10.000Z</time>
      </trkpt>
      <trkpt lat="44.58483" lon="4.62463">
        <ele>327</ele>
        <time>2020-06-14T14:27:11.000Z</time>
      </trkpt>
      <trkpt lat="44.58485" lon="4.62474">
        <ele>324.79998779297</ele>
        <time>2020-06-14T14:27:12.000Z</time>
      </trkpt>
      <trkpt lat="44.58485" lon="4.62485">
        <ele>323.39999389648</ele>
        <time>2020-06-14T14:27:13.000Z</time>
      </trkpt>
      <trkpt lat="44.58483" lon="4.62495">
        <ele>322.20001220703</ele>
        <time>2020-06-14T14:27:14.000Z</time>
      </trkpt>
      <trkpt lat="44.58477" lon="4.62512">
        <ele>321.20001220703</ele>
        <time>2020-06-14T14:27:16.000Z</time>
      </trkpt>
      <trkpt lat="44.58472" lon="4.62517">
        <ele>321</ele>
        <time>2020-06-14T14:27:17.000Z</time>
      </trkpt>
      <trkpt lat="44.58463" lon="4.62523">
        <ele>321</ele>
        <time>2020-06-14T14:27:19.000Z</time>
      </trkpt>
      <trkpt lat="44.58459" lon="4.62524">
        <ele>320.79998779297</ele>
        <time>2020-06-14T14:27:20.000Z</time>
      </trkpt>
      <trkpt lat="44.58451" lon="4.62529">
        <ele>320.79998779297</ele>
        <time>2020-06-14T14:27:23.000Z</time>
      </trkpt>
      <trkpt lat="44.58445" lon="4.62529">
        <ele>321.60000610352</ele>
        <time>2020-06-14T14:27:26.000Z</time>
      </trkpt>
      <trkpt lat="44.58444" lon="4.62531">
        <ele>322.20001220703</ele>
        <time>2020-06-14T14:27:27.000Z</time>
      </trkpt>
      <trkpt lat="44.58445" lon="4.62531">
        <ele>322.60000610352</ele>
        <time>2020-06-14T14:27:28.000Z</time>
      </trkpt>
      <trkpt lat="44.58447" lon="4.6253">
        <ele>323.60000610352</ele>
        <time>2020-06-14T14:27:30.000Z</time>
      </trkpt>
      <trkpt lat="44.58449" lon="4.62529">
        <ele>324</ele>
        <time>2020-06-14T14:27:31.000Z</time>
      </trkpt>
      <trkpt lat="44.58452" lon="4.62528">
        <ele>324.39999389648</ele>
        <time>2020-06-14T14:27:32.000Z</time>
      </trkpt>
      <trkpt lat="44.58457" lon="4.62526">
        <ele>324.60000610352</ele>
        <time>2020-06-14T14:27:34.000Z</time>
      </trkpt>
      <trkpt lat="44.5847" lon="4.6252">
        <ele>324.60000610352</ele>
        <time>2020-06-14T14:27:39.000Z</time>
      </trkpt>
      <trkpt lat="44.58484" lon="4.62513">
        <ele>324.60000610352</ele>
        <time>2020-06-14T14:27:44.000Z</time>
      </trkpt>
      <trkpt lat="44.5849" lon="4.62517">
        <ele>324.20001220703</ele>
        <time>2020-06-14T14:27:48.000Z</time>
      </trkpt>
      <trkpt lat="44.58494" lon="4.62521">
        <ele>324.20001220703</ele>
        <time>2020-06-14T14:27:52.000Z</time>
      </trkpt>
      <trkpt lat="44.58494" lon="4.62523">
        <ele>324.20001220703</ele>
        <time>2020-06-14T14:27:53.000Z</time>
      </trkpt>
      <trkpt lat="44.58494" lon="4.62525">
        <ele>324.20001220703</ele>
        <time>2020-06-14T14:27:54.000Z</time>
      </trkpt>
      <trkpt lat="44.5849" lon="4.62529">
        <ele>324.79998779297</ele>
        <time>2020-06-14T14:27:58.000Z</time>
      </trkpt>
      <trkpt lat="44.58487" lon="4.62531">
        <ele>325.79998779297</ele>
        <time>2020-06-14T14:28:01.000Z</time>
      </trkpt>
      <trkpt lat="44.58483" lon="4.62535">
        <ele>327.20001220703</ele>
        <time>2020-06-14T14:28:05.000Z</time>
      </trkpt>
      <trkpt lat="44.58482" lon="4.62536">
        <ele>327.20001220703</ele>
        <time>2020-06-14T14:28:06.000Z</time>
      </trkpt>
      <trkpt lat="44.58477" lon="4.62544">
        <ele>328.20001220703</ele>
        <time>2020-06-14T14:28:12.000Z</time>
      </trkpt>
      <trkpt lat="44.58476" lon="4.62547">
        <ele>328.60000610352</ele>
        <time>2020-06-14T14:28:14.000Z</time>
      </trkpt>
      <trkpt lat="44.58475" lon="4.62552">
        <ele>329.20001220703</ele>
        <time>2020-06-14T14:28:18.000Z</time>
      </trkpt>
      <trkpt lat="44.58475" lon="4.62557">
        <ele>329.60000610352</ele>
        <time>2020-06-14T14:28:21.000Z</time>
      </trkpt>
      <trkpt lat="44.58474" lon="4.62563">
        <ele>330.39999389648</ele>
        <time>2020-06-14T14:28:25.000Z</time>
      </trkpt>
      <trkpt lat="44.58474" lon="4.62566">
        <ele>330.79998779297</ele>
        <time>2020-06-14T14:28:27.000Z</time>
      </trkpt>
      <trkpt lat="44.58474" lon="4.62568">
        <ele>331.20001220703</ele>
        <time>2020-06-14T14:28:28.000Z</time>
      </trkpt>
      <trkpt lat="44.58474" lon="4.62571">
        <ele>331.60000610352</ele>
        <time>2020-06-14T14:28:30.000Z</time>
      </trkpt>
      <trkpt lat="44.58474" lon="4.62576">
        <ele>331.79998779297</ele>
        <time>2020-06-14T14:28:33.000Z</time>
      </trkpt>
      <trkpt lat="44.58475" lon="4.62587">
        <ele>332.60000610352</ele>
        <time>2020-06-14T14:28:39.000Z</time>
      </trkpt>
      <trkpt lat="44.58476" lon="4.62593">
        <ele>332.79998779297</ele>
        <time>2020-06-14T14:28:42.000Z</time>
      </trkpt>
      <trkpt lat="44.58477" lon="4.62604">
        <ele>333.60000610352</ele>
        <time>2020-06-14T14:28:49.000Z</time>
      </trkpt>
      <trkpt lat="44.58478" lon="4.62606">
        <ele>333.79998779297</ele>
        <time>2020-06-14T14:28:50.000Z</time>
      </trkpt>
      <trkpt lat="44.5848" lon="4.62618">
        <ele>334.79998779297</ele>
        <time>2020-06-14T14:28:57.000Z</time>
      </trkpt>
      <trkpt lat="44.58481" lon="4.62621">
        <ele>335.20001220703</ele>
        <time>2020-06-14T14:28:59.000Z</time>
      </trkpt>
      <trkpt lat="44.58483" lon="4.62629">
        <ele>336.20001220703</ele>
        <time>2020-06-14T14:29:03.000Z</time>
      </trkpt>
      <trkpt lat="44.58486" lon="4.62638">
        <ele>336.60000610352</ele>
        <time>2020-06-14T14:29:07.000Z</time>
      </trkpt>
      <trkpt lat="44.58488" lon="4.62645">
        <ele>337.20001220703</ele>
        <time>2020-06-14T14:29:10.000Z</time>
      </trkpt>
      <trkpt lat="44.58493" lon="4.62661">
        <ele>337.60000610352</ele>
        <time>2020-06-14T14:29:16.000Z</time>
      </trkpt>
      <trkpt lat="44.58502" lon="4.62672">
        <ele>337.60000610352</ele>
        <time>2020-06-14T14:29:22.000Z</time>
      </trkpt>
      <trkpt lat="44.58518" lon="4.62687">
        <ele>337.79998779297</ele>
        <time>2020-06-14T14:29:31.000Z</time>
      </trkpt>
      <trkpt lat="44.58528" lon="4.62695">
        <ele>338.20001220703</ele>
        <time>2020-06-14T14:29:36.000Z</time>
      </trkpt>
      <trkpt lat="44.58533" lon="4.627">
        <ele>338.60000610352</ele>
        <time>2020-06-14T14:29:39.000Z</time>
      </trkpt>
      <trkpt lat="44.58546" lon="4.62713">
        <ele>339.39999389648</ele>
        <time>2020-06-14T14:29:47.000Z</time>
      </trkpt>
      <trkpt lat="44.58559" lon="4.62723">
        <ele>340</ele>
        <time>2020-06-14T14:29:54.000Z</time>
      </trkpt>
      <trkpt lat="44.58574" lon="4.62737">
        <ele>340.20001220703</ele>
        <time>2020-06-14T14:30:01.000Z</time>
      </trkpt>
      <trkpt lat="44.5859" lon="4.62759">
        <ele>340.20001220703</ele>
        <time>2020-06-14T14:30:07.000Z</time>
      </trkpt>
      <trkpt lat="44.58592" lon="4.62765">
        <ele>339.60000610352</ele>
        <time>2020-06-14T14:30:08.000Z</time>
      </trkpt>
      <trkpt lat="44.58605" lon="4.62779">
        <ele>338.60000610352</ele>
        <time>2020-06-14T14:30:11.000Z</time>
      </trkpt>
      <trkpt lat="44.58617" lon="4.62784">
        <ele>338.20001220703</ele>
        <time>2020-06-14T14:30:13.000Z</time>
      </trkpt>
      <trkpt lat="44.58632" lon="4.6279">
        <ele>337.60000610352</ele>
        <time>2020-06-14T14:30:15.000Z</time>
      </trkpt>
      <trkpt lat="44.58639" lon="4.62796">
        <ele>337.20001220703</ele>
        <time>2020-06-14T14:30:16.000Z</time>
      </trkpt>
      <trkpt lat="44.58651" lon="4.62813">
        <ele>336</ele>
        <time>2020-06-14T14:30:18.000Z</time>
      </trkpt>
      <trkpt lat="44.58655" lon="4.62822">
        <ele>335.20001220703</ele>
        <time>2020-06-14T14:30:19.000Z</time>
      </trkpt>
      <trkpt lat="44.5866" lon="4.6283">
        <ele>334.20001220703</ele>
        <time>2020-06-14T14:30:20.000Z</time>
      </trkpt>
      <trkpt lat="44.58666" lon="4.62845">
        <ele>333.20001220703</ele>
        <time>2020-06-14T14:30:22.000Z</time>
      </trkpt>
      <trkpt lat="44.58664" lon="4.62865">
        <ele>332.79998779297</ele>
        <time>2020-06-14T14:30:25.000Z</time>
      </trkpt>
      <trkpt lat="44.58654" lon="4.62875">
        <ele>332.79998779297</ele>
        <time>2020-06-14T14:30:28.000Z</time>
      </trkpt>
      <trkpt lat="44.58651" lon="4.62877">
        <ele>332.79998779297</ele>
        <time>2020-06-14T14:30:29.000Z</time>
      </trkpt>
      <trkpt lat="44.58633" lon="4.62891">
        <ele>334.20001220703</ele>
        <time>2020-06-14T14:30:36.000Z</time>
      </trkpt>
      <trkpt lat="44.58623" lon="4.62899">
        <ele>335.39999389648</ele>
        <time>2020-06-14T14:30:40.000Z</time>
      </trkpt>
      <trkpt lat="44.58615" lon="4.62909">
        <ele>335.79998779297</ele>
        <time>2020-06-14T14:30:44.000Z</time>
      </trkpt>
      <trkpt lat="44.58609" lon="4.62923">
        <ele>336.39999389648</ele>
        <time>2020-06-14T14:30:48.000Z</time>
      </trkpt>
      <trkpt lat="44.58606" lon="4.62938">
        <ele>336.79998779297</ele>
        <time>2020-06-14T14:30:52.000Z</time>
      </trkpt>
      <trkpt lat="44.58611" lon="4.62964">
        <ele>337</ele>
        <time>2020-06-14T14:30:59.000Z</time>
      </trkpt>
      <trkpt lat="44.58619" lon="4.62983">
        <ele>337.39999389648</ele>
        <time>2020-06-14T14:31:05.000Z</time>
      </trkpt>
      <trkpt lat="44.58624" lon="4.62992">
        <ele>338.20001220703</ele>
        <time>2020-06-14T14:31:08.000Z</time>
      </trkpt>
      <trkpt lat="44.58626" lon="4.62999">
        <ele>338.60000610352</ele>
        <time>2020-06-14T14:31:10.000Z</time>
      </trkpt>
      <trkpt lat="44.58636" lon="4.63023">
        <ele>339.39999389648</ele>
        <time>2020-06-14T14:31:17.000Z</time>
      </trkpt>
      <trkpt lat="44.58641" lon="4.63032">
        <ele>339.79998779297</ele>
        <time>2020-06-14T14:31:20.000Z</time>
      </trkpt>
      <trkpt lat="44.58651" lon="4.63052">
        <ele>341.20001220703</ele>
        <time>2020-06-14T14:31:26.000Z</time>
      </trkpt>
      <trkpt lat="44.58658" lon="4.63078">
        <ele>342.20001220703</ele>
        <time>2020-06-14T14:31:33.000Z</time>
      </trkpt>
      <trkpt lat="44.58659" lon="4.63082">
        <ele>342.39999389648</ele>
        <time>2020-06-14T14:31:34.000Z</time>
      </trkpt>
      <trkpt lat="44.58661" lon="4.63104">
        <ele>342.60000610352</ele>
        <time>2020-06-14T14:31:40.000Z</time>
      </trkpt>
      <trkpt lat="44.58662" lon="4.63136">
        <ele>343.39999389648</ele>
        <time>2020-06-14T14:31:48.000Z</time>
      </trkpt>
      <trkpt lat="44.58664" lon="4.63166">
        <ele>344.39999389648</ele>
        <time>2020-06-14T14:31:56.000Z</time>
      </trkpt>
      <trkpt lat="44.58665" lon="4.63173">
        <ele>344.39999389648</ele>
        <time>2020-06-14T14:31:58.000Z</time>
      </trkpt>
      <trkpt lat="44.58668" lon="4.63195">
        <ele>345</ele>
        <time>2020-06-14T14:32:04.000Z</time>
      </trkpt>
      <trkpt lat="44.5867" lon="4.63203">
        <ele>345.39999389648</ele>
        <time>2020-06-14T14:32:06.000Z</time>
      </trkpt>
      <trkpt lat="44.58675" lon="4.6322">
        <ele>346</ele>
        <time>2020-06-14T14:32:11.000Z</time>
      </trkpt>
      <trkpt lat="44.58688" lon="4.63236">
        <ele>346.20001220703</ele>
        <time>2020-06-14T14:32:18.000Z</time>
      </trkpt>
      <trkpt lat="44.58704" lon="4.63236">
        <ele>346.39999389648</ele>
        <time>2020-06-14T14:32:24.000Z</time>
      </trkpt>
      <trkpt lat="44.58708" lon="4.63233">
        <ele>346.60000610352</ele>
        <time>2020-06-14T14:32:26.000Z</time>
      </trkpt>
      <trkpt lat="44.58717" lon="4.63227">
        <ele>348</ele>
        <time>2020-06-14T14:32:30.000Z</time>
      </trkpt>
      <trkpt lat="44.58721" lon="4.63223">
        <ele>348.39999389648</ele>
        <time>2020-06-14T14:32:32.000Z</time>
      </trkpt>
      <trkpt lat="44.58734" lon="4.63214">
        <ele>349.20001220703</ele>
        <time>2020-06-14T14:32:38.000Z</time>
      </trkpt>
      <trkpt lat="44.58737" lon="4.63213">
        <ele>349.20001220703</ele>
        <time>2020-06-14T14:32:39.000Z</time>
      </trkpt>
      <trkpt lat="44.58752" lon="4.63211">
        <ele>349.39999389648</ele>
        <time>2020-06-14T14:32:45.000Z</time>
      </trkpt>
      <trkpt lat="44.58771" lon="4.63202">
        <ele>350</ele>
        <time>2020-06-14T14:32:52.000Z</time>
      </trkpt>
      <trkpt lat="44.58773" lon="4.63201">
        <ele>350.20001220703</ele>
        <time>2020-06-14T14:32:53.000Z</time>
      </trkpt>
      <trkpt lat="44.58787" lon="4.63189">
        <ele>351</ele>
        <time>2020-06-14T14:32:59.000Z</time>
      </trkpt>
      <trkpt lat="44.58789" lon="4.63187">
        <ele>351.20001220703</ele>
        <time>2020-06-14T14:33:00.000Z</time>
      </trkpt>
      <trkpt lat="44.588" lon="4.63172">
        <ele>352</ele>
        <time>2020-06-14T14:33:06.000Z</time>
      </trkpt>
      <trkpt lat="44.58808" lon="4.63164">
        <ele>352.20001220703</ele>
        <time>2020-06-14T14:33:11.000Z</time>
      </trkpt>
      <trkpt lat="44.58815" lon="4.63166">
        <ele>352.39999389648</ele>
        <time>2020-06-14T14:33:14.000Z</time>
      </trkpt>
      <trkpt lat="44.58822" lon="4.63172">
        <ele>352.79998779297</ele>
        <time>2020-06-14T14:33:17.000Z</time>
      </trkpt>
      <trkpt lat="44.58831" lon="4.6319">
        <ele>353</ele>
        <time>2020-06-14T14:33:23.000Z</time>
      </trkpt>
      <trkpt lat="44.58831" lon="4.63197">
        <ele>353.20001220703</ele>
        <time>2020-06-14T14:33:26.000Z</time>
      </trkpt>
      <trkpt lat="44.58831" lon="4.63199">
        <ele>353.20001220703</ele>
        <time>2020-06-14T14:33:27.000Z</time>
      </trkpt>
      <trkpt lat="44.58834" lon="4.63206">
        <ele>353.20001220703</ele>
        <time>2020-06-14T14:33:30.000Z</time>
      </trkpt>
      <trkpt lat="44.58835" lon="4.63208">
        <ele>353.20001220703</ele>
        <time>2020-06-14T14:33:31.000Z</time>
      </trkpt>
      <trkpt lat="44.58836" lon="4.63211">
        <ele>353.20001220703</ele>
        <time>2020-06-14T14:33:32.000Z</time>
      </trkpt>
      <trkpt lat="44.5884" lon="4.63233">
        <ele>353.20001220703</ele>
        <time>2020-06-14T14:33:38.000Z</time>
      </trkpt>
      <trkpt lat="44.58846" lon="4.6326">
        <ele>352.39999389648</ele>
        <time>2020-06-14T14:33:43.000Z</time>
      </trkpt>
      <trkpt lat="44.5885" lon="4.6327">
        <ele>352.20001220703</ele>
        <time>2020-06-14T14:33:45.000Z</time>
      </trkpt>
      <trkpt lat="44.58857" lon="4.63295">
        <ele>351.39999389648</ele>
        <time>2020-06-14T14:33:49.000Z</time>
      </trkpt>
      <trkpt lat="44.58862" lon="4.63309">
        <ele>351.20001220703</ele>
        <time>2020-06-14T14:33:51.000Z</time>
      </trkpt>
      <trkpt lat="44.58863" lon="4.63325">
        <ele>350.39999389648</ele>
        <time>2020-06-14T14:33:53.000Z</time>
      </trkpt>
      <trkpt lat="44.58859" lon="4.63339">
        <ele>350</ele>
        <time>2020-06-14T14:33:55.000Z</time>
      </trkpt>
      <trkpt lat="44.58855" lon="4.63352">
        <ele>349.79998779297</ele>
        <time>2020-06-14T14:33:57.000Z</time>
      </trkpt>
      <trkpt lat="44.58851" lon="4.63368">
        <ele>349.60000610352</ele>
        <time>2020-06-14T14:34:01.000Z</time>
      </trkpt>
      <trkpt lat="44.58853" lon="4.63368">
        <ele>349.79998779297</ele>
        <time>2020-06-14T14:34:05.000Z</time>
      </trkpt>
      <trkpt lat="44.58854" lon="4.63367">
        <ele>349.79998779297</ele>
        <time>2020-06-14T14:34:06.000Z</time>
      </trkpt>
      <trkpt lat="44.58855" lon="4.63367">
        <ele>350.20001220703</ele>
        <time>2020-06-14T14:34:09.000Z</time>
      </trkpt>
      <trkpt lat="44.58854" lon="4.63365">
        <ele>350.79998779297</ele>
        <time>2020-06-14T14:34:56.000Z</time>
      </trkpt>
      <trkpt lat="44.58854" lon="4.63363">
        <ele>350.79998779297</ele>
        <time>2020-06-14T14:34:57.000Z</time>
      </trkpt>
      <trkpt lat="44.58856" lon="4.63356">
        <ele>350.79998779297</ele>
        <time>2020-06-14T14:35:00.000Z</time>
      </trkpt>
      <trkpt lat="44.58855" lon="4.63351">
        <ele>350.79998779297</ele>
        <time>2020-06-14T14:35:03.000Z</time>
      </trkpt>
      <trkpt lat="44.58851" lon="4.63355">
        <ele>350.79998779297</ele>
        <time>2020-06-14T14:35:05.000Z</time>
      </trkpt>
      <trkpt lat="44.58848" lon="4.63358">
        <ele>350.79998779297</ele>
        <time>2020-06-14T14:35:06.000Z</time>
      </trkpt>
      <trkpt lat="44.58837" lon="4.63366">
        <ele>350.39999389648</ele>
        <time>2020-06-14T14:35:09.000Z</time>
      </trkpt>
      <trkpt lat="44.58823" lon="4.63376">
        <ele>350</ele>
        <time>2020-06-14T14:35:12.000Z</time>
      </trkpt>
      <trkpt lat="44.58808" lon="4.63386">
        <ele>348</ele>
        <time>2020-06-14T14:35:15.000Z</time>
      </trkpt>
      <trkpt lat="44.58799" lon="4.63394">
        <ele>346.60000610352</ele>
        <time>2020-06-14T14:35:17.000Z</time>
      </trkpt>
      <trkpt lat="44.58795" lon="4.63399">
        <ele>346</ele>
        <time>2020-06-14T14:35:18.000Z</time>
      </trkpt>
      <trkpt lat="44.58791" lon="4.63405">
        <ele>345.20001220703</ele>
        <time>2020-06-14T14:35:19.000Z</time>
      </trkpt>
      <trkpt lat="44.58785" lon="4.63419">
        <ele>343.39999389648</ele>
        <time>2020-06-14T14:35:21.000Z</time>
      </trkpt>
      <trkpt lat="44.58782" lon="4.63428">
        <ele>342.60000610352</ele>
        <time>2020-06-14T14:35:22.000Z</time>
      </trkpt>
      <trkpt lat="44.5878" lon="4.63435">
        <ele>341.79998779297</ele>
        <time>2020-06-14T14:35:23.000Z</time>
      </trkpt>
      <trkpt lat="44.58777" lon="4.63446">
        <ele>340</ele>
        <time>2020-06-14T14:35:25.000Z</time>
      </trkpt>
      <trkpt lat="44.58776" lon="4.63451">
        <ele>339.60000610352</ele>
        <time>2020-06-14T14:35:26.000Z</time>
      </trkpt>
      <trkpt lat="44.58775" lon="4.63457">
        <ele>339</ele>
        <time>2020-06-14T14:35:27.000Z</time>
      </trkpt>
      <trkpt lat="44.58775" lon="4.63464">
        <ele>338.39999389648</ele>
        <time>2020-06-14T14:35:28.000Z</time>
      </trkpt>
      <trkpt lat="44.58776" lon="4.63472">
        <ele>337.60000610352</ele>
        <time>2020-06-14T14:35:29.000Z</time>
      </trkpt>
      <trkpt lat="44.58778" lon="4.63479">
        <ele>336.60000610352</ele>
        <time>2020-06-14T14:35:30.000Z</time>
      </trkpt>
      <trkpt lat="44.58781" lon="4.63487">
        <ele>335.60000610352</ele>
        <time>2020-06-14T14:35:31.000Z</time>
      </trkpt>
      <trkpt lat="44.58792" lon="4.63526">
        <ele>334.39999389648</ele>
        <time>2020-06-14T14:35:35.000Z</time>
      </trkpt>
      <trkpt lat="44.58797" lon="4.63546">
        <ele>333</ele>
        <time>2020-06-14T14:35:37.000Z</time>
      </trkpt>
      <trkpt lat="44.58803" lon="4.63565">
        <ele>331.39999389648</ele>
        <time>2020-06-14T14:35:39.000Z</time>
      </trkpt>
      <trkpt lat="44.5881" lon="4.63583">
        <ele>329.20001220703</ele>
        <time>2020-06-14T14:35:41.000Z</time>
      </trkpt>
      <trkpt lat="44.58814" lon="4.63592">
        <ele>327.79998779297</ele>
        <time>2020-06-14T14:35:42.000Z</time>
      </trkpt>
      <trkpt lat="44.58817" lon="4.63601">
        <ele>325.60000610352</ele>
        <time>2020-06-14T14:35:43.000Z</time>
      </trkpt>
      <trkpt lat="44.58824" lon="4.63618">
        <ele>324</ele>
        <time>2020-06-14T14:35:45.000Z</time>
      </trkpt>
      <trkpt lat="44.58828" lon="4.63626">
        <ele>323.39999389648</ele>
        <time>2020-06-14T14:35:46.000Z</time>
      </trkpt>
      <trkpt lat="44.58832" lon="4.63634">
        <ele>322.79998779297</ele>
        <time>2020-06-14T14:35:47.000Z</time>
      </trkpt>
      <trkpt lat="44.58835" lon="4.63642">
        <ele>322.20001220703</ele>
        <time>2020-06-14T14:35:48.000Z</time>
      </trkpt>
      <trkpt lat="44.58836" lon="4.63651">
        <ele>321.20001220703</ele>
        <time>2020-06-14T14:35:49.000Z</time>
      </trkpt>
      <trkpt lat="44.58835" lon="4.6366">
        <ele>320.79998779297</ele>
        <time>2020-06-14T14:35:50.000Z</time>
      </trkpt>
      <trkpt lat="44.58832" lon="4.63669">
        <ele>320</ele>
        <time>2020-06-14T14:35:51.000Z</time>
      </trkpt>
      <trkpt lat="44.58823" lon="4.63682">
        <ele>319</ele>
        <time>2020-06-14T14:35:53.000Z</time>
      </trkpt>
      <trkpt lat="44.58818" lon="4.63687">
        <ele>318.60000610352</ele>
        <time>2020-06-14T14:35:54.000Z</time>
      </trkpt>
      <trkpt lat="44.58809" lon="4.63697">
        <ele>317.39999389648</ele>
        <time>2020-06-14T14:35:56.000Z</time>
      </trkpt>
      <trkpt lat="44.58802" lon="4.63706">
        <ele>316.79998779297</ele>
        <time>2020-06-14T14:35:58.000Z</time>
      </trkpt>
      <trkpt lat="44.58795" lon="4.63718">
        <ele>316.79998779297</ele>
        <time>2020-06-14T14:36:02.000Z</time>
      </trkpt>
      <trkpt lat="44.58789" lon="4.63738">
        <ele>318.39999389648</ele>
        <time>2020-06-14T14:36:09.000Z</time>
      </trkpt>
      <trkpt lat="44.58789" lon="4.63745">
        <ele>319.39999389648</ele>
        <time>2020-06-14T14:36:11.000Z</time>
      </trkpt>
      <trkpt lat="44.58793" lon="4.63762">
        <ele>320.60000610352</ele>
        <time>2020-06-14T14:36:16.000Z</time>
      </trkpt>
      <trkpt lat="44.58804" lon="4.63796">
        <ele>321.39999389648</ele>
        <time>2020-06-14T14:36:25.000Z</time>
      </trkpt>
      <trkpt lat="44.5882" lon="4.63825">
        <ele>321.20001220703</ele>
        <time>2020-06-14T14:36:32.000Z</time>
      </trkpt>
      <trkpt lat="44.58834" lon="4.63856">
        <ele>320.39999389648</ele>
        <time>2020-06-14T14:36:39.000Z</time>
      </trkpt>
      <trkpt lat="44.58846" lon="4.63882">
        <ele>320.39999389648</ele>
        <time>2020-06-14T14:36:45.000Z</time>
      </trkpt>
      <trkpt lat="44.5885" lon="4.639">
        <ele>320.39999389648</ele>
        <time>2020-06-14T14:36:48.000Z</time>
      </trkpt>
      <trkpt lat="44.58849" lon="4.63907">
        <ele>320.39999389648</ele>
        <time>2020-06-14T14:36:49.000Z</time>
      </trkpt>
      <trkpt lat="44.58841" lon="4.63921">
        <ele>320.39999389648</ele>
        <time>2020-06-14T14:36:52.000Z</time>
      </trkpt>
      <trkpt lat="44.58838" lon="4.63925">
        <ele>320.39999389648</ele>
        <time>2020-06-14T14:36:53.000Z</time>
      </trkpt>
      <trkpt lat="44.58828" lon="4.6394">
        <ele>320.39999389648</ele>
        <time>2020-06-14T14:36:57.000Z</time>
      </trkpt>
      <trkpt lat="44.58824" lon="4.63959">
        <ele>320.20001220703</ele>
        <time>2020-06-14T14:37:02.000Z</time>
      </trkpt>
      <trkpt lat="44.58829" lon="4.63986">
        <ele>320.79998779297</ele>
        <time>2020-06-14T14:37:09.000Z</time>
      </trkpt>
      <trkpt lat="44.58825" lon="4.64003">
        <ele>321.39999389648</ele>
        <time>2020-06-14T14:37:14.000Z</time>
      </trkpt>
      <trkpt lat="44.5882" lon="4.64007">
        <ele>321.79998779297</ele>
        <time>2020-06-14T14:37:16.000Z</time>
      </trkpt>
      <trkpt lat="44.58813" lon="4.64009">
        <ele>322</ele>
        <time>2020-06-14T14:37:19.000Z</time>
      </trkpt>
      <trkpt lat="44.58811" lon="4.64008">
        <ele>322.20001220703</ele>
        <time>2020-06-14T14:37:20.000Z</time>
      </trkpt>
      <trkpt lat="44.58808" lon="4.64">
        <ele>322.79998779297</ele>
        <time>2020-06-14T14:37:24.000Z</time>
      </trkpt>
      <trkpt lat="44.58804" lon="4.63993">
        <ele>323.39999389648</ele>
        <time>2020-06-14T14:37:27.000Z</time>
      </trkpt>
      <trkpt lat="44.58802" lon="4.63988">
        <ele>323.60000610352</ele>
        <time>2020-06-14T14:37:29.000Z</time>
      </trkpt>
      <trkpt lat="44.588" lon="4.63983">
        <ele>324</ele>
        <time>2020-06-14T14:37:31.000Z</time>
      </trkpt>
      <trkpt lat="44.58795" lon="4.63976">
        <ele>324.60000610352</ele>
        <time>2020-06-14T14:37:34.000Z</time>
      </trkpt>
      <trkpt lat="44.58793" lon="4.63975">
        <ele>324.79998779297</ele>
        <time>2020-06-14T14:37:35.000Z</time>
      </trkpt>
      <trkpt lat="44.5879" lon="4.63975">
        <ele>324.79998779297</ele>
        <time>2020-06-14T14:37:36.000Z</time>
      </trkpt>
      <trkpt lat="44.58789" lon="4.6398">
        <ele>325.60000610352</ele>
        <time>2020-06-14T14:37:38.000Z</time>
      </trkpt>
      <trkpt lat="44.58789" lon="4.63982">
        <ele>325.79998779297</ele>
        <time>2020-06-14T14:37:39.000Z</time>
      </trkpt>
      <trkpt lat="44.58789" lon="4.63985">
        <ele>326</ele>
        <time>2020-06-14T14:37:40.000Z</time>
      </trkpt>
      <trkpt lat="44.5879" lon="4.63986">
        <ele>326.20001220703</ele>
        <time>2020-06-14T14:37:41.000Z</time>
      </trkpt>
      <trkpt lat="44.58792" lon="4.63994">
        <ele>326.79998779297</ele>
        <time>2020-06-14T14:37:45.000Z</time>
      </trkpt>
      <trkpt lat="44.58793" lon="4.63997">
        <ele>327</ele>
        <time>2020-06-14T14:37:46.000Z</time>
      </trkpt>
      <trkpt lat="44.58797" lon="4.64012">
        <ele>327.39999389648</ele>
        <time>2020-06-14T14:37:53.000Z</time>
      </trkpt>
      <trkpt lat="44.58799" lon="4.64021">
        <ele>328.20001220703</ele>
        <time>2020-06-14T14:37:57.000Z</time>
      </trkpt>
      <trkpt lat="44.58801" lon="4.64028">
        <ele>329.20001220703</ele>
        <time>2020-06-14T14:38:00.000Z</time>
      </trkpt>
      <trkpt lat="44.58803" lon="4.64034">
        <ele>329.79998779297</ele>
        <time>2020-06-14T14:38:03.000Z</time>
      </trkpt>
      <trkpt lat="44.58804" lon="4.64043">
        <ele>330.39999389648</ele>
        <time>2020-06-14T14:38:07.000Z</time>
      </trkpt>
      <trkpt lat="44.58804" lon="4.64051">
        <ele>331.60000610352</ele>
        <time>2020-06-14T14:38:11.000Z</time>
      </trkpt>
      <trkpt lat="44.58805" lon="4.64063">
        <ele>332.39999389648</ele>
        <time>2020-06-14T14:38:17.000Z</time>
      </trkpt>
      <trkpt lat="44.58805" lon="4.64067">
        <ele>332.60000610352</ele>
        <time>2020-06-14T14:38:19.000Z</time>
      </trkpt>
      <trkpt lat="44.58805" lon="4.64069">
        <ele>332.60000610352</ele>
        <time>2020-06-14T14:38:20.000Z</time>
      </trkpt>
      <trkpt lat="44.58804" lon="4.64073">
        <ele>333</ele>
        <time>2020-06-14T14:38:22.000Z</time>
      </trkpt>
      <trkpt lat="44.58804" lon="4.64077">
        <ele>333.39999389648</ele>
        <time>2020-06-14T14:38:24.000Z</time>
      </trkpt>
      <trkpt lat="44.58804" lon="4.6408">
        <ele>333.79998779297</ele>
        <time>2020-06-14T14:38:26.000Z</time>
      </trkpt>
      <trkpt lat="44.58804" lon="4.64081">
        <ele>333.79998779297</ele>
        <time>2020-06-14T14:38:27.000Z</time>
      </trkpt>
      <trkpt lat="44.58805" lon="4.64083">
        <ele>334.20001220703</ele>
        <time>2020-06-14T14:38:28.000Z</time>
      </trkpt>
      <trkpt lat="44.58806" lon="4.64089">
        <ele>334.79998779297</ele>
        <time>2020-06-14T14:38:32.000Z</time>
      </trkpt>
      <trkpt lat="44.58807" lon="4.64091">
        <ele>335.39999389648</ele>
        <time>2020-06-14T14:38:33.000Z</time>
      </trkpt>
      <trkpt lat="44.58807" lon="4.64092">
        <ele>335.60000610352</ele>
        <time>2020-06-14T14:38:34.000Z</time>
      </trkpt>
      <trkpt lat="44.58808" lon="4.64097">
        <ele>335.79998779297</ele>
        <time>2020-06-14T14:38:37.000Z</time>
      </trkpt>
      <trkpt lat="44.58809" lon="4.641">
        <ele>336.20001220703</ele>
        <time>2020-06-14T14:38:39.000Z</time>
      </trkpt>
      <trkpt lat="44.5881" lon="4.64105">
        <ele>337</ele>
        <time>2020-06-14T14:38:42.000Z</time>
      </trkpt>
      <trkpt lat="44.5881" lon="4.64108">
        <ele>337.20001220703</ele>
        <time>2020-06-14T14:38:44.000Z</time>
      </trkpt>
      <trkpt lat="44.58811" lon="4.6411">
        <ele>337.39999389648</ele>
        <time>2020-06-14T14:38:45.000Z</time>
      </trkpt>
      <trkpt lat="44.58812" lon="4.64111">
        <ele>337.60000610352</ele>
        <time>2020-06-14T14:38:46.000Z</time>
      </trkpt>
      <trkpt lat="44.58814" lon="4.64114">
        <ele>338.20001220703</ele>
        <time>2020-06-14T14:38:48.000Z</time>
      </trkpt>
      <trkpt lat="44.58816" lon="4.64116">
        <ele>338.79998779297</ele>
        <time>2020-06-14T14:38:51.000Z</time>
      </trkpt>
      <trkpt lat="44.58817" lon="4.64118">
        <ele>339.20001220703</ele>
        <time>2020-06-14T14:38:53.000Z</time>
      </trkpt>
      <trkpt lat="44.58819" lon="4.64124">
        <ele>340</ele>
        <time>2020-06-14T14:38:57.000Z</time>
      </trkpt>
      <trkpt lat="44.58821" lon="4.64126">
        <ele>340.20001220703</ele>
        <time>2020-06-14T14:38:59.000Z</time>
      </trkpt>
      <trkpt lat="44.58823" lon="4.64134">
        <ele>341.20001220703</ele>
        <time>2020-06-14T14:39:04.000Z</time>
      </trkpt>
      <trkpt lat="44.58824" lon="4.6414">
        <ele>341.79998779297</ele>
        <time>2020-06-14T14:39:08.000Z</time>
      </trkpt>
      <trkpt lat="44.58824" lon="4.64143">
        <ele>342.20001220703</ele>
        <time>2020-06-14T14:39:10.000Z</time>
      </trkpt>
      <trkpt lat="44.58823" lon="4.64146">
        <ele>342.79998779297</ele>
        <time>2020-06-14T14:39:12.000Z</time>
      </trkpt>
      <trkpt lat="44.5882" lon="4.64147">
        <ele>343.20001220703</ele>
        <time>2020-06-14T14:39:15.000Z</time>
      </trkpt>
      <trkpt lat="44.5882" lon="4.64148">
        <ele>343.20001220703</ele>
        <time>2020-06-14T14:39:16.000Z</time>
      </trkpt>
      <trkpt lat="44.58818" lon="4.64148">
        <ele>343.39999389648</ele>
        <time>2020-06-14T14:39:18.000Z</time>
      </trkpt>
      <trkpt lat="44.58815" lon="4.64149">
        <ele>344.39999389648</ele>
        <time>2020-06-14T14:39:21.000Z</time>
      </trkpt>
      <trkpt lat="44.58812" lon="4.6415">
        <ele>345.20001220703</ele>
        <time>2020-06-14T14:39:24.000Z</time>
      </trkpt>
      <trkpt lat="44.58811" lon="4.6415">
        <ele>345.39999389648</ele>
        <time>2020-06-14T14:39:25.000Z</time>
      </trkpt>
      <trkpt lat="44.58805" lon="4.64153">
        <ele>346.39999389648</ele>
        <time>2020-06-14T14:39:30.000Z</time>
      </trkpt>
      <trkpt lat="44.58801" lon="4.64154">
        <ele>347.20001220703</ele>
        <time>2020-06-14T14:39:33.000Z</time>
      </trkpt>
      <trkpt lat="44.588" lon="4.64155">
        <ele>347.39999389648</ele>
        <time>2020-06-14T14:39:34.000Z</time>
      </trkpt>
      <trkpt lat="44.58797" lon="4.64157">
        <ele>348.39999389648</ele>
        <time>2020-06-14T14:39:38.000Z</time>
      </trkpt>
      <trkpt lat="44.58795" lon="4.64157">
        <ele>348.60000610352</ele>
        <time>2020-06-14T14:39:39.000Z</time>
      </trkpt>
      <trkpt lat="44.58792" lon="4.64159">
        <ele>349</ele>
        <time>2020-06-14T14:39:43.000Z</time>
      </trkpt>
      <trkpt lat="44.58789" lon="4.64162">
        <ele>349.60000610352</ele>
        <time>2020-06-14T14:39:46.000Z</time>
      </trkpt>
      <trkpt lat="44.58787" lon="4.64163">
        <ele>350.20001220703</ele>
        <time>2020-06-14T14:39:50.000Z</time>
      </trkpt>
      <trkpt lat="44.58785" lon="4.64164">
        <ele>350.60000610352</ele>
        <time>2020-06-14T14:39:52.000Z</time>
      </trkpt>
      <trkpt lat="44.5878" lon="4.64166">
        <ele>351.79998779297</ele>
        <time>2020-06-14T14:39:57.000Z</time>
      </trkpt>
      <trkpt lat="44.58779" lon="4.64166">
        <ele>351.79998779297</ele>
        <time>2020-06-14T14:39:58.000Z</time>
      </trkpt>
      <trkpt lat="44.58773" lon="4.64169">
        <ele>352.79998779297</ele>
        <time>2020-06-14T14:40:03.000Z</time>
      </trkpt>
      <trkpt lat="44.58771" lon="4.6417">
        <ele>353.20001220703</ele>
        <time>2020-06-14T14:40:05.000Z</time>
      </trkpt>
      <trkpt lat="44.58768" lon="4.64173">
        <ele>353.60000610352</ele>
        <time>2020-06-14T14:40:08.000Z</time>
      </trkpt>
      <trkpt lat="44.58767" lon="4.64175">
        <ele>354</ele>
        <time>2020-06-14T14:40:10.000Z</time>
      </trkpt>
      <trkpt lat="44.58765" lon="4.64179">
        <ele>354.39999389648</ele>
        <time>2020-06-14T14:40:13.000Z</time>
      </trkpt>
      <trkpt lat="44.5876" lon="4.64184">
        <ele>355</ele>
        <time>2020-06-14T14:40:18.000Z</time>
      </trkpt>
      <trkpt lat="44.58757" lon="4.64188">
        <ele>355.60000610352</ele>
        <time>2020-06-14T14:40:22.000Z</time>
      </trkpt>
      <trkpt lat="44.58755" lon="4.64192">
        <ele>356</ele>
        <time>2020-06-14T14:40:25.000Z</time>
      </trkpt>
      <trkpt lat="44.58753" lon="4.64195">
        <ele>356.60000610352</ele>
        <time>2020-06-14T14:40:28.000Z</time>
      </trkpt>
      <trkpt lat="44.58752" lon="4.64197">
        <ele>357.20001220703</ele>
        <time>2020-06-14T14:40:29.000Z</time>
      </trkpt>
      <trkpt lat="44.58745" lon="4.64203">
        <ele>358.20001220703</ele>
        <time>2020-06-14T14:40:35.000Z</time>
      </trkpt>
      <trkpt lat="44.58744" lon="4.64204">
        <ele>358.39999389648</ele>
        <time>2020-06-14T14:40:36.000Z</time>
      </trkpt>
      <trkpt lat="44.58741" lon="4.64207">
        <ele>359</ele>
        <time>2020-06-14T14:40:39.000Z</time>
      </trkpt>
      <trkpt lat="44.58741" lon="4.6421">
        <ele>359.60000610352</ele>
        <time>2020-06-14T14:40:41.000Z</time>
      </trkpt>
      <trkpt lat="44.5874" lon="4.64211">
        <ele>359.79998779297</ele>
        <time>2020-06-14T14:40:42.000Z</time>
      </trkpt>
      <trkpt lat="44.58739" lon="4.64215">
        <ele>360.60000610352</ele>
        <time>2020-06-14T14:40:45.000Z</time>
      </trkpt>
      <trkpt lat="44.58738" lon="4.64217">
        <ele>360.79998779297</ele>
        <time>2020-06-14T14:40:47.000Z</time>
      </trkpt>
      <trkpt lat="44.58735" lon="4.64218">
        <ele>361.60000610352</ele>
        <time>2020-06-14T14:40:51.000Z</time>
      </trkpt>
      <trkpt lat="44.58731" lon="4.6422">
        <ele>362.39999389648</ele>
        <time>2020-06-14T14:40:56.000Z</time>
      </trkpt>
      <trkpt lat="44.5873" lon="4.64219">
        <ele>363</ele>
        <time>2020-06-14T14:40:57.000Z</time>
      </trkpt>
      <trkpt lat="44.58727" lon="4.64218">
        <ele>364</ele>
        <time>2020-06-14T14:41:01.000Z</time>
      </trkpt>
      <trkpt lat="44.58722" lon="4.64214">
        <ele>364.79998779297</ele>
        <time>2020-06-14T14:41:05.000Z</time>
      </trkpt>
      <trkpt lat="44.58711" lon="4.64208">
        <ele>364.79998779297</ele>
        <time>2020-06-14T14:41:11.000Z</time>
      </trkpt>
      <trkpt lat="44.587" lon="4.64201">
        <ele>364.60000610352</ele>
        <time>2020-06-14T14:41:18.000Z</time>
      </trkpt>
      <trkpt lat="44.58682" lon="4.64194">
        <ele>364.60000610352</ele>
        <time>2020-06-14T14:41:26.000Z</time>
      </trkpt>
      <trkpt lat="44.58671" lon="4.64185">
        <ele>364.79998779297</ele>
        <time>2020-06-14T14:41:31.000Z</time>
      </trkpt>
      <trkpt lat="44.58664" lon="4.64185">
        <ele>365</ele>
        <time>2020-06-14T14:41:34.000Z</time>
      </trkpt>
      <trkpt lat="44.58661" lon="4.64185">
        <ele>365</ele>
        <time>2020-06-14T14:41:35.000Z</time>
      </trkpt>
      <trkpt lat="44.5866" lon="4.64185">
        <ele>365</ele>
        <time>2020-06-14T14:41:36.000Z</time>
      </trkpt>
      <trkpt lat="44.58657" lon="4.64185">
        <ele>365.20001220703</ele>
        <time>2020-06-14T14:41:37.000Z</time>
      </trkpt>
      <trkpt lat="44.5865" lon="4.64189">
        <ele>365.39999389648</ele>
        <time>2020-06-14T14:41:42.000Z</time>
      </trkpt>
      <trkpt lat="44.58649" lon="4.64189">
        <ele>365.60000610352</ele>
        <time>2020-06-14T14:41:43.000Z</time>
      </trkpt>
      <trkpt lat="44.58647" lon="4.64189">
        <ele>366.20001220703</ele>
        <time>2020-06-14T14:41:46.000Z</time>
      </trkpt>
      <trkpt lat="44.58644" lon="4.64191">
        <ele>367.39999389648</ele>
        <time>2020-06-14T14:41:51.000Z</time>
      </trkpt>
      <trkpt lat="44.58643" lon="4.64192">
        <ele>367.39999389648</ele>
        <time>2020-06-14T14:41:52.000Z</time>
      </trkpt>
      <trkpt lat="44.58639" lon="4.64196">
        <ele>368.39999389648</ele>
        <time>2020-06-14T14:42:00.000Z</time>
      </trkpt>
      <trkpt lat="44.58638" lon="4.64198">
        <ele>368.79998779297</ele>
        <time>2020-06-14T14:42:03.000Z</time>
      </trkpt>
      <trkpt lat="44.58636" lon="4.642">
        <ele>369.20001220703</ele>
        <time>2020-06-14T14:42:07.000Z</time>
      </trkpt>
      <trkpt lat="44.58634" lon="4.64201">
        <ele>369.39999389648</ele>
        <time>2020-06-14T14:42:10.000Z</time>
      </trkpt>
      <trkpt lat="44.58629" lon="4.64204">
        <ele>370</ele>
        <time>2020-06-14T14:42:15.000Z</time>
      </trkpt>
      <trkpt lat="44.58629" lon="4.64205">
        <ele>370.20001220703</ele>
        <time>2020-06-14T14:42:16.000Z</time>
      </trkpt>
      <trkpt lat="44.58626" lon="4.64206">
        <ele>370.60000610352</ele>
        <time>2020-06-14T14:42:19.000Z</time>
      </trkpt>
      <trkpt lat="44.58621" lon="4.64212">
        <ele>371.60000610352</ele>
        <time>2020-06-14T14:42:26.000Z</time>
      </trkpt>
      <trkpt lat="44.58621" lon="4.64213">
        <ele>371.60000610352</ele>
        <time>2020-06-14T14:42:27.000Z</time>
      </trkpt>
      <trkpt lat="44.58616" lon="4.64217">
        <ele>372.60000610352</ele>
        <time>2020-06-14T14:42:35.000Z</time>
      </trkpt>
      <trkpt lat="44.58616" lon="4.64217">
        <ele>373</ele>
        <time>2020-06-14T14:42:37.000Z</time>
      </trkpt>
      <trkpt lat="44.58615" lon="4.64218">
        <ele>373.20001220703</ele>
        <time>2020-06-14T14:42:39.000Z</time>
      </trkpt>
      <trkpt lat="44.58614" lon="4.6422">
        <ele>373.79998779297</ele>
        <time>2020-06-14T14:42:42.000Z</time>
      </trkpt>
      <trkpt lat="44.58609" lon="4.64223">
        <ele>374.60000610352</ele>
        <time>2020-06-14T14:42:48.000Z</time>
      </trkpt>
      <trkpt lat="44.58609" lon="4.64224">
        <ele>374.79998779297</ele>
        <time>2020-06-14T14:42:49.000Z</time>
      </trkpt>
      <trkpt lat="44.58606" lon="4.6423">
        <ele>376</ele>
        <time>2020-06-14T14:42:57.000Z</time>
      </trkpt>
      <trkpt lat="44.58605" lon="4.6423">
        <ele>376</ele>
        <time>2020-06-14T14:42:58.000Z</time>
      </trkpt>
      <trkpt lat="44.58605" lon="4.64235">
        <ele>376.79998779297</ele>
        <time>2020-06-14T14:43:03.000Z</time>
      </trkpt>
      <trkpt lat="44.58604" lon="4.64236">
        <ele>377</ele>
        <time>2020-06-14T14:43:04.000Z</time>
      </trkpt>
      <trkpt lat="44.58603" lon="4.64242">
        <ele>377.79998779297</ele>
        <time>2020-06-14T14:43:11.000Z</time>
      </trkpt>
      <trkpt lat="44.58603" lon="4.64243">
        <ele>378.20001220703</ele>
        <time>2020-06-14T14:43:13.000Z</time>
      </trkpt>
      <trkpt lat="44.58603" lon="4.64243">
        <ele>378.20001220703</ele>
        <time>2020-06-14T14:43:14.000Z</time>
      </trkpt>
      <trkpt lat="44.58602" lon="4.64246">
        <ele>379</ele>
        <time>2020-06-14T14:43:18.000Z</time>
      </trkpt>
      <trkpt lat="44.58601" lon="4.64247">
        <ele>379.20001220703</ele>
        <time>2020-06-14T14:43:19.000Z</time>
      </trkpt>
      <trkpt lat="44.58601" lon="4.64251">
        <ele>380</ele>
        <time>2020-06-14T14:43:23.000Z</time>
      </trkpt>
      <trkpt lat="44.58601" lon="4.64253">
        <ele>380.20001220703</ele>
        <time>2020-06-14T14:43:26.000Z</time>
      </trkpt>
      <trkpt lat="44.58597" lon="4.64258">
        <ele>381.39999389648</ele>
        <time>2020-06-14T14:43:32.000Z</time>
      </trkpt>
      <trkpt lat="44.58597" lon="4.64258">
        <ele>381.60000610352</ele>
        <time>2020-06-14T14:43:33.000Z</time>
      </trkpt>
      <trkpt lat="44.58592" lon="4.64262">
        <ele>382.39999389648</ele>
        <time>2020-06-14T14:43:41.000Z</time>
      </trkpt>
      <trkpt lat="44.58591" lon="4.64263">
        <ele>382.79998779297</ele>
        <time>2020-06-14T14:43:43.000Z</time>
      </trkpt>
      <trkpt lat="44.58591" lon="4.64263">
        <ele>383</ele>
        <time>2020-06-14T14:43:44.000Z</time>
      </trkpt>
      <trkpt lat="44.5859" lon="4.64265">
        <ele>384.20001220703</ele>
        <time>2020-06-14T14:44:09.000Z</time>
      </trkpt>
      <trkpt lat="44.58589" lon="4.64266">
        <ele>384.20001220703</ele>
        <time>2020-06-14T14:44:10.000Z</time>
      </trkpt>
      <trkpt lat="44.58586" lon="4.64267">
        <ele>384.20001220703</ele>
        <time>2020-06-14T14:44:13.000Z</time>
      </trkpt>
      <trkpt lat="44.58574" lon="4.64272">
        <ele>385</ele>
        <time>2020-06-14T14:44:22.000Z</time>
      </trkpt>
      <trkpt lat="44.58571" lon="4.64275">
        <ele>385.39999389648</ele>
        <time>2020-06-14T14:44:25.000Z</time>
      </trkpt>
      <trkpt lat="44.58565" lon="4.64278">
        <ele>386.20001220703</ele>
        <time>2020-06-14T14:44:30.000Z</time>
      </trkpt>
      <trkpt lat="44.58561" lon="4.64279">
        <ele>386.39999389648</ele>
        <time>2020-06-14T14:44:33.000Z</time>
      </trkpt>
      <trkpt lat="44.58556" lon="4.64282">
        <ele>387</ele>
        <time>2020-06-14T14:44:37.000Z</time>
      </trkpt>
      <trkpt lat="44.58555" lon="4.64287">
        <ele>387.39999389648</ele>
        <time>2020-06-14T14:44:40.000Z</time>
      </trkpt>
      <trkpt lat="44.58557" lon="4.6429">
        <ele>387.79998779297</ele>
        <time>2020-06-14T14:44:42.000Z</time>
      </trkpt>
      <trkpt lat="44.58558" lon="4.64293">
        <ele>388.39999389648</ele>
        <time>2020-06-14T14:44:45.000Z</time>
      </trkpt>
      <trkpt lat="44.5856" lon="4.64297">
        <ele>389.79998779297</ele>
        <time>2020-06-14T14:44:48.000Z</time>
      </trkpt>
      <trkpt lat="44.58561" lon="4.64298">
        <ele>390</ele>
        <time>2020-06-14T14:44:49.000Z</time>
      </trkpt>
      <trkpt lat="44.58563" lon="4.64302">
        <ele>390.79998779297</ele>
        <time>2020-06-14T14:44:53.000Z</time>
      </trkpt>
      <trkpt lat="44.58567" lon="4.64307">
        <ele>391.20001220703</ele>
        <time>2020-06-14T14:44:57.000Z</time>
      </trkpt>
      <trkpt lat="44.5857" lon="4.64312">
        <ele>392</ele>
        <time>2020-06-14T14:45:01.000Z</time>
      </trkpt>
      <trkpt lat="44.58573" lon="4.64317">
        <ele>392.39999389648</ele>
        <time>2020-06-14T14:45:06.000Z</time>
      </trkpt>
      <trkpt lat="44.58577" lon="4.64322">
        <ele>393.39999389648</ele>
        <time>2020-06-14T14:45:11.000Z</time>
      </trkpt>
      <trkpt lat="44.58578" lon="4.64325">
        <ele>393.79998779297</ele>
        <time>2020-06-14T14:45:13.000Z</time>
      </trkpt>
      <trkpt lat="44.58579" lon="4.64326">
        <ele>394</ele>
        <time>2020-06-14T14:45:14.000Z</time>
      </trkpt>
      <trkpt lat="44.58581" lon="4.64329">
        <ele>394.39999389648</ele>
        <time>2020-06-14T14:45:17.000Z</time>
      </trkpt>
      <trkpt lat="44.58583" lon="4.64331">
        <ele>395</ele>
        <time>2020-06-14T14:45:19.000Z</time>
      </trkpt>
      <trkpt lat="44.58585" lon="4.64333">
        <ele>395.60000610352</ele>
        <time>2020-06-14T14:45:21.000Z</time>
      </trkpt>
      <trkpt lat="44.58588" lon="4.64336">
        <ele>396.60000610352</ele>
        <time>2020-06-14T14:45:24.000Z</time>
      </trkpt>
      <trkpt lat="44.58589" lon="4.64339">
        <ele>397</ele>
        <time>2020-06-14T14:45:26.000Z</time>
      </trkpt>
      <trkpt lat="44.5859" lon="4.6434">
        <ele>397</ele>
        <time>2020-06-14T14:45:29.000Z</time>
      </trkpt>
      <trkpt lat="44.58589" lon="4.64342">
        <ele>398.60000610352</ele>
        <time>2020-06-14T14:45:37.000Z</time>
      </trkpt>
      <trkpt lat="44.58589" lon="4.64342">
        <ele>398.79998779297</ele>
        <time>2020-06-14T14:45:38.000Z</time>
      </trkpt>
      <trkpt lat="44.58589" lon="4.64342">
        <ele>398.79998779297</ele>
        <time>2020-06-14T14:45:39.000Z</time>
      </trkpt>
      <trkpt lat="44.58588" lon="4.64342">
        <ele>399.20001220703</ele>
        <time>2020-06-14T14:45:46.000Z</time>
      </trkpt>
      <trkpt lat="44.58587" lon="4.64343">
        <ele>399.20001220703</ele>
        <time>2020-06-14T14:45:49.000Z</time>
      </trkpt>
      <trkpt lat="44.58585" lon="4.64344">
        <ele>399.39999389648</ele>
        <time>2020-06-14T14:45:51.000Z</time>
      </trkpt>
      <trkpt lat="44.5858" lon="4.64346">
        <ele>399.60000610352</ele>
        <time>2020-06-14T14:45:58.000Z</time>
      </trkpt>
      <trkpt lat="44.58578" lon="4.64347">
        <ele>399.60000610352</ele>
        <time>2020-06-14T14:46:00.000Z</time>
      </trkpt>
      <trkpt lat="44.58576" lon="4.64348">
        <ele>400.39999389648</ele>
        <time>2020-06-14T14:46:05.000Z</time>
      </trkpt>
      <trkpt lat="44.58576" lon="4.64349">
        <ele>401.39999389648</ele>
        <time>2020-06-14T14:46:16.000Z</time>
      </trkpt>
      <trkpt lat="44.58573" lon="4.64349">
        <ele>401.79998779297</ele>
        <time>2020-06-14T14:46:20.000Z</time>
      </trkpt>
      <trkpt lat="44.58571" lon="4.6435">
        <ele>401.60000610352</ele>
        <time>2020-06-14T14:46:25.000Z</time>
      </trkpt>
      <trkpt lat="44.58567" lon="4.64352">
        <ele>401.79998779297</ele>
        <time>2020-06-14T14:46:28.000Z</time>
      </trkpt>
      <trkpt lat="44.58563" lon="4.64353">
        <ele>401.79998779297</ele>
        <time>2020-06-14T14:46:32.000Z</time>
      </trkpt>
      <trkpt lat="44.58559" lon="4.64355">
        <ele>402.20001220703</ele>
        <time>2020-06-14T14:46:35.000Z</time>
      </trkpt>
      <trkpt lat="44.58558" lon="4.64356">
        <ele>402.20001220703</ele>
        <time>2020-06-14T14:46:36.000Z</time>
      </trkpt>
      <trkpt lat="44.58557" lon="4.64357">
        <ele>402.39999389648</ele>
        <time>2020-06-14T14:46:37.000Z</time>
      </trkpt>
      <trkpt lat="44.58556" lon="4.64357">
        <ele>402.60000610352</ele>
        <time>2020-06-14T14:46:38.000Z</time>
      </trkpt>
      <trkpt lat="44.58554" lon="4.64357">
        <ele>402.79998779297</ele>
        <time>2020-06-14T14:46:40.000Z</time>
      </trkpt>
      <trkpt lat="44.58551" lon="4.64357">
        <ele>403.20001220703</ele>
        <time>2020-06-14T14:46:43.000Z</time>
      </trkpt>
      <trkpt lat="44.58549" lon="4.64358">
        <ele>403.60000610352</ele>
        <time>2020-06-14T14:46:45.000Z</time>
      </trkpt>
      <trkpt lat="44.58548" lon="4.64358">
        <ele>403.60000610352</ele>
        <time>2020-06-14T14:46:46.000Z</time>
      </trkpt>
      <trkpt lat="44.58542" lon="4.64359">
        <ele>404.60000610352</ele>
        <time>2020-06-14T14:46:51.000Z</time>
      </trkpt>
      <trkpt lat="44.58541" lon="4.64359">
        <ele>405</ele>
        <time>2020-06-14T14:46:52.000Z</time>
      </trkpt>
      <trkpt lat="44.58539" lon="4.6436">
        <ele>405.60000610352</ele>
        <time>2020-06-14T14:46:54.000Z</time>
      </trkpt>
      <trkpt lat="44.58537" lon="4.64362">
        <ele>406.60000610352</ele>
        <time>2020-06-14T14:46:57.000Z</time>
      </trkpt>
      <trkpt lat="44.58536" lon="4.64362">
        <ele>406.79998779297</ele>
        <time>2020-06-14T14:46:58.000Z</time>
      </trkpt>
      <trkpt lat="44.58533" lon="4.64362">
        <ele>407.60000610352</ele>
        <time>2020-06-14T14:47:01.000Z</time>
      </trkpt>
      <trkpt lat="44.58531" lon="4.64363">
        <ele>408</ele>
        <time>2020-06-14T14:47:03.000Z</time>
      </trkpt>
      <trkpt lat="44.58526" lon="4.64364">
        <ele>409</ele>
        <time>2020-06-14T14:47:08.000Z</time>
      </trkpt>
      <trkpt lat="44.58523" lon="4.64365">
        <ele>409.60000610352</ele>
        <time>2020-06-14T14:47:11.000Z</time>
      </trkpt>
      <trkpt lat="44.58519" lon="4.64366">
        <ele>410.20001220703</ele>
        <time>2020-06-14T14:47:14.000Z</time>
      </trkpt>
      <trkpt lat="44.58518" lon="4.64366">
        <ele>410.39999389648</ele>
        <time>2020-06-14T14:47:15.000Z</time>
      </trkpt>
      <trkpt lat="44.58513" lon="4.64367">
        <ele>411.39999389648</ele>
        <time>2020-06-14T14:47:20.000Z</time>
      </trkpt>
      <trkpt lat="44.58511" lon="4.64367">
        <ele>411.60000610352</ele>
        <time>2020-06-14T14:47:22.000Z</time>
      </trkpt>
      <trkpt lat="44.58505" lon="4.64369">
        <ele>412.39999389648</ele>
        <time>2020-06-14T14:47:28.000Z</time>
      </trkpt>
      <trkpt lat="44.58503" lon="4.64369">
        <ele>412.60000610352</ele>
        <time>2020-06-14T14:47:30.000Z</time>
      </trkpt>
      <trkpt lat="44.58497" lon="4.6437">
        <ele>413.60000610352</ele>
        <time>2020-06-14T14:47:35.000Z</time>
      </trkpt>
      <trkpt lat="44.58496" lon="4.64371">
        <ele>413.79998779297</ele>
        <time>2020-06-14T14:47:36.000Z</time>
      </trkpt>
      <trkpt lat="44.58495" lon="4.64371">
        <ele>414</ele>
        <time>2020-06-14T14:47:37.000Z</time>
      </trkpt>
      <trkpt lat="44.58491" lon="4.64372">
        <ele>414.60000610352</ele>
        <time>2020-06-14T14:47:41.000Z</time>
      </trkpt>
      <trkpt lat="44.58487" lon="4.64372">
        <ele>415.39999389648</ele>
        <time>2020-06-14T14:47:44.000Z</time>
      </trkpt>
      <trkpt lat="44.58486" lon="4.64373">
        <ele>415.79998779297</ele>
        <time>2020-06-14T14:47:45.000Z</time>
      </trkpt>
      <trkpt lat="44.58478" lon="4.64375">
        <ele>416.79998779297</ele>
        <time>2020-06-14T14:47:52.000Z</time>
      </trkpt>
      <trkpt lat="44.5847" lon="4.64376">
        <ele>417.79998779297</ele>
        <time>2020-06-14T14:48:00.000Z</time>
      </trkpt>
      <trkpt lat="44.58465" lon="4.64376">
        <ele>419</ele>
        <time>2020-06-14T14:48:04.000Z</time>
      </trkpt>
      <trkpt lat="44.5846" lon="4.64377">
        <ele>419.79998779297</ele>
        <time>2020-06-14T14:48:09.000Z</time>
      </trkpt>
      <trkpt lat="44.58459" lon="4.64378">
        <ele>419.79998779297</ele>
        <time>2020-06-14T14:48:10.000Z</time>
      </trkpt>
      <trkpt lat="44.58453" lon="4.64378">
        <ele>420.79998779297</ele>
        <time>2020-06-14T14:48:15.000Z</time>
      </trkpt>
      <trkpt lat="44.5845" lon="4.64378">
        <ele>421.39999389648</ele>
        <time>2020-06-14T14:48:18.000Z</time>
      </trkpt>
      <trkpt lat="44.58446" lon="4.64379">
        <ele>422</ele>
        <time>2020-06-14T14:48:21.000Z</time>
      </trkpt>
      <trkpt lat="44.58441" lon="4.64379">
        <ele>423</ele>
        <time>2020-06-14T14:48:26.000Z</time>
      </trkpt>
      <trkpt lat="44.58439" lon="4.64379">
        <ele>423.20001220703</ele>
        <time>2020-06-14T14:48:27.000Z</time>
      </trkpt>
      <trkpt lat="44.58433" lon="4.64382">
        <ele>424</ele>
        <time>2020-06-14T14:48:33.000Z</time>
      </trkpt>
      <trkpt lat="44.58432" lon="4.64382">
        <ele>424.20001220703</ele>
        <time>2020-06-14T14:48:34.000Z</time>
      </trkpt>
      <trkpt lat="44.58427" lon="4.64384">
        <ele>425.20001220703</ele>
        <time>2020-06-14T14:48:38.000Z</time>
      </trkpt>
      <trkpt lat="44.58423" lon="4.64385">
        <ele>426</ele>
        <time>2020-06-14T14:48:42.000Z</time>
      </trkpt>
      <trkpt lat="44.58421" lon="4.64385">
        <ele>426.20001220703</ele>
        <time>2020-06-14T14:48:44.000Z</time>
      </trkpt>
      <trkpt lat="44.58414" lon="4.64386">
        <ele>427.20001220703</ele>
        <time>2020-06-14T14:48:50.000Z</time>
      </trkpt>
      <trkpt lat="44.58413" lon="4.64386">
        <ele>427.60000610352</ele>
        <time>2020-06-14T14:48:51.000Z</time>
      </trkpt>
      <trkpt lat="44.58406" lon="4.64388">
        <ele>428.60000610352</ele>
        <time>2020-06-14T14:48:57.000Z</time>
      </trkpt>
      <trkpt lat="44.58405" lon="4.64388">
        <ele>428.79998779297</ele>
        <time>2020-06-14T14:48:58.000Z</time>
      </trkpt>
      <trkpt lat="44.58404" lon="4.64388">
        <ele>429</ele>
        <time>2020-06-14T14:48:59.000Z</time>
      </trkpt>
      <trkpt lat="44.58399" lon="4.64388">
        <ele>429.79998779297</ele>
        <time>2020-06-14T14:49:03.000Z</time>
      </trkpt>
      <trkpt lat="44.58397" lon="4.64388">
        <ele>430</ele>
        <time>2020-06-14T14:49:05.000Z</time>
      </trkpt>
      <trkpt lat="44.58396" lon="4.64388">
        <ele>430.20001220703</ele>
        <time>2020-06-14T14:49:07.000Z</time>
      </trkpt>
      <trkpt lat="44.58393" lon="4.64388">
        <ele>430.79998779297</ele>
        <time>2020-06-14T14:49:10.000Z</time>
      </trkpt>
      <trkpt lat="44.58391" lon="4.64388">
        <ele>431.20001220703</ele>
        <time>2020-06-14T14:49:12.000Z</time>
      </trkpt>
      <trkpt lat="44.58386" lon="4.64391">
        <ele>432</ele>
        <time>2020-06-14T14:49:16.000Z</time>
      </trkpt>
      <trkpt lat="44.58384" lon="4.64391">
        <ele>432.39999389648</ele>
        <time>2020-06-14T14:49:18.000Z</time>
      </trkpt>
      <trkpt lat="44.58382" lon="4.64392">
        <ele>433</ele>
        <time>2020-06-14T14:49:20.000Z</time>
      </trkpt>
      <trkpt lat="44.58378" lon="4.64394">
        <ele>434</ele>
        <time>2020-06-14T14:49:24.000Z</time>
      </trkpt>
      <trkpt lat="44.58375" lon="4.64394">
        <ele>434.79998779297</ele>
        <time>2020-06-14T14:49:27.000Z</time>
      </trkpt>
      <trkpt lat="44.58374" lon="4.64394">
        <ele>435</ele>
        <time>2020-06-14T14:49:28.000Z</time>
      </trkpt>
      <trkpt lat="44.58368" lon="4.64393">
        <ele>436.20001220703</ele>
        <time>2020-06-14T14:49:34.000Z</time>
      </trkpt>
      <trkpt lat="44.58367" lon="4.64393">
        <ele>436.39999389648</ele>
        <time>2020-06-14T14:49:35.000Z</time>
      </trkpt>
      <trkpt lat="44.58363" lon="4.64393">
        <ele>437.60000610352</ele>
        <time>2020-06-14T14:49:39.000Z</time>
      </trkpt>
      <trkpt lat="44.58362" lon="4.64393">
        <ele>438</ele>
        <time>2020-06-14T14:49:41.000Z</time>
      </trkpt>
      <trkpt lat="44.58357" lon="4.64393">
        <ele>438.60000610352</ele>
        <time>2020-06-14T14:49:45.000Z</time>
      </trkpt>
      <trkpt lat="44.58355" lon="4.64394">
        <ele>439.20001220703</ele>
        <time>2020-06-14T14:49:47.000Z</time>
      </trkpt>
      <trkpt lat="44.58351" lon="4.64394">
        <ele>439.79998779297</ele>
        <time>2020-06-14T14:49:51.000Z</time>
      </trkpt>
      <trkpt lat="44.58345" lon="4.64394">
        <ele>440.79998779297</ele>
        <time>2020-06-14T14:49:56.000Z</time>
      </trkpt>
      <trkpt lat="44.58344" lon="4.64395">
        <ele>441</ele>
        <time>2020-06-14T14:49:57.000Z</time>
      </trkpt>
      <trkpt lat="44.58336" lon="4.64397">
        <ele>442</ele>
        <time>2020-06-14T14:50:03.000Z</time>
      </trkpt>
      <trkpt lat="44.58334" lon="4.64397">
        <ele>442.39999389648</ele>
        <time>2020-06-14T14:50:05.000Z</time>
      </trkpt>
      <trkpt lat="44.5833" lon="4.64402">
        <ele>442.79998779297</ele>
        <time>2020-06-14T14:50:10.000Z</time>
      </trkpt>
      <trkpt lat="44.58331" lon="4.64403">
        <ele>442.79998779297</ele>
        <time>2020-06-14T14:50:11.000Z</time>
      </trkpt>
      <trkpt lat="44.58332" lon="4.64403">
        <ele>443</ele>
        <time>2020-06-14T14:50:12.000Z</time>
      </trkpt>
      <trkpt lat="44.58337" lon="4.64404">
        <ele>443.60000610352</ele>
        <time>2020-06-14T14:50:16.000Z</time>
      </trkpt>
      <trkpt lat="44.58338" lon="4.64405">
        <ele>443.79998779297</ele>
        <time>2020-06-14T14:50:17.000Z</time>
      </trkpt>
      <trkpt lat="44.58349" lon="4.6441">
        <ele>444</ele>
        <time>2020-06-14T14:50:23.000Z</time>
      </trkpt>
      <trkpt lat="44.58366" lon="4.64417">
        <ele>444.20001220703</ele>
        <time>2020-06-14T14:50:30.000Z</time>
      </trkpt>
      <trkpt lat="44.58381" lon="4.64424">
        <ele>444.60000610352</ele>
        <time>2020-06-14T14:50:37.000Z</time>
      </trkpt>
      <trkpt lat="44.58394" lon="4.6443">
        <ele>445.20001220703</ele>
        <time>2020-06-14T14:50:45.000Z</time>
      </trkpt>
      <trkpt lat="44.58395" lon="4.64431">
        <ele>445.60000610352</ele>
        <time>2020-06-14T14:50:46.000Z</time>
      </trkpt>
      <trkpt lat="44.58396" lon="4.64431">
        <ele>445.79998779297</ele>
        <time>2020-06-14T14:50:48.000Z</time>
      </trkpt>
      <trkpt lat="44.58396" lon="4.64432">
        <ele>446.79998779297</ele>
        <time>2020-06-14T14:51:10.000Z</time>
      </trkpt>
      <trkpt lat="44.58397" lon="4.64432">
        <ele>446.79998779297</ele>
        <time>2020-06-14T14:51:11.000Z</time>
      </trkpt>
      <trkpt lat="44.58399" lon="4.64434">
        <ele>446.79998779297</ele>
        <time>2020-06-14T14:51:16.000Z</time>
      </trkpt>
      <trkpt lat="44.584" lon="4.64435">
        <ele>447.60000610352</ele>
        <time>2020-06-14T14:51:43.000Z</time>
      </trkpt>
      <trkpt lat="44.58401" lon="4.64436">
        <ele>447.60000610352</ele>
        <time>2020-06-14T14:51:44.000Z</time>
      </trkpt>
      <trkpt lat="44.5841" lon="4.64445">
        <ele>447.79998779297</ele>
        <time>2020-06-14T14:51:52.000Z</time>
      </trkpt>
      <trkpt lat="44.58413" lon="4.64446">
        <ele>448</ele>
        <time>2020-06-14T14:51:54.000Z</time>
      </trkpt>
      <trkpt lat="44.58418" lon="4.6445">
        <ele>448.79998779297</ele>
        <time>2020-06-14T14:51:58.000Z</time>
      </trkpt>
      <trkpt lat="44.58419" lon="4.64451">
        <ele>449.20001220703</ele>
        <time>2020-06-14T14:51:59.000Z</time>
      </trkpt>
      <trkpt lat="44.58424" lon="4.64455">
        <ele>450.39999389648</ele>
        <time>2020-06-14T14:52:04.000Z</time>
      </trkpt>
      <trkpt lat="44.58427" lon="4.64458">
        <ele>451</ele>
        <time>2020-06-14T14:52:06.000Z</time>
      </trkpt>
      <trkpt lat="44.5843" lon="4.6446">
        <ele>451.39999389648</ele>
        <time>2020-06-14T14:52:08.000Z</time>
      </trkpt>
      <trkpt lat="44.58437" lon="4.64465">
        <ele>452.60000610352</ele>
        <time>2020-06-14T14:52:13.000Z</time>
      </trkpt>
      <trkpt lat="44.58437" lon="4.64466">
        <ele>452.79998779297</ele>
        <time>2020-06-14T14:52:16.000Z</time>
      </trkpt>
      <trkpt lat="44.58438" lon="4.64468">
        <ele>454.60000610352</ele>
        <time>2020-06-14T14:52:21.000Z</time>
      </trkpt>
      <trkpt lat="44.58441" lon="4.64469">
        <ele>455.60000610352</ele>
        <time>2020-06-14T14:52:27.000Z</time>
      </trkpt>
      <trkpt lat="44.58443" lon="4.64469">
        <ele>456.39999389648</ele>
        <time>2020-06-14T14:53:16.000Z</time>
      </trkpt>
      <trkpt lat="44.58446" lon="4.64472">
        <ele>456.39999389648</ele>
        <time>2020-06-14T14:53:20.000Z</time>
      </trkpt>
      <trkpt lat="44.58449" lon="4.64473">
        <ele>456.39999389648</ele>
        <time>2020-06-14T14:53:24.000Z</time>
      </trkpt>
      <trkpt lat="44.58451" lon="4.64476">
        <ele>456.79998779297</ele>
        <time>2020-06-14T14:53:28.000Z</time>
      </trkpt>
      <trkpt lat="44.58461" lon="4.64485">
        <ele>457.60000610352</ele>
        <time>2020-06-14T14:53:36.000Z</time>
      </trkpt>
      <trkpt lat="44.58467" lon="4.64491">
        <ele>458</ele>
        <time>2020-06-14T14:53:41.000Z</time>
      </trkpt>
      <trkpt lat="44.58468" lon="4.64491">
        <ele>458</ele>
        <time>2020-06-14T14:53:42.000Z</time>
      </trkpt>
      <trkpt lat="44.58474" lon="4.64497">
        <ele>458.79998779297</ele>
        <time>2020-06-14T14:53:47.000Z</time>
      </trkpt>
      <trkpt lat="44.58475" lon="4.64498">
        <ele>459.20001220703</ele>
        <time>2020-06-14T14:53:48.000Z</time>
      </trkpt>
      <trkpt lat="44.58481" lon="4.64503">
        <ele>460.39999389648</ele>
        <time>2020-06-14T14:53:53.000Z</time>
      </trkpt>
      <trkpt lat="44.58482" lon="4.64504">
        <ele>460.60000610352</ele>
        <time>2020-06-14T14:53:54.000Z</time>
      </trkpt>
      <trkpt lat="44.58486" lon="4.64509">
        <ele>461.39999389648</ele>
        <time>2020-06-14T14:53:58.000Z</time>
      </trkpt>
      <trkpt lat="44.58492" lon="4.64514">
        <ele>462.60000610352</ele>
        <time>2020-06-14T14:54:03.000Z</time>
      </trkpt>
      <trkpt lat="44.58494" lon="4.64517">
        <ele>463.20001220703</ele>
        <time>2020-06-14T14:54:07.000Z</time>
      </trkpt>
      <trkpt lat="44.58492" lon="4.64517">
        <ele>463.60000610352</ele>
        <time>2020-06-14T14:54:10.000Z</time>
      </trkpt>
      <trkpt lat="44.58488" lon="4.64517">
        <ele>464.60000610352</ele>
        <time>2020-06-14T14:54:14.000Z</time>
      </trkpt>
      <trkpt lat="44.58488" lon="4.64517">
        <ele>465</ele>
        <time>2020-06-14T14:54:15.000Z</time>
      </trkpt>
      <trkpt lat="44.58487" lon="4.64517">
        <ele>465.20001220703</ele>
        <time>2020-06-14T14:54:18.000Z</time>
      </trkpt>
      <trkpt lat="44.58486" lon="4.64517">
        <ele>465.39999389648</ele>
        <time>2020-06-14T14:54:20.000Z</time>
      </trkpt>
      <trkpt lat="44.58486" lon="4.64517">
        <ele>465.60000610352</ele>
        <time>2020-06-14T14:54:22.000Z</time>
      </trkpt>
      <trkpt lat="44.58483" lon="4.64516">
        <ele>465.79998779297</ele>
        <time>2020-06-14T14:54:26.000Z</time>
      </trkpt>
      <trkpt lat="44.58477" lon="4.64516">
        <ele>466.20001220703</ele>
        <time>2020-06-14T14:54:30.000Z</time>
      </trkpt>
      <trkpt lat="44.5847" lon="4.64514">
        <ele>466.79998779297</ele>
        <time>2020-06-14T14:54:35.000Z</time>
      </trkpt>
      <trkpt lat="44.58466" lon="4.64513">
        <ele>467.20001220703</ele>
        <time>2020-06-14T14:54:38.000Z</time>
      </trkpt>
      <trkpt lat="44.58459" lon="4.64512">
        <ele>467.79998779297</ele>
        <time>2020-06-14T14:54:43.000Z</time>
      </trkpt>
      <trkpt lat="44.58456" lon="4.64512">
        <ele>468.39999389648</ele>
        <time>2020-06-14T14:54:45.000Z</time>
      </trkpt>
      <trkpt lat="44.58452" lon="4.64511">
        <ele>469</ele>
        <time>2020-06-14T14:54:48.000Z</time>
      </trkpt>
      <trkpt lat="44.58445" lon="4.64511">
        <ele>469.60000610352</ele>
        <time>2020-06-14T14:54:53.000Z</time>
      </trkpt>
      <trkpt lat="44.58442" lon="4.64511">
        <ele>470</ele>
        <time>2020-06-14T14:54:55.000Z</time>
      </trkpt>
      <trkpt lat="44.58433" lon="4.64511">
        <ele>471.20001220703</ele>
        <time>2020-06-14T14:55:02.000Z</time>
      </trkpt>
      <trkpt lat="44.58424" lon="4.64512">
        <ele>472.39999389648</ele>
        <time>2020-06-14T14:55:08.000Z</time>
      </trkpt>
      <trkpt lat="44.5842" lon="4.64513">
        <ele>472.79998779297</ele>
        <time>2020-06-14T14:55:11.000Z</time>
      </trkpt>
      <trkpt lat="44.58415" lon="4.64514">
        <ele>473.60000610352</ele>
        <time>2020-06-14T14:55:15.000Z</time>
      </trkpt>
      <trkpt lat="44.5841" lon="4.64515">
        <ele>474</ele>
        <time>2020-06-14T14:55:19.000Z</time>
      </trkpt>
      <trkpt lat="44.58406" lon="4.64517">
        <ele>474.60000610352</ele>
        <time>2020-06-14T14:55:22.000Z</time>
      </trkpt>
      <trkpt lat="44.58398" lon="4.64521">
        <ele>475.39999389648</ele>
        <time>2020-06-14T14:55:28.000Z</time>
      </trkpt>
      <trkpt lat="44.58396" lon="4.64523">
        <ele>476</ele>
        <time>2020-06-14T14:55:30.000Z</time>
      </trkpt>
      <trkpt lat="44.58387" lon="4.6453">
        <ele>477</ele>
        <time>2020-06-14T14:55:37.000Z</time>
      </trkpt>
      <trkpt lat="44.58385" lon="4.64531">
        <ele>477</ele>
        <time>2020-06-14T14:55:38.000Z</time>
      </trkpt>
      <trkpt lat="44.58377" lon="4.64539">
        <ele>478</ele>
        <time>2020-06-14T14:55:45.000Z</time>
      </trkpt>
      <trkpt lat="44.58376" lon="4.64541">
        <ele>478.20001220703</ele>
        <time>2020-06-14T14:55:46.000Z</time>
      </trkpt>
      <trkpt lat="44.58366" lon="4.64551">
        <ele>479</ele>
        <time>2020-06-14T14:55:53.000Z</time>
      </trkpt>
      <trkpt lat="44.58365" lon="4.64552">
        <ele>479.20001220703</ele>
        <time>2020-06-14T14:55:54.000Z</time>
      </trkpt>
      <trkpt lat="44.58355" lon="4.64561">
        <ele>480.39999389648</ele>
        <time>2020-06-14T14:56:01.000Z</time>
      </trkpt>
      <trkpt lat="44.58343" lon="4.64569">
        <ele>481.39999389648</ele>
        <time>2020-06-14T14:56:08.000Z</time>
      </trkpt>
      <trkpt lat="44.58342" lon="4.6457">
        <ele>481.60000610352</ele>
        <time>2020-06-14T14:56:09.000Z</time>
      </trkpt>
      <trkpt lat="44.5833" lon="4.64578">
        <ele>482.60000610352</ele>
        <time>2020-06-14T14:56:16.000Z</time>
      </trkpt>
      <trkpt lat="44.58327" lon="4.6458">
        <ele>483</ele>
        <time>2020-06-14T14:56:18.000Z</time>
      </trkpt>
      <trkpt lat="44.58319" lon="4.64585">
        <ele>483.79998779297</ele>
        <time>2020-06-14T14:56:23.000Z</time>
      </trkpt>
      <trkpt lat="44.58309" lon="4.64591">
        <ele>484.39999389648</ele>
        <time>2020-06-14T14:56:29.000Z</time>
      </trkpt>
      <trkpt lat="44.58306" lon="4.64592">
        <ele>484.79998779297</ele>
        <time>2020-06-14T14:56:31.000Z</time>
      </trkpt>
      <trkpt lat="44.58297" lon="4.64598">
        <ele>485.60000610352</ele>
        <time>2020-06-14T14:56:37.000Z</time>
      </trkpt>
      <trkpt lat="44.58296" lon="4.64599">
        <ele>485.79998779297</ele>
        <time>2020-06-14T14:56:38.000Z</time>
      </trkpt>
      <trkpt lat="44.58289" lon="4.64602">
        <ele>486.60000610352</ele>
        <time>2020-06-14T14:56:43.000Z</time>
      </trkpt>
      <trkpt lat="44.58287" lon="4.64602">
        <ele>486.79998779297</ele>
        <time>2020-06-14T14:56:44.000Z</time>
      </trkpt>
      <trkpt lat="44.58285" lon="4.64602">
        <ele>487.39999389648</ele>
        <time>2020-06-14T14:56:46.000Z</time>
      </trkpt>
      <trkpt lat="44.58281" lon="4.64602">
        <ele>488.20001220703</ele>
        <time>2020-06-14T14:56:49.000Z</time>
      </trkpt>
      <trkpt lat="44.58279" lon="4.64602">
        <ele>488.39999389648</ele>
        <time>2020-06-14T14:56:50.000Z</time>
      </trkpt>
      <trkpt lat="44.58277" lon="4.64603">
        <ele>489</ele>
        <time>2020-06-14T14:56:52.000Z</time>
      </trkpt>
      <trkpt lat="44.58276" lon="4.64604">
        <ele>489.20001220703</ele>
        <time>2020-06-14T14:56:53.000Z</time>
      </trkpt>
      <trkpt lat="44.58271" lon="4.64606">
        <ele>489.60000610352</ele>
        <time>2020-06-14T14:56:57.000Z</time>
      </trkpt>
      <trkpt lat="44.58266" lon="4.64608">
        <ele>490.20001220703</ele>
        <time>2020-06-14T14:57:01.000Z</time>
      </trkpt>
      <trkpt lat="44.58261" lon="4.6461">
        <ele>491</ele>
        <time>2020-06-14T14:57:05.000Z</time>
      </trkpt>
      <trkpt lat="44.58257" lon="4.64611">
        <ele>491.39999389648</ele>
        <time>2020-06-14T14:57:08.000Z</time>
      </trkpt>
      <trkpt lat="44.58254" lon="4.64612">
        <ele>491.60000610352</ele>
        <time>2020-06-14T14:57:11.000Z</time>
      </trkpt>
      <trkpt lat="44.58247" lon="4.64616">
        <ele>492.39999389648</ele>
        <time>2020-06-14T14:57:17.000Z</time>
      </trkpt>
      <trkpt lat="44.58243" lon="4.64618">
        <ele>493</ele>
        <time>2020-06-14T14:57:20.000Z</time>
      </trkpt>
      <trkpt lat="44.58239" lon="4.6462">
        <ele>493.39999389648</ele>
        <time>2020-06-14T14:57:23.000Z</time>
      </trkpt>
      <trkpt lat="44.58234" lon="4.6462">
        <ele>494.79998779297</ele>
        <time>2020-06-14T14:57:27.000Z</time>
      </trkpt>
      <trkpt lat="44.58228" lon="4.64623">
        <ele>496</ele>
        <time>2020-06-14T14:57:32.000Z</time>
      </trkpt>
      <trkpt lat="44.58225" lon="4.64625">
        <ele>496.39999389648</ele>
        <time>2020-06-14T14:57:35.000Z</time>
      </trkpt>
      <trkpt lat="44.58226" lon="4.6463">
        <ele>496.79998779297</ele>
        <time>2020-06-14T14:57:39.000Z</time>
      </trkpt>
      <trkpt lat="44.58227" lon="4.6463">
        <ele>496.79998779297</ele>
        <time>2020-06-14T14:57:40.000Z</time>
      </trkpt>
      <trkpt lat="44.58229" lon="4.64631">
        <ele>497.20001220703</ele>
        <time>2020-06-14T14:57:42.000Z</time>
      </trkpt>
      <trkpt lat="44.58234" lon="4.64634">
        <ele>498</ele>
        <time>2020-06-14T14:57:47.000Z</time>
      </trkpt>
      <trkpt lat="44.58238" lon="4.64636">
        <ele>498.39999389648</ele>
        <time>2020-06-14T14:57:50.000Z</time>
      </trkpt>
      <trkpt lat="44.58242" lon="4.64638">
        <ele>499.20001220703</ele>
        <time>2020-06-14T14:57:54.000Z</time>
      </trkpt>
      <trkpt lat="44.58244" lon="4.64638">
        <ele>499.39999389648</ele>
        <time>2020-06-14T14:57:56.000Z</time>
      </trkpt>
      <trkpt lat="44.58249" lon="4.6464">
        <ele>499.60000610352</ele>
        <time>2020-06-14T14:58:00.000Z</time>
      </trkpt>
      <trkpt lat="44.58256" lon="4.64641">
        <ele>500.39999389648</ele>
        <time>2020-06-14T14:58:05.000Z</time>
      </trkpt>
      <trkpt lat="44.58259" lon="4.64642">
        <ele>501</ele>
        <time>2020-06-14T14:58:07.000Z</time>
      </trkpt>
      <trkpt lat="44.58262" lon="4.64644">
        <ele>501.60000610352</ele>
        <time>2020-06-14T14:58:09.000Z</time>
      </trkpt>
      <trkpt lat="44.58263" lon="4.64645">
        <ele>502</ele>
        <time>2020-06-14T14:58:10.000Z</time>
      </trkpt>
      <trkpt lat="44.58264" lon="4.64649">
        <ele>502.20001220703</ele>
        <time>2020-06-14T14:58:13.000Z</time>
      </trkpt>
      <trkpt lat="44.58263" lon="4.64656">
        <ele>503</ele>
        <time>2020-06-14T14:58:18.000Z</time>
      </trkpt>
      <trkpt lat="44.58261" lon="4.64657">
        <ele>503.39999389648</ele>
        <time>2020-06-14T14:58:19.000Z</time>
      </trkpt>
      <trkpt lat="44.58259" lon="4.64659">
        <ele>504</ele>
        <time>2020-06-14T14:58:22.000Z</time>
      </trkpt>
      <trkpt lat="44.58259" lon="4.64659">
        <ele>504.20001220703</ele>
        <time>2020-06-14T14:58:23.000Z</time>
      </trkpt>
      <trkpt lat="44.5826" lon="4.64657">
        <ele>505</ele>
        <time>2020-06-14T14:58:59.000Z</time>
      </trkpt>
      <trkpt lat="44.58261" lon="4.64658">
        <ele>505.20001220703</ele>
        <time>2020-06-14T14:59:02.000Z</time>
      </trkpt>
      <trkpt lat="44.58262" lon="4.64657">
        <ele>505.20001220703</ele>
        <time>2020-06-14T14:59:04.000Z</time>
      </trkpt>
      <trkpt lat="44.58262" lon="4.64657">
        <ele>505.20001220703</ele>
        <time>2020-06-14T14:59:06.000Z</time>
      </trkpt>
      <trkpt lat="44.58263" lon="4.64655">
        <ele>504.79998779297</ele>
        <time>2020-06-14T14:59:45.000Z</time>
      </trkpt>
      <trkpt lat="44.58265" lon="4.64653">
        <ele>504.79998779297</ele>
        <time>2020-06-14T14:59:47.000Z</time>
      </trkpt>
      <trkpt lat="44.58267" lon="4.64651">
        <ele>504.60000610352</ele>
        <time>2020-06-14T14:59:51.000Z</time>
      </trkpt>
      <trkpt lat="44.58268" lon="4.64652">
        <ele>504.60000610352</ele>
        <time>2020-06-14T15:00:09.000Z</time>
      </trkpt>
      <trkpt lat="44.58269" lon="4.64652">
        <ele>504.79998779297</ele>
        <time>2020-06-14T15:00:12.000Z</time>
      </trkpt>
      <trkpt lat="44.58271" lon="4.64653">
        <ele>504.79998779297</ele>
        <time>2020-06-14T15:00:15.000Z</time>
      </trkpt>
      <trkpt lat="44.58272" lon="4.64653">
        <ele>504.79998779297</ele>
        <time>2020-06-14T15:00:16.000Z</time>
      </trkpt>
      <trkpt lat="44.58281" lon="4.64657">
        <ele>504.79998779297</ele>
        <time>2020-06-14T15:00:22.000Z</time>
      </trkpt>
      <trkpt lat="44.58285" lon="4.64661">
        <ele>504.79998779297</ele>
        <time>2020-06-14T15:00:25.000Z</time>
      </trkpt>
      <trkpt lat="44.58286" lon="4.64667">
        <ele>504.79998779297</ele>
        <time>2020-06-14T15:00:27.000Z</time>
      </trkpt>
      <trkpt lat="44.58291" lon="4.6469">
        <ele>504.60000610352</ele>
        <time>2020-06-14T15:00:33.000Z</time>
      </trkpt>
      <trkpt lat="44.583" lon="4.64716">
        <ele>504</ele>
        <time>2020-06-14T15:00:40.000Z</time>
      </trkpt>
      <trkpt lat="44.58306" lon="4.64743">
        <ele>503.79998779297</ele>
        <time>2020-06-14T15:00:47.000Z</time>
      </trkpt>
      <trkpt lat="44.58309" lon="4.64755">
        <ele>503.79998779297</ele>
        <time>2020-06-14T15:00:49.000Z</time>
      </trkpt>
      <trkpt lat="44.58315" lon="4.64766">
        <ele>503.79998779297</ele>
        <time>2020-06-14T15:00:51.000Z</time>
      </trkpt>
      <trkpt lat="44.58323" lon="4.64777">
        <ele>503.60000610352</ele>
        <time>2020-06-14T15:00:53.000Z</time>
      </trkpt>
      <trkpt lat="44.58333" lon="4.64795">
        <ele>502</ele>
        <time>2020-06-14T15:00:56.000Z</time>
      </trkpt>
      <trkpt lat="44.58336" lon="4.64801">
        <ele>501.39999389648</ele>
        <time>2020-06-14T15:00:57.000Z</time>
      </trkpt>
      <trkpt lat="44.58338" lon="4.64808">
        <ele>500.79998779297</ele>
        <time>2020-06-14T15:00:58.000Z</time>
      </trkpt>
      <trkpt lat="44.58346" lon="4.64827">
        <ele>499.60000610352</ele>
        <time>2020-06-14T15:01:01.000Z</time>
      </trkpt>
      <trkpt lat="44.58349" lon="4.64839">
        <ele>499.20001220703</ele>
        <time>2020-06-14T15:01:03.000Z</time>
      </trkpt>
      <trkpt lat="44.5835" lon="4.64843">
        <ele>499</ele>
        <time>2020-06-14T15:01:06.000Z</time>
      </trkpt>
      <trkpt lat="44.5835" lon="4.64847">
        <ele>498.20001220703</ele>
        <time>2020-06-14T15:01:29.000Z</time>
      </trkpt>
      <trkpt lat="44.58353" lon="4.64853">
        <ele>498.20001220703</ele>
        <time>2020-06-14T15:01:31.000Z</time>
      </trkpt>
      <trkpt lat="44.58356" lon="4.64875">
        <ele>498.20001220703</ele>
        <time>2020-06-14T15:01:36.000Z</time>
      </trkpt>
      <trkpt lat="44.58357" lon="4.64893">
        <ele>498</ele>
        <time>2020-06-14T15:01:39.000Z</time>
      </trkpt>
      <trkpt lat="44.58356" lon="4.64907">
        <ele>498</ele>
        <time>2020-06-14T15:01:41.000Z</time>
      </trkpt>
      <trkpt lat="44.5836" lon="4.64941">
        <ele>497</ele>
        <time>2020-06-14T15:01:46.000Z</time>
      </trkpt>
      <trkpt lat="44.58361" lon="4.64947">
        <ele>496.79998779297</ele>
        <time>2020-06-14T15:01:47.000Z</time>
      </trkpt>
      <trkpt lat="44.58362" lon="4.64952">
        <ele>496.60000610352</ele>
        <time>2020-06-14T15:01:48.000Z</time>
      </trkpt>
      <trkpt lat="44.5837" lon="4.64971">
        <ele>496.20001220703</ele>
        <time>2020-06-14T15:01:52.000Z</time>
      </trkpt>
      <trkpt lat="44.58372" lon="4.64975">
        <ele>496.20001220703</ele>
        <time>2020-06-14T15:01:53.000Z</time>
      </trkpt>
      <trkpt lat="44.5838" lon="4.6499">
        <ele>496</ele>
        <time>2020-06-14T15:01:57.000Z</time>
      </trkpt>
      <trkpt lat="44.58383" lon="4.64997">
        <ele>496.20001220703</ele>
        <time>2020-06-14T15:01:59.000Z</time>
      </trkpt>
      <trkpt lat="44.5839" lon="4.65012">
        <ele>496.60000610352</ele>
        <time>2020-06-14T15:02:05.000Z</time>
      </trkpt>
      <trkpt lat="44.584" lon="4.65031">
        <ele>497.79998779297</ele>
        <time>2020-06-14T15:02:11.000Z</time>
      </trkpt>
      <trkpt lat="44.58404" lon="4.6504">
        <ele>498.20001220703</ele>
        <time>2020-06-14T15:02:14.000Z</time>
      </trkpt>
      <trkpt lat="44.58408" lon="4.65052">
        <ele>498.20001220703</ele>
        <time>2020-06-14T15:02:18.000Z</time>
      </trkpt>
      <trkpt lat="44.58411" lon="4.65076">
        <ele>498.79998779297</ele>
        <time>2020-06-14T15:02:24.000Z</time>
      </trkpt>
      <trkpt lat="44.58419" lon="4.6509">
        <ele>498.79998779297</ele>
        <time>2020-06-14T15:02:28.000Z</time>
      </trkpt>
      <trkpt lat="44.5843" lon="4.651">
        <ele>498.79998779297</ele>
        <time>2020-06-14T15:02:33.000Z</time>
      </trkpt>
      <trkpt lat="44.5845" lon="4.65116">
        <ele>498.20001220703</ele>
        <time>2020-06-14T15:02:40.000Z</time>
      </trkpt>
      <trkpt lat="44.58468" lon="4.65126">
        <ele>497.60000610352</ele>
        <time>2020-06-14T15:02:45.000Z</time>
      </trkpt>
      <trkpt lat="44.58477" lon="4.65129">
        <ele>496.79998779297</ele>
        <time>2020-06-14T15:02:48.000Z</time>
      </trkpt>
      <trkpt lat="44.58483" lon="4.65131">
        <ele>496.60000610352</ele>
        <time>2020-06-14T15:02:50.000Z</time>
      </trkpt>
      <trkpt lat="44.58491" lon="4.65132">
        <ele>495.60000610352</ele>
        <time>2020-06-14T15:02:53.000Z</time>
      </trkpt>
      <trkpt lat="44.58497" lon="4.65133">
        <ele>495.20001220703</ele>
        <time>2020-06-14T15:02:55.000Z</time>
      </trkpt>
      <trkpt lat="44.58508" lon="4.65132">
        <ele>494.60000610352</ele>
        <time>2020-06-14T15:02:59.000Z</time>
      </trkpt>
      <trkpt lat="44.5851" lon="4.65132">
        <ele>494.39999389648</ele>
        <time>2020-06-14T15:03:00.000Z</time>
      </trkpt>
      <trkpt lat="44.58514" lon="4.65134">
        <ele>494.20001220703</ele>
        <time>2020-06-14T15:03:02.000Z</time>
      </trkpt>
      <trkpt lat="44.58523" lon="4.65138">
        <ele>494.20001220703</ele>
        <time>2020-06-14T15:03:05.000Z</time>
      </trkpt>
      <trkpt lat="44.58542" lon="4.65144">
        <ele>494.39999389648</ele>
        <time>2020-06-14T15:03:11.000Z</time>
      </trkpt>
      <trkpt lat="44.58561" lon="4.6515">
        <ele>494.60000610352</ele>
        <time>2020-06-14T15:03:17.000Z</time>
      </trkpt>
      <trkpt lat="44.58586" lon="4.65158">
        <ele>494.39999389648</ele>
        <time>2020-06-14T15:03:23.000Z</time>
      </trkpt>
      <trkpt lat="44.58613" lon="4.65165">
        <ele>494.20001220703</ele>
        <time>2020-06-14T15:03:29.000Z</time>
      </trkpt>
      <trkpt lat="44.58624" lon="4.65166">
        <ele>493.39999389648</ele>
        <time>2020-06-14T15:03:32.000Z</time>
      </trkpt>
      <trkpt lat="44.58633" lon="4.6517">
        <ele>492.20001220703</ele>
        <time>2020-06-14T15:03:34.000Z</time>
      </trkpt>
      <trkpt lat="44.58641" lon="4.65176">
        <ele>491.20001220703</ele>
        <time>2020-06-14T15:03:36.000Z</time>
      </trkpt>
      <trkpt lat="44.58645" lon="4.6518">
        <ele>491</ele>
        <time>2020-06-14T15:03:37.000Z</time>
      </trkpt>
      <trkpt lat="44.58655" lon="4.65192">
        <ele>490.39999389648</ele>
        <time>2020-06-14T15:03:40.000Z</time>
      </trkpt>
      <trkpt lat="44.58659" lon="4.65197">
        <ele>490.20001220703</ele>
        <time>2020-06-14T15:03:41.000Z</time>
      </trkpt>
      <trkpt lat="44.58664" lon="4.65208">
        <ele>489.79998779297</ele>
        <time>2020-06-14T15:03:43.000Z</time>
      </trkpt>
      <trkpt lat="44.5867" lon="4.65217">
        <ele>489.39999389648</ele>
        <time>2020-06-14T15:03:45.000Z</time>
      </trkpt>
      <trkpt lat="44.58675" lon="4.65225">
        <ele>488.60000610352</ele>
        <time>2020-06-14T15:03:47.000Z</time>
      </trkpt>
      <trkpt lat="44.58683" lon="4.65242">
        <ele>488</ele>
        <time>2020-06-14T15:03:51.000Z</time>
      </trkpt>
      <trkpt lat="44.58689" lon="4.65267">
        <ele>487.39999389648</ele>
        <time>2020-06-14T15:03:55.000Z</time>
      </trkpt>
      <trkpt lat="44.58691" lon="4.65274">
        <ele>487.39999389648</ele>
        <time>2020-06-14T15:03:56.000Z</time>
      </trkpt>
      <trkpt lat="44.587" lon="4.65294">
        <ele>487</ele>
        <time>2020-06-14T15:03:59.000Z</time>
      </trkpt>
      <trkpt lat="44.58702" lon="4.65298">
        <ele>487</ele>
        <time>2020-06-14T15:04:00.000Z</time>
      </trkpt>
      <trkpt lat="44.58706" lon="4.653">
        <ele>486.60000610352</ele>
        <time>2020-06-14T15:04:03.000Z</time>
      </trkpt>
      <trkpt lat="44.58709" lon="4.65304">
        <ele>485</ele>
        <time>2020-06-14T15:04:07.000Z</time>
      </trkpt>
      <trkpt lat="44.58712" lon="4.65311">
        <ele>484.39999389648</ele>
        <time>2020-06-14T15:04:11.000Z</time>
      </trkpt>
      <trkpt lat="44.58717" lon="4.65328">
        <ele>484.20001220703</ele>
        <time>2020-06-14T15:04:15.000Z</time>
      </trkpt>
      <trkpt lat="44.58728" lon="4.65356">
        <ele>484</ele>
        <time>2020-06-14T15:04:21.000Z</time>
      </trkpt>
      <trkpt lat="44.5873" lon="4.65362">
        <ele>483.79998779297</ele>
        <time>2020-06-14T15:04:22.000Z</time>
      </trkpt>
      <trkpt lat="44.58743" lon="4.65399">
        <ele>483</ele>
        <time>2020-06-14T15:04:28.000Z</time>
      </trkpt>
      <trkpt lat="44.58744" lon="4.65405">
        <ele>482.79998779297</ele>
        <time>2020-06-14T15:04:29.000Z</time>
      </trkpt>
      <trkpt lat="44.58747" lon="4.65417">
        <ele>482.79998779297</ele>
        <time>2020-06-14T15:04:31.000Z</time>
      </trkpt>
      <trkpt lat="44.58752" lon="4.65435">
        <ele>482.20001220703</ele>
        <time>2020-06-14T15:04:34.000Z</time>
      </trkpt>
      <trkpt lat="44.58757" lon="4.6545">
        <ele>481.79998779297</ele>
        <time>2020-06-14T15:04:37.000Z</time>
      </trkpt>
      <trkpt lat="44.58758" lon="4.65452">
        <ele>481.20001220703</ele>
        <time>2020-06-14T15:04:38.000Z</time>
      </trkpt>
      <trkpt lat="44.58759" lon="4.65453">
        <ele>480</ele>
        <time>2020-06-14T15:04:39.000Z</time>
      </trkpt>
      <trkpt lat="44.5876" lon="4.65454">
        <ele>478.39999389648</ele>
        <time>2020-06-14T15:04:41.000Z</time>
      </trkpt>
      <trkpt lat="44.58761" lon="4.65457">
        <ele>475.79998779297</ele>
        <time>2020-06-14T15:04:46.000Z</time>
      </trkpt>
      <trkpt lat="44.58762" lon="4.65458">
        <ele>475.39999389648</ele>
        <time>2020-06-14T15:04:49.000Z</time>
      </trkpt>
      <trkpt lat="44.58765" lon="4.65464">
        <ele>475.39999389648</ele>
        <time>2020-06-14T15:04:59.000Z</time>
      </trkpt>
      <trkpt lat="44.58767" lon="4.6547">
        <ele>475.20001220703</ele>
        <time>2020-06-14T15:05:01.000Z</time>
      </trkpt>
      <trkpt lat="44.58776" lon="4.65492">
        <ele>475.20001220703</ele>
        <time>2020-06-14T15:05:07.000Z</time>
      </trkpt>
      <trkpt lat="44.58784" lon="4.65507">
        <ele>474.79998779297</ele>
        <time>2020-06-14T15:05:11.000Z</time>
      </trkpt>
      <trkpt lat="44.58786" lon="4.6551">
        <ele>474.60000610352</ele>
        <time>2020-06-14T15:05:12.000Z</time>
      </trkpt>
      <trkpt lat="44.58788" lon="4.65512">
        <ele>474.60000610352</ele>
        <time>2020-06-14T15:05:13.000Z</time>
      </trkpt>
      <trkpt lat="44.58799" lon="4.65525">
        <ele>474.39999389648</ele>
        <time>2020-06-14T15:05:17.000Z</time>
      </trkpt>
      <trkpt lat="44.58803" lon="4.65529">
        <ele>474.20001220703</ele>
        <time>2020-06-14T15:05:18.000Z</time>
      </trkpt>
      <trkpt lat="44.5881" lon="4.65536">
        <ele>474</ele>
        <time>2020-06-14T15:05:20.000Z</time>
      </trkpt>
      <trkpt lat="44.58819" lon="4.65545">
        <ele>473.39999389648</ele>
        <time>2020-06-14T15:05:22.000Z</time>
      </trkpt>
      <trkpt lat="44.58823" lon="4.65566">
        <ele>472</ele>
        <time>2020-06-14T15:05:25.000Z</time>
      </trkpt>
      <trkpt lat="44.58818" lon="4.65582">
        <ele>470.39999389648</ele>
        <time>2020-06-14T15:05:27.000Z</time>
      </trkpt>
      <trkpt lat="44.58816" lon="4.65589">
        <ele>469.79998779297</ele>
        <time>2020-06-14T15:05:28.000Z</time>
      </trkpt>
      <trkpt lat="44.58815" lon="4.65595">
        <ele>469</ele>
        <time>2020-06-14T15:05:29.000Z</time>
      </trkpt>
      <trkpt lat="44.58812" lon="4.65607">
        <ele>467.39999389648</ele>
        <time>2020-06-14T15:05:31.000Z</time>
      </trkpt>
      <trkpt lat="44.58813" lon="4.65612">
        <ele>466.79998779297</ele>
        <time>2020-06-14T15:05:32.000Z</time>
      </trkpt>
      <trkpt lat="44.58814" lon="4.65617">
        <ele>466.39999389648</ele>
        <time>2020-06-14T15:05:33.000Z</time>
      </trkpt>
      <trkpt lat="44.58819" lon="4.65629">
        <ele>464.79998779297</ele>
        <time>2020-06-14T15:05:35.000Z</time>
      </trkpt>
      <trkpt lat="44.58822" lon="4.65634">
        <ele>464.39999389648</ele>
        <time>2020-06-14T15:05:36.000Z</time>
      </trkpt>
      <trkpt lat="44.58826" lon="4.65639">
        <ele>463.79998779297</ele>
        <time>2020-06-14T15:05:37.000Z</time>
      </trkpt>
      <trkpt lat="44.58834" lon="4.65647">
        <ele>462.60000610352</ele>
        <time>2020-06-14T15:05:39.000Z</time>
      </trkpt>
      <trkpt lat="44.5884" lon="4.65653">
        <ele>461.60000610352</ele>
        <time>2020-06-14T15:05:41.000Z</time>
      </trkpt>
      <trkpt lat="44.58845" lon="4.65658">
        <ele>460</ele>
        <time>2020-06-14T15:05:44.000Z</time>
      </trkpt>
      <trkpt lat="44.58846" lon="4.6566">
        <ele>459.60000610352</ele>
        <time>2020-06-14T15:05:45.000Z</time>
      </trkpt>
      <trkpt lat="44.58847" lon="4.65662">
        <ele>459.39999389648</ele>
        <time>2020-06-14T15:05:49.000Z</time>
      </trkpt>
      <trkpt lat="44.58847" lon="4.65665">
        <ele>459.60000610352</ele>
        <time>2020-06-14T15:05:58.000Z</time>
      </trkpt>
      <trkpt lat="44.58848" lon="4.65673">
        <ele>460</ele>
        <time>2020-06-14T15:06:06.000Z</time>
      </trkpt>
      <trkpt lat="44.58848" lon="4.65674">
        <ele>460.39999389648</ele>
        <time>2020-06-14T15:06:09.000Z</time>
      </trkpt>
      <trkpt lat="44.58846" lon="4.65676">
        <ele>460.39999389648</ele>
        <time>2020-06-14T15:06:14.000Z</time>
      </trkpt>
      <trkpt lat="44.58841" lon="4.65678">
        <ele>460.60000610352</ele>
        <time>2020-06-14T15:06:18.000Z</time>
      </trkpt>
      <trkpt lat="44.58837" lon="4.6568">
        <ele>460.79998779297</ele>
        <time>2020-06-14T15:06:21.000Z</time>
      </trkpt>
      <trkpt lat="44.58832" lon="4.65681">
        <ele>461</ele>
        <time>2020-06-14T15:06:24.000Z</time>
      </trkpt>
      <trkpt lat="44.5882" lon="4.65687">
        <ele>461.39999389648</ele>
        <time>2020-06-14T15:06:30.000Z</time>
      </trkpt>
      <trkpt lat="44.58813" lon="4.65691">
        <ele>461.39999389648</ele>
        <time>2020-06-14T15:06:33.000Z</time>
      </trkpt>
      <trkpt lat="44.58803" lon="4.65699">
        <ele>461.39999389648</ele>
        <time>2020-06-14T15:06:36.000Z</time>
      </trkpt>
      <trkpt lat="44.58789" lon="4.65705">
        <ele>460.39999389648</ele>
        <time>2020-06-14T15:06:41.000Z</time>
      </trkpt>
      <trkpt lat="44.58778" lon="4.6571">
        <ele>459.79998779297</ele>
        <time>2020-06-14T15:06:46.000Z</time>
      </trkpt>
      <trkpt lat="44.5877" lon="4.65714">
        <ele>459.79998779297</ele>
        <time>2020-06-14T15:06:51.000Z</time>
      </trkpt>
      <trkpt lat="44.58759" lon="4.65719">
        <ele>461</ele>
        <time>2020-06-14T15:06:58.000Z</time>
      </trkpt>
      <trkpt lat="44.58754" lon="4.65724">
        <ele>461.79998779297</ele>
        <time>2020-06-14T15:07:01.000Z</time>
      </trkpt>
      <trkpt lat="44.5875" lon="4.65731">
        <ele>462.20001220703</ele>
        <time>2020-06-14T15:07:04.000Z</time>
      </trkpt>
      <trkpt lat="44.58743" lon="4.65743">
        <ele>462.79998779297</ele>
        <time>2020-06-14T15:07:09.000Z</time>
      </trkpt>
      <trkpt lat="44.5874" lon="4.65747">
        <ele>463</ele>
        <time>2020-06-14T15:07:11.000Z</time>
      </trkpt>
      <trkpt lat="44.58728" lon="4.65764">
        <ele>463.60000610352</ele>
        <time>2020-06-14T15:07:19.000Z</time>
      </trkpt>
      <trkpt lat="44.58722" lon="4.65771">
        <ele>463.79998779297</ele>
        <time>2020-06-14T15:07:22.000Z</time>
      </trkpt>
      <trkpt lat="44.58717" lon="4.65778">
        <ele>464</ele>
        <time>2020-06-14T15:07:25.000Z</time>
      </trkpt>
      <trkpt lat="44.587" lon="4.658">
        <ele>464.20001220703</ele>
        <time>2020-06-14T15:07:34.000Z</time>
      </trkpt>
      <trkpt lat="44.58686" lon="4.65818">
        <ele>464.39999389648</ele>
        <time>2020-06-14T15:07:42.000Z</time>
      </trkpt>
      <trkpt lat="44.58672" lon="4.65838">
        <ele>464.79998779297</ele>
        <time>2020-06-14T15:07:51.000Z</time>
      </trkpt>
      <trkpt lat="44.58671" lon="4.6584">
        <ele>464.79998779297</ele>
        <time>2020-06-14T15:07:52.000Z</time>
      </trkpt>
      <trkpt lat="44.58662" lon="4.6585">
        <ele>465.79998779297</ele>
        <time>2020-06-14T15:07:58.000Z</time>
      </trkpt>
      <trkpt lat="44.58655" lon="4.65855">
        <ele>467.20001220703</ele>
        <time>2020-06-14T15:08:02.000Z</time>
      </trkpt>
      <trkpt lat="44.58648" lon="4.6586">
        <ele>468.39999389648</ele>
        <time>2020-06-14T15:08:06.000Z</time>
      </trkpt>
      <trkpt lat="44.58642" lon="4.65866">
        <ele>468.60000610352</ele>
        <time>2020-06-14T15:08:09.000Z</time>
      </trkpt>
      <trkpt lat="44.58634" lon="4.65885">
        <ele>468.60000610352</ele>
        <time>2020-06-14T15:08:15.000Z</time>
      </trkpt>
      <trkpt lat="44.58632" lon="4.65909">
        <ele>468.39999389648</ele>
        <time>2020-06-14T15:08:21.000Z</time>
      </trkpt>
      <trkpt lat="44.58632" lon="4.65914">
        <ele>468.39999389648</ele>
        <time>2020-06-14T15:08:22.000Z</time>
      </trkpt>
      <trkpt lat="44.5863" lon="4.65932">
        <ele>468.20001220703</ele>
        <time>2020-06-14T15:08:25.000Z</time>
      </trkpt>
      <trkpt lat="44.58628" lon="4.65939">
        <ele>468.20001220703</ele>
        <time>2020-06-14T15:08:26.000Z</time>
      </trkpt>
      <trkpt lat="44.58624" lon="4.65953">
        <ele>468</ele>
        <time>2020-06-14T15:08:28.000Z</time>
      </trkpt>
      <trkpt lat="44.58617" lon="4.65967">
        <ele>467.20001220703</ele>
        <time>2020-06-14T15:08:30.000Z</time>
      </trkpt>
      <trkpt lat="44.58613" lon="4.65973">
        <ele>466.79998779297</ele>
        <time>2020-06-14T15:08:31.000Z</time>
      </trkpt>
      <trkpt lat="44.586" lon="4.65988">
        <ele>466</ele>
        <time>2020-06-14T15:08:34.000Z</time>
      </trkpt>
      <trkpt lat="44.58596" lon="4.65991">
        <ele>465.39999389648</ele>
        <time>2020-06-14T15:08:35.000Z</time>
      </trkpt>
      <trkpt lat="44.58591" lon="4.65995">
        <ele>464.79998779297</ele>
        <time>2020-06-14T15:08:36.000Z</time>
      </trkpt>
      <trkpt lat="44.58581" lon="4.66">
        <ele>463.20001220703</ele>
        <time>2020-06-14T15:08:38.000Z</time>
      </trkpt>
      <trkpt lat="44.58576" lon="4.66003">
        <ele>463</ele>
        <time>2020-06-14T15:08:39.000Z</time>
      </trkpt>
      <trkpt lat="44.58554" lon="4.66016">
        <ele>462.39999389648</ele>
        <time>2020-06-14T15:08:43.000Z</time>
      </trkpt>
      <trkpt lat="44.58548" lon="4.66019">
        <ele>462.39999389648</ele>
        <time>2020-06-14T15:08:44.000Z</time>
      </trkpt>
      <trkpt lat="44.58542" lon="4.66023">
        <ele>462.20001220703</ele>
        <time>2020-06-14T15:08:45.000Z</time>
      </trkpt>
      <trkpt lat="44.5853" lon="4.66032">
        <ele>462</ele>
        <time>2020-06-14T15:08:47.000Z</time>
      </trkpt>
      <trkpt lat="44.58524" lon="4.66036">
        <ele>461.79998779297</ele>
        <time>2020-06-14T15:08:48.000Z</time>
      </trkpt>
      <trkpt lat="44.58514" lon="4.66043">
        <ele>461</ele>
        <time>2020-06-14T15:08:50.000Z</time>
      </trkpt>
      <trkpt lat="44.58505" lon="4.66048">
        <ele>460.20001220703</ele>
        <time>2020-06-14T15:08:52.000Z</time>
      </trkpt>
      <trkpt lat="44.58501" lon="4.66051">
        <ele>459.79998779297</ele>
        <time>2020-06-14T15:08:53.000Z</time>
      </trkpt>
      <trkpt lat="44.58494" lon="4.66055">
        <ele>458.39999389648</ele>
        <time>2020-06-14T15:08:55.000Z</time>
      </trkpt>
      <trkpt lat="44.58492" lon="4.66056">
        <ele>458</ele>
        <time>2020-06-14T15:08:56.000Z</time>
      </trkpt>
      <trkpt lat="44.5849" lon="4.66057">
        <ele>457.20001220703</ele>
        <time>2020-06-14T15:08:58.000Z</time>
      </trkpt>
      <trkpt lat="44.5849" lon="4.66056">
        <ele>457.20001220703</ele>
        <time>2020-06-14T15:08:59.000Z</time>
      </trkpt>
      <trkpt lat="44.58489" lon="4.66061">
        <ele>456.20001220703</ele>
        <time>2020-06-14T15:10:22.000Z</time>
      </trkpt>
      <trkpt lat="44.58493" lon="4.66063">
        <ele>456.20001220703</ele>
        <time>2020-06-14T15:10:26.000Z</time>
      </trkpt>
      <trkpt lat="44.58495" lon="4.66062">
        <ele>456.20001220703</ele>
        <time>2020-06-14T15:10:28.000Z</time>
      </trkpt>
      <trkpt lat="44.58498" lon="4.66061">
        <ele>456.20001220703</ele>
        <time>2020-06-14T15:10:30.000Z</time>
      </trkpt>
      <trkpt lat="44.58502" lon="4.6606">
        <ele>456.60000610352</ele>
        <time>2020-06-14T15:10:33.000Z</time>
      </trkpt>
      <trkpt lat="44.58504" lon="4.66061">
        <ele>456.79998779297</ele>
        <time>2020-06-14T15:10:35.000Z</time>
      </trkpt>
      <trkpt lat="44.58513" lon="4.66062">
        <ele>457.39999389648</ele>
        <time>2020-06-14T15:10:41.000Z</time>
      </trkpt>
      <trkpt lat="44.58514" lon="4.66062">
        <ele>457.39999389648</ele>
        <time>2020-06-14T15:10:42.000Z</time>
      </trkpt>
      <trkpt lat="44.58524" lon="4.6606">
        <ele>458.39999389648</ele>
        <time>2020-06-14T15:10:50.000Z</time>
      </trkpt>
      <trkpt lat="44.58528" lon="4.6606">
        <ele>459.60000610352</ele>
        <time>2020-06-14T15:10:53.000Z</time>
      </trkpt>
      <trkpt lat="44.58533" lon="4.66058">
        <ele>460.60000610352</ele>
        <time>2020-06-14T15:10:57.000Z</time>
      </trkpt>
      <trkpt lat="44.5854" lon="4.66059">
        <ele>461.60000610352</ele>
        <time>2020-06-14T15:11:03.000Z</time>
      </trkpt>
      <trkpt lat="44.58545" lon="4.66057">
        <ele>461.79998779297</ele>
        <time>2020-06-14T15:11:07.000Z</time>
      </trkpt>
      <trkpt lat="44.58547" lon="4.66057">
        <ele>462</ele>
        <time>2020-06-14T15:11:09.000Z</time>
      </trkpt>
      <trkpt lat="44.58548" lon="4.66058">
        <ele>462.20001220703</ele>
        <time>2020-06-14T15:11:10.000Z</time>
      </trkpt>
      <trkpt lat="44.58551" lon="4.66059">
        <ele>462.60000610352</ele>
        <time>2020-06-14T15:11:13.000Z</time>
      </trkpt>
      <trkpt lat="44.58553" lon="4.6606">
        <ele>463</ele>
        <time>2020-06-14T15:11:15.000Z</time>
      </trkpt>
      <trkpt lat="44.58554" lon="4.6606">
        <ele>463.20001220703</ele>
        <time>2020-06-14T15:11:16.000Z</time>
      </trkpt>
      <trkpt lat="44.5856" lon="4.66061">
        <ele>464</ele>
        <time>2020-06-14T15:11:21.000Z</time>
      </trkpt>
      <trkpt lat="44.58562" lon="4.66061">
        <ele>464.39999389648</ele>
        <time>2020-06-14T15:11:23.000Z</time>
      </trkpt>
      <trkpt lat="44.58564" lon="4.66061">
        <ele>465.20001220703</ele>
        <time>2020-06-14T15:11:25.000Z</time>
      </trkpt>
      <trkpt lat="44.58571" lon="4.66063">
        <ele>466.20001220703</ele>
        <time>2020-06-14T15:11:30.000Z</time>
      </trkpt>
      <trkpt lat="44.58572" lon="4.66064">
        <ele>466.20001220703</ele>
        <time>2020-06-14T15:11:31.000Z</time>
      </trkpt>
      <trkpt lat="44.58576" lon="4.66071">
        <ele>466.60000610352</ele>
        <time>2020-06-14T15:11:37.000Z</time>
      </trkpt>
      <trkpt lat="44.58578" lon="4.66073">
        <ele>466.60000610352</ele>
        <time>2020-06-14T15:11:41.000Z</time>
      </trkpt>
      <trkpt lat="44.58578" lon="4.66073">
        <ele>467</ele>
        <time>2020-06-14T15:11:59.000Z</time>
      </trkpt>
      <trkpt lat="44.58587" lon="4.66082">
        <ele>467</ele>
        <time>2020-06-14T15:12:05.000Z</time>
      </trkpt>
      <trkpt lat="44.58591" lon="4.66085">
        <ele>466.79998779297</ele>
        <time>2020-06-14T15:12:09.000Z</time>
      </trkpt>
      <trkpt lat="44.58592" lon="4.66086">
        <ele>466.79998779297</ele>
        <time>2020-06-14T15:12:14.000Z</time>
      </trkpt>
      <trkpt lat="44.58593" lon="4.66086">
        <ele>466.60000610352</ele>
        <time>2020-06-14T15:12:17.000Z</time>
      </trkpt>
      <trkpt lat="44.58594" lon="4.66087">
        <ele>466.60000610352</ele>
        <time>2020-06-14T15:12:19.000Z</time>
      </trkpt>
      <trkpt lat="44.58595" lon="4.66087">
        <ele>466.60000610352</ele>
        <time>2020-06-14T15:12:20.000Z</time>
      </trkpt>
      <trkpt lat="44.58598" lon="4.66089">
        <ele>466.39999389648</ele>
        <time>2020-06-14T15:12:27.000Z</time>
      </trkpt>
      <trkpt lat="44.58601" lon="4.66093">
        <ele>465.39999389648</ele>
        <time>2020-06-14T15:13:02.000Z</time>
      </trkpt>
      <trkpt lat="44.58605" lon="4.66098">
        <ele>465.20001220703</ele>
        <time>2020-06-14T15:13:04.000Z</time>
      </trkpt>
      <trkpt lat="44.58611" lon="4.66103">
        <ele>465.20001220703</ele>
        <time>2020-06-14T15:13:06.000Z</time>
      </trkpt>
      <trkpt lat="44.58628" lon="4.66126">
        <ele>464.20001220703</ele>
        <time>2020-06-14T15:13:13.000Z</time>
      </trkpt>
      <trkpt lat="44.58633" lon="4.66136">
        <ele>463</ele>
        <time>2020-06-14T15:13:15.000Z</time>
      </trkpt>
      <trkpt lat="44.58641" lon="4.66146">
        <ele>462.39999389648</ele>
        <time>2020-06-14T15:13:18.000Z</time>
      </trkpt>
      <trkpt lat="44.5865" lon="4.66162">
        <ele>462</ele>
        <time>2020-06-14T15:13:23.000Z</time>
      </trkpt>
      <trkpt lat="44.58659" lon="4.66176">
        <ele>461.79998779297</ele>
        <time>2020-06-14T15:13:26.000Z</time>
      </trkpt>
      <trkpt lat="44.58671" lon="4.66187">
        <ele>461.60000610352</ele>
        <time>2020-06-14T15:13:29.000Z</time>
      </trkpt>
      <trkpt lat="44.58676" lon="4.66191">
        <ele>461.60000610352</ele>
        <time>2020-06-14T15:13:30.000Z</time>
      </trkpt>
      <trkpt lat="44.58695" lon="4.6621">
        <ele>461.39999389648</ele>
        <time>2020-06-14T15:13:34.000Z</time>
      </trkpt>
      <trkpt lat="44.58711" lon="4.66228">
        <ele>460.79998779297</ele>
        <time>2020-06-14T15:13:38.000Z</time>
      </trkpt>
      <trkpt lat="44.58715" lon="4.66233">
        <ele>460.60000610352</ele>
        <time>2020-06-14T15:13:39.000Z</time>
      </trkpt>
      <trkpt lat="44.58725" lon="4.66244">
        <ele>459.39999389648</ele>
        <time>2020-06-14T15:13:42.000Z</time>
      </trkpt>
      <trkpt lat="44.58731" lon="4.66251">
        <ele>459</ele>
        <time>2020-06-14T15:13:44.000Z</time>
      </trkpt>
      <trkpt lat="44.58749" lon="4.6627">
        <ele>459</ele>
        <time>2020-06-14T15:13:51.000Z</time>
      </trkpt>
      <trkpt lat="44.58764" lon="4.66285">
        <ele>460.60000610352</ele>
        <time>2020-06-14T15:13:57.000Z</time>
      </trkpt>
      <trkpt lat="44.58766" lon="4.66287">
        <ele>460.79998779297</ele>
        <time>2020-06-14T15:13:58.000Z</time>
      </trkpt>
      <trkpt lat="44.58783" lon="4.66311">
        <ele>461</ele>
        <time>2020-06-14T15:14:06.000Z</time>
      </trkpt>
      <trkpt lat="44.58796" lon="4.66332">
        <ele>461.39999389648</ele>
        <time>2020-06-14T15:14:13.000Z</time>
      </trkpt>
      <trkpt lat="44.588" lon="4.66337">
        <ele>461.60000610352</ele>
        <time>2020-06-14T15:14:15.000Z</time>
      </trkpt>
      <trkpt lat="44.58809" lon="4.66351">
        <ele>462.60000610352</ele>
        <time>2020-06-14T15:14:20.000Z</time>
      </trkpt>
      <trkpt lat="44.58811" lon="4.66354">
        <ele>462.79998779297</ele>
        <time>2020-06-14T15:14:21.000Z</time>
      </trkpt>
      <trkpt lat="44.58816" lon="4.66374">
        <ele>463.20001220703</ele>
        <time>2020-06-14T15:14:27.000Z</time>
      </trkpt>
      <trkpt lat="44.58817" lon="4.66382">
        <ele>463.79998779297</ele>
        <time>2020-06-14T15:14:29.000Z</time>
      </trkpt>
      <trkpt lat="44.58821" lon="4.66398">
        <ele>464.39999389648</ele>
        <time>2020-06-14T15:14:33.000Z</time>
      </trkpt>
      <trkpt lat="44.58832" lon="4.66428">
        <ele>464.60000610352</ele>
        <time>2020-06-14T15:14:39.000Z</time>
      </trkpt>
      <trkpt lat="44.58843" lon="4.66442">
        <ele>464.39999389648</ele>
        <time>2020-06-14T15:14:43.000Z</time>
      </trkpt>
      <trkpt lat="44.58856" lon="4.66464">
        <ele>463.39999389648</ele>
        <time>2020-06-14T15:14:49.000Z</time>
      </trkpt>
      <trkpt lat="44.58868" lon="4.66491">
        <ele>463.20001220703</ele>
        <time>2020-06-14T15:14:54.000Z</time>
      </trkpt>
      <trkpt lat="44.5888" lon="4.66509">
        <ele>463.20001220703</ele>
        <time>2020-06-14T15:14:58.000Z</time>
      </trkpt>
      <trkpt lat="44.58887" lon="4.66515">
        <ele>462.79998779297</ele>
        <time>2020-06-14T15:15:02.000Z</time>
      </trkpt>
      <trkpt lat="44.58889" lon="4.66515">
        <ele>462.60000610352</ele>
        <time>2020-06-14T15:15:03.000Z</time>
      </trkpt>
      <trkpt lat="44.58891" lon="4.66511">
        <ele>462.60000610352</ele>
        <time>2020-06-14T15:15:06.000Z</time>
      </trkpt>
      <trkpt lat="44.58894" lon="4.66507">
        <ele>462.60000610352</ele>
        <time>2020-06-14T15:15:11.000Z</time>
      </trkpt>
      <trkpt lat="44.58892" lon="4.66511">
        <ele>463.20001220703</ele>
        <time>2020-06-14T15:15:17.000Z</time>
      </trkpt>
      <trkpt lat="44.58889" lon="4.66515">
        <ele>463</ele>
        <time>2020-06-14T15:15:19.000Z</time>
      </trkpt>
      <trkpt lat="44.58886" lon="4.66521">
        <ele>463</ele>
        <time>2020-06-14T15:15:21.000Z</time>
      </trkpt>
      <trkpt lat="44.58888" lon="4.6653">
        <ele>463.20001220703</ele>
        <time>2020-06-14T15:15:24.000Z</time>
      </trkpt>
      <trkpt lat="44.58891" lon="4.66532">
        <ele>463</ele>
        <time>2020-06-14T15:15:26.000Z</time>
      </trkpt>
      <trkpt lat="44.58897" lon="4.66533">
        <ele>462.39999389648</ele>
        <time>2020-06-14T15:15:29.000Z</time>
      </trkpt>
      <trkpt lat="44.58906" lon="4.66528">
        <ele>461.60000610352</ele>
        <time>2020-06-14T15:15:33.000Z</time>
      </trkpt>
      <trkpt lat="44.58914" lon="4.66522">
        <ele>461.39999389648</ele>
        <time>2020-06-14T15:15:36.000Z</time>
      </trkpt>
      <trkpt lat="44.58928" lon="4.66506">
        <ele>460.79998779297</ele>
        <time>2020-06-14T15:15:43.000Z</time>
      </trkpt>
      <trkpt lat="44.58937" lon="4.66498">
        <ele>460.60000610352</ele>
        <time>2020-06-14T15:15:47.000Z</time>
      </trkpt>
      <trkpt lat="44.58938" lon="4.66494">
        <ele>460.60000610352</ele>
        <time>2020-06-14T15:15:48.000Z</time>
      </trkpt>
      <trkpt lat="44.58946" lon="4.66482">
        <ele>460.39999389648</ele>
        <time>2020-06-14T15:15:52.000Z</time>
      </trkpt>
      <trkpt lat="44.58948" lon="4.6648">
        <ele>460.39999389648</ele>
        <time>2020-06-14T15:15:53.000Z</time>
      </trkpt>
      <trkpt lat="44.58957" lon="4.66474">
        <ele>459.60000610352</ele>
        <time>2020-06-14T15:15:56.000Z</time>
      </trkpt>
      <trkpt lat="44.58961" lon="4.66472">
        <ele>459.39999389648</ele>
        <time>2020-06-14T15:15:57.000Z</time>
      </trkpt>
      <trkpt lat="44.58977" lon="4.66458">
        <ele>458.20001220703</ele>
        <time>2020-06-14T15:16:02.000Z</time>
      </trkpt>
      <trkpt lat="44.58984" lon="4.66451">
        <ele>457</ele>
        <time>2020-06-14T15:16:06.000Z</time>
      </trkpt>
      <trkpt lat="44.58988" lon="4.66447">
        <ele>456.79998779297</ele>
        <time>2020-06-14T15:16:10.000Z</time>
      </trkpt>
      <trkpt lat="44.58987" lon="4.66448">
        <ele>457.39999389648</ele>
        <time>2020-06-14T15:16:44.000Z</time>
      </trkpt>
      <trkpt lat="44.58985" lon="4.66449">
        <ele>457.39999389648</ele>
        <time>2020-06-14T15:16:45.000Z</time>
      </trkpt>
      <trkpt lat="44.58979" lon="4.66455">
        <ele>457.39999389648</ele>
        <time>2020-06-14T15:16:49.000Z</time>
      </trkpt>
      <trkpt lat="44.58975" lon="4.66458">
        <ele>457.39999389648</ele>
        <time>2020-06-14T15:16:51.000Z</time>
      </trkpt>
      <trkpt lat="44.58966" lon="4.66464">
        <ele>456.60000610352</ele>
        <time>2020-06-14T15:16:56.000Z</time>
      </trkpt>
      <trkpt lat="44.58959" lon="4.66469">
        <ele>456.39999389648</ele>
        <time>2020-06-14T15:17:01.000Z</time>
      </trkpt>
      <trkpt lat="44.58949" lon="4.66474">
        <ele>457.20001220703</ele>
        <time>2020-06-14T15:17:08.000Z</time>
      </trkpt>
      <trkpt lat="44.58948" lon="4.66476">
        <ele>457.39999389648</ele>
        <time>2020-06-14T15:17:10.000Z</time>
      </trkpt>
      <trkpt lat="44.58949" lon="4.6648">
        <ele>458</ele>
        <time>2020-06-14T15:17:12.000Z</time>
      </trkpt>
      <trkpt lat="44.58949" lon="4.66481">
        <ele>458</ele>
        <time>2020-06-14T15:17:13.000Z</time>
      </trkpt>
      <trkpt lat="44.58957" lon="4.66491">
        <ele>458.20001220703</ele>
        <time>2020-06-14T15:17:19.000Z</time>
      </trkpt>
      <trkpt lat="44.58959" lon="4.66493">
        <ele>458.20001220703</ele>
        <time>2020-06-14T15:17:20.000Z</time>
      </trkpt>
      <trkpt lat="44.58964" lon="4.665">
        <ele>457.60000610352</ele>
        <time>2020-06-14T15:17:24.000Z</time>
      </trkpt>
      <trkpt lat="44.58967" lon="4.66505">
        <ele>456.60000610352</ele>
        <time>2020-06-14T15:17:26.000Z</time>
      </trkpt>
      <trkpt lat="44.58969" lon="4.66512">
        <ele>455.20001220703</ele>
        <time>2020-06-14T15:17:29.000Z</time>
      </trkpt>
      <trkpt lat="44.5897" lon="4.66512">
        <ele>454.79998779297</ele>
        <time>2020-06-14T15:17:30.000Z</time>
      </trkpt>
      <trkpt lat="44.58969" lon="4.66512">
        <ele>454.39999389648</ele>
        <time>2020-06-14T15:17:31.000Z</time>
      </trkpt>
      <trkpt lat="44.5897" lon="4.66515">
        <ele>452.39999389648</ele>
        <time>2020-06-14T15:17:33.000Z</time>
      </trkpt>
      <trkpt lat="44.58971" lon="4.66521">
        <ele>450.79998779297</ele>
        <time>2020-06-14T15:17:35.000Z</time>
      </trkpt>
      <trkpt lat="44.58972" lon="4.66529">
        <ele>449.79998779297</ele>
        <time>2020-06-14T15:17:37.000Z</time>
      </trkpt>
      <trkpt lat="44.58974" lon="4.66539">
        <ele>449.20001220703</ele>
        <time>2020-06-14T15:17:40.000Z</time>
      </trkpt>
      <trkpt lat="44.58975" lon="4.66544">
        <ele>448.60000610352</ele>
        <time>2020-06-14T15:17:42.000Z</time>
      </trkpt>
      <trkpt lat="44.58977" lon="4.66548">
        <ele>447.60000610352</ele>
        <time>2020-06-14T15:17:44.000Z</time>
      </trkpt>
      <trkpt lat="44.58978" lon="4.66549">
        <ele>447</ele>
        <time>2020-06-14T15:17:45.000Z</time>
      </trkpt>
      <trkpt lat="44.58979" lon="4.66551">
        <ele>446.20001220703</ele>
        <time>2020-06-14T15:17:46.000Z</time>
      </trkpt>
      <trkpt lat="44.58981" lon="4.66556">
        <ele>444.60000610352</ele>
        <time>2020-06-14T15:17:48.000Z</time>
      </trkpt>
      <trkpt lat="44.58985" lon="4.6656">
        <ele>442.79998779297</ele>
        <time>2020-06-14T15:17:50.000Z</time>
      </trkpt>
      <trkpt lat="44.58986" lon="4.66562">
        <ele>441.79998779297</ele>
        <time>2020-06-14T15:17:51.000Z</time>
      </trkpt>
      <trkpt lat="44.58988" lon="4.66564">
        <ele>441</ele>
        <time>2020-06-14T15:17:52.000Z</time>
      </trkpt>
      <trkpt lat="44.58992" lon="4.66569">
        <ele>439.20001220703</ele>
        <time>2020-06-14T15:17:54.000Z</time>
      </trkpt>
      <trkpt lat="44.58995" lon="4.66572">
        <ele>437.79998779297</ele>
        <time>2020-06-14T15:17:56.000Z</time>
      </trkpt>
      <trkpt lat="44.58997" lon="4.66573">
        <ele>436.60000610352</ele>
        <time>2020-06-14T15:17:57.000Z</time>
      </trkpt>
      <trkpt lat="44.58999" lon="4.66575">
        <ele>435</ele>
        <time>2020-06-14T15:17:59.000Z</time>
      </trkpt>
      <trkpt lat="44.59" lon="4.66577">
        <ele>432.79998779297</ele>
        <time>2020-06-14T15:18:00.000Z</time>
      </trkpt>
      <trkpt lat="44.59001" lon="4.66579">
        <ele>431.60000610352</ele>
        <time>2020-06-14T15:18:01.000Z</time>
      </trkpt>
      <trkpt lat="44.59003" lon="4.66582">
        <ele>430.60000610352</ele>
        <time>2020-06-14T15:18:02.000Z</time>
      </trkpt>
      <trkpt lat="44.59004" lon="4.66584">
        <ele>429.60000610352</ele>
        <time>2020-06-14T15:18:03.000Z</time>
      </trkpt>
      <trkpt lat="44.59007" lon="4.66588">
        <ele>427.79998779297</ele>
        <time>2020-06-14T15:18:05.000Z</time>
      </trkpt>
      <trkpt lat="44.59009" lon="4.6659">
        <ele>426.39999389648</ele>
        <time>2020-06-14T15:18:07.000Z</time>
      </trkpt>
      <trkpt lat="44.59011" lon="4.66593">
        <ele>425.20001220703</ele>
        <time>2020-06-14T15:18:09.000Z</time>
      </trkpt>
      <trkpt lat="44.59015" lon="4.66596">
        <ele>423.39999389648</ele>
        <time>2020-06-14T15:18:11.000Z</time>
      </trkpt>
      <trkpt lat="44.59018" lon="4.666">
        <ele>421.79998779297</ele>
        <time>2020-06-14T15:18:13.000Z</time>
      </trkpt>
      <trkpt lat="44.5902" lon="4.66605">
        <ele>420.39999389648</ele>
        <time>2020-06-14T15:18:15.000Z</time>
      </trkpt>
      <trkpt lat="44.59023" lon="4.66608">
        <ele>418.79998779297</ele>
        <time>2020-06-14T15:18:17.000Z</time>
      </trkpt>
      <trkpt lat="44.59024" lon="4.66611">
        <ele>418</ele>
        <time>2020-06-14T15:18:18.000Z</time>
      </trkpt>
      <trkpt lat="44.59024" lon="4.66614">
        <ele>416.79998779297</ele>
        <time>2020-06-14T15:18:19.000Z</time>
      </trkpt>
      <trkpt lat="44.59025" lon="4.66623">
        <ele>415.20001220703</ele>
        <time>2020-06-14T15:18:21.000Z</time>
      </trkpt>
      <trkpt lat="44.59025" lon="4.66627">
        <ele>414.60000610352</ele>
        <time>2020-06-14T15:18:22.000Z</time>
      </trkpt>
      <trkpt lat="44.59027" lon="4.6663">
        <ele>413.79998779297</ele>
        <time>2020-06-14T15:18:23.000Z</time>
      </trkpt>
      <trkpt lat="44.59028" lon="4.66633">
        <ele>413.39999389648</ele>
        <time>2020-06-14T15:18:24.000Z</time>
      </trkpt>
      <trkpt lat="44.59032" lon="4.66638">
        <ele>412.39999389648</ele>
        <time>2020-06-14T15:18:26.000Z</time>
      </trkpt>
      <trkpt lat="44.59037" lon="4.66643">
        <ele>410</ele>
        <time>2020-06-14T15:18:28.000Z</time>
      </trkpt>
      <trkpt lat="44.59039" lon="4.66646">
        <ele>409.39999389648</ele>
        <time>2020-06-14T15:18:29.000Z</time>
      </trkpt>
      <trkpt lat="44.5904" lon="4.66649">
        <ele>408.79998779297</ele>
        <time>2020-06-14T15:18:30.000Z</time>
      </trkpt>
      <trkpt lat="44.59044" lon="4.66653">
        <ele>407.39999389648</ele>
        <time>2020-06-14T15:18:32.000Z</time>
      </trkpt>
      <trkpt lat="44.59049" lon="4.66656">
        <ele>406</ele>
        <time>2020-06-14T15:18:34.000Z</time>
      </trkpt>
      <trkpt lat="44.59054" lon="4.6666">
        <ele>404.60000610352</ele>
        <time>2020-06-14T15:18:36.000Z</time>
      </trkpt>
      <trkpt lat="44.59058" lon="4.66664">
        <ele>403</ele>
        <time>2020-06-14T15:18:38.000Z</time>
      </trkpt>
      <trkpt lat="44.59062" lon="4.6667">
        <ele>401.20001220703</ele>
        <time>2020-06-14T15:18:40.000Z</time>
      </trkpt>
      <trkpt lat="44.59064" lon="4.66672">
        <ele>400.20001220703</ele>
        <time>2020-06-14T15:18:41.000Z</time>
      </trkpt>
      <trkpt lat="44.59066" lon="4.66673">
        <ele>399.39999389648</ele>
        <time>2020-06-14T15:18:42.000Z</time>
      </trkpt>
      <trkpt lat="44.59068" lon="4.66675">
        <ele>398.39999389648</ele>
        <time>2020-06-14T15:18:43.000Z</time>
      </trkpt>
      <trkpt lat="44.59073" lon="4.66679">
        <ele>396.60000610352</ele>
        <time>2020-06-14T15:18:45.000Z</time>
      </trkpt>
      <trkpt lat="44.59077" lon="4.66684">
        <ele>395.20001220703</ele>
        <time>2020-06-14T15:18:47.000Z</time>
      </trkpt>
      <trkpt lat="44.59079" lon="4.66685">
        <ele>394.60000610352</ele>
        <time>2020-06-14T15:18:48.000Z</time>
      </trkpt>
      <trkpt lat="44.59081" lon="4.66687">
        <ele>394</ele>
        <time>2020-06-14T15:18:49.000Z</time>
      </trkpt>
      <trkpt lat="44.59084" lon="4.66691">
        <ele>392.60000610352</ele>
        <time>2020-06-14T15:18:51.000Z</time>
      </trkpt>
      <trkpt lat="44.59087" lon="4.66695">
        <ele>391</ele>
        <time>2020-06-14T15:18:53.000Z</time>
      </trkpt>
      <trkpt lat="44.59089" lon="4.66697">
        <ele>390.20001220703</ele>
        <time>2020-06-14T15:18:54.000Z</time>
      </trkpt>
      <trkpt lat="44.59091" lon="4.66699">
        <ele>389.60000610352</ele>
        <time>2020-06-14T15:18:55.000Z</time>
      </trkpt>
      <trkpt lat="44.59093" lon="4.66701">
        <ele>388.39999389648</ele>
        <time>2020-06-14T15:18:56.000Z</time>
      </trkpt>
      <trkpt lat="44.59096" lon="4.66704">
        <ele>386.79998779297</ele>
        <time>2020-06-14T15:18:58.000Z</time>
      </trkpt>
      <trkpt lat="44.591" lon="4.66707">
        <ele>385.60000610352</ele>
        <time>2020-06-14T15:19:00.000Z</time>
      </trkpt>
      <trkpt lat="44.59101" lon="4.66708">
        <ele>384.79998779297</ele>
        <time>2020-06-14T15:19:01.000Z</time>
      </trkpt>
      <trkpt lat="44.59103" lon="4.6671">
        <ele>384</ele>
        <time>2020-06-14T15:19:02.000Z</time>
      </trkpt>
      <trkpt lat="44.59107" lon="4.66714">
        <ele>382.39999389648</ele>
        <time>2020-06-14T15:19:04.000Z</time>
      </trkpt>
      <trkpt lat="44.5911" lon="4.66718">
        <ele>381.20001220703</ele>
        <time>2020-06-14T15:19:06.000Z</time>
      </trkpt>
      <trkpt lat="44.59112" lon="4.66719">
        <ele>380.60000610352</ele>
        <time>2020-06-14T15:19:07.000Z</time>
      </trkpt>
      <trkpt lat="44.59114" lon="4.6672">
        <ele>380.20001220703</ele>
        <time>2020-06-14T15:19:08.000Z</time>
      </trkpt>
      <trkpt lat="44.59117" lon="4.66722">
        <ele>378.60000610352</ele>
        <time>2020-06-14T15:19:10.000Z</time>
      </trkpt>
      <trkpt lat="44.5912" lon="4.66726">
        <ele>377.39999389648</ele>
        <time>2020-06-14T15:19:12.000Z</time>
      </trkpt>
      <trkpt lat="44.59121" lon="4.66728">
        <ele>375.79998779297</ele>
        <time>2020-06-14T15:19:14.000Z</time>
      </trkpt>
      <trkpt lat="44.59123" lon="4.66729">
        <ele>374.79998779297</ele>
        <time>2020-06-14T15:19:15.000Z</time>
      </trkpt>
      <trkpt lat="44.59124" lon="4.6673">
        <ele>374.39999389648</ele>
        <time>2020-06-14T15:19:16.000Z</time>
      </trkpt>
      <trkpt lat="44.59126" lon="4.66731">
        <ele>373</ele>
        <time>2020-06-14T15:19:18.000Z</time>
      </trkpt>
      <trkpt lat="44.59126" lon="4.66732">
        <ele>372.39999389648</ele>
        <time>2020-06-14T15:19:19.000Z</time>
      </trkpt>
      <trkpt lat="44.5913" lon="4.66734">
        <ele>367.39999389648</ele>
        <time>2020-06-14T15:19:43.000Z</time>
      </trkpt>
      <trkpt lat="44.59131" lon="4.66735">
        <ele>367.39999389648</ele>
        <time>2020-06-14T15:19:46.000Z</time>
      </trkpt>
      <trkpt lat="44.59131" lon="4.66736">
        <ele>367.20001220703</ele>
        <time>2020-06-14T15:19:52.000Z</time>
      </trkpt>
      <trkpt lat="44.59131" lon="4.66736">
        <ele>366.79998779297</ele>
        <time>2020-06-14T15:19:53.000Z</time>
      </trkpt>
      <trkpt lat="44.59131" lon="4.66737">
        <ele>366</ele>
        <time>2020-06-14T15:19:54.000Z</time>
      </trkpt>
      <trkpt lat="44.59132" lon="4.66738">
        <ele>365.60000610352</ele>
        <time>2020-06-14T15:19:57.000Z</time>
      </trkpt>
      <trkpt lat="44.59135" lon="4.66741">
        <ele>365.39999389648</ele>
        <time>2020-06-14T15:20:01.000Z</time>
      </trkpt>
      <trkpt lat="44.59137" lon="4.66745">
        <ele>364.79998779297</ele>
        <time>2020-06-14T15:20:06.000Z</time>
      </trkpt>
      <trkpt lat="44.59137" lon="4.66746">
        <ele>364.20001220703</ele>
        <time>2020-06-14T15:20:08.000Z</time>
      </trkpt>
      <trkpt lat="44.59138" lon="4.66745">
        <ele>362</ele>
        <time>2020-06-14T15:20:14.000Z</time>
      </trkpt>
      <trkpt lat="44.59139" lon="4.66745">
        <ele>361.79998779297</ele>
        <time>2020-06-14T15:20:18.000Z</time>
      </trkpt>
      <trkpt lat="44.5914" lon="4.66747">
        <ele>361</ele>
        <time>2020-06-14T15:20:34.000Z</time>
      </trkpt>
      <trkpt lat="44.59141" lon="4.66747">
        <ele>360.79998779297</ele>
        <time>2020-06-14T15:20:35.000Z</time>
      </trkpt>
      <trkpt lat="44.59141" lon="4.66748">
        <ele>360.79998779297</ele>
        <time>2020-06-14T15:20:37.000Z</time>
      </trkpt>
      <trkpt lat="44.59141" lon="4.66745">
        <ele>359.39999389648</ele>
        <time>2020-06-14T15:21:28.000Z</time>
      </trkpt>
      <trkpt lat="44.59142" lon="4.66743">
        <ele>359.20001220703</ele>
        <time>2020-06-14T15:21:30.000Z</time>
      </trkpt>
      <trkpt lat="44.59142" lon="4.66743">
        <ele>359</ele>
        <time>2020-06-14T15:21:31.000Z</time>
      </trkpt>
      <trkpt lat="44.59143" lon="4.6674">
        <ele>357.39999389648</ele>
        <time>2020-06-14T15:21:41.000Z</time>
      </trkpt>
      <trkpt lat="44.59143" lon="4.66737">
        <ele>357.39999389648</ele>
        <time>2020-06-14T15:21:43.000Z</time>
      </trkpt>
      <trkpt lat="44.59143" lon="4.66734">
        <ele>357.39999389648</ele>
        <time>2020-06-14T15:21:45.000Z</time>
      </trkpt>
      <trkpt lat="44.59147" lon="4.66723">
        <ele>356.39999389648</ele>
        <time>2020-06-14T15:21:53.000Z</time>
      </trkpt>
      <trkpt lat="44.59161" lon="4.66716">
        <ele>355.79998779297</ele>
        <time>2020-06-14T15:22:03.000Z</time>
      </trkpt>
      <trkpt lat="44.59171" lon="4.6672">
        <ele>355.79998779297</ele>
        <time>2020-06-14T15:22:07.000Z</time>
      </trkpt>
      <trkpt lat="44.59194" lon="4.66732">
        <ele>355.79998779297</ele>
        <time>2020-06-14T15:22:13.000Z</time>
      </trkpt>
      <trkpt lat="44.59205" lon="4.66731">
        <ele>355.20001220703</ele>
        <time>2020-06-14T15:22:16.000Z</time>
      </trkpt>
      <trkpt lat="44.59209" lon="4.66729">
        <ele>354</ele>
        <time>2020-06-14T15:22:17.000Z</time>
      </trkpt>
      <trkpt lat="44.59217" lon="4.66717">
        <ele>352.60000610352</ele>
        <time>2020-06-14T15:22:20.000Z</time>
      </trkpt>
      <trkpt lat="44.59219" lon="4.66714">
        <ele>352.60000610352</ele>
        <time>2020-06-14T15:22:21.000Z</time>
      </trkpt>
      <trkpt lat="44.59223" lon="4.66708">
        <ele>351.60000610352</ele>
        <time>2020-06-14T15:22:23.000Z</time>
      </trkpt>
      <trkpt lat="44.59226" lon="4.66703">
        <ele>350.60000610352</ele>
        <time>2020-06-14T15:22:25.000Z</time>
      </trkpt>
      <trkpt lat="44.59228" lon="4.667">
        <ele>350.39999389648</ele>
        <time>2020-06-14T15:22:26.000Z</time>
      </trkpt>
      <trkpt lat="44.59236" lon="4.66682">
        <ele>350.20001220703</ele>
        <time>2020-06-14T15:22:32.000Z</time>
      </trkpt>
      <trkpt lat="44.59244" lon="4.66667">
        <ele>350.79998779297</ele>
        <time>2020-06-14T15:22:38.000Z</time>
      </trkpt>
      <trkpt lat="44.5925" lon="4.66656">
        <ele>351.60000610352</ele>
        <time>2020-06-14T15:22:42.000Z</time>
      </trkpt>
      <trkpt lat="44.59252" lon="4.6665">
        <ele>352</ele>
        <time>2020-06-14T15:22:44.000Z</time>
      </trkpt>
      <trkpt lat="44.59257" lon="4.66638">
        <ele>352.60000610352</ele>
        <time>2020-06-14T15:22:48.000Z</time>
      </trkpt>
      <trkpt lat="44.59258" lon="4.66636">
        <ele>353</ele>
        <time>2020-06-14T15:22:49.000Z</time>
      </trkpt>
      <trkpt lat="44.59263" lon="4.66626">
        <ele>353.39999389648</ele>
        <time>2020-06-14T15:22:54.000Z</time>
      </trkpt>
      <trkpt lat="44.59264" lon="4.66625">
        <ele>353.79998779297</ele>
        <time>2020-06-14T15:22:56.000Z</time>
      </trkpt>
      <trkpt lat="44.59271" lon="4.66621">
        <ele>355</ele>
        <time>2020-06-14T15:23:32.000Z</time>
      </trkpt>
      <trkpt lat="44.59273" lon="4.66618">
        <ele>355</ele>
        <time>2020-06-14T15:23:34.000Z</time>
      </trkpt>
      <trkpt lat="44.5928" lon="4.66612">
        <ele>354.60000610352</ele>
        <time>2020-06-14T15:23:41.000Z</time>
      </trkpt>
      <trkpt lat="44.5928" lon="4.66611">
        <ele>354.39999389648</ele>
        <time>2020-06-14T15:23:42.000Z</time>
      </trkpt>
      <trkpt lat="44.59286" lon="4.66608">
        <ele>352.60000610352</ele>
        <time>2020-06-14T15:23:50.000Z</time>
      </trkpt>
      <trkpt lat="44.59292" lon="4.66604">
        <ele>352</ele>
        <time>2020-06-14T15:23:57.000Z</time>
      </trkpt>
      <trkpt lat="44.59292" lon="4.66603">
        <ele>352</ele>
        <time>2020-06-14T15:23:59.000Z</time>
      </trkpt>
      <trkpt lat="44.59294" lon="4.66601">
        <ele>352</ele>
        <time>2020-06-14T15:24:04.000Z</time>
      </trkpt>
      <trkpt lat="44.59298" lon="4.66599">
        <ele>351.79998779297</ele>
        <time>2020-06-14T15:24:08.000Z</time>
      </trkpt>
      <trkpt lat="44.59311" lon="4.66592">
        <ele>351.20001220703</ele>
        <time>2020-06-14T15:24:15.000Z</time>
      </trkpt>
      <trkpt lat="44.59313" lon="4.6659">
        <ele>351</ele>
        <time>2020-06-14T15:24:16.000Z</time>
      </trkpt>
      <trkpt lat="44.59322" lon="4.66575">
        <ele>350.60000610352</ele>
        <time>2020-06-14T15:24:21.000Z</time>
      </trkpt>
      <trkpt lat="44.59324" lon="4.66572">
        <ele>350.39999389648</ele>
        <time>2020-06-14T15:24:22.000Z</time>
      </trkpt>
      <trkpt lat="44.59327" lon="4.66569">
        <ele>349.79998779297</ele>
        <time>2020-06-14T15:24:24.000Z</time>
      </trkpt>
      <trkpt lat="44.59328" lon="4.66569">
        <ele>349.39999389648</ele>
        <time>2020-06-14T15:24:25.000Z</time>
      </trkpt>
      <trkpt lat="44.59329" lon="4.66568">
        <ele>348.79998779297</ele>
        <time>2020-06-14T15:24:27.000Z</time>
      </trkpt>
      <trkpt lat="44.59335" lon="4.66569">
        <ele>347.39999389648</ele>
        <time>2020-06-14T15:24:31.000Z</time>
      </trkpt>
      <trkpt lat="44.59337" lon="4.66568">
        <ele>347.20001220703</ele>
        <time>2020-06-14T15:24:33.000Z</time>
      </trkpt>
      <trkpt lat="44.59337" lon="4.66568">
        <ele>347.20001220703</ele>
        <time>2020-06-14T15:24:34.000Z</time>
      </trkpt>
      <trkpt lat="44.59342" lon="4.66572">
        <ele>347.20001220703</ele>
        <time>2020-06-14T15:24:39.000Z</time>
      </trkpt>
      <trkpt lat="44.59343" lon="4.66578">
        <ele>347</ele>
        <time>2020-06-14T15:24:43.000Z</time>
      </trkpt>
      <trkpt lat="44.59343" lon="4.66587">
        <ele>346.20001220703</ele>
        <time>2020-06-14T15:24:49.000Z</time>
      </trkpt>
      <trkpt lat="44.59342" lon="4.66596">
        <ele>345.79998779297</ele>
        <time>2020-06-14T15:24:53.000Z</time>
      </trkpt>
      <trkpt lat="44.59341" lon="4.66598">
        <ele>345.79998779297</ele>
        <time>2020-06-14T15:24:54.000Z</time>
      </trkpt>
      <trkpt lat="44.59338" lon="4.66607">
        <ele>345.79998779297</ele>
        <time>2020-06-14T15:24:58.000Z</time>
      </trkpt>
      <trkpt lat="44.59336" lon="4.66611">
        <ele>345.79998779297</ele>
        <time>2020-06-14T15:25:00.000Z</time>
      </trkpt>
      <trkpt lat="44.59333" lon="4.66617">
        <ele>345.79998779297</ele>
        <time>2020-06-14T15:25:03.000Z</time>
      </trkpt>
      <trkpt lat="44.59329" lon="4.6663">
        <ele>347</ele>
        <time>2020-06-14T15:25:09.000Z</time>
      </trkpt>
      <trkpt lat="44.59329" lon="4.66635">
        <ele>347.20001220703</ele>
        <time>2020-06-14T15:25:11.000Z</time>
      </trkpt>
      <trkpt lat="44.59329" lon="4.66644">
        <ele>348.20001220703</ele>
        <time>2020-06-14T15:25:15.000Z</time>
      </trkpt>
      <trkpt lat="44.5933" lon="4.66646">
        <ele>348.60000610352</ele>
        <time>2020-06-14T15:25:16.000Z</time>
      </trkpt>
      <trkpt lat="44.59329" lon="4.66657">
        <ele>349.39999389648</ele>
        <time>2020-06-14T15:25:21.000Z</time>
      </trkpt>
      <trkpt lat="44.59329" lon="4.66661">
        <ele>349.79998779297</ele>
        <time>2020-06-14T15:25:23.000Z</time>
      </trkpt>
      <trkpt lat="44.5933" lon="4.66668">
        <ele>350</ele>
        <time>2020-06-14T15:25:26.000Z</time>
      </trkpt>
      <trkpt lat="44.5933" lon="4.66673">
        <ele>350.20001220703</ele>
        <time>2020-06-14T15:25:28.000Z</time>
      </trkpt>
      <trkpt lat="44.5933" lon="4.66678">
        <ele>350.60000610352</ele>
        <time>2020-06-14T15:25:30.000Z</time>
      </trkpt>
      <trkpt lat="44.59332" lon="4.66689">
        <ele>351</ele>
        <time>2020-06-14T15:25:35.000Z</time>
      </trkpt>
      <trkpt lat="44.59332" lon="4.66697">
        <ele>351.60000610352</ele>
        <time>2020-06-14T15:25:39.000Z</time>
      </trkpt>
      <trkpt lat="44.59332" lon="4.66699">
        <ele>351.79998779297</ele>
        <time>2020-06-14T15:25:40.000Z</time>
      </trkpt>
      <trkpt lat="44.59333" lon="4.66702">
        <ele>352</ele>
        <time>2020-06-14T15:25:42.000Z</time>
      </trkpt>
      <trkpt lat="44.59335" lon="4.66711">
        <ele>352.60000610352</ele>
        <time>2020-06-14T15:25:46.000Z</time>
      </trkpt>
      <trkpt lat="44.59338" lon="4.66721">
        <ele>353</ele>
        <time>2020-06-14T15:25:50.000Z</time>
      </trkpt>
      <trkpt lat="44.59344" lon="4.66739">
        <ele>353.39999389648</ele>
        <time>2020-06-14T15:25:56.000Z</time>
      </trkpt>
      <trkpt lat="44.59342" lon="4.66766">
        <ele>353.39999389648</ele>
        <time>2020-06-14T15:26:04.000Z</time>
      </trkpt>
      <trkpt lat="44.59342" lon="4.66789">
        <ele>353.39999389648</ele>
        <time>2020-06-14T15:26:10.000Z</time>
      </trkpt>
      <trkpt lat="44.59338" lon="4.66817">
        <ele>353.20001220703</ele>
        <time>2020-06-14T15:26:16.000Z</time>
      </trkpt>
      <trkpt lat="44.59333" lon="4.66846">
        <ele>353</ele>
        <time>2020-06-14T15:26:22.000Z</time>
      </trkpt>
      <trkpt lat="44.59333" lon="4.66869">
        <ele>352.79998779297</ele>
        <time>2020-06-14T15:26:28.000Z</time>
      </trkpt>
      <trkpt lat="44.59335" lon="4.66872">
        <ele>352.79998779297</ele>
        <time>2020-06-14T15:26:29.000Z</time>
      </trkpt>
      <trkpt lat="44.59344" lon="4.66882">
        <ele>353.20001220703</ele>
        <time>2020-06-14T15:26:33.000Z</time>
      </trkpt>
      <trkpt lat="44.59349" lon="4.66885">
        <ele>353.79998779297</ele>
        <time>2020-06-14T15:26:35.000Z</time>
      </trkpt>
      <trkpt lat="44.59354" lon="4.66888">
        <ele>354.20001220703</ele>
        <time>2020-06-14T15:26:37.000Z</time>
      </trkpt>
      <trkpt lat="44.59355" lon="4.66891">
        <ele>354.39999389648</ele>
        <time>2020-06-14T15:26:38.000Z</time>
      </trkpt>
      <trkpt lat="44.59354" lon="4.66902">
        <ele>354.79998779297</ele>
        <time>2020-06-14T15:26:42.000Z</time>
      </trkpt>
      <trkpt lat="44.59347" lon="4.66911">
        <ele>355</ele>
        <time>2020-06-14T15:26:46.000Z</time>
      </trkpt>
      <trkpt lat="44.59343" lon="4.66914">
        <ele>355</ele>
        <time>2020-06-14T15:26:48.000Z</time>
      </trkpt>
      <trkpt lat="44.59337" lon="4.66922">
        <ele>355.20001220703</ele>
        <time>2020-06-14T15:26:52.000Z</time>
      </trkpt>
      <trkpt lat="44.59335" lon="4.66927">
        <ele>355.79998779297</ele>
        <time>2020-06-14T15:26:54.000Z</time>
      </trkpt>
      <trkpt lat="44.59333" lon="4.6693">
        <ele>356</ele>
        <time>2020-06-14T15:26:55.000Z</time>
      </trkpt>
      <trkpt lat="44.59326" lon="4.66946">
        <ele>356.79998779297</ele>
        <time>2020-06-14T15:27:00.000Z</time>
      </trkpt>
      <trkpt lat="44.59324" lon="4.66953">
        <ele>357</ele>
        <time>2020-06-14T15:27:02.000Z</time>
      </trkpt>
      <trkpt lat="44.5932" lon="4.66969">
        <ele>357.39999389648</ele>
        <time>2020-06-14T15:27:07.000Z</time>
      </trkpt>
      <trkpt lat="44.59317" lon="4.66986">
        <ele>358</ele>
        <time>2020-06-14T15:27:12.000Z</time>
      </trkpt>
      <trkpt lat="44.59317" lon="4.66989">
        <ele>358.20001220703</ele>
        <time>2020-06-14T15:27:13.000Z</time>
      </trkpt>
      <trkpt lat="44.59315" lon="4.67008">
        <ele>359.20001220703</ele>
        <time>2020-06-14T15:27:19.000Z</time>
      </trkpt>
      <trkpt lat="44.59314" lon="4.67013">
        <ele>359.60000610352</ele>
        <time>2020-06-14T15:27:21.000Z</time>
      </trkpt>
      <trkpt lat="44.59313" lon="4.67024">
        <ele>360.20001220703</ele>
        <time>2020-06-14T15:27:25.000Z</time>
      </trkpt>
      <trkpt lat="44.59312" lon="4.67033">
        <ele>360.79998779297</ele>
        <time>2020-06-14T15:27:29.000Z</time>
      </trkpt>
      <trkpt lat="44.59311" lon="4.67042">
        <ele>361.39999389648</ele>
        <time>2020-06-14T15:27:32.000Z</time>
      </trkpt>
      <trkpt lat="44.59305" lon="4.67061">
        <ele>362.20001220703</ele>
        <time>2020-06-14T15:27:39.000Z</time>
      </trkpt>
      <trkpt lat="44.59302" lon="4.67067">
        <ele>362.39999389648</ele>
        <time>2020-06-14T15:27:41.000Z</time>
      </trkpt>
      <trkpt lat="44.59296" lon="4.67081">
        <ele>363.39999389648</ele>
        <time>2020-06-14T15:27:46.000Z</time>
      </trkpt>
      <trkpt lat="44.59295" lon="4.67086">
        <ele>363.79998779297</ele>
        <time>2020-06-14T15:27:48.000Z</time>
      </trkpt>
      <trkpt lat="44.59291" lon="4.67106">
        <ele>364.39999389648</ele>
        <time>2020-06-14T15:27:55.000Z</time>
      </trkpt>
      <trkpt lat="44.59289" lon="4.67127">
        <ele>365.39999389648</ele>
        <time>2020-06-14T15:28:02.000Z</time>
      </trkpt>
      <trkpt lat="44.59289" lon="4.67131">
        <ele>365.60000610352</ele>
        <time>2020-06-14T15:28:03.000Z</time>
      </trkpt>
      <trkpt lat="44.59283" lon="4.67153">
        <ele>366</ele>
        <time>2020-06-14T15:28:09.000Z</time>
      </trkpt>
      <trkpt lat="44.59272" lon="4.67187">
        <ele>366.39999389648</ele>
        <time>2020-06-14T15:28:18.000Z</time>
      </trkpt>
      <trkpt lat="44.5927" lon="4.67197">
        <ele>366.60000610352</ele>
        <time>2020-06-14T15:28:21.000Z</time>
      </trkpt>
      <trkpt lat="44.59269" lon="4.6721">
        <ele>366.60000610352</ele>
        <time>2020-06-14T15:28:25.000Z</time>
      </trkpt>
      <trkpt lat="44.59268" lon="4.67222">
        <ele>367.20001220703</ele>
        <time>2020-06-14T15:28:31.000Z</time>
      </trkpt>
      <trkpt lat="44.59268" lon="4.67233">
        <ele>368</ele>
        <time>2020-06-14T15:28:34.000Z</time>
      </trkpt>
      <trkpt lat="44.59269" lon="4.67237">
        <ele>368</ele>
        <time>2020-06-14T15:28:35.000Z</time>
      </trkpt>
      <trkpt lat="44.59274" lon="4.67257">
        <ele>368.20001220703</ele>
        <time>2020-06-14T15:28:39.000Z</time>
      </trkpt>
      <trkpt lat="44.59274" lon="4.67279">
        <ele>368</ele>
        <time>2020-06-14T15:28:44.000Z</time>
      </trkpt>
      <trkpt lat="44.59265" lon="4.673">
        <ele>367</ele>
        <time>2020-06-14T15:28:48.000Z</time>
      </trkpt>
      <trkpt lat="44.59242" lon="4.67353">
        <ele>365.79998779297</ele>
        <time>2020-06-14T15:28:55.000Z</time>
      </trkpt>
      <trkpt lat="44.59237" lon="4.6737">
        <ele>363.79998779297</ele>
        <time>2020-06-14T15:28:57.000Z</time>
      </trkpt>
      <trkpt lat="44.59235" lon="4.67378">
        <ele>363.20001220703</ele>
        <time>2020-06-14T15:28:58.000Z</time>
      </trkpt>
      <trkpt lat="44.59233" lon="4.67385">
        <ele>362.60000610352</ele>
        <time>2020-06-14T15:28:59.000Z</time>
      </trkpt>
      <trkpt lat="44.59232" lon="4.67393">
        <ele>362.20001220703</ele>
        <time>2020-06-14T15:29:00.000Z</time>
      </trkpt>
      <trkpt lat="44.59231" lon="4.67402">
        <ele>361.60000610352</ele>
        <time>2020-06-14T15:29:01.000Z</time>
      </trkpt>
      <trkpt lat="44.59231" lon="4.6741">
        <ele>360.79998779297</ele>
        <time>2020-06-14T15:29:02.000Z</time>
      </trkpt>
      <trkpt lat="44.59231" lon="4.67419">
        <ele>360</ele>
        <time>2020-06-14T15:29:03.000Z</time>
      </trkpt>
      <trkpt lat="44.59232" lon="4.67426">
        <ele>359.20001220703</ele>
        <time>2020-06-14T15:29:04.000Z</time>
      </trkpt>
      <trkpt lat="44.59232" lon="4.67434">
        <ele>358.60000610352</ele>
        <time>2020-06-14T15:29:05.000Z</time>
      </trkpt>
      <trkpt lat="44.59229" lon="4.67452">
        <ele>357.60000610352</ele>
        <time>2020-06-14T15:29:07.000Z</time>
      </trkpt>
      <trkpt lat="44.59226" lon="4.67461">
        <ele>357.20001220703</ele>
        <time>2020-06-14T15:29:08.000Z</time>
      </trkpt>
      <trkpt lat="44.59224" lon="4.6747">
        <ele>356.39999389648</ele>
        <time>2020-06-14T15:29:09.000Z</time>
      </trkpt>
      <trkpt lat="44.59222" lon="4.67479">
        <ele>355.60000610352</ele>
        <time>2020-06-14T15:29:10.000Z</time>
      </trkpt>
      <trkpt lat="44.59219" lon="4.67498">
        <ele>354.60000610352</ele>
        <time>2020-06-14T15:29:12.000Z</time>
      </trkpt>
      <trkpt lat="44.59217" lon="4.67509">
        <ele>354.20001220703</ele>
        <time>2020-06-14T15:29:13.000Z</time>
      </trkpt>
      <trkpt lat="44.59214" lon="4.67519">
        <ele>353.60000610352</ele>
        <time>2020-06-14T15:29:14.000Z</time>
      </trkpt>
      <trkpt lat="44.59205" lon="4.67535">
        <ele>352.79998779297</ele>
        <time>2020-06-14T15:29:16.000Z</time>
      </trkpt>
      <trkpt lat="44.59191" lon="4.67545">
        <ele>351.79998779297</ele>
        <time>2020-06-14T15:29:18.000Z</time>
      </trkpt>
      <trkpt lat="44.59176" lon="4.67554">
        <ele>350.20001220703</ele>
        <time>2020-06-14T15:29:20.000Z</time>
      </trkpt>
      <trkpt lat="44.59169" lon="4.67558">
        <ele>349</ele>
        <time>2020-06-14T15:29:21.000Z</time>
      </trkpt>
      <trkpt lat="44.59162" lon="4.67562">
        <ele>347.60000610352</ele>
        <time>2020-06-14T15:29:22.000Z</time>
      </trkpt>
      <trkpt lat="44.59156" lon="4.67566">
        <ele>346.20001220703</ele>
        <time>2020-06-14T15:29:23.000Z</time>
      </trkpt>
      <trkpt lat="44.59151" lon="4.67571">
        <ele>344.79998779297</ele>
        <time>2020-06-14T15:29:24.000Z</time>
      </trkpt>
      <trkpt lat="44.59146" lon="4.67576">
        <ele>343.60000610352</ele>
        <time>2020-06-14T15:29:25.000Z</time>
      </trkpt>
      <trkpt lat="44.59134" lon="4.67593">
        <ele>343.20001220703</ele>
        <time>2020-06-14T15:29:28.000Z</time>
      </trkpt>
      <trkpt lat="44.59125" lon="4.67603">
        <ele>343.20001220703</ele>
        <time>2020-06-14T15:29:30.000Z</time>
      </trkpt>
      <trkpt lat="44.59104" lon="4.67627">
        <ele>342.39999389648</ele>
        <time>2020-06-14T15:29:34.000Z</time>
      </trkpt>
      <trkpt lat="44.59093" lon="4.67639">
        <ele>342</ele>
        <time>2020-06-14T15:29:36.000Z</time>
      </trkpt>
      <trkpt lat="44.59058" lon="4.67673">
        <ele>341.20001220703</ele>
        <time>2020-06-14T15:29:42.000Z</time>
      </trkpt>
      <trkpt lat="44.59044" lon="4.67685">
        <ele>340</ele>
        <time>2020-06-14T15:29:44.000Z</time>
      </trkpt>
      <trkpt lat="44.5903" lon="4.67699">
        <ele>339</ele>
        <time>2020-06-14T15:29:46.000Z</time>
      </trkpt>
      <trkpt lat="44.59016" lon="4.67713">
        <ele>338.20001220703</ele>
        <time>2020-06-14T15:29:48.000Z</time>
      </trkpt>
      <trkpt lat="44.59009" lon="4.67719">
        <ele>337.79998779297</ele>
        <time>2020-06-14T15:29:49.000Z</time>
      </trkpt>
      <trkpt lat="44.58989" lon="4.6774">
        <ele>336.79998779297</ele>
        <time>2020-06-14T15:29:52.000Z</time>
      </trkpt>
      <trkpt lat="44.58976" lon="4.67754">
        <ele>335.20001220703</ele>
        <time>2020-06-14T15:29:54.000Z</time>
      </trkpt>
      <trkpt lat="44.58964" lon="4.67767">
        <ele>332.79998779297</ele>
        <time>2020-06-14T15:29:56.000Z</time>
      </trkpt>
      <trkpt lat="44.58953" lon="4.6778">
        <ele>331.39999389648</ele>
        <time>2020-06-14T15:29:58.000Z</time>
      </trkpt>
      <trkpt lat="44.58937" lon="4.67797">
        <ele>330.20001220703</ele>
        <time>2020-06-14T15:30:01.000Z</time>
      </trkpt>
      <trkpt lat="44.58931" lon="4.67802">
        <ele>330.20001220703</ele>
        <time>2020-06-14T15:30:02.000Z</time>
      </trkpt>
      <trkpt lat="44.58895" lon="4.67834">
        <ele>329.79998779297</ele>
        <time>2020-06-14T15:30:08.000Z</time>
      </trkpt>
      <trkpt lat="44.58871" lon="4.67855">
        <ele>329.20001220703</ele>
        <time>2020-06-14T15:30:12.000Z</time>
      </trkpt>
      <trkpt lat="44.58849" lon="4.67877">
        <ele>329</ele>
        <time>2020-06-14T15:30:16.000Z</time>
      </trkpt>
      <trkpt lat="44.58824" lon="4.67909">
        <ele>328.79998779297</ele>
        <time>2020-06-14T15:30:21.000Z</time>
      </trkpt>
      <trkpt lat="44.58814" lon="4.67928">
        <ele>328.39999389648</ele>
        <time>2020-06-14T15:30:24.000Z</time>
      </trkpt>
      <trkpt lat="44.58812" lon="4.67934">
        <ele>328.20001220703</ele>
        <time>2020-06-14T15:30:25.000Z</time>
      </trkpt>
      <trkpt lat="44.58808" lon="4.67945">
        <ele>328.20001220703</ele>
        <time>2020-06-14T15:30:28.000Z</time>
      </trkpt>
      <trkpt lat="44.58806" lon="4.6795">
        <ele>328</ele>
        <time>2020-06-14T15:30:31.000Z</time>
      </trkpt>
      <trkpt lat="44.58804" lon="4.67949">
        <ele>328</ele>
        <time>2020-06-14T15:30:33.000Z</time>
      </trkpt>
      <trkpt lat="44.58804" lon="4.6794">
        <ele>327.79998779297</ele>
        <time>2020-06-14T15:30:37.000Z</time>
      </trkpt>
      <trkpt lat="44.58802" lon="4.67934">
        <ele>327.79998779297</ele>
        <time>2020-06-14T15:30:39.000Z</time>
      </trkpt>
      <trkpt lat="44.58799" lon="4.6793">
        <ele>327.60000610352</ele>
        <time>2020-06-14T15:30:41.000Z</time>
      </trkpt>
      <trkpt lat="44.58796" lon="4.6793">
        <ele>327.60000610352</ele>
        <time>2020-06-14T15:30:42.000Z</time>
      </trkpt>
      <trkpt lat="44.58785" lon="4.67932">
        <ele>327.79998779297</ele>
        <time>2020-06-14T15:30:45.000Z</time>
      </trkpt>
      <trkpt lat="44.58778" lon="4.67934">
        <ele>327.79998779297</ele>
        <time>2020-06-14T15:30:47.000Z</time>
      </trkpt>
      <trkpt lat="44.5877" lon="4.67935">
        <ele>327.20001220703</ele>
        <time>2020-06-14T15:30:49.000Z</time>
      </trkpt>
      <trkpt lat="44.58758" lon="4.6794">
        <ele>326.39999389648</ele>
        <time>2020-06-14T15:30:52.000Z</time>
      </trkpt>
      <trkpt lat="44.58754" lon="4.67942">
        <ele>326.20001220703</ele>
        <time>2020-06-14T15:30:53.000Z</time>
      </trkpt>
      <trkpt lat="44.5875" lon="4.67943">
        <ele>326</ele>
        <time>2020-06-14T15:30:54.000Z</time>
      </trkpt>
      <trkpt lat="44.5874" lon="4.67952">
        <ele>325.60000610352</ele>
        <time>2020-06-14T15:30:57.000Z</time>
      </trkpt>
      <trkpt lat="44.58735" lon="4.67957">
        <ele>325.20001220703</ele>
        <time>2020-06-14T15:30:59.000Z</time>
      </trkpt>
      <trkpt lat="44.5873" lon="4.67961">
        <ele>324.60000610352</ele>
        <time>2020-06-14T15:31:01.000Z</time>
      </trkpt>
      <trkpt lat="44.58725" lon="4.67964">
        <ele>324</ele>
        <time>2020-06-14T15:31:03.000Z</time>
      </trkpt>
      <trkpt lat="44.58718" lon="4.6797">
        <ele>323.79998779297</ele>
        <time>2020-06-14T15:31:06.000Z</time>
      </trkpt>
      <trkpt lat="44.58706" lon="4.67977">
        <ele>323.79998779297</ele>
        <time>2020-06-14T15:31:11.000Z</time>
      </trkpt>
      <trkpt lat="44.58698" lon="4.67985">
        <ele>324</ele>
        <time>2020-06-14T15:31:16.000Z</time>
      </trkpt>
      <trkpt lat="44.58689" lon="4.67991">
        <ele>325</ele>
        <time>2020-06-14T15:31:21.000Z</time>
      </trkpt>
      <trkpt lat="44.58688" lon="4.67991">
        <ele>325.20001220703</ele>
        <time>2020-06-14T15:31:22.000Z</time>
      </trkpt>
      <trkpt lat="44.58686" lon="4.67992">
        <ele>325.20001220703</ele>
        <time>2020-06-14T15:31:23.000Z</time>
      </trkpt>
      <trkpt lat="44.5868" lon="4.67992">
        <ele>325.79998779297</ele>
        <time>2020-06-14T15:31:27.000Z</time>
      </trkpt>
      <trkpt lat="44.58677" lon="4.67993">
        <ele>326</ele>
        <time>2020-06-14T15:31:29.000Z</time>
      </trkpt>
      <trkpt lat="44.58672" lon="4.67995">
        <ele>326.20001220703</ele>
        <time>2020-06-14T15:31:32.000Z</time>
      </trkpt>
      <trkpt lat="44.5867" lon="4.67996">
        <ele>326.20001220703</ele>
        <time>2020-06-14T15:31:33.000Z</time>
      </trkpt>
      <trkpt lat="44.58661" lon="4.67998">
        <ele>326.39999389648</ele>
        <time>2020-06-14T15:31:37.000Z</time>
      </trkpt>
      <trkpt lat="44.58656" lon="4.68005">
        <ele>326.60000610352</ele>
        <time>2020-06-14T15:31:42.000Z</time>
      </trkpt>
      <trkpt lat="44.58652" lon="4.68012">
        <ele>327.20001220703</ele>
        <time>2020-06-14T15:31:46.000Z</time>
      </trkpt>
      <trkpt lat="44.58651" lon="4.68013">
        <ele>327.39999389648</ele>
        <time>2020-06-14T15:31:47.000Z</time>
      </trkpt>
      <trkpt lat="44.5865" lon="4.68013">
        <ele>327.60000610352</ele>
        <time>2020-06-14T15:31:48.000Z</time>
      </trkpt>
      <trkpt lat="44.58645" lon="4.68015">
        <ele>328</ele>
        <time>2020-06-14T15:31:51.000Z</time>
      </trkpt>
      <trkpt lat="44.58645" lon="4.68016">
        <ele>328</ele>
        <time>2020-06-14T15:31:52.000Z</time>
      </trkpt>
      <trkpt lat="44.58642" lon="4.6802">
        <ele>328.60000610352</ele>
        <time>2020-06-14T15:31:57.000Z</time>
      </trkpt>
      <trkpt lat="44.58642" lon="4.6802">
        <ele>328.60000610352</ele>
        <time>2020-06-14T15:31:58.000Z</time>
      </trkpt>
      <trkpt lat="44.58637" lon="4.68023">
        <ele>329</ele>
        <time>2020-06-14T15:32:03.000Z</time>
      </trkpt>
      <trkpt lat="44.58628" lon="4.68028">
        <ele>328.79998779297</ele>
        <time>2020-06-14T15:32:08.000Z</time>
      </trkpt>
      <trkpt lat="44.58627" lon="4.68029">
        <ele>328.79998779297</ele>
        <time>2020-06-14T15:32:09.000Z</time>
      </trkpt>
      <trkpt lat="44.58619" lon="4.68037">
        <ele>328</ele>
        <time>2020-06-14T15:32:14.000Z</time>
      </trkpt>
      <trkpt lat="44.5861" lon="4.68042">
        <ele>327.60000610352</ele>
        <time>2020-06-14T15:32:18.000Z</time>
      </trkpt>
      <trkpt lat="44.58605" lon="4.68044">
        <ele>327.39999389648</ele>
        <time>2020-06-14T15:32:20.000Z</time>
      </trkpt>
      <trkpt lat="44.58604" lon="4.68044">
        <ele>327.39999389648</ele>
        <time>2020-06-14T15:32:21.000Z</time>
      </trkpt>
      <trkpt lat="44.58597" lon="4.68043">
        <ele>326.39999389648</ele>
        <time>2020-06-14T15:32:24.000Z</time>
      </trkpt>
      <trkpt lat="44.58594" lon="4.68045">
        <ele>325.20001220703</ele>
        <time>2020-06-14T15:32:26.000Z</time>
      </trkpt>
      <trkpt lat="44.58592" lon="4.68045">
        <ele>324.60000610352</ele>
        <time>2020-06-14T15:32:27.000Z</time>
      </trkpt>
      <trkpt lat="44.5859" lon="4.68045">
        <ele>324</ele>
        <time>2020-06-14T15:32:28.000Z</time>
      </trkpt>
      <trkpt lat="44.58588" lon="4.68044">
        <ele>323.60000610352</ele>
        <time>2020-06-14T15:32:29.000Z</time>
      </trkpt>
      <trkpt lat="44.58585" lon="4.68043">
        <ele>323</ele>
        <time>2020-06-14T15:32:30.000Z</time>
      </trkpt>
      <trkpt lat="44.58583" lon="4.68043">
        <ele>322.20001220703</ele>
        <time>2020-06-14T15:32:31.000Z</time>
      </trkpt>
      <trkpt lat="44.58582" lon="4.68043">
        <ele>321.79998779297</ele>
        <time>2020-06-14T15:32:32.000Z</time>
      </trkpt>
      <trkpt lat="44.58581" lon="4.68043">
        <ele>321.20001220703</ele>
        <time>2020-06-14T15:32:33.000Z</time>
      </trkpt>
      <trkpt lat="44.58581" lon="4.68043">
        <ele>320.60000610352</ele>
        <time>2020-06-14T15:32:34.000Z</time>
      </trkpt>
      <trkpt lat="44.58579" lon="4.68045">
        <ele>319.79998779297</ele>
        <time>2020-06-14T15:32:36.000Z</time>
      </trkpt>
      <trkpt lat="44.58579" lon="4.68046">
        <ele>319</ele>
        <time>2020-06-14T15:32:37.000Z</time>
      </trkpt>
      <trkpt lat="44.58578" lon="4.68046">
        <ele>318</ele>
        <time>2020-06-14T15:32:38.000Z</time>
      </trkpt>
      <trkpt lat="44.58577" lon="4.68048">
        <ele>314.79998779297</ele>
        <time>2020-06-14T15:32:55.000Z</time>
      </trkpt>
      <trkpt lat="44.58577" lon="4.6805">
        <ele>314.79998779297</ele>
        <time>2020-06-14T15:32:56.000Z</time>
      </trkpt>
      <trkpt lat="44.58576" lon="4.68052">
        <ele>314.60000610352</ele>
        <time>2020-06-14T15:32:57.000Z</time>
      </trkpt>
      <trkpt lat="44.5857" lon="4.68056">
        <ele>314.39999389648</ele>
        <time>2020-06-14T15:33:00.000Z</time>
      </trkpt>
      <trkpt lat="44.58558" lon="4.6806">
        <ele>314.20001220703</ele>
        <time>2020-06-14T15:33:04.000Z</time>
      </trkpt>
      <trkpt lat="44.58555" lon="4.68059">
        <ele>313.79998779297</ele>
        <time>2020-06-14T15:33:05.000Z</time>
      </trkpt>
      <trkpt lat="44.58551" lon="4.68059">
        <ele>313</ele>
        <time>2020-06-14T15:33:07.000Z</time>
      </trkpt>
      <trkpt lat="44.5855" lon="4.68059">
        <ele>312.39999389648</ele>
        <time>2020-06-14T15:33:08.000Z</time>
      </trkpt>
      <trkpt lat="44.58547" lon="4.68061">
        <ele>311.39999389648</ele>
        <time>2020-06-14T15:33:10.000Z</time>
      </trkpt>
      <trkpt lat="44.58544" lon="4.68063">
        <ele>308.79998779297</ele>
        <time>2020-06-14T15:33:12.000Z</time>
      </trkpt>
      <trkpt lat="44.58539" lon="4.68064">
        <ele>307.79998779297</ele>
        <time>2020-06-14T15:33:14.000Z</time>
      </trkpt>
      <trkpt lat="44.58536" lon="4.68065">
        <ele>307.39999389648</ele>
        <time>2020-06-14T15:33:15.000Z</time>
      </trkpt>
      <trkpt lat="44.58535" lon="4.68068">
        <ele>306.79998779297</ele>
        <time>2020-06-14T15:33:16.000Z</time>
      </trkpt>
      <trkpt lat="44.58533" lon="4.68073">
        <ele>305.39999389648</ele>
        <time>2020-06-14T15:33:18.000Z</time>
      </trkpt>
      <trkpt lat="44.58533" lon="4.68079">
        <ele>304.39999389648</ele>
        <time>2020-06-14T15:33:20.000Z</time>
      </trkpt>
      <trkpt lat="44.58534" lon="4.68086">
        <ele>303</ele>
        <time>2020-06-14T15:33:22.000Z</time>
      </trkpt>
      <trkpt lat="44.58534" lon="4.68088">
        <ele>302.39999389648</ele>
        <time>2020-06-14T15:33:23.000Z</time>
      </trkpt>
      <trkpt lat="44.58533" lon="4.68089">
        <ele>301.79998779297</ele>
        <time>2020-06-14T15:33:24.000Z</time>
      </trkpt>
      <trkpt lat="44.58533" lon="4.68094">
        <ele>300.79998779297</ele>
        <time>2020-06-14T15:33:27.000Z</time>
      </trkpt>
      <trkpt lat="44.58532" lon="4.68099">
        <ele>300.60000610352</ele>
        <time>2020-06-14T15:33:30.000Z</time>
      </trkpt>
      <trkpt lat="44.58531" lon="4.68104">
        <ele>300.60000610352</ele>
        <time>2020-06-14T15:33:34.000Z</time>
      </trkpt>
      <trkpt lat="44.58529" lon="4.68107">
        <ele>300.60000610352</ele>
        <time>2020-06-14T15:33:36.000Z</time>
      </trkpt>
      <trkpt lat="44.58522" lon="4.68114">
        <ele>301.39999389648</ele>
        <time>2020-06-14T15:33:42.000Z</time>
      </trkpt>
      <trkpt lat="44.58519" lon="4.68116">
        <ele>301.79998779297</ele>
        <time>2020-06-14T15:33:44.000Z</time>
      </trkpt>
      <trkpt lat="44.58505" lon="4.68124">
        <ele>302.79998779297</ele>
        <time>2020-06-14T15:33:52.000Z</time>
      </trkpt>
      <trkpt lat="44.585" lon="4.68127">
        <ele>302.79998779297</ele>
        <time>2020-06-14T15:33:55.000Z</time>
      </trkpt>
      <trkpt lat="44.58498" lon="4.6813">
        <ele>303.20001220703</ele>
        <time>2020-06-14T15:33:57.000Z</time>
      </trkpt>
      <trkpt lat="44.58497" lon="4.68131">
        <ele>303.20001220703</ele>
        <time>2020-06-14T15:33:58.000Z</time>
      </trkpt>
      <trkpt lat="44.58489" lon="4.68134">
        <ele>303.60000610352</ele>
        <time>2020-06-14T15:34:03.000Z</time>
      </trkpt>
      <trkpt lat="44.58484" lon="4.68137">
        <ele>304</ele>
        <time>2020-06-14T15:34:06.000Z</time>
      </trkpt>
      <trkpt lat="44.5848" lon="4.68138">
        <ele>304.20001220703</ele>
        <time>2020-06-14T15:34:08.000Z</time>
      </trkpt>
      <trkpt lat="44.58471" lon="4.68143">
        <ele>304.20001220703</ele>
        <time>2020-06-14T15:34:13.000Z</time>
      </trkpt>
      <trkpt lat="44.58467" lon="4.68146">
        <ele>304.20001220703</ele>
        <time>2020-06-14T15:34:16.000Z</time>
      </trkpt>
      <trkpt lat="44.58466" lon="4.68148">
        <ele>304.39999389648</ele>
        <time>2020-06-14T15:34:17.000Z</time>
      </trkpt>
      <trkpt lat="44.58463" lon="4.6815">
        <ele>304.39999389648</ele>
        <time>2020-06-14T15:34:19.000Z</time>
      </trkpt>
      <trkpt lat="44.58463" lon="4.68153">
        <ele>304.39999389648</ele>
        <time>2020-06-14T15:34:23.000Z</time>
      </trkpt>
      <trkpt lat="44.58462" lon="4.68155">
        <ele>304.20001220703</ele>
        <time>2020-06-14T15:35:18.000Z</time>
      </trkpt>
      <trkpt lat="44.58461" lon="4.68162">
        <ele>304.20001220703</ele>
        <time>2020-06-14T15:35:20.000Z</time>
      </trkpt>
      <trkpt lat="44.58466" lon="4.68181">
        <ele>304</ele>
        <time>2020-06-14T15:35:24.000Z</time>
      </trkpt>
      <trkpt lat="44.58472" lon="4.68195">
        <ele>303.39999389648</ele>
        <time>2020-06-14T15:35:27.000Z</time>
      </trkpt>
      <trkpt lat="44.58476" lon="4.68207">
        <ele>302.79998779297</ele>
        <time>2020-06-14T15:35:29.000Z</time>
      </trkpt>
      <trkpt lat="44.58483" lon="4.68218">
        <ele>302.39999389648</ele>
        <time>2020-06-14T15:35:31.000Z</time>
      </trkpt>
      <trkpt lat="44.58489" lon="4.68228">
        <ele>301.20001220703</ele>
        <time>2020-06-14T15:35:33.000Z</time>
      </trkpt>
      <trkpt lat="44.58491" lon="4.68232">
        <ele>300.39999389648</ele>
        <time>2020-06-14T15:35:34.000Z</time>
      </trkpt>
      <trkpt lat="44.58492" lon="4.68236">
        <ele>300</ele>
        <time>2020-06-14T15:35:35.000Z</time>
      </trkpt>
      <trkpt lat="44.5849" lon="4.68241">
        <ele>298.79998779297</ele>
        <time>2020-06-14T15:35:37.000Z</time>
      </trkpt>
      <trkpt lat="44.58484" lon="4.68239">
        <ele>297.60000610352</ele>
        <time>2020-06-14T15:35:39.000Z</time>
      </trkpt>
      <trkpt lat="44.5848" lon="4.68238">
        <ele>297</ele>
        <time>2020-06-14T15:35:40.000Z</time>
      </trkpt>
      <trkpt lat="44.58472" lon="4.68236">
        <ele>296</ele>
        <time>2020-06-14T15:35:42.000Z</time>
      </trkpt>
      <trkpt lat="44.58457" lon="4.68232">
        <ele>295.39999389648</ele>
        <time>2020-06-14T15:35:45.000Z</time>
      </trkpt>
      <trkpt lat="44.58452" lon="4.6823">
        <ele>294.79998779297</ele>
        <time>2020-06-14T15:35:46.000Z</time>
      </trkpt>
      <trkpt lat="44.58442" lon="4.68225">
        <ele>293.60000610352</ele>
        <time>2020-06-14T15:35:48.000Z</time>
      </trkpt>
      <trkpt lat="44.58438" lon="4.68224">
        <ele>293</ele>
        <time>2020-06-14T15:35:49.000Z</time>
      </trkpt>
      <trkpt lat="44.58434" lon="4.68225">
        <ele>292.39999389648</ele>
        <time>2020-06-14T15:35:50.000Z</time>
      </trkpt>
      <trkpt lat="44.58425" lon="4.6823">
        <ele>291</ele>
        <time>2020-06-14T15:35:52.000Z</time>
      </trkpt>
      <trkpt lat="44.58421" lon="4.68235">
        <ele>290</ele>
        <time>2020-06-14T15:35:53.000Z</time>
      </trkpt>
      <trkpt lat="44.58414" lon="4.68244">
        <ele>287.79998779297</ele>
        <time>2020-06-14T15:35:55.000Z</time>
      </trkpt>
      <trkpt lat="44.58408" lon="4.6825">
        <ele>286.60000610352</ele>
        <time>2020-06-14T15:35:57.000Z</time>
      </trkpt>
      <trkpt lat="44.58402" lon="4.68244">
        <ele>285.20001220703</ele>
        <time>2020-06-14T15:36:00.000Z</time>
      </trkpt>
      <trkpt lat="44.584" lon="4.68236">
        <ele>283.20001220703</ele>
        <time>2020-06-14T15:36:02.000Z</time>
      </trkpt>
      <trkpt lat="44.58397" lon="4.68227">
        <ele>281.79998779297</ele>
        <time>2020-06-14T15:36:04.000Z</time>
      </trkpt>
      <trkpt lat="44.58396" lon="4.68223">
        <ele>281.20001220703</ele>
        <time>2020-06-14T15:36:05.000Z</time>
      </trkpt>
      <trkpt lat="44.58393" lon="4.68215">
        <ele>280.39999389648</ele>
        <time>2020-06-14T15:36:07.000Z</time>
      </trkpt>
      <trkpt lat="44.58391" lon="4.68208">
        <ele>279.39999389648</ele>
        <time>2020-06-14T15:36:09.000Z</time>
      </trkpt>
      <trkpt lat="44.5839" lon="4.68205">
        <ele>279</ele>
        <time>2020-06-14T15:36:10.000Z</time>
      </trkpt>
      <trkpt lat="44.58385" lon="4.68186">
        <ele>278.79998779297</ele>
        <time>2020-06-14T15:36:17.000Z</time>
      </trkpt>
      <trkpt lat="44.58378" lon="4.68166">
        <ele>279.20001220703</ele>
        <time>2020-06-14T15:36:24.000Z</time>
      </trkpt>
      <trkpt lat="44.58372" lon="4.68145">
        <ele>279.39999389648</ele>
        <time>2020-06-14T15:36:30.000Z</time>
      </trkpt>
      <trkpt lat="44.58369" lon="4.68133">
        <ele>279.39999389648</ele>
        <time>2020-06-14T15:36:35.000Z</time>
      </trkpt>
      <trkpt lat="44.58369" lon="4.68119">
        <ele>279.39999389648</ele>
        <time>2020-06-14T15:36:42.000Z</time>
      </trkpt>
      <trkpt lat="44.58375" lon="4.681">
        <ele>280.20001220703</ele>
        <time>2020-06-14T15:36:50.000Z</time>
      </trkpt>
      <trkpt lat="44.58383" lon="4.6808">
        <ele>280.39999389648</ele>
        <time>2020-06-14T15:36:57.000Z</time>
      </trkpt>
      <trkpt lat="44.58384" lon="4.68077">
        <ele>280.60000610352</ele>
        <time>2020-06-14T15:36:58.000Z</time>
      </trkpt>
      <trkpt lat="44.58391" lon="4.6806">
        <ele>280.39999389648</ele>
        <time>2020-06-14T15:37:04.000Z</time>
      </trkpt>
      <trkpt lat="44.58405" lon="4.68046">
        <ele>280.39999389648</ele>
        <time>2020-06-14T15:37:11.000Z</time>
      </trkpt>
      <trkpt lat="44.58417" lon="4.68042">
        <ele>280.39999389648</ele>
        <time>2020-06-14T15:37:17.000Z</time>
      </trkpt>
      <trkpt lat="44.5842" lon="4.68039">
        <ele>280.39999389648</ele>
        <time>2020-06-14T15:37:19.000Z</time>
      </trkpt>
      <trkpt lat="44.58425" lon="4.68038">
        <ele>280</ele>
        <time>2020-06-14T15:37:22.000Z</time>
      </trkpt>
      <trkpt lat="44.58428" lon="4.68037">
        <ele>280.20001220703</ele>
        <time>2020-06-14T15:37:23.000Z</time>
      </trkpt>
      <trkpt lat="44.58442" lon="4.68035">
        <ele>279.60000610352</ele>
        <time>2020-06-14T15:37:28.000Z</time>
      </trkpt>
      <trkpt lat="44.5845" lon="4.68033">
        <ele>279.39999389648</ele>
        <time>2020-06-14T15:37:33.000Z</time>
      </trkpt>
      <trkpt lat="44.58451" lon="4.68033">
        <ele>279.39999389648</ele>
        <time>2020-06-14T15:37:34.000Z</time>
      </trkpt>
      <trkpt lat="44.58451" lon="4.68031">
        <ele>279.20001220703</ele>
        <time>2020-06-14T15:37:36.000Z</time>
      </trkpt>
      <trkpt lat="44.58455" lon="4.68029">
        <ele>279.20001220703</ele>
        <time>2020-06-14T15:37:40.000Z</time>
      </trkpt>
      <trkpt lat="44.5846" lon="4.68029">
        <ele>278.60000610352</ele>
        <time>2020-06-14T15:37:46.000Z</time>
      </trkpt>
      <trkpt lat="44.58462" lon="4.68028">
        <ele>277.60000610352</ele>
        <time>2020-06-14T15:37:49.000Z</time>
      </trkpt>
      <trkpt lat="44.58463" lon="4.68027">
        <ele>276.79998779297</ele>
        <time>2020-06-14T15:37:51.000Z</time>
      </trkpt>
      <trkpt lat="44.58466" lon="4.68025">
        <ele>276.39999389648</ele>
        <time>2020-06-14T15:37:57.000Z</time>
      </trkpt>
      <trkpt lat="44.58469" lon="4.68022">
        <ele>276.39999389648</ele>
        <time>2020-06-14T15:38:03.000Z</time>
      </trkpt>
      <trkpt lat="44.58469" lon="4.68022">
        <ele>276.39999389648</ele>
        <time>2020-06-14T15:38:04.000Z</time>
      </trkpt>
      <trkpt lat="44.5847" lon="4.6802">
        <ele>277.20001220703</ele>
        <time>2020-06-14T15:38:12.000Z</time>
      </trkpt>
      <trkpt lat="44.58471" lon="4.68014">
        <ele>277.39999389648</ele>
        <time>2020-06-14T15:38:16.000Z</time>
      </trkpt>
      <trkpt lat="44.58472" lon="4.68001">
        <ele>277.60000610352</ele>
        <time>2020-06-14T15:38:23.000Z</time>
      </trkpt>
      <trkpt lat="44.58475" lon="4.67993">
        <ele>277.79998779297</ele>
        <time>2020-06-14T15:38:28.000Z</time>
      </trkpt>
      <trkpt lat="44.58475" lon="4.67989">
        <ele>277.79998779297</ele>
        <time>2020-06-14T15:38:30.000Z</time>
      </trkpt>
      <trkpt lat="44.58476" lon="4.67985">
        <ele>278</ele>
        <time>2020-06-14T15:38:32.000Z</time>
      </trkpt>
      <trkpt lat="44.58479" lon="4.67979">
        <ele>278</ele>
        <time>2020-06-14T15:38:36.000Z</time>
      </trkpt>
      <trkpt lat="44.5848" lon="4.67975">
        <ele>278.20001220703</ele>
        <time>2020-06-14T15:38:38.000Z</time>
      </trkpt>
      <trkpt lat="44.58481" lon="4.6797">
        <ele>278.20001220703</ele>
        <time>2020-06-14T15:38:40.000Z</time>
      </trkpt>
      <trkpt lat="44.58482" lon="4.67964">
        <ele>278.20001220703</ele>
        <time>2020-06-14T15:38:42.000Z</time>
      </trkpt>
      <trkpt lat="44.58483" lon="4.67961">
        <ele>278.20001220703</ele>
        <time>2020-06-14T15:38:43.000Z</time>
      </trkpt>
      <trkpt lat="44.58486" lon="4.67955">
        <ele>278.20001220703</ele>
        <time>2020-06-14T15:38:45.000Z</time>
      </trkpt>
      <trkpt lat="44.58492" lon="4.67929">
        <ele>277.60000610352</ele>
        <time>2020-06-14T15:38:51.000Z</time>
      </trkpt>
      <trkpt lat="44.58493" lon="4.67925">
        <ele>277.20001220703</ele>
        <time>2020-06-14T15:38:53.000Z</time>
      </trkpt>
      <trkpt lat="44.58495" lon="4.67923">
        <ele>277</ele>
        <time>2020-06-14T15:38:54.000Z</time>
      </trkpt>
      <trkpt lat="44.58496" lon="4.67922">
        <ele>276.79998779297</ele>
        <time>2020-06-14T15:38:55.000Z</time>
      </trkpt>
      <trkpt lat="44.585" lon="4.67919">
        <ele>275.60000610352</ele>
        <time>2020-06-14T15:38:58.000Z</time>
      </trkpt>
      <trkpt lat="44.58504" lon="4.67914">
        <ele>275.20001220703</ele>
        <time>2020-06-14T15:39:02.000Z</time>
      </trkpt>
      <trkpt lat="44.58507" lon="4.67911">
        <ele>275.20001220703</ele>
        <time>2020-06-14T15:39:05.000Z</time>
      </trkpt>
      <trkpt lat="44.5851" lon="4.67909">
        <ele>275.20001220703</ele>
        <time>2020-06-14T15:39:07.000Z</time>
      </trkpt>
      <trkpt lat="44.58514" lon="4.67902">
        <ele>275.20001220703</ele>
        <time>2020-06-14T15:39:11.000Z</time>
      </trkpt>
      <trkpt lat="44.58516" lon="4.67898">
        <ele>275.20001220703</ele>
        <time>2020-06-14T15:39:13.000Z</time>
      </trkpt>
      <trkpt lat="44.58524" lon="4.67883">
        <ele>275</ele>
        <time>2020-06-14T15:39:20.000Z</time>
      </trkpt>
      <trkpt lat="44.58524" lon="4.67882">
        <ele>274</ele>
        <time>2020-06-14T15:39:21.000Z</time>
      </trkpt>
      <trkpt lat="44.58524" lon="4.6788">
        <ele>273.39999389648</ele>
        <time>2020-06-14T15:39:22.000Z</time>
      </trkpt>
      <trkpt lat="44.58523" lon="4.67879">
        <ele>273</ele>
        <time>2020-06-14T15:39:23.000Z</time>
      </trkpt>
      <trkpt lat="44.58522" lon="4.67879">
        <ele>272.39999389648</ele>
        <time>2020-06-14T15:39:24.000Z</time>
      </trkpt>
      <trkpt lat="44.5852" lon="4.67879">
        <ele>271.60000610352</ele>
        <time>2020-06-14T15:39:26.000Z</time>
      </trkpt>
      <trkpt lat="44.58517" lon="4.67879">
        <ele>270.20001220703</ele>
        <time>2020-06-14T15:39:28.000Z</time>
      </trkpt>
      <trkpt lat="44.58516" lon="4.67879">
        <ele>269.60000610352</ele>
        <time>2020-06-14T15:39:29.000Z</time>
      </trkpt>
      <trkpt lat="44.58515" lon="4.67878">
        <ele>269</ele>
        <time>2020-06-14T15:39:30.000Z</time>
      </trkpt>
      <trkpt lat="44.58514" lon="4.67877">
        <ele>267.79998779297</ele>
        <time>2020-06-14T15:39:32.000Z</time>
      </trkpt>
      <trkpt lat="44.58512" lon="4.67877">
        <ele>266.79998779297</ele>
        <time>2020-06-14T15:39:35.000Z</time>
      </trkpt>
      <trkpt lat="44.58509" lon="4.67879">
        <ele>266.20001220703</ele>
        <time>2020-06-14T15:39:37.000Z</time>
      </trkpt>
      <trkpt lat="44.58503" lon="4.6788">
        <ele>265.60000610352</ele>
        <time>2020-06-14T15:39:40.000Z</time>
      </trkpt>
      <trkpt lat="44.58487" lon="4.67882">
        <ele>265</ele>
        <time>2020-06-14T15:39:45.000Z</time>
      </trkpt>
      <trkpt lat="44.58484" lon="4.67882">
        <ele>264.60000610352</ele>
        <time>2020-06-14T15:39:46.000Z</time>
      </trkpt>
      <trkpt lat="44.58479" lon="4.67883">
        <ele>263.60000610352</ele>
        <time>2020-06-14T15:39:48.000Z</time>
      </trkpt>
      <trkpt lat="44.58476" lon="4.67883">
        <ele>262.20001220703</ele>
        <time>2020-06-14T15:39:49.000Z</time>
      </trkpt>
      <trkpt lat="44.58473" lon="4.67884">
        <ele>261.79998779297</ele>
        <time>2020-06-14T15:39:50.000Z</time>
      </trkpt>
      <trkpt lat="44.58469" lon="4.67885">
        <ele>261.20001220703</ele>
        <time>2020-06-14T15:39:51.000Z</time>
      </trkpt>
      <trkpt lat="44.58462" lon="4.67886">
        <ele>259.79998779297</ele>
        <time>2020-06-14T15:39:53.000Z</time>
      </trkpt>
      <trkpt lat="44.58451" lon="4.67888">
        <ele>258.39999389648</ele>
        <time>2020-06-14T15:39:56.000Z</time>
      </trkpt>
      <trkpt lat="44.58443" lon="4.6789">
        <ele>257</ele>
        <time>2020-06-14T15:39:58.000Z</time>
      </trkpt>
      <trkpt lat="44.58436" lon="4.67893">
        <ele>255.39999389648</ele>
        <time>2020-06-14T15:40:00.000Z</time>
      </trkpt>
      <trkpt lat="44.58434" lon="4.67895">
        <ele>254.60000610352</ele>
        <time>2020-06-14T15:40:01.000Z</time>
      </trkpt>
      <trkpt lat="44.58432" lon="4.67898">
        <ele>254</ele>
        <time>2020-06-14T15:40:02.000Z</time>
      </trkpt>
      <trkpt lat="44.58431" lon="4.67901">
        <ele>253.39999389648</ele>
        <time>2020-06-14T15:40:03.000Z</time>
      </trkpt>
      <trkpt lat="44.58432" lon="4.67903">
        <ele>253</ele>
        <time>2020-06-14T15:40:04.000Z</time>
      </trkpt>
      <trkpt lat="44.58432" lon="4.67906">
        <ele>252</ele>
        <time>2020-06-14T15:40:05.000Z</time>
      </trkpt>
      <trkpt lat="44.58431" lon="4.67909">
        <ele>251</ele>
        <time>2020-06-14T15:40:06.000Z</time>
      </trkpt>
      <trkpt lat="44.58431" lon="4.67911">
        <ele>250</ele>
        <time>2020-06-14T15:40:07.000Z</time>
      </trkpt>
      <trkpt lat="44.5843" lon="4.67912">
        <ele>248.80000305176</ele>
        <time>2020-06-14T15:40:08.000Z</time>
      </trkpt>
      <trkpt lat="44.58428" lon="4.67912">
        <ele>248.19999694824</ele>
        <time>2020-06-14T15:40:09.000Z</time>
      </trkpt>
      <trkpt lat="44.58426" lon="4.67912">
        <ele>247.80000305176</ele>
        <time>2020-06-14T15:40:10.000Z</time>
      </trkpt>
      <trkpt lat="44.58418" lon="4.67911">
        <ele>247</ele>
        <time>2020-06-14T15:40:15.000Z</time>
      </trkpt>
      <trkpt lat="44.58416" lon="4.67911">
        <ele>247</ele>
        <time>2020-06-14T15:40:18.000Z</time>
      </trkpt>
      <trkpt lat="44.58413" lon="4.67911">
        <ele>247.19999694824</ele>
        <time>2020-06-14T15:40:41.000Z</time>
      </trkpt>
      <trkpt lat="44.58413" lon="4.67911">
        <ele>247.19999694824</ele>
        <time>2020-06-14T15:40:42.000Z</time>
      </trkpt>
      <trkpt lat="44.58403" lon="4.67908">
        <ele>247</ele>
        <time>2020-06-14T15:40:48.000Z</time>
      </trkpt>
      <trkpt lat="44.5839" lon="4.67909">
        <ele>246.80000305176</ele>
        <time>2020-06-14T15:40:53.000Z</time>
      </trkpt>
      <trkpt lat="44.5838" lon="4.67906">
        <ele>245.60000610352</ele>
        <time>2020-06-14T15:40:57.000Z</time>
      </trkpt>
      <trkpt lat="44.5837" lon="4.67907">
        <ele>244.39999389648</ele>
        <time>2020-06-14T15:41:00.000Z</time>
      </trkpt>
      <trkpt lat="44.58361" lon="4.67906">
        <ele>243.60000610352</ele>
        <time>2020-06-14T15:41:03.000Z</time>
      </trkpt>
      <trkpt lat="44.58358" lon="4.67906">
        <ele>243</ele>
        <time>2020-06-14T15:41:04.000Z</time>
      </trkpt>
      <trkpt lat="44.58352" lon="4.67908">
        <ele>242</ele>
        <time>2020-06-14T15:41:06.000Z</time>
      </trkpt>
      <trkpt lat="44.58344" lon="4.6791">
        <ele>240.39999389648</ele>
        <time>2020-06-14T15:41:09.000Z</time>
      </trkpt>
      <trkpt lat="44.5834" lon="4.6791">
        <ele>239</ele>
        <time>2020-06-14T15:41:11.000Z</time>
      </trkpt>
      <trkpt lat="44.58334" lon="4.67912">
        <ele>238</ele>
        <time>2020-06-14T15:41:13.000Z</time>
      </trkpt>
      <trkpt lat="44.58331" lon="4.67913">
        <ele>237.19999694824</ele>
        <time>2020-06-14T15:41:14.000Z</time>
      </trkpt>
      <trkpt lat="44.58328" lon="4.67913">
        <ele>236.19999694824</ele>
        <time>2020-06-14T15:41:15.000Z</time>
      </trkpt>
      <trkpt lat="44.58323" lon="4.67914">
        <ele>234.80000305176</ele>
        <time>2020-06-14T15:41:17.000Z</time>
      </trkpt>
      <trkpt lat="44.58317" lon="4.67916">
        <ele>233.60000610352</ele>
        <time>2020-06-14T15:41:19.000Z</time>
      </trkpt>
      <trkpt lat="44.5831" lon="4.67918">
        <ele>232</ele>
        <time>2020-06-14T15:41:22.000Z</time>
      </trkpt>
      <trkpt lat="44.58307" lon="4.67918">
        <ele>231.39999389648</ele>
        <time>2020-06-14T15:41:23.000Z</time>
      </trkpt>
      <trkpt lat="44.58304" lon="4.67919">
        <ele>230.60000610352</ele>
        <time>2020-06-14T15:41:24.000Z</time>
      </trkpt>
      <trkpt lat="44.58299" lon="4.6792">
        <ele>228.80000305176</ele>
        <time>2020-06-14T15:41:26.000Z</time>
      </trkpt>
      <trkpt lat="44.58298" lon="4.67919">
        <ele>227.80000305176</ele>
        <time>2020-06-14T15:41:27.000Z</time>
      </trkpt>
      <trkpt lat="44.58295" lon="4.67919">
        <ele>227.19999694824</ele>
        <time>2020-06-14T15:41:28.000Z</time>
      </trkpt>
      <trkpt lat="44.58288" lon="4.67916">
        <ele>225.80000305176</ele>
        <time>2020-06-14T15:41:30.000Z</time>
      </trkpt>
      <trkpt lat="44.58284" lon="4.67915">
        <ele>224.80000305176</ele>
        <time>2020-06-14T15:41:31.000Z</time>
      </trkpt>
      <trkpt lat="44.5828" lon="4.67914">
        <ele>223.80000305176</ele>
        <time>2020-06-14T15:41:32.000Z</time>
      </trkpt>
      <trkpt lat="44.58273" lon="4.67913">
        <ele>222.19999694824</ele>
        <time>2020-06-14T15:41:34.000Z</time>
      </trkpt>
      <trkpt lat="44.58271" lon="4.67913">
        <ele>221.60000610352</ele>
        <time>2020-06-14T15:41:35.000Z</time>
      </trkpt>
      <trkpt lat="44.5827" lon="4.67913">
        <ele>220.80000305176</ele>
        <time>2020-06-14T15:41:36.000Z</time>
      </trkpt>
      <trkpt lat="44.58268" lon="4.67913">
        <ele>219.19999694824</ele>
        <time>2020-06-14T15:41:38.000Z</time>
      </trkpt>
      <trkpt lat="44.58265" lon="4.67914">
        <ele>217.19999694824</ele>
        <time>2020-06-14T15:41:40.000Z</time>
      </trkpt>
      <trkpt lat="44.58262" lon="4.67914">
        <ele>215.39999389648</ele>
        <time>2020-06-14T15:41:42.000Z</time>
      </trkpt>
      <trkpt lat="44.5826" lon="4.67914">
        <ele>214</ele>
        <time>2020-06-14T15:41:43.000Z</time>
      </trkpt>
      <trkpt lat="44.58255" lon="4.67916">
        <ele>212.80000305176</ele>
        <time>2020-06-14T15:41:46.000Z</time>
      </trkpt>
      <trkpt lat="44.5825" lon="4.67919">
        <ele>212.19999694824</ele>
        <time>2020-06-14T15:41:48.000Z</time>
      </trkpt>
      <trkpt lat="44.58248" lon="4.67921">
        <ele>211.80000305176</ele>
        <time>2020-06-14T15:41:49.000Z</time>
      </trkpt>
      <trkpt lat="44.58243" lon="4.67925">
        <ele>210.60000610352</ele>
        <time>2020-06-14T15:41:52.000Z</time>
      </trkpt>
      <trkpt lat="44.58242" lon="4.67927">
        <ele>210</ele>
        <time>2020-06-14T15:41:53.000Z</time>
      </trkpt>
      <trkpt lat="44.58241" lon="4.67928">
        <ele>209.39999389648</ele>
        <time>2020-06-14T15:41:54.000Z</time>
      </trkpt>
      <trkpt lat="44.58238" lon="4.67931">
        <ele>208</ele>
        <time>2020-06-14T15:41:56.000Z</time>
      </trkpt>
      <trkpt lat="44.58234" lon="4.67937">
        <ele>207</ele>
        <time>2020-06-14T15:42:00.000Z</time>
      </trkpt>
      <trkpt lat="44.58232" lon="4.6794">
        <ele>207</ele>
        <time>2020-06-14T15:42:03.000Z</time>
      </trkpt>
      <trkpt lat="44.58229" lon="4.67943">
        <ele>207.19999694824</ele>
        <time>2020-06-14T15:42:09.000Z</time>
      </trkpt>
      <trkpt lat="44.58228" lon="4.67944">
        <ele>207.39999389648</ele>
        <time>2020-06-14T15:42:10.000Z</time>
      </trkpt>
      <trkpt lat="44.58221" lon="4.67958">
        <ele>208.19999694824</ele>
        <time>2020-06-14T15:42:17.000Z</time>
      </trkpt>
      <trkpt lat="44.58212" lon="4.67967">
        <ele>208.19999694824</ele>
        <time>2020-06-14T15:42:21.000Z</time>
      </trkpt>
      <trkpt lat="44.58203" lon="4.67984">
        <ele>208.19999694824</ele>
        <time>2020-06-14T15:42:26.000Z</time>
      </trkpt>
      <trkpt lat="44.58196" lon="4.67994">
        <ele>206.39999389648</ele>
        <time>2020-06-14T15:42:30.000Z</time>
      </trkpt>
      <trkpt lat="44.58192" lon="4.67997">
        <ele>205</ele>
        <time>2020-06-14T15:42:32.000Z</time>
      </trkpt>
      <trkpt lat="44.58188" lon="4.67999">
        <ele>203.80000305176</ele>
        <time>2020-06-14T15:42:34.000Z</time>
      </trkpt>
      <trkpt lat="44.58184" lon="4.68">
        <ele>202.60000610352</ele>
        <time>2020-06-14T15:42:36.000Z</time>
      </trkpt>
      <trkpt lat="44.58182" lon="4.67999">
        <ele>201.80000305176</ele>
        <time>2020-06-14T15:42:37.000Z</time>
      </trkpt>
      <trkpt lat="44.5818" lon="4.67999">
        <ele>201</ele>
        <time>2020-06-14T15:42:38.000Z</time>
      </trkpt>
      <trkpt lat="44.58178" lon="4.68002">
        <ele>198.39999389648</ele>
        <time>2020-06-14T15:42:40.000Z</time>
      </trkpt>
      <trkpt lat="44.58177" lon="4.68004">
        <ele>197.60000610352</ele>
        <time>2020-06-14T15:42:41.000Z</time>
      </trkpt>
      <trkpt lat="44.58176" lon="4.68007">
        <ele>196.80000305176</ele>
        <time>2020-06-14T15:42:42.000Z</time>
      </trkpt>
      <trkpt lat="44.58175" lon="4.68009">
        <ele>195.80000305176</ele>
        <time>2020-06-14T15:42:43.000Z</time>
      </trkpt>
      <trkpt lat="44.58173" lon="4.68011">
        <ele>194.60000610352</ele>
        <time>2020-06-14T15:42:44.000Z</time>
      </trkpt>
      <trkpt lat="44.58171" lon="4.68013">
        <ele>193.60000610352</ele>
        <time>2020-06-14T15:42:45.000Z</time>
      </trkpt>
      <trkpt lat="44.58168" lon="4.68016">
        <ele>191.60000610352</ele>
        <time>2020-06-14T15:42:47.000Z</time>
      </trkpt>
      <trkpt lat="44.58166" lon="4.6802">
        <ele>190.19999694824</ele>
        <time>2020-06-14T15:42:49.000Z</time>
      </trkpt>
      <trkpt lat="44.58166" lon="4.68025">
        <ele>188.80000305176</ele>
        <time>2020-06-14T15:42:51.000Z</time>
      </trkpt>
      <trkpt lat="44.58167" lon="4.68031">
        <ele>187.19999694824</ele>
        <time>2020-06-14T15:42:53.000Z</time>
      </trkpt>
      <trkpt lat="44.58168" lon="4.68039">
        <ele>185.39999389648</ele>
        <time>2020-06-14T15:42:55.000Z</time>
      </trkpt>
      <trkpt lat="44.58168" lon="4.68042">
        <ele>184.60000610352</ele>
        <time>2020-06-14T15:42:56.000Z</time>
      </trkpt>
      <trkpt lat="44.58167" lon="4.68044">
        <ele>184</ele>
        <time>2020-06-14T15:42:57.000Z</time>
      </trkpt>
      <trkpt lat="44.58165" lon="4.68052">
        <ele>183</ele>
        <time>2020-06-14T15:43:00.000Z</time>
      </trkpt>
      <trkpt lat="44.58164" lon="4.68054">
        <ele>182.39999389648</ele>
        <time>2020-06-14T15:43:01.000Z</time>
      </trkpt>
      <trkpt lat="44.58163" lon="4.68061">
        <ele>181.19999694824</ele>
        <time>2020-06-14T15:43:04.000Z</time>
      </trkpt>
      <trkpt lat="44.58161" lon="4.68066">
        <ele>180.39999389648</ele>
        <time>2020-06-14T15:43:07.000Z</time>
      </trkpt>
      <trkpt lat="44.5816" lon="4.68067">
        <ele>180.19999694824</ele>
        <time>2020-06-14T15:43:08.000Z</time>
      </trkpt>
      <trkpt lat="44.5816" lon="4.68067">
        <ele>180</ele>
        <time>2020-06-14T15:43:09.000Z</time>
      </trkpt>
      <trkpt lat="44.58155" lon="4.68073">
        <ele>179.19999694824</ele>
        <time>2020-06-14T15:43:16.000Z</time>
      </trkpt>
      <trkpt lat="44.58153" lon="4.68079">
        <ele>179</ele>
        <time>2020-06-14T15:43:19.000Z</time>
      </trkpt>
      <trkpt lat="44.58152" lon="4.68084">
        <ele>179</ele>
        <time>2020-06-14T15:43:21.000Z</time>
      </trkpt>
      <trkpt lat="44.5815" lon="4.6809">
        <ele>179</ele>
        <time>2020-06-14T15:43:24.000Z</time>
      </trkpt>
      <trkpt lat="44.5815" lon="4.68092">
        <ele>179</ele>
        <time>2020-06-14T15:43:25.000Z</time>
      </trkpt>
      <trkpt lat="44.58148" lon="4.68094">
        <ele>179</ele>
        <time>2020-06-14T15:43:27.000Z</time>
      </trkpt>
      <trkpt lat="44.58146" lon="4.68097">
        <ele>179</ele>
        <time>2020-06-14T15:43:30.000Z</time>
      </trkpt>
      <trkpt lat="44.58142" lon="4.68101">
        <ele>179.60000610352</ele>
        <time>2020-06-14T15:43:33.000Z</time>
      </trkpt>
      <trkpt lat="44.58139" lon="4.68103">
        <ele>179.80000305176</ele>
        <time>2020-06-14T15:43:35.000Z</time>
      </trkpt>
      <trkpt lat="44.58138" lon="4.68103">
        <ele>180</ele>
        <time>2020-06-14T15:43:36.000Z</time>
      </trkpt>
      <trkpt lat="44.58133" lon="4.68108">
        <ele>180.80000305176</ele>
        <time>2020-06-14T15:43:41.000Z</time>
      </trkpt>
      <trkpt lat="44.58132" lon="4.68109">
        <ele>181</ele>
        <time>2020-06-14T15:43:42.000Z</time>
      </trkpt>
      <trkpt lat="44.5813" lon="4.68111">
        <ele>181.80000305176</ele>
        <time>2020-06-14T15:43:45.000Z</time>
      </trkpt>
      <trkpt lat="44.58128" lon="4.68113">
        <ele>183.39999389648</ele>
        <time>2020-06-14T15:44:02.000Z</time>
      </trkpt>
      <trkpt lat="44.58127" lon="4.68113">
        <ele>183.39999389648</ele>
        <time>2020-06-14T15:44:03.000Z</time>
      </trkpt>
      <trkpt lat="44.58118" lon="4.68122">
        <ele>183.60000610352</ele>
        <time>2020-06-14T15:44:12.000Z</time>
      </trkpt>
      <trkpt lat="44.58114" lon="4.68129">
        <ele>184</ele>
        <time>2020-06-14T15:44:16.000Z</time>
      </trkpt>
      <trkpt lat="44.58114" lon="4.68131">
        <ele>184.19999694824</ele>
        <time>2020-06-14T15:44:17.000Z</time>
      </trkpt>
      <trkpt lat="44.58107" lon="4.68147">
        <ele>185.19999694824</ele>
        <time>2020-06-14T15:44:24.000Z</time>
      </trkpt>
      <trkpt lat="44.58107" lon="4.68149">
        <ele>185.19999694824</ele>
        <time>2020-06-14T15:44:25.000Z</time>
      </trkpt>
      <trkpt lat="44.58107" lon="4.68154">
        <ele>185.60000610352</ele>
        <time>2020-06-14T15:44:27.000Z</time>
      </trkpt>
      <trkpt lat="44.58106" lon="4.68156">
        <ele>185.80000305176</ele>
        <time>2020-06-14T15:44:28.000Z</time>
      </trkpt>
      <trkpt lat="44.58106" lon="4.68163">
        <ele>186.39999389648</ele>
        <time>2020-06-14T15:44:31.000Z</time>
      </trkpt>
      <trkpt lat="44.58106" lon="4.6817">
        <ele>187.39999389648</ele>
        <time>2020-06-14T15:44:34.000Z</time>
      </trkpt>
      <trkpt lat="44.58106" lon="4.68172">
        <ele>187.80000305176</ele>
        <time>2020-06-14T15:44:35.000Z</time>
      </trkpt>
      <trkpt lat="44.58106" lon="4.6818">
        <ele>188.80000305176</ele>
        <time>2020-06-14T15:44:39.000Z</time>
      </trkpt>
      <trkpt lat="44.58106" lon="4.68182">
        <ele>189</ele>
        <time>2020-06-14T15:44:40.000Z</time>
      </trkpt>
      <trkpt lat="44.58106" lon="4.68188">
        <ele>190</ele>
        <time>2020-06-14T15:44:43.000Z</time>
      </trkpt>
      <trkpt lat="44.58106" lon="4.68195">
        <ele>191</ele>
        <time>2020-06-14T15:44:47.000Z</time>
      </trkpt>
      <trkpt lat="44.58106" lon="4.68197">
        <ele>191.39999389648</ele>
        <time>2020-06-14T15:44:48.000Z</time>
      </trkpt>
      <trkpt lat="44.58106" lon="4.68203">
        <ele>192.39999389648</ele>
        <time>2020-06-14T15:44:52.000Z</time>
      </trkpt>
      <trkpt lat="44.58106" lon="4.68205">
        <ele>192.80000305176</ele>
        <time>2020-06-14T15:44:53.000Z</time>
      </trkpt>
      <trkpt lat="44.58106" lon="4.68209">
        <ele>193.60000610352</ele>
        <time>2020-06-14T15:44:56.000Z</time>
      </trkpt>
      <trkpt lat="44.58106" lon="4.68215">
        <ele>194.39999389648</ele>
        <time>2020-06-14T15:44:59.000Z</time>
      </trkpt>
      <trkpt lat="44.58105" lon="4.68217">
        <ele>194.60000610352</ele>
        <time>2020-06-14T15:45:00.000Z</time>
      </trkpt>
      <trkpt lat="44.58105" lon="4.68218">
        <ele>195</ele>
        <time>2020-06-14T15:45:01.000Z</time>
      </trkpt>
      <trkpt lat="44.58104" lon="4.68224">
        <ele>195.80000305176</ele>
        <time>2020-06-14T15:45:05.000Z</time>
      </trkpt>
      <trkpt lat="44.58103" lon="4.68228">
        <ele>196.19999694824</ele>
        <time>2020-06-14T15:45:07.000Z</time>
      </trkpt>
      <trkpt lat="44.58102" lon="4.68237">
        <ele>196.60000610352</ele>
        <time>2020-06-14T15:45:12.000Z</time>
      </trkpt>
      <trkpt lat="44.58101" lon="4.68245">
        <ele>197</ele>
        <time>2020-06-14T15:45:17.000Z</time>
      </trkpt>
      <trkpt lat="44.581" lon="4.68246">
        <ele>197.19999694824</ele>
        <time>2020-06-14T15:45:18.000Z</time>
      </trkpt>
      <trkpt lat="44.58101" lon="4.68259">
        <ele>198.39999389648</ele>
        <time>2020-06-14T15:45:25.000Z</time>
      </trkpt>
      <trkpt lat="44.581" lon="4.68266">
        <ele>199.39999389648</ele>
        <time>2020-06-14T15:45:29.000Z</time>
      </trkpt>
      <trkpt lat="44.58098" lon="4.68274">
        <ele>200.19999694824</ele>
        <time>2020-06-14T15:45:32.000Z</time>
      </trkpt>
      <trkpt lat="44.58093" lon="4.68286">
        <ele>200.39999389648</ele>
        <time>2020-06-14T15:45:35.000Z</time>
      </trkpt>
      <trkpt lat="44.58089" lon="4.68293">
        <ele>200.39999389648</ele>
        <time>2020-06-14T15:45:37.000Z</time>
      </trkpt>
      <trkpt lat="44.58083" lon="4.68306">
        <ele>200.60000610352</ele>
        <time>2020-06-14T15:45:42.000Z</time>
      </trkpt>
      <trkpt lat="44.58083" lon="4.68309">
        <ele>200.60000610352</ele>
        <time>2020-06-14T15:45:43.000Z</time>
      </trkpt>
      <trkpt lat="44.5808" lon="4.68324">
        <ele>201</ele>
        <time>2020-06-14T15:45:49.000Z</time>
      </trkpt>
      <trkpt lat="44.58072" lon="4.68334">
        <ele>201</ele>
        <time>2020-06-14T15:45:53.000Z</time>
      </trkpt>
      <trkpt lat="44.5807" lon="4.68338">
        <ele>201</ele>
        <time>2020-06-14T15:45:54.000Z</time>
      </trkpt>
      <trkpt lat="44.58071" lon="4.68345">
        <ele>201</ele>
        <time>2020-06-14T15:45:56.000Z</time>
      </trkpt>
      <trkpt lat="44.58067" lon="4.68349">
        <ele>201</ele>
        <time>2020-06-14T15:45:58.000Z</time>
      </trkpt>
      <trkpt lat="44.58054" lon="4.68349">
        <ele>199.60000610352</ele>
        <time>2020-06-14T15:46:01.000Z</time>
      </trkpt>
      <trkpt lat="44.58049" lon="4.6835">
        <ele>198.80000305176</ele>
        <time>2020-06-14T15:46:02.000Z</time>
      </trkpt>
      <trkpt lat="44.58044" lon="4.68352">
        <ele>198.39999389648</ele>
        <time>2020-06-14T15:46:03.000Z</time>
      </trkpt>
      <trkpt lat="44.58035" lon="4.6836">
        <ele>196.80000305176</ele>
        <time>2020-06-14T15:46:05.000Z</time>
      </trkpt>
      <trkpt lat="44.58031" lon="4.68365">
        <ele>196</ele>
        <time>2020-06-14T15:46:06.000Z</time>
      </trkpt>
      <trkpt lat="44.58028" lon="4.6837">
        <ele>195.39999389648</ele>
        <time>2020-06-14T15:46:07.000Z</time>
      </trkpt>
      <trkpt lat="44.5802" lon="4.68381">
        <ele>194.19999694824</ele>
        <time>2020-06-14T15:46:09.000Z</time>
      </trkpt>
      <trkpt lat="44.58012" lon="4.68391">
        <ele>193</ele>
        <time>2020-06-14T15:46:11.000Z</time>
      </trkpt>
      <trkpt lat="44.58004" lon="4.68402">
        <ele>191.80000305176</ele>
        <time>2020-06-14T15:46:13.000Z</time>
      </trkpt>
      <trkpt lat="44.58" lon="4.68408">
        <ele>191.39999389648</ele>
        <time>2020-06-14T15:46:14.000Z</time>
      </trkpt>
      <trkpt lat="44.57997" lon="4.68413">
        <ele>190.60000610352</ele>
        <time>2020-06-14T15:46:15.000Z</time>
      </trkpt>
      <trkpt lat="44.57994" lon="4.68419">
        <ele>190.19999694824</ele>
        <time>2020-06-14T15:46:16.000Z</time>
      </trkpt>
      <trkpt lat="44.57991" lon="4.68424">
        <ele>189.60000610352</ele>
        <time>2020-06-14T15:46:17.000Z</time>
      </trkpt>
      <trkpt lat="44.57984" lon="4.6843">
        <ele>188</ele>
        <time>2020-06-14T15:46:19.000Z</time>
      </trkpt>
      <trkpt lat="44.57977" lon="4.68433">
        <ele>186.60000610352</ele>
        <time>2020-06-14T15:46:21.000Z</time>
      </trkpt>
      <trkpt lat="44.57968" lon="4.68437">
        <ele>185.19999694824</ele>
        <time>2020-06-14T15:46:23.000Z</time>
      </trkpt>
      <trkpt lat="44.57957" lon="4.68442">
        <ele>183.80000305176</ele>
        <time>2020-06-14T15:46:25.000Z</time>
      </trkpt>
      <trkpt lat="44.57952" lon="4.68445">
        <ele>183.80000305176</ele>
        <time>2020-06-14T15:46:26.000Z</time>
      </trkpt>
      <trkpt lat="44.57947" lon="4.6845">
        <ele>183.39999389648</ele>
        <time>2020-06-14T15:46:27.000Z</time>
      </trkpt>
      <trkpt lat="44.57932" lon="4.6846">
        <ele>183</ele>
        <time>2020-06-14T15:46:30.000Z</time>
      </trkpt>
      <trkpt lat="44.57921" lon="4.68464">
        <ele>182.19999694824</ele>
        <time>2020-06-14T15:46:32.000Z</time>
      </trkpt>
      <trkpt lat="44.57908" lon="4.6847">
        <ele>181.39999389648</ele>
        <time>2020-06-14T15:46:34.000Z</time>
      </trkpt>
      <trkpt lat="44.57902" lon="4.68473">
        <ele>181</ele>
        <time>2020-06-14T15:46:35.000Z</time>
      </trkpt>
      <trkpt lat="44.57893" lon="4.68478">
        <ele>180.19999694824</ele>
        <time>2020-06-14T15:46:37.000Z</time>
      </trkpt>
      <trkpt lat="44.5789" lon="4.68482">
        <ele>180</ele>
        <time>2020-06-14T15:46:38.000Z</time>
      </trkpt>
      <trkpt lat="44.57884" lon="4.68493">
        <ele>178.39999389648</ele>
        <time>2020-06-14T15:46:41.000Z</time>
      </trkpt>
      <trkpt lat="44.57877" lon="4.68496">
        <ele>176.80000305176</ele>
        <time>2020-06-14T15:46:43.000Z</time>
      </trkpt>
      <trkpt lat="44.57874" lon="4.68496">
        <ele>176.19999694824</ele>
        <time>2020-06-14T15:46:44.000Z</time>
      </trkpt>
      <trkpt lat="44.57871" lon="4.68495">
        <ele>176</ele>
        <time>2020-06-14T15:46:45.000Z</time>
      </trkpt>
      <trkpt lat="44.57869" lon="4.68494">
        <ele>175.60000610352</ele>
        <time>2020-06-14T15:46:46.000Z</time>
      </trkpt>
      <trkpt lat="44.57864" lon="4.68492">
        <ele>174.60000610352</ele>
        <time>2020-06-14T15:46:49.000Z</time>
      </trkpt>
      <trkpt lat="44.57853" lon="4.6849">
        <ele>174.19999694824</ele>
        <time>2020-06-14T15:46:56.000Z</time>
      </trkpt>
      <trkpt lat="44.57843" lon="4.68491">
        <ele>175.80000305176</ele>
        <time>2020-06-14T15:47:02.000Z</time>
      </trkpt>
      <trkpt lat="44.57834" lon="4.68493">
        <ele>177</ele>
        <time>2020-06-14T15:47:07.000Z</time>
      </trkpt>
      <trkpt lat="44.57832" lon="4.68494">
        <ele>177.19999694824</ele>
        <time>2020-06-14T15:47:08.000Z</time>
      </trkpt>
      <trkpt lat="44.57828" lon="4.68496">
        <ele>178.19999694824</ele>
        <time>2020-06-14T15:47:12.000Z</time>
      </trkpt>
      <trkpt lat="44.57823" lon="4.68498">
        <ele>179.19999694824</ele>
        <time>2020-06-14T15:47:16.000Z</time>
      </trkpt>
      <trkpt lat="44.57822" lon="4.68498">
        <ele>179.39999389648</ele>
        <time>2020-06-14T15:47:17.000Z</time>
      </trkpt>
      <trkpt lat="44.57817" lon="4.68501">
        <ele>180.39999389648</ele>
        <time>2020-06-14T15:47:21.000Z</time>
      </trkpt>
      <trkpt lat="44.57815" lon="4.68502">
        <ele>181</ele>
        <time>2020-06-14T15:47:22.000Z</time>
      </trkpt>
      <trkpt lat="44.5781" lon="4.68503">
        <ele>181.60000610352</ele>
        <time>2020-06-14T15:47:25.000Z</time>
      </trkpt>
      <trkpt lat="44.57802" lon="4.68505">
        <ele>182.39999389648</ele>
        <time>2020-06-14T15:47:29.000Z</time>
      </trkpt>
      <trkpt lat="44.57798" lon="4.68506">
        <ele>182.60000610352</ele>
        <time>2020-06-14T15:47:31.000Z</time>
      </trkpt>
      <trkpt lat="44.57793" lon="4.68508">
        <ele>182.80000305176</ele>
        <time>2020-06-14T15:47:34.000Z</time>
      </trkpt>
      <trkpt lat="44.57781" lon="4.6851">
        <ele>183.19999694824</ele>
        <time>2020-06-14T15:47:40.000Z</time>
      </trkpt>
      <trkpt lat="44.57769" lon="4.68522">
        <ele>183.80000305176</ele>
        <time>2020-06-14T15:47:45.000Z</time>
      </trkpt>
      <trkpt lat="44.57767" lon="4.68525">
        <ele>184</ele>
        <time>2020-06-14T15:47:46.000Z</time>
      </trkpt>
      <trkpt lat="44.57758" lon="4.68536">
        <ele>184.39999389648</ele>
        <time>2020-06-14T15:47:52.000Z</time>
      </trkpt>
      <trkpt lat="44.57749" lon="4.68543">
        <ele>185</ele>
        <time>2020-06-14T15:47:59.000Z</time>
      </trkpt>
      <trkpt lat="44.57747" lon="4.68545">
        <ele>185.39999389648</ele>
        <time>2020-06-14T15:48:00.000Z</time>
      </trkpt>
      <trkpt lat="44.57746" lon="4.68545">
        <ele>185.80000305176</ele>
        <time>2020-06-14T15:48:01.000Z</time>
      </trkpt>
      <trkpt lat="44.57744" lon="4.68546">
        <ele>186.19999694824</ele>
        <time>2020-06-14T15:48:02.000Z</time>
      </trkpt>
      <trkpt lat="44.57738" lon="4.68546">
        <ele>187</ele>
        <time>2020-06-14T15:48:05.000Z</time>
      </trkpt>
      <trkpt lat="44.57728" lon="4.6854">
        <ele>187.19999694824</ele>
        <time>2020-06-14T15:48:10.000Z</time>
      </trkpt>
      <trkpt lat="44.57714" lon="4.68533">
        <ele>187.19999694824</ele>
        <time>2020-06-14T15:48:16.000Z</time>
      </trkpt>
      <trkpt lat="44.57703" lon="4.68527">
        <ele>186.60000610352</ele>
        <time>2020-06-14T15:48:20.000Z</time>
      </trkpt>
      <trkpt lat="44.577" lon="4.68522">
        <ele>186.19999694824</ele>
        <time>2020-06-14T15:48:22.000Z</time>
      </trkpt>
      <trkpt lat="44.57693" lon="4.68511">
        <ele>185.19999694824</ele>
        <time>2020-06-14T15:48:25.000Z</time>
      </trkpt>
      <trkpt lat="44.57691" lon="4.68507">
        <ele>185</ele>
        <time>2020-06-14T15:48:26.000Z</time>
      </trkpt>
      <trkpt lat="44.57685" lon="4.685">
        <ele>184.60000610352</ele>
        <time>2020-06-14T15:48:28.000Z</time>
      </trkpt>
      <trkpt lat="44.57679" lon="4.68492">
        <ele>184</ele>
        <time>2020-06-14T15:48:30.000Z</time>
      </trkpt>
      <trkpt lat="44.57676" lon="4.68488">
        <ele>182.80000305176</ele>
        <time>2020-06-14T15:48:32.000Z</time>
      </trkpt>
      <trkpt lat="44.57675" lon="4.68486">
        <ele>181.80000305176</ele>
        <time>2020-06-14T15:48:33.000Z</time>
      </trkpt>
      <trkpt lat="44.57672" lon="4.68477">
        <ele>180.19999694824</ele>
        <time>2020-06-14T15:48:35.000Z</time>
      </trkpt>
      <trkpt lat="44.57669" lon="4.68472">
        <ele>179.39999389648</ele>
        <time>2020-06-14T15:48:36.000Z</time>
      </trkpt>
      <trkpt lat="44.57666" lon="4.68467">
        <ele>178.80000305176</ele>
        <time>2020-06-14T15:48:37.000Z</time>
      </trkpt>
      <trkpt lat="44.5765" lon="4.68454">
        <ele>178</ele>
        <time>2020-06-14T15:48:40.000Z</time>
      </trkpt>
      <trkpt lat="44.57646" lon="4.68449">
        <ele>177.60000610352</ele>
        <time>2020-06-14T15:48:41.000Z</time>
      </trkpt>
      <trkpt lat="44.57639" lon="4.68438">
        <ele>176</ele>
        <time>2020-06-14T15:48:43.000Z</time>
      </trkpt>
      <trkpt lat="44.57636" lon="4.68433">
        <ele>174.80000305176</ele>
        <time>2020-06-14T15:48:44.000Z</time>
      </trkpt>
      <trkpt lat="44.57631" lon="4.68428">
        <ele>173.39999389648</ele>
        <time>2020-06-14T15:48:46.000Z</time>
      </trkpt>
      <trkpt lat="44.57629" lon="4.68426">
        <ele>171.19999694824</ele>
        <time>2020-06-14T15:48:47.000Z</time>
      </trkpt>
      <trkpt lat="44.57629" lon="4.68424">
        <ele>170.60000610352</ele>
        <time>2020-06-14T15:48:48.000Z</time>
      </trkpt>
      <trkpt lat="44.57628" lon="4.68421">
        <ele>170</ele>
        <time>2020-06-14T15:48:49.000Z</time>
      </trkpt>
      <trkpt lat="44.57631" lon="4.68411">
        <ele>169</ele>
        <time>2020-06-14T15:48:54.000Z</time>
      </trkpt>
      <trkpt lat="44.57634" lon="4.68401">
        <ele>167.39999389648</ele>
        <time>2020-06-14T15:48:57.000Z</time>
      </trkpt>
      <trkpt lat="44.57635" lon="4.68391">
        <ele>166</ele>
        <time>2020-06-14T15:48:59.000Z</time>
      </trkpt>
      <trkpt lat="44.57635" lon="4.68383">
        <ele>164.80000305176</ele>
        <time>2020-06-14T15:49:01.000Z</time>
      </trkpt>
      <trkpt lat="44.57636" lon="4.68373">
        <ele>163.19999694824</ele>
        <time>2020-06-14T15:49:03.000Z</time>
      </trkpt>
      <trkpt lat="44.57636" lon="4.68368">
        <ele>162.39999389648</ele>
        <time>2020-06-14T15:49:04.000Z</time>
      </trkpt>
      <trkpt lat="44.57636" lon="4.68364">
        <ele>161.60000610352</ele>
        <time>2020-06-14T15:49:05.000Z</time>
      </trkpt>
      <trkpt lat="44.57633" lon="4.68354">
        <ele>160</ele>
        <time>2020-06-14T15:49:07.000Z</time>
      </trkpt>
      <trkpt lat="44.5763" lon="4.68342">
        <ele>158.19999694824</ele>
        <time>2020-06-14T15:49:09.000Z</time>
      </trkpt>
      <trkpt lat="44.57631" lon="4.68334">
        <ele>156.80000305176</ele>
        <time>2020-06-14T15:49:11.000Z</time>
      </trkpt>
      <trkpt lat="44.5763" lon="4.68326">
        <ele>155.19999694824</ele>
        <time>2020-06-14T15:49:13.000Z</time>
      </trkpt>
      <trkpt lat="44.57631" lon="4.68323">
        <ele>154.39999389648</ele>
        <time>2020-06-14T15:49:14.000Z</time>
      </trkpt>
      <trkpt lat="44.57632" lon="4.6832">
        <ele>153.19999694824</ele>
        <time>2020-06-14T15:49:15.000Z</time>
      </trkpt>
      <trkpt lat="44.57632" lon="4.68315">
        <ele>152.19999694824</ele>
        <time>2020-06-14T15:49:17.000Z</time>
      </trkpt>
      <trkpt lat="44.57632" lon="4.68313">
        <ele>151.60000610352</ele>
        <time>2020-06-14T15:49:18.000Z</time>
      </trkpt>
      <trkpt lat="44.57631" lon="4.68312">
        <ele>150.80000305176</ele>
        <time>2020-06-14T15:49:19.000Z</time>
      </trkpt>
      <trkpt lat="44.57628" lon="4.68308">
        <ele>149.60000610352</ele>
        <time>2020-06-14T15:49:21.000Z</time>
      </trkpt>
      <trkpt lat="44.57626" lon="4.68307">
        <ele>149</ele>
        <time>2020-06-14T15:49:22.000Z</time>
      </trkpt>
      <trkpt lat="44.57623" lon="4.68305">
        <ele>148.39999389648</ele>
        <time>2020-06-14T15:49:23.000Z</time>
      </trkpt>
      <trkpt lat="44.57621" lon="4.68302">
        <ele>147.80000305176</ele>
        <time>2020-06-14T15:49:24.000Z</time>
      </trkpt>
      <trkpt lat="44.57619" lon="4.68297">
        <ele>147.39999389648</ele>
        <time>2020-06-14T15:49:25.000Z</time>
      </trkpt>
      <trkpt lat="44.57614" lon="4.68283">
        <ele>146.39999389648</ele>
        <time>2020-06-14T15:49:28.000Z</time>
      </trkpt>
      <trkpt lat="44.57612" lon="4.68275">
        <ele>146</ele>
        <time>2020-06-14T15:49:29.000Z</time>
      </trkpt>
      <trkpt lat="44.57609" lon="4.68262">
        <ele>144.80000305176</ele>
        <time>2020-06-14T15:49:31.000Z</time>
      </trkpt>
      <trkpt lat="44.57607" lon="4.68257">
        <ele>144</ele>
        <time>2020-06-14T15:49:32.000Z</time>
      </trkpt>
      <trkpt lat="44.57604" lon="4.68252">
        <ele>143</ele>
        <time>2020-06-14T15:49:33.000Z</time>
      </trkpt>
      <trkpt lat="44.57601" lon="4.68248">
        <ele>142</ele>
        <time>2020-06-14T15:49:34.000Z</time>
      </trkpt>
      <trkpt lat="44.57597" lon="4.68245">
        <ele>141.19999694824</ele>
        <time>2020-06-14T15:49:35.000Z</time>
      </trkpt>
      <trkpt lat="44.57585" lon="4.68238">
        <ele>139.80000305176</ele>
        <time>2020-06-14T15:49:37.000Z</time>
      </trkpt>
      <trkpt lat="44.57583" lon="4.68237">
        <ele>138.80000305176</ele>
        <time>2020-06-14T15:49:38.000Z</time>
      </trkpt>
      <trkpt lat="44.57582" lon="4.68239">
        <ele>137.39999389648</ele>
        <time>2020-06-14T15:49:40.000Z</time>
      </trkpt>
      <trkpt lat="44.57581" lon="4.68239">
        <ele>137.19999694824</ele>
        <time>2020-06-14T15:49:41.000Z</time>
      </trkpt>
      <trkpt lat="44.5758" lon="4.68239">
        <ele>137.19999694824</ele>
        <time>2020-06-14T15:49:42.000Z</time>
      </trkpt>
      <trkpt lat="44.57568" lon="4.68231">
        <ele>136.80000305176</ele>
        <time>2020-06-14T15:49:48.000Z</time>
      </trkpt>
      <trkpt lat="44.57564" lon="4.68225">
        <ele>136.60000610352</ele>
        <time>2020-06-14T15:49:51.000Z</time>
      </trkpt>
      <trkpt lat="44.57559" lon="4.68223">
        <ele>136.60000610352</ele>
        <time>2020-06-14T15:49:53.000Z</time>
      </trkpt>
      <trkpt lat="44.57548" lon="4.68225">
        <ele>136.39999389648</ele>
        <time>2020-06-14T15:49:57.000Z</time>
      </trkpt>
      <trkpt lat="44.57543" lon="4.68228">
        <ele>136.39999389648</ele>
        <time>2020-06-14T15:49:59.000Z</time>
      </trkpt>
      <trkpt lat="44.57535" lon="4.68234">
        <ele>135.60000610352</ele>
        <time>2020-06-14T15:50:03.000Z</time>
      </trkpt>
      <trkpt lat="44.57533" lon="4.68233">
        <ele>135.39999389648</ele>
        <time>2020-06-14T15:50:04.000Z</time>
      </trkpt>
      <trkpt lat="44.57529" lon="4.68233">
        <ele>135.39999389648</ele>
        <time>2020-06-14T15:50:05.000Z</time>
      </trkpt>
      <trkpt lat="44.57515" lon="4.68228">
        <ele>135.19999694824</ele>
        <time>2020-06-14T15:50:09.000Z</time>
      </trkpt>
      <trkpt lat="44.57498" lon="4.68221">
        <ele>135</ele>
        <time>2020-06-14T15:50:14.000Z</time>
      </trkpt>
      <trkpt lat="44.57496" lon="4.68222">
        <ele>134.39999389648</ele>
        <time>2020-06-14T15:50:17.000Z</time>
      </trkpt>
      <trkpt lat="44.57494" lon="4.68222">
        <ele>134.19999694824</ele>
        <time>2020-06-14T15:51:00.000Z</time>
      </trkpt>
      <trkpt lat="44.57488" lon="4.68225">
        <ele>134</ele>
        <time>2020-06-14T15:51:03.000Z</time>
      </trkpt>
      <trkpt lat="44.57467" lon="4.68228">
        <ele>134</ele>
        <time>2020-06-14T15:51:09.000Z</time>
      </trkpt>
      <trkpt lat="44.57463" lon="4.68227">
        <ele>133.80000305176</ele>
        <time>2020-06-14T15:51:10.000Z</time>
      </trkpt>
      <trkpt lat="44.57453" lon="4.68224">
        <ele>133.39999389648</ele>
        <time>2020-06-14T15:51:12.000Z</time>
      </trkpt>
      <trkpt lat="44.57443" lon="4.68222">
        <ele>133.19999694824</ele>
        <time>2020-06-14T15:51:14.000Z</time>
      </trkpt>
      <trkpt lat="44.57422" lon="4.68227">
        <ele>132.39999389648</ele>
        <time>2020-06-14T15:51:18.000Z</time>
      </trkpt>
      <trkpt lat="44.57417" lon="4.68229">
        <ele>132</ele>
        <time>2020-06-14T15:51:19.000Z</time>
      </trkpt>
      <trkpt lat="44.57409" lon="4.68239">
        <ele>131.39999389648</ele>
        <time>2020-06-14T15:51:21.000Z</time>
      </trkpt>
      <trkpt lat="44.57406" lon="4.68246">
        <ele>131</ele>
        <time>2020-06-14T15:51:22.000Z</time>
      </trkpt>
      <trkpt lat="44.57392" lon="4.68269">
        <ele>130.39999389648</ele>
        <time>2020-06-14T15:51:26.000Z</time>
      </trkpt>
      <trkpt lat="44.57387" lon="4.68273">
        <ele>130.19999694824</ele>
        <time>2020-06-14T15:51:27.000Z</time>
      </trkpt>
      <trkpt lat="44.57371" lon="4.68285">
        <ele>129.19999694824</ele>
        <time>2020-06-14T15:51:30.000Z</time>
      </trkpt>
      <trkpt lat="44.57354" lon="4.68297">
        <ele>128.60000610352</ele>
        <time>2020-06-14T15:51:33.000Z</time>
      </trkpt>
      <trkpt lat="44.57338" lon="4.68308">
        <ele>128.19999694824</ele>
        <time>2020-06-14T15:51:36.000Z</time>
      </trkpt>
      <trkpt lat="44.57327" lon="4.68314">
        <ele>127.80000305176</ele>
        <time>2020-06-14T15:51:38.000Z</time>
      </trkpt>
      <trkpt lat="44.57322" lon="4.68316">
        <ele>127.59999847412</ele>
        <time>2020-06-14T15:51:39.000Z</time>
      </trkpt>
      <trkpt lat="44.57302" lon="4.68334">
        <ele>127.19999694824</ele>
        <time>2020-06-14T15:51:43.000Z</time>
      </trkpt>
      <trkpt lat="44.57297" lon="4.68339">
        <ele>127</ele>
        <time>2020-06-14T15:51:44.000Z</time>
      </trkpt>
      <trkpt lat="44.57287" lon="4.68349">
        <ele>126.19999694824</ele>
        <time>2020-06-14T15:51:46.000Z</time>
      </trkpt>
      <trkpt lat="44.57266" lon="4.68368">
        <ele>125</ele>
        <time>2020-06-14T15:51:50.000Z</time>
      </trkpt>
      <trkpt lat="44.57256" lon="4.68377">
        <ele>124.59999847412</ele>
        <time>2020-06-14T15:51:52.000Z</time>
      </trkpt>
      <trkpt lat="44.57246" lon="4.68386">
        <ele>123.80000305176</ele>
        <time>2020-06-14T15:51:54.000Z</time>
      </trkpt>
      <trkpt lat="44.57229" lon="4.68399">
        <ele>122.40000152588</ele>
        <time>2020-06-14T15:51:57.000Z</time>
      </trkpt>
      <trkpt lat="44.57223" lon="4.68402">
        <ele>122.19999694824</ele>
        <time>2020-06-14T15:51:58.000Z</time>
      </trkpt>
      <trkpt lat="44.57192" lon="4.6842">
        <ele>121.59999847412</ele>
        <time>2020-06-14T15:52:03.000Z</time>
      </trkpt>
      <trkpt lat="44.57186" lon="4.68426">
        <ele>121.40000152588</ele>
        <time>2020-06-14T15:52:04.000Z</time>
      </trkpt>
      <trkpt lat="44.57181" lon="4.68432">
        <ele>121.19999694824</ele>
        <time>2020-06-14T15:52:05.000Z</time>
      </trkpt>
      <trkpt lat="44.57165" lon="4.68451">
        <ele>120.80000305176</ele>
        <time>2020-06-14T15:52:08.000Z</time>
      </trkpt>
      <trkpt lat="44.5716" lon="4.68457">
        <ele>120.19999694824</ele>
        <time>2020-06-14T15:52:09.000Z</time>
      </trkpt>
      <trkpt lat="44.57155" lon="4.68463">
        <ele>119.59999847412</ele>
        <time>2020-06-14T15:52:10.000Z</time>
      </trkpt>
      <trkpt lat="44.57151" lon="4.68469">
        <ele>119</ele>
        <time>2020-06-14T15:52:11.000Z</time>
      </trkpt>
      <trkpt lat="44.57143" lon="4.68483">
        <ele>118.19999694824</ele>
        <time>2020-06-14T15:52:13.000Z</time>
      </trkpt>
      <trkpt lat="44.57139" lon="4.6849">
        <ele>117.59999847412</ele>
        <time>2020-06-14T15:52:14.000Z</time>
      </trkpt>
      <trkpt lat="44.57132" lon="4.68505">
        <ele>117</ele>
        <time>2020-06-14T15:52:16.000Z</time>
      </trkpt>
      <trkpt lat="44.57126" lon="4.68521">
        <ele>116.59999847412</ele>
        <time>2020-06-14T15:52:18.000Z</time>
      </trkpt>
      <trkpt lat="44.57122" lon="4.68539">
        <ele>115.80000305176</ele>
        <time>2020-06-14T15:52:20.000Z</time>
      </trkpt>
      <trkpt lat="44.5712" lon="4.68548">
        <ele>115.40000152588</ele>
        <time>2020-06-14T15:52:21.000Z</time>
      </trkpt>
      <trkpt lat="44.57114" lon="4.68565">
        <ele>115</ele>
        <time>2020-06-14T15:52:23.000Z</time>
      </trkpt>
      <trkpt lat="44.5711" lon="4.68573">
        <ele>114.80000305176</ele>
        <time>2020-06-14T15:52:24.000Z</time>
      </trkpt>
      <trkpt lat="44.57098" lon="4.68599">
        <ele>114.40000152588</ele>
        <time>2020-06-14T15:52:27.000Z</time>
      </trkpt>
      <trkpt lat="44.57094" lon="4.68606">
        <ele>114.19999694824</ele>
        <time>2020-06-14T15:52:28.000Z</time>
      </trkpt>
      <trkpt lat="44.57088" lon="4.68612">
        <ele>114</ele>
        <time>2020-06-14T15:52:29.000Z</time>
      </trkpt>
      <trkpt lat="44.57065" lon="4.68633">
        <ele>113</ele>
        <time>2020-06-14T15:52:33.000Z</time>
      </trkpt>
      <trkpt lat="44.57054" lon="4.68644">
        <ele>111.59999847412</ele>
        <time>2020-06-14T15:52:35.000Z</time>
      </trkpt>
      <trkpt lat="44.57048" lon="4.68649">
        <ele>111.40000152588</ele>
        <time>2020-06-14T15:52:36.000Z</time>
      </trkpt>
      <trkpt lat="44.57037" lon="4.68657">
        <ele>111</ele>
        <time>2020-06-14T15:52:38.000Z</time>
      </trkpt>
      <trkpt lat="44.57027" lon="4.68655">
        <ele>110.59999847412</ele>
        <time>2020-06-14T15:52:40.000Z</time>
      </trkpt>
      <trkpt lat="44.57016" lon="4.6864">
        <ele>110</ele>
        <time>2020-06-14T15:52:43.000Z</time>
      </trkpt>
      <trkpt lat="44.57012" lon="4.6862">
        <ele>109.80000305176</ele>
        <time>2020-06-14T15:52:47.000Z</time>
      </trkpt>
      <trkpt lat="44.57004" lon="4.68589">
        <ele>110.40000152588</ele>
        <time>2020-06-14T15:52:54.000Z</time>
      </trkpt>
      <trkpt lat="44.56999" lon="4.68585">
        <ele>110.80000305176</ele>
        <time>2020-06-14T15:52:56.000Z</time>
      </trkpt>
      <trkpt lat="44.56994" lon="4.68586">
        <ele>111</ele>
        <time>2020-06-14T15:52:58.000Z</time>
      </trkpt>
      <trkpt lat="44.56986" lon="4.68594">
        <ele>111.80000305176</ele>
        <time>2020-06-14T15:53:01.000Z</time>
      </trkpt>
      <trkpt lat="44.56978" lon="4.68601">
        <ele>111.80000305176</ele>
        <time>2020-06-14T15:53:03.000Z</time>
      </trkpt>
      <trkpt lat="44.5697" lon="4.68609">
        <ele>111.80000305176</ele>
        <time>2020-06-14T15:53:05.000Z</time>
      </trkpt>
      <trkpt lat="44.56958" lon="4.68622">
        <ele>111.80000305176</ele>
        <time>2020-06-14T15:53:08.000Z</time>
      </trkpt>
      <trkpt lat="44.56946" lon="4.68637">
        <ele>111.59999847412</ele>
        <time>2020-06-14T15:53:11.000Z</time>
      </trkpt>
      <trkpt lat="44.56935" lon="4.68655">
        <ele>110.59999847412</ele>
        <time>2020-06-14T15:53:14.000Z</time>
      </trkpt>
      <trkpt lat="44.56921" lon="4.68679">
        <ele>109.40000152588</ele>
        <time>2020-06-14T15:53:18.000Z</time>
      </trkpt>
      <trkpt lat="44.56914" lon="4.68692">
        <ele>109.19999694824</ele>
        <time>2020-06-14T15:53:20.000Z</time>
      </trkpt>
      <trkpt lat="44.56901" lon="4.68714">
        <ele>109</ele>
        <time>2020-06-14T15:53:23.000Z</time>
      </trkpt>
      <trkpt lat="44.56893" lon="4.68731">
        <ele>108.59999847412</ele>
        <time>2020-06-14T15:53:25.000Z</time>
      </trkpt>
      <trkpt lat="44.5688" lon="4.68765">
        <ele>108.19999694824</ele>
        <time>2020-06-14T15:53:29.000Z</time>
      </trkpt>
      <trkpt lat="44.56874" lon="4.68782">
        <ele>107</ele>
        <time>2020-06-14T15:53:31.000Z</time>
      </trkpt>
      <trkpt lat="44.56863" lon="4.68817">
        <ele>105.80000305176</ele>
        <time>2020-06-14T15:53:35.000Z</time>
      </trkpt>
      <trkpt lat="44.56852" lon="4.68852">
        <ele>105.19999694824</ele>
        <time>2020-06-14T15:53:39.000Z</time>
      </trkpt>
      <trkpt lat="44.56846" lon="4.68869">
        <ele>104.80000305176</ele>
        <time>2020-06-14T15:53:41.000Z</time>
      </trkpt>
      <trkpt lat="44.56829" lon="4.68922">
        <ele>103.80000305176</ele>
        <time>2020-06-14T15:53:47.000Z</time>
      </trkpt>
      <trkpt lat="44.56826" lon="4.68931">
        <ele>103.59999847412</ele>
        <time>2020-06-14T15:53:48.000Z</time>
      </trkpt>
      <trkpt lat="44.56806" lon="4.68979">
        <ele>103</ele>
        <time>2020-06-14T15:53:54.000Z</time>
      </trkpt>
      <trkpt lat="44.56799" lon="4.68994">
        <ele>102.59999847412</ele>
        <time>2020-06-14T15:53:56.000Z</time>
      </trkpt>
      <trkpt lat="44.56793" lon="4.6901">
        <ele>101.59999847412</ele>
        <time>2020-06-14T15:53:58.000Z</time>
      </trkpt>
      <trkpt lat="44.56785" lon="4.69035">
        <ele>101</ele>
        <time>2020-06-14T15:54:01.000Z</time>
      </trkpt>
      <trkpt lat="44.56783" lon="4.69043">
        <ele>100.59999847412</ele>
        <time>2020-06-14T15:54:02.000Z</time>
      </trkpt>
      <trkpt lat="44.56775" lon="4.6908">
        <ele>100</ele>
        <time>2020-06-14T15:54:07.000Z</time>
      </trkpt>
      <trkpt lat="44.56773" lon="4.69086">
        <ele>99.599998474121</ele>
        <time>2020-06-14T15:54:08.000Z</time>
      </trkpt>
      <trkpt lat="44.56766" lon="4.6909">
        <ele>99.400001525879</ele>
        <time>2020-06-14T15:54:10.000Z</time>
      </trkpt>
      <trkpt lat="44.56753" lon="4.69084">
        <ele>99.199996948242</ele>
        <time>2020-06-14T15:54:14.000Z</time>
      </trkpt>
      <trkpt lat="44.56731" lon="4.69069">
        <ele>100.80000305176</ele>
        <time>2020-06-14T15:54:20.000Z</time>
      </trkpt>
      <trkpt lat="44.56723" lon="4.69063">
        <ele>101.80000305176</ele>
        <time>2020-06-14T15:54:22.000Z</time>
      </trkpt>
      <trkpt lat="44.56718" lon="4.69061">
        <ele>102</ele>
        <time>2020-06-14T15:54:23.000Z</time>
      </trkpt>
      <trkpt lat="44.56688" lon="4.6904">
        <ele>102.19999694824</ele>
        <time>2020-06-14T15:54:30.000Z</time>
      </trkpt>
      <trkpt lat="44.56653" lon="4.69012">
        <ele>102.40000152588</ele>
        <time>2020-06-14T15:54:38.000Z</time>
      </trkpt>
      <trkpt lat="44.56626" lon="4.68987">
        <ele>102</ele>
        <time>2020-06-14T15:54:44.000Z</time>
      </trkpt>
      <trkpt lat="44.5659" lon="4.68961">
        <ele>101.19999694824</ele>
        <time>2020-06-14T15:54:51.000Z</time>
      </trkpt>
      <trkpt lat="44.56584" lon="4.68958">
        <ele>100.80000305176</ele>
        <time>2020-06-14T15:54:52.000Z</time>
      </trkpt>
      <trkpt lat="44.56548" lon="4.68944">
        <ele>100.19999694824</ele>
        <time>2020-06-14T15:54:58.000Z</time>
      </trkpt>
      <trkpt lat="44.56542" lon="4.68943">
        <ele>100</ele>
        <time>2020-06-14T15:54:59.000Z</time>
      </trkpt>
      <trkpt lat="44.56536" lon="4.68941">
        <ele>99.800003051758</ele>
        <time>2020-06-14T15:55:00.000Z</time>
      </trkpt>
      <trkpt lat="44.56532" lon="4.6894">
        <ele>99.599998474121</ele>
        <time>2020-06-14T15:55:01.000Z</time>
      </trkpt>
      <trkpt lat="44.56528" lon="4.68942">
        <ele>99.400001525879</ele>
        <time>2020-06-14T15:55:02.000Z</time>
      </trkpt>
      <trkpt lat="44.56523" lon="4.68963">
        <ele>98.800003051758</ele>
        <time>2020-06-14T15:55:05.000Z</time>
      </trkpt>
      <trkpt lat="44.56522" lon="4.68971">
        <ele>98.599998474121</ele>
        <time>2020-06-14T15:55:06.000Z</time>
      </trkpt>
      <trkpt lat="44.56519" lon="4.6902">
        <ele>98</ele>
        <time>2020-06-14T15:55:12.000Z</time>
      </trkpt>
      <trkpt lat="44.56519" lon="4.69028">
        <ele>97.599998474121</ele>
        <time>2020-06-14T15:55:13.000Z</time>
      </trkpt>
      <trkpt lat="44.56515" lon="4.69063">
        <ele>96.800003051758</ele>
        <time>2020-06-14T15:55:18.000Z</time>
      </trkpt>
      <trkpt lat="44.56506" lon="4.69079">
        <ele>96.800003051758</ele>
        <time>2020-06-14T15:55:21.000Z</time>
      </trkpt>
      <trkpt lat="44.5649" lon="4.6908">
        <ele>96.800003051758</ele>
        <time>2020-06-14T15:55:24.000Z</time>
      </trkpt>
      <trkpt lat="44.56478" lon="4.69079">
        <ele>96.800003051758</ele>
        <time>2020-06-14T15:55:26.000Z</time>
      </trkpt>
      <trkpt lat="44.56439" lon="4.69077">
        <ele>96</ele>
        <time>2020-06-14T15:55:32.000Z</time>
      </trkpt>
      <trkpt lat="44.56419" lon="4.69077">
        <ele>95.800003051758</ele>
        <time>2020-06-14T15:55:35.000Z</time>
      </trkpt>
      <trkpt lat="44.56412" lon="4.69078">
        <ele>95.599998474121</ele>
        <time>2020-06-14T15:55:36.000Z</time>
      </trkpt>
      <trkpt lat="44.56389" lon="4.69086">
        <ele>94.599998474121</ele>
        <time>2020-06-14T15:55:39.000Z</time>
      </trkpt>
      <trkpt lat="44.56382" lon="4.69089">
        <ele>94.400001525879</ele>
        <time>2020-06-14T15:55:40.000Z</time>
      </trkpt>
      <trkpt lat="44.56374" lon="4.69094">
        <ele>94.199996948242</ele>
        <time>2020-06-14T15:55:41.000Z</time>
      </trkpt>
      <trkpt lat="44.56353" lon="4.69112">
        <ele>93.800003051758</ele>
        <time>2020-06-14T15:55:44.000Z</time>
      </trkpt>
      <trkpt lat="44.56347" lon="4.69119">
        <ele>93.400001525879</ele>
        <time>2020-06-14T15:55:45.000Z</time>
      </trkpt>
      <trkpt lat="44.56335" lon="4.69134">
        <ele>92.400001525879</ele>
        <time>2020-06-14T15:55:47.000Z</time>
      </trkpt>
      <trkpt lat="44.5633" lon="4.69142">
        <ele>91.800003051758</ele>
        <time>2020-06-14T15:55:48.000Z</time>
      </trkpt>
      <trkpt lat="44.56325" lon="4.69151">
        <ele>91.199996948242</ele>
        <time>2020-06-14T15:55:49.000Z</time>
      </trkpt>
      <trkpt lat="44.56315" lon="4.69169">
        <ele>90.599998474121</ele>
        <time>2020-06-14T15:55:51.000Z</time>
      </trkpt>
      <trkpt lat="44.5631" lon="4.69176">
        <ele>89.599998474121</ele>
        <time>2020-06-14T15:55:52.000Z</time>
      </trkpt>
      <trkpt lat="44.56295" lon="4.69197">
        <ele>88.400001525879</ele>
        <time>2020-06-14T15:55:55.000Z</time>
      </trkpt>
      <trkpt lat="44.56283" lon="4.6923">
        <ele>87.800003051758</ele>
        <time>2020-06-14T15:55:59.000Z</time>
      </trkpt>
      <trkpt lat="44.56267" lon="4.69273">
        <ele>87.599998474121</ele>
        <time>2020-06-14T15:56:05.000Z</time>
      </trkpt>
      <trkpt lat="44.56259" lon="4.69282">
        <ele>87.400001525879</ele>
        <time>2020-06-14T15:56:07.000Z</time>
      </trkpt>
      <trkpt lat="44.56255" lon="4.69285">
        <ele>87.400001525879</ele>
        <time>2020-06-14T15:56:08.000Z</time>
      </trkpt>
      <trkpt lat="44.56241" lon="4.69281">
        <ele>87.400001525879</ele>
        <time>2020-06-14T15:56:11.000Z</time>
      </trkpt>
      <trkpt lat="44.56233" lon="4.69274">
        <ele>87.400001525879</ele>
        <time>2020-06-14T15:56:13.000Z</time>
      </trkpt>
      <trkpt lat="44.56215" lon="4.69256">
        <ele>88.400001525879</ele>
        <time>2020-06-14T15:56:18.000Z</time>
      </trkpt>
      <trkpt lat="44.56212" lon="4.69252">
        <ele>88.800003051758</ele>
        <time>2020-06-14T15:56:19.000Z</time>
      </trkpt>
      <trkpt lat="44.56205" lon="4.69245">
        <ele>89.599998474121</ele>
        <time>2020-06-14T15:56:21.000Z</time>
      </trkpt>
      <trkpt lat="44.56194" lon="4.69233">
        <ele>90</ele>
        <time>2020-06-14T15:56:24.000Z</time>
      </trkpt>
      <trkpt lat="44.5619" lon="4.6923">
        <ele>90.199996948242</ele>
        <time>2020-06-14T15:56:25.000Z</time>
      </trkpt>
      <trkpt lat="44.56156" lon="4.69207">
        <ele>91.199996948242</ele>
        <time>2020-06-14T15:56:33.000Z</time>
      </trkpt>
      <trkpt lat="44.56119" lon="4.69188">
        <ele>91.199996948242</ele>
        <time>2020-06-14T15:56:41.000Z</time>
      </trkpt>
      <trkpt lat="44.56078" lon="4.69165">
        <ele>91.199996948242</ele>
        <time>2020-06-14T15:56:49.000Z</time>
      </trkpt>
      <trkpt lat="44.5603" lon="4.69134">
        <ele>91</ele>
        <time>2020-06-14T15:56:58.000Z</time>
      </trkpt>
      <trkpt lat="44.55987" lon="4.69104">
        <ele>90.599998474121</ele>
        <time>2020-06-14T15:57:06.000Z</time>
      </trkpt>
      <trkpt lat="44.55946" lon="4.6908">
        <ele>90.599998474121</ele>
        <time>2020-06-14T15:57:14.000Z</time>
      </trkpt>
      <trkpt lat="44.5593" lon="4.69071">
        <ele>90.599998474121</ele>
        <time>2020-06-14T15:57:17.000Z</time>
      </trkpt>
      <trkpt lat="44.55921" lon="4.69061">
        <ele>90.800003051758</ele>
        <time>2020-06-14T15:57:19.000Z</time>
      </trkpt>
      <trkpt lat="44.55906" lon="4.69053">
        <ele>91</ele>
        <time>2020-06-14T15:57:22.000Z</time>
      </trkpt>
      <trkpt lat="44.55896" lon="4.69061">
        <ele>91</ele>
        <time>2020-06-14T15:57:24.000Z</time>
      </trkpt>
      <trkpt lat="44.55891" lon="4.69065">
        <ele>91</ele>
        <time>2020-06-14T15:57:25.000Z</time>
      </trkpt>
      <trkpt lat="44.55873" lon="4.69069">
        <ele>91</ele>
        <time>2020-06-14T15:57:28.000Z</time>
      </trkpt>
      <trkpt lat="44.55856" lon="4.69062">
        <ele>90.599998474121</ele>
        <time>2020-06-14T15:57:31.000Z</time>
      </trkpt>
      <trkpt lat="44.5585" lon="4.69059">
        <ele>90.599998474121</ele>
        <time>2020-06-14T15:57:32.000Z</time>
      </trkpt>
      <trkpt lat="44.55799" lon="4.6903">
        <ele>90.599998474121</ele>
        <time>2020-06-14T15:57:41.000Z</time>
      </trkpt>
      <trkpt lat="44.55794" lon="4.69027">
        <ele>90.800003051758</ele>
        <time>2020-06-14T15:57:42.000Z</time>
      </trkpt>
      <trkpt lat="44.55773" lon="4.69012">
        <ele>91</ele>
        <time>2020-06-14T15:57:46.000Z</time>
      </trkpt>
      <trkpt lat="44.55763" lon="4.69">
        <ele>91</ele>
        <time>2020-06-14T15:57:48.000Z</time>
      </trkpt>
      <trkpt lat="44.55756" lon="4.68987">
        <ele>91</ele>
        <time>2020-06-14T15:57:50.000Z</time>
      </trkpt>
      <trkpt lat="44.55745" lon="4.68966">
        <ele>91</ele>
        <time>2020-06-14T15:57:53.000Z</time>
      </trkpt>
      <trkpt lat="44.55736" lon="4.68944">
        <ele>91</ele>
        <time>2020-06-14T15:57:56.000Z</time>
      </trkpt>
      <trkpt lat="44.55729" lon="4.68931">
        <ele>91</ele>
        <time>2020-06-14T15:57:58.000Z</time>
      </trkpt>
      <trkpt lat="44.55719" lon="4.68918">
        <ele>91</ele>
        <time>2020-06-14T15:58:00.000Z</time>
      </trkpt>
      <trkpt lat="44.5569" lon="4.68883">
        <ele>90.800003051758</ele>
        <time>2020-06-14T15:58:06.000Z</time>
      </trkpt>
      <trkpt lat="44.5568" lon="4.6887">
        <ele>90.400001525879</ele>
        <time>2020-06-14T15:58:08.000Z</time>
      </trkpt>
      <trkpt lat="44.55648" lon="4.68836">
        <ele>89.400001525879</ele>
        <time>2020-06-14T15:58:14.000Z</time>
      </trkpt>
      <trkpt lat="44.55643" lon="4.6883">
        <ele>89</ele>
        <time>2020-06-14T15:58:15.000Z</time>
      </trkpt>
      <trkpt lat="44.55621" lon="4.68813">
        <ele>88.400001525879</ele>
        <time>2020-06-14T15:58:19.000Z</time>
      </trkpt>
      <trkpt lat="44.55609" lon="4.68806">
        <ele>88</ele>
        <time>2020-06-14T15:58:21.000Z</time>
      </trkpt>
      <trkpt lat="44.55597" lon="4.68802">
        <ele>87.800003051758</ele>
        <time>2020-06-14T15:58:23.000Z</time>
      </trkpt>
      <trkpt lat="44.55586" lon="4.68801">
        <ele>87.400001525879</ele>
        <time>2020-06-14T15:58:25.000Z</time>
      </trkpt>
      <trkpt lat="44.5558" lon="4.68802">
        <ele>87.400001525879</ele>
        <time>2020-06-14T15:58:26.000Z</time>
      </trkpt>
      <trkpt lat="44.55574" lon="4.68804">
        <ele>87.400001525879</ele>
        <time>2020-06-14T15:58:27.000Z</time>
      </trkpt>
      <trkpt lat="44.55567" lon="4.68804">
        <ele>87.400001525879</ele>
        <time>2020-06-14T15:58:28.000Z</time>
      </trkpt>
      <trkpt lat="44.55561" lon="4.68804">
        <ele>87</ele>
        <time>2020-06-14T15:58:29.000Z</time>
      </trkpt>
      <trkpt lat="44.55543" lon="4.68798">
        <ele>87</ele>
        <time>2020-06-14T15:58:32.000Z</time>
      </trkpt>
      <trkpt lat="44.55532" lon="4.688">
        <ele>87</ele>
        <time>2020-06-14T15:58:34.000Z</time>
      </trkpt>
      <trkpt lat="44.55516" lon="4.68822">
        <ele>87</ele>
        <time>2020-06-14T15:58:38.000Z</time>
      </trkpt>
      <trkpt lat="44.5551" lon="4.68835">
        <ele>87</ele>
        <time>2020-06-14T15:58:40.000Z</time>
      </trkpt>
      <trkpt lat="44.55498" lon="4.68868">
        <ele>87.400001525879</ele>
        <time>2020-06-14T15:58:45.000Z</time>
      </trkpt>
      <trkpt lat="44.55495" lon="4.68874">
        <ele>87.599998474121</ele>
        <time>2020-06-14T15:58:46.000Z</time>
      </trkpt>
      <trkpt lat="44.55487" lon="4.68881">
        <ele>87.800003051758</ele>
        <time>2020-06-14T15:58:48.000Z</time>
      </trkpt>
      <trkpt lat="44.55462" lon="4.68897">
        <ele>88.599998474121</ele>
        <time>2020-06-14T15:58:54.000Z</time>
      </trkpt>
      <trkpt lat="44.55458" lon="4.68898">
        <ele>88.800003051758</ele>
        <time>2020-06-14T15:58:55.000Z</time>
      </trkpt>
      <trkpt lat="44.5544" lon="4.68892">
        <ele>89.599998474121</ele>
        <time>2020-06-14T15:58:59.000Z</time>
      </trkpt>
      <trkpt lat="44.55436" lon="4.6889">
        <ele>89.599998474121</ele>
        <time>2020-06-14T15:59:00.000Z</time>
      </trkpt>
      <trkpt lat="44.55428" lon="4.68888">
        <ele>89.800003051758</ele>
        <time>2020-06-14T15:59:02.000Z</time>
      </trkpt>
      <trkpt lat="44.55423" lon="4.68886">
        <ele>90</ele>
        <time>2020-06-14T15:59:03.000Z</time>
      </trkpt>
      <trkpt lat="44.55402" lon="4.68869">
        <ele>90.400001525879</ele>
        <time>2020-06-14T15:59:08.000Z</time>
      </trkpt>
      <trkpt lat="44.55394" lon="4.68849">
        <ele>90.800003051758</ele>
        <time>2020-06-14T15:59:11.000Z</time>
      </trkpt>
      <trkpt lat="44.55388" lon="4.68836">
        <ele>91.199996948242</ele>
        <time>2020-06-14T15:59:13.000Z</time>
      </trkpt>
      <trkpt lat="44.55374" lon="4.68824">
        <ele>91.400001525879</ele>
        <time>2020-06-14T15:59:16.000Z</time>
      </trkpt>
      <trkpt lat="44.55357" lon="4.68825">
        <ele>91.599998474121</ele>
        <time>2020-06-14T15:59:19.000Z</time>
      </trkpt>
      <trkpt lat="44.55346" lon="4.68835">
        <ele>91.599998474121</ele>
        <time>2020-06-14T15:59:21.000Z</time>
      </trkpt>
      <trkpt lat="44.55342" lon="4.68841">
        <ele>91.400001525879</ele>
        <time>2020-06-14T15:59:22.000Z</time>
      </trkpt>
      <trkpt lat="44.5533" lon="4.68874">
        <ele>91.400001525879</ele>
        <time>2020-06-14T15:59:26.000Z</time>
      </trkpt>
      <trkpt lat="44.55327" lon="4.68882">
        <ele>91.400001525879</ele>
        <time>2020-06-14T15:59:27.000Z</time>
      </trkpt>
      <trkpt lat="44.55315" lon="4.68902">
        <ele>90</ele>
        <time>2020-06-14T15:59:30.000Z</time>
      </trkpt>
      <trkpt lat="44.55312" lon="4.68909">
        <ele>89.800003051758</ele>
        <time>2020-06-14T15:59:31.000Z</time>
      </trkpt>
      <trkpt lat="44.55302" lon="4.68939">
        <ele>89</ele>
        <time>2020-06-14T15:59:35.000Z</time>
      </trkpt>
      <trkpt lat="44.55294" lon="4.68961">
        <ele>88.800003051758</ele>
        <time>2020-06-14T15:59:38.000Z</time>
      </trkpt>
      <trkpt lat="44.55283" lon="4.68994">
        <ele>88.800003051758</ele>
        <time>2020-06-14T15:59:43.000Z</time>
      </trkpt>
      <trkpt lat="44.5528" lon="4.69">
        <ele>88.800003051758</ele>
        <time>2020-06-14T15:59:44.000Z</time>
      </trkpt>
      <trkpt lat="44.5527" lon="4.69013">
        <ele>89.199996948242</ele>
        <time>2020-06-14T15:59:47.000Z</time>
      </trkpt>
      <trkpt lat="44.55254" lon="4.69009">
        <ele>89.599998474121</ele>
        <time>2020-06-14T15:59:50.000Z</time>
      </trkpt>
      <trkpt lat="44.55235" lon="4.69014">
        <ele>89.599998474121</ele>
        <time>2020-06-14T15:59:53.000Z</time>
      </trkpt>
      <trkpt lat="44.55196" lon="4.69028">
        <ele>89.199996948242</ele>
        <time>2020-06-14T15:59:59.000Z</time>
      </trkpt>
      <trkpt lat="44.55189" lon="4.69029">
        <ele>88.800003051758</ele>
        <time>2020-06-14T16:00:00.000Z</time>
      </trkpt>
      <trkpt lat="44.55144" lon="4.69024">
        <ele>88.400001525879</ele>
        <time>2020-06-14T16:00:07.000Z</time>
      </trkpt>
      <trkpt lat="44.55107" lon="4.69015">
        <ele>88.599998474121</ele>
        <time>2020-06-14T16:00:13.000Z</time>
      </trkpt>
      <trkpt lat="44.55063" lon="4.69">
        <ele>88.599998474121</ele>
        <time>2020-06-14T16:00:20.000Z</time>
      </trkpt>
      <trkpt lat="44.55007" lon="4.68975">
        <ele>88.199996948242</ele>
        <time>2020-06-14T16:00:29.000Z</time>
      </trkpt>
      <trkpt lat="44.54989" lon="4.68967">
        <ele>87.800003051758</ele>
        <time>2020-06-14T16:00:32.000Z</time>
      </trkpt>
      <trkpt lat="44.54944" lon="4.6895">
        <ele>87.400001525879</ele>
        <time>2020-06-14T16:00:39.000Z</time>
      </trkpt>
      <trkpt lat="44.54903" lon="4.68936">
        <ele>87.400001525879</ele>
        <time>2020-06-14T16:00:46.000Z</time>
      </trkpt>
      <trkpt lat="44.54876" lon="4.68927">
        <ele>87.800003051758</ele>
        <time>2020-06-14T16:00:51.000Z</time>
      </trkpt>
      <trkpt lat="44.54865" lon="4.68924">
        <ele>87.800003051758</ele>
        <time>2020-06-14T16:00:53.000Z</time>
      </trkpt>
      <trkpt lat="44.54827" lon="4.68915">
        <ele>88.400001525879</ele>
        <time>2020-06-14T16:01:00.000Z</time>
      </trkpt>
      <trkpt lat="44.54782" lon="4.68909">
        <ele>88.599998474121</ele>
        <time>2020-06-14T16:01:08.000Z</time>
      </trkpt>
      <trkpt lat="44.54769" lon="4.68903">
        <ele>88.599998474121</ele>
        <time>2020-06-14T16:01:12.000Z</time>
      </trkpt>
      <trkpt lat="44.54777" lon="4.68891">
        <ele>88.599998474121</ele>
        <time>2020-06-14T16:01:15.000Z</time>
      </trkpt>
      <trkpt lat="44.5478" lon="4.68878">
        <ele>88.400001525879</ele>
        <time>2020-06-14T16:01:17.000Z</time>
      </trkpt>
      <trkpt lat="44.54773" lon="4.6887">
        <ele>88.400001525879</ele>
        <time>2020-06-14T16:01:19.000Z</time>
      </trkpt>
      <trkpt lat="44.54765" lon="4.68875">
        <ele>88.199996948242</ele>
        <time>2020-06-14T16:01:21.000Z</time>
      </trkpt>
      <trkpt lat="44.54762" lon="4.6888">
        <ele>86.800003051758</ele>
        <time>2020-06-14T16:01:24.000Z</time>
      </trkpt>
      <trkpt lat="44.54762" lon="4.6888">
        <ele>86.400001525879</ele>
        <time>2020-06-14T16:01:25.000Z</time>
      </trkpt>
    </trkseg>
  </trk>
</gpx>